<?xml version="1.0" encoding="UTF-8" standalone="no" ?>
<gpx xmlns="http://www.topografix.com/GPX/1/1" xmlns:xsi="http://www.w3.org/2001/XMLSchema-instance" xsi:schemaLocation="http://www.topografix.com/GPX/1/1 http://www.topografix.com/GPX/1/1/gpx.xsd" version="1.1" creator="VisuGPX - https://www.visugpx.com">
  <metadata>
    <name>But Saint Genix</name>
    <desc><![CDATA[But Saint Genix]]></desc>
  </metadata>
  <trk>
    <name><![CDATA[but st genix]]></name>
    <trkseg>
      <trkpt lat="44.75113" lon="5.37348">
        <ele>406</ele>
        <time>2012-04-09T06:43:45Z</time>
      </trkpt>
      <trkpt lat="44.75109" lon="5.37346">
        <ele>406</ele>
        <time>2012-04-09T06:43:49Z</time>
      </trkpt>
      <trkpt lat="44.75109" lon="5.37335">
        <ele>406</ele>
        <time>2012-04-09T06:43:55Z</time>
      </trkpt>
      <trkpt lat="44.75114" lon="5.37326">
        <ele>405</ele>
        <time>2012-04-09T06:43:59Z</time>
      </trkpt>
      <trkpt lat="44.75129" lon="5.37318">
        <ele>405</ele>
        <time>2012-04-09T06:44:08Z</time>
      </trkpt>
      <trkpt lat="44.75137" lon="5.37317">
        <ele>406</ele>
        <time>2012-04-09T06:44:13Z</time>
      </trkpt>
      <trkpt lat="44.75143" lon="5.37313">
        <ele>406</ele>
        <time>2012-04-09T06:44:17Z</time>
      </trkpt>
      <trkpt lat="44.75151" lon="5.37309">
        <ele>406</ele>
        <time>2012-04-09T06:44:22Z</time>
      </trkpt>
      <trkpt lat="44.75156" lon="5.37308">
        <ele>406</ele>
        <time>2012-04-09T06:44:27Z</time>
      </trkpt>
      <trkpt lat="44.75155" lon="5.37305">
        <ele>406</ele>
        <time>2012-04-09T06:44:29Z</time>
      </trkpt>
      <trkpt lat="44.75151" lon="5.37277">
        <ele>407</ele>
        <time>2012-04-09T06:44:38Z</time>
      </trkpt>
      <trkpt lat="44.75153" lon="5.3727">
        <ele>407</ele>
        <time>2012-04-09T06:44:40Z</time>
      </trkpt>
      <trkpt lat="44.75164" lon="5.37271">
        <ele>407</ele>
        <time>2012-04-09T06:44:45Z</time>
      </trkpt>
      <trkpt lat="44.75182" lon="5.3729">
        <ele>411</ele>
        <time>2012-04-09T06:44:55Z</time>
      </trkpt>
      <trkpt lat="44.75198" lon="5.37306">
        <ele>411</ele>
        <time>2012-04-09T06:45:03Z</time>
      </trkpt>
      <trkpt lat="44.75213" lon="5.37308">
        <ele>412</ele>
        <time>2012-04-09T06:45:08Z</time>
      </trkpt>
      <trkpt lat="44.7522" lon="5.37291">
        <ele>413</ele>
        <time>2012-04-09T06:45:13Z</time>
      </trkpt>
      <trkpt lat="44.75212" lon="5.37274">
        <ele>413</ele>
        <time>2012-04-09T06:45:18Z</time>
      </trkpt>
      <trkpt lat="44.75193" lon="5.37257">
        <ele>412</ele>
        <time>2012-04-09T06:45:25Z</time>
      </trkpt>
      <trkpt lat="44.75184" lon="5.37237">
        <ele>414</ele>
        <time>2012-04-09T06:45:30Z</time>
      </trkpt>
      <trkpt lat="44.75182" lon="5.37216">
        <ele>415</ele>
        <time>2012-04-09T06:45:35Z</time>
      </trkpt>
      <trkpt lat="44.75182" lon="5.37192">
        <ele>416</ele>
        <time>2012-04-09T06:45:41Z</time>
      </trkpt>
      <trkpt lat="44.75182" lon="5.37188">
        <ele>416</ele>
        <time>2012-04-09T06:45:42Z</time>
      </trkpt>
      <trkpt lat="44.75173" lon="5.37175">
        <ele>416</ele>
        <time>2012-04-09T06:45:47Z</time>
      </trkpt>
      <trkpt lat="44.75174" lon="5.37151">
        <ele>417</ele>
        <time>2012-04-09T06:45:54Z</time>
      </trkpt>
      <trkpt lat="44.75181" lon="5.3713">
        <ele>418</ele>
        <time>2012-04-09T06:46:01Z</time>
      </trkpt>
      <trkpt lat="44.7519" lon="5.37129">
        <ele>418</ele>
        <time>2012-04-09T06:46:05Z</time>
      </trkpt>
      <trkpt lat="44.75192" lon="5.37132">
        <ele>418</ele>
        <time>2012-04-09T06:46:06Z</time>
      </trkpt>
      <trkpt lat="44.75205" lon="5.37149">
        <ele>418</ele>
        <time>2012-04-09T06:46:12Z</time>
      </trkpt>
      <trkpt lat="44.75219" lon="5.37155">
        <ele>419</ele>
        <time>2012-04-09T06:46:17Z</time>
      </trkpt>
      <trkpt lat="44.75233" lon="5.37148">
        <ele>419</ele>
        <time>2012-04-09T06:46:22Z</time>
      </trkpt>
      <trkpt lat="44.75238" lon="5.37143">
        <ele>419</ele>
        <time>2012-04-09T06:46:26Z</time>
      </trkpt>
      <trkpt lat="44.7524" lon="5.37141">
        <ele>419</ele>
        <time>2012-04-09T06:46:28Z</time>
      </trkpt>
      <trkpt lat="44.75245" lon="5.37141">
        <ele>419</ele>
        <time>2012-04-09T06:46:35Z</time>
      </trkpt>
      <trkpt lat="44.75249" lon="5.37144">
        <ele>419</ele>
        <time>2012-04-09T06:49:24Z</time>
      </trkpt>
      <trkpt lat="44.75253" lon="5.37136">
        <ele>420</ele>
        <time>2012-04-09T06:49:28Z</time>
      </trkpt>
      <trkpt lat="44.75256" lon="5.37109">
        <ele>420</ele>
        <time>2012-04-09T06:49:35Z</time>
      </trkpt>
      <trkpt lat="44.75266" lon="5.37096">
        <ele>421</ele>
        <time>2012-04-09T06:49:39Z</time>
      </trkpt>
      <trkpt lat="44.75277" lon="5.37094">
        <ele>420</ele>
        <time>2012-04-09T06:49:43Z</time>
      </trkpt>
      <trkpt lat="44.75291" lon="5.37104">
        <ele>420</ele>
        <time>2012-04-09T06:49:48Z</time>
      </trkpt>
      <trkpt lat="44.75294" lon="5.37109">
        <ele>420</ele>
        <time>2012-04-09T06:49:49Z</time>
      </trkpt>
      <trkpt lat="44.75322" lon="5.37137">
        <ele>420</ele>
        <time>2012-04-09T06:49:57Z</time>
      </trkpt>
      <trkpt lat="44.75338" lon="5.37154">
        <ele>421</ele>
        <time>2012-04-09T06:50:02Z</time>
      </trkpt>
      <trkpt lat="44.75355" lon="5.3714">
        <ele>421</ele>
        <time>2012-04-09T06:50:07Z</time>
      </trkpt>
      <trkpt lat="44.75361" lon="5.37133">
        <ele>421</ele>
        <time>2012-04-09T06:50:09Z</time>
      </trkpt>
      <trkpt lat="44.75374" lon="5.37134">
        <ele>421</ele>
        <time>2012-04-09T06:50:12Z</time>
      </trkpt>
      <trkpt lat="44.75386" lon="5.37148">
        <ele>421</ele>
        <time>2012-04-09T06:50:16Z</time>
      </trkpt>
      <trkpt lat="44.754" lon="5.37139">
        <ele>421</ele>
        <time>2012-04-09T06:50:20Z</time>
      </trkpt>
      <trkpt lat="44.75414" lon="5.37105">
        <ele>421</ele>
        <time>2012-04-09T06:50:26Z</time>
      </trkpt>
      <trkpt lat="44.75436" lon="5.3708">
        <ele>420</ele>
        <time>2012-04-09T06:50:32Z</time>
      </trkpt>
      <trkpt lat="44.75462" lon="5.37043">
        <ele>420</ele>
        <time>2012-04-09T06:50:40Z</time>
      </trkpt>
      <trkpt lat="44.75469" lon="5.37032">
        <ele>420</ele>
        <time>2012-04-09T06:50:42Z</time>
      </trkpt>
      <trkpt lat="44.75478" lon="5.37017">
        <ele>420</ele>
        <time>2012-04-09T06:50:45Z</time>
      </trkpt>
      <trkpt lat="44.75494" lon="5.36993">
        <ele>420</ele>
        <time>2012-04-09T06:50:50Z</time>
      </trkpt>
      <trkpt lat="44.75512" lon="5.36958">
        <ele>418</ele>
        <time>2012-04-09T06:50:57Z</time>
      </trkpt>
      <trkpt lat="44.75521" lon="5.36935">
        <ele>418</ele>
        <time>2012-04-09T06:51:01Z</time>
      </trkpt>
      <trkpt lat="44.75542" lon="5.36905">
        <ele>416</ele>
        <time>2012-04-09T06:51:07Z</time>
      </trkpt>
      <trkpt lat="44.75563" lon="5.36866">
        <ele>415</ele>
        <time>2012-04-09T06:51:14Z</time>
      </trkpt>
      <trkpt lat="44.75587" lon="5.36823">
        <ele>411</ele>
        <time>2012-04-09T06:51:21Z</time>
      </trkpt>
      <trkpt lat="44.75604" lon="5.36799">
        <ele>410</ele>
        <time>2012-04-09T06:51:25Z</time>
      </trkpt>
      <trkpt lat="44.7563" lon="5.36749">
        <ele>407</ele>
        <time>2012-04-09T06:51:32Z</time>
      </trkpt>
      <trkpt lat="44.75662" lon="5.36693">
        <ele>406</ele>
        <time>2012-04-09T06:51:39Z</time>
      </trkpt>
      <trkpt lat="44.7571" lon="5.36609">
        <ele>403</ele>
        <time>2012-04-09T06:51:49Z</time>
      </trkpt>
      <trkpt lat="44.75746" lon="5.36546">
        <ele>400</ele>
        <time>2012-04-09T06:51:56Z</time>
      </trkpt>
      <trkpt lat="44.75789" lon="5.36472">
        <ele>399</ele>
        <time>2012-04-09T06:52:05Z</time>
      </trkpt>
      <trkpt lat="44.75823" lon="5.36406">
        <ele>398</ele>
        <time>2012-04-09T06:52:13Z</time>
      </trkpt>
      <trkpt lat="44.75868" lon="5.36329">
        <ele>397</ele>
        <time>2012-04-09T06:52:23Z</time>
      </trkpt>
      <trkpt lat="44.75908" lon="5.36252">
        <ele>397</ele>
        <time>2012-04-09T06:52:33Z</time>
      </trkpt>
      <trkpt lat="44.75937" lon="5.36189">
        <ele>397</ele>
        <time>2012-04-09T06:52:41Z</time>
      </trkpt>
      <trkpt lat="44.75965" lon="5.3615">
        <ele>397</ele>
        <time>2012-04-09T06:52:47Z</time>
      </trkpt>
      <trkpt lat="44.76009" lon="5.36095">
        <ele>397</ele>
        <time>2012-04-09T06:52:56Z</time>
      </trkpt>
      <trkpt lat="44.76051" lon="5.36043">
        <ele>398</ele>
        <time>2012-04-09T06:53:05Z</time>
      </trkpt>
      <trkpt lat="44.76081" lon="5.3601">
        <ele>398</ele>
        <time>2012-04-09T06:53:12Z</time>
      </trkpt>
      <trkpt lat="44.76102" lon="5.35979">
        <ele>398</ele>
        <time>2012-04-09T06:53:18Z</time>
      </trkpt>
      <trkpt lat="44.76131" lon="5.35939">
        <ele>398</ele>
        <time>2012-04-09T06:53:25Z</time>
      </trkpt>
      <trkpt lat="44.7617" lon="5.35889">
        <ele>398</ele>
        <time>2012-04-09T06:53:34Z</time>
      </trkpt>
      <trkpt lat="44.7621" lon="5.35836">
        <ele>397</ele>
        <time>2012-04-09T06:53:43Z</time>
      </trkpt>
      <trkpt lat="44.76263" lon="5.3577">
        <ele>396</ele>
        <time>2012-04-09T06:53:54Z</time>
      </trkpt>
      <trkpt lat="44.76307" lon="5.35717">
        <ele>395</ele>
        <time>2012-04-09T06:54:03Z</time>
      </trkpt>
      <trkpt lat="44.76352" lon="5.35666">
        <ele>395</ele>
        <time>2012-04-09T06:54:12Z</time>
      </trkpt>
      <trkpt lat="44.764" lon="5.35608">
        <ele>395</ele>
        <time>2012-04-09T06:54:22Z</time>
      </trkpt>
      <trkpt lat="44.76456" lon="5.35537">
        <ele>394</ele>
        <time>2012-04-09T06:54:34Z</time>
      </trkpt>
      <trkpt lat="44.76511" lon="5.3547">
        <ele>393</ele>
        <time>2012-04-09T06:54:45Z</time>
      </trkpt>
      <trkpt lat="44.76569" lon="5.35395">
        <ele>392</ele>
        <time>2012-04-09T06:54:57Z</time>
      </trkpt>
      <trkpt lat="44.76629" lon="5.35315">
        <ele>393</ele>
        <time>2012-04-09T06:55:10Z</time>
      </trkpt>
      <trkpt lat="44.76674" lon="5.35253">
        <ele>394</ele>
        <time>2012-04-09T06:55:20Z</time>
      </trkpt>
      <trkpt lat="44.7672" lon="5.35188">
        <ele>390</ele>
        <time>2012-04-09T06:55:30Z</time>
      </trkpt>
      <trkpt lat="44.76772" lon="5.35121">
        <ele>388</ele>
        <time>2012-04-09T06:55:40Z</time>
      </trkpt>
      <trkpt lat="44.76816" lon="5.35074">
        <ele>388</ele>
        <time>2012-04-09T06:55:48Z</time>
      </trkpt>
      <trkpt lat="44.76851" lon="5.35038">
        <ele>392</ele>
        <time>2012-04-09T06:55:55Z</time>
      </trkpt>
      <trkpt lat="44.76855" lon="5.35033">
        <ele>392</ele>
        <time>2012-04-09T06:55:56Z</time>
      </trkpt>
      <trkpt lat="44.76874" lon="5.35025">
        <ele>392</ele>
        <time>2012-04-09T06:56:00Z</time>
      </trkpt>
      <trkpt lat="44.76879" lon="5.35027">
        <ele>392</ele>
        <time>2012-04-09T06:56:01Z</time>
      </trkpt>
      <trkpt lat="44.76904" lon="5.35039">
        <ele>393</ele>
        <time>2012-04-09T06:56:07Z</time>
      </trkpt>
      <trkpt lat="44.76926" lon="5.3504">
        <ele>395</ele>
        <time>2012-04-09T06:56:12Z</time>
      </trkpt>
      <trkpt lat="44.76936" lon="5.35039">
        <ele>395</ele>
        <time>2012-04-09T06:56:14Z</time>
      </trkpt>
      <trkpt lat="44.76947" lon="5.35033">
        <ele>395</ele>
        <time>2012-04-09T06:56:17Z</time>
      </trkpt>
      <trkpt lat="44.76958" lon="5.35023">
        <ele>394</ele>
        <time>2012-04-09T06:56:20Z</time>
      </trkpt>
      <trkpt lat="44.76995" lon="5.34975">
        <ele>394</ele>
        <time>2012-04-09T06:56:30Z</time>
      </trkpt>
      <trkpt lat="44.77038" lon="5.34923">
        <ele>398</ele>
        <time>2012-04-09T06:56:41Z</time>
      </trkpt>
      <trkpt lat="44.77074" lon="5.34873">
        <ele>397</ele>
        <time>2012-04-09T06:56:51Z</time>
      </trkpt>
      <trkpt lat="44.77095" lon="5.34833">
        <ele>398</ele>
        <time>2012-04-09T06:56:58Z</time>
      </trkpt>
      <trkpt lat="44.77114" lon="5.34782">
        <ele>400</ele>
        <time>2012-04-09T06:57:06Z</time>
      </trkpt>
      <trkpt lat="44.77142" lon="5.34729">
        <ele>399</ele>
        <time>2012-04-09T06:57:15Z</time>
      </trkpt>
      <trkpt lat="44.77151" lon="5.34719">
        <ele>399</ele>
        <time>2012-04-09T06:57:17Z</time>
      </trkpt>
      <trkpt lat="44.77175" lon="5.34707">
        <ele>400</ele>
        <time>2012-04-09T06:57:22Z</time>
      </trkpt>
      <trkpt lat="44.77185" lon="5.34709">
        <ele>400</ele>
        <time>2012-04-09T06:57:24Z</time>
      </trkpt>
      <trkpt lat="44.77228" lon="5.34727">
        <ele>401</ele>
        <time>2012-04-09T06:57:33Z</time>
      </trkpt>
      <trkpt lat="44.77267" lon="5.34737">
        <ele>401</ele>
        <time>2012-04-09T06:57:41Z</time>
      </trkpt>
      <trkpt lat="44.77304" lon="5.34751">
        <ele>404</ele>
        <time>2012-04-09T06:57:49Z</time>
      </trkpt>
      <trkpt lat="44.77338" lon="5.34778">
        <ele>404</ele>
        <time>2012-04-09T06:57:57Z</time>
      </trkpt>
      <trkpt lat="44.77377" lon="5.34803">
        <ele>405</ele>
        <time>2012-04-09T06:58:06Z</time>
      </trkpt>
      <trkpt lat="44.77421" lon="5.34823">
        <ele>406</ele>
        <time>2012-04-09T06:58:16Z</time>
      </trkpt>
      <trkpt lat="44.77455" lon="5.34836">
        <ele>408</ele>
        <time>2012-04-09T06:58:24Z</time>
      </trkpt>
      <trkpt lat="44.77481" lon="5.34844">
        <ele>407</ele>
        <time>2012-04-09T06:58:29Z</time>
      </trkpt>
      <trkpt lat="44.77523" lon="5.34873">
        <ele>407</ele>
        <time>2012-04-09T06:58:38Z</time>
      </trkpt>
      <trkpt lat="44.77562" lon="5.34892">
        <ele>407</ele>
        <time>2012-04-09T06:58:46Z</time>
      </trkpt>
      <trkpt lat="44.77595" lon="5.349">
        <ele>407</ele>
        <time>2012-04-09T06:58:53Z</time>
      </trkpt>
      <trkpt lat="44.77609" lon="5.34901">
        <ele>408</ele>
        <time>2012-04-09T06:58:56Z</time>
      </trkpt>
      <trkpt lat="44.77646" lon="5.34896">
        <ele>408</ele>
        <time>2012-04-09T06:59:04Z</time>
      </trkpt>
      <trkpt lat="44.77677" lon="5.34908">
        <ele>410</ele>
        <time>2012-04-09T06:59:11Z</time>
      </trkpt>
      <trkpt lat="44.77701" lon="5.34924">
        <ele>410</ele>
        <time>2012-04-09T06:59:17Z</time>
      </trkpt>
      <trkpt lat="44.77734" lon="5.3495">
        <ele>411</ele>
        <time>2012-04-09T06:59:26Z</time>
      </trkpt>
      <trkpt lat="44.77745" lon="5.34965">
        <ele>411</ele>
        <time>2012-04-09T06:59:30Z</time>
      </trkpt>
      <trkpt lat="44.77771" lon="5.35008">
        <ele>415</ele>
        <time>2012-04-09T06:59:39Z</time>
      </trkpt>
      <trkpt lat="44.77798" lon="5.35038">
        <ele>416</ele>
        <time>2012-04-09T06:59:47Z</time>
      </trkpt>
      <trkpt lat="44.77826" lon="5.35056">
        <ele>416</ele>
        <time>2012-04-09T06:59:54Z</time>
      </trkpt>
      <trkpt lat="44.77862" lon="5.35066">
        <ele>417</ele>
        <time>2012-04-09T07:00:02Z</time>
      </trkpt>
      <trkpt lat="44.77899" lon="5.35072">
        <ele>417</ele>
        <time>2012-04-09T07:00:10Z</time>
      </trkpt>
      <trkpt lat="44.77953" lon="5.35083">
        <ele>418</ele>
        <time>2012-04-09T07:00:22Z</time>
      </trkpt>
      <trkpt lat="44.77988" lon="5.35095">
        <ele>420</ele>
        <time>2012-04-09T07:00:30Z</time>
      </trkpt>
      <trkpt lat="44.78" lon="5.35102">
        <ele>420</ele>
        <time>2012-04-09T07:00:33Z</time>
      </trkpt>
      <trkpt lat="44.78028" lon="5.35128">
        <ele>421</ele>
        <time>2012-04-09T07:00:41Z</time>
      </trkpt>
      <trkpt lat="44.78052" lon="5.3515">
        <ele>422</ele>
        <time>2012-04-09T07:00:48Z</time>
      </trkpt>
      <trkpt lat="44.78081" lon="5.35171">
        <ele>424</ele>
        <time>2012-04-09T07:00:56Z</time>
      </trkpt>
      <trkpt lat="44.7811" lon="5.35187">
        <ele>428</ele>
        <time>2012-04-09T07:01:04Z</time>
      </trkpt>
      <trkpt lat="44.78141" lon="5.35192">
        <ele>428</ele>
        <time>2012-04-09T07:01:12Z</time>
      </trkpt>
      <trkpt lat="44.78166" lon="5.3519">
        <ele>428</ele>
        <time>2012-04-09T07:01:19Z</time>
      </trkpt>
      <trkpt lat="44.78184" lon="5.35188">
        <ele>431</ele>
        <time>2012-04-09T07:01:24Z</time>
      </trkpt>
      <trkpt lat="44.78202" lon="5.35182">
        <ele>431</ele>
        <time>2012-04-09T07:01:29Z</time>
      </trkpt>
      <trkpt lat="44.78226" lon="5.35178">
        <ele>431</ele>
        <time>2012-04-09T07:01:36Z</time>
      </trkpt>
      <trkpt lat="44.78243" lon="5.35184">
        <ele>431</ele>
        <time>2012-04-09T07:01:42Z</time>
      </trkpt>
      <trkpt lat="44.78264" lon="5.35186">
        <ele>435</ele>
        <time>2012-04-09T07:01:49Z</time>
      </trkpt>
      <trkpt lat="44.78286" lon="5.35173">
        <ele>437</ele>
        <time>2012-04-09T07:01:57Z</time>
      </trkpt>
      <trkpt lat="44.78309" lon="5.35168">
        <ele>438</ele>
        <time>2012-04-09T07:02:05Z</time>
      </trkpt>
      <trkpt lat="44.78341" lon="5.35166">
        <ele>436</ele>
        <time>2012-04-09T07:02:16Z</time>
      </trkpt>
      <trkpt lat="44.78369" lon="5.35165">
        <ele>437</ele>
        <time>2012-04-09T07:02:26Z</time>
      </trkpt>
      <trkpt lat="44.78389" lon="5.35165">
        <ele>439</ele>
        <time>2012-04-09T07:02:33Z</time>
      </trkpt>
      <trkpt lat="44.78413" lon="5.3516">
        <ele>443</ele>
        <time>2012-04-09T07:02:42Z</time>
      </trkpt>
      <trkpt lat="44.78439" lon="5.35152">
        <ele>445</ele>
        <time>2012-04-09T07:02:52Z</time>
      </trkpt>
      <trkpt lat="44.7846" lon="5.35145">
        <ele>446</ele>
        <time>2012-04-09T07:03:01Z</time>
      </trkpt>
      <trkpt lat="44.78484" lon="5.3514">
        <ele>447</ele>
        <time>2012-04-09T07:03:11Z</time>
      </trkpt>
      <trkpt lat="44.78508" lon="5.35134">
        <ele>451</ele>
        <time>2012-04-09T07:03:21Z</time>
      </trkpt>
      <trkpt lat="44.78532" lon="5.3513">
        <ele>451</ele>
        <time>2012-04-09T07:03:31Z</time>
      </trkpt>
      <trkpt lat="44.78557" lon="5.35133">
        <ele>452</ele>
        <time>2012-04-09T07:03:41Z</time>
      </trkpt>
      <trkpt lat="44.7858" lon="5.3514">
        <ele>454</ele>
        <time>2012-04-09T07:03:51Z</time>
      </trkpt>
      <trkpt lat="44.78603" lon="5.35152">
        <ele>457</ele>
        <time>2012-04-09T07:04:01Z</time>
      </trkpt>
      <trkpt lat="44.78622" lon="5.35166">
        <ele>456</ele>
        <time>2012-04-09T07:04:10Z</time>
      </trkpt>
      <trkpt lat="44.78639" lon="5.35178">
        <ele>469</ele>
        <time>2012-04-09T07:04:18Z</time>
      </trkpt>
      <trkpt lat="44.78656" lon="5.35187">
        <ele>469</ele>
        <time>2012-04-09T07:04:26Z</time>
      </trkpt>
      <trkpt lat="44.78677" lon="5.35204">
        <ele>473</ele>
        <time>2012-04-09T07:04:36Z</time>
      </trkpt>
      <trkpt lat="44.78694" lon="5.35207">
        <ele>475</ele>
        <time>2012-04-09T07:04:43Z</time>
      </trkpt>
      <trkpt lat="44.7871" lon="5.35203">
        <ele>475</ele>
        <time>2012-04-09T07:04:50Z</time>
      </trkpt>
      <trkpt lat="44.78731" lon="5.352">
        <ele>475</ele>
        <time>2012-04-09T07:04:59Z</time>
      </trkpt>
      <trkpt lat="44.78749" lon="5.352">
        <ele>475</ele>
        <time>2012-04-09T07:05:07Z</time>
      </trkpt>
      <trkpt lat="44.78763" lon="5.35201">
        <ele>480</ele>
        <time>2012-04-09T07:05:13Z</time>
      </trkpt>
      <trkpt lat="44.78784" lon="5.35203">
        <ele>482</ele>
        <time>2012-04-09T07:05:22Z</time>
      </trkpt>
      <trkpt lat="44.78803" lon="5.35203">
        <ele>483</ele>
        <time>2012-04-09T07:05:30Z</time>
      </trkpt>
      <trkpt lat="44.78822" lon="5.35203">
        <ele>483</ele>
        <time>2012-04-09T07:05:38Z</time>
      </trkpt>
      <trkpt lat="44.78838" lon="5.35202">
        <ele>491</ele>
        <time>2012-04-09T07:05:45Z</time>
      </trkpt>
      <trkpt lat="44.78853" lon="5.35199">
        <ele>491</ele>
        <time>2012-04-09T07:05:52Z</time>
      </trkpt>
      <trkpt lat="44.78872" lon="5.35193">
        <ele>493</ele>
        <time>2012-04-09T07:06:01Z</time>
      </trkpt>
      <trkpt lat="44.78893" lon="5.35189">
        <ele>494</ele>
        <time>2012-04-09T07:06:10Z</time>
      </trkpt>
      <trkpt lat="44.78907" lon="5.35186">
        <ele>493</ele>
        <time>2012-04-09T07:06:16Z</time>
      </trkpt>
      <trkpt lat="44.78928" lon="5.35183">
        <ele>505</ele>
        <time>2012-04-09T07:06:25Z</time>
      </trkpt>
      <trkpt lat="44.78949" lon="5.35176">
        <ele>510</ele>
        <time>2012-04-09T07:06:34Z</time>
      </trkpt>
      <trkpt lat="44.78965" lon="5.35166">
        <ele>494</ele>
        <time>2012-04-09T07:06:42Z</time>
      </trkpt>
      <trkpt lat="44.78982" lon="5.35154">
        <ele>498</ele>
        <time>2012-04-09T07:06:50Z</time>
      </trkpt>
      <trkpt lat="44.78999" lon="5.35137">
        <ele>496</ele>
        <time>2012-04-09T07:06:59Z</time>
      </trkpt>
      <trkpt lat="44.79015" lon="5.35119">
        <ele>514</ele>
        <time>2012-04-09T07:07:08Z</time>
      </trkpt>
      <trkpt lat="44.79029" lon="5.35102">
        <ele>513</ele>
        <time>2012-04-09T07:07:16Z</time>
      </trkpt>
      <trkpt lat="44.79044" lon="5.35079">
        <ele>506</ele>
        <time>2012-04-09T07:07:26Z</time>
      </trkpt>
      <trkpt lat="44.79057" lon="5.35071">
        <ele>510</ele>
        <time>2012-04-09T07:07:32Z</time>
      </trkpt>
      <trkpt lat="44.79062" lon="5.35083">
        <ele>512</ele>
        <time>2012-04-09T07:07:37Z</time>
      </trkpt>
      <trkpt lat="44.79061" lon="5.35089">
        <ele>521</ele>
        <time>2012-04-09T07:07:39Z</time>
      </trkpt>
      <trkpt lat="44.7905" lon="5.35112">
        <ele>521</ele>
        <time>2012-04-09T07:07:47Z</time>
      </trkpt>
      <trkpt lat="44.79038" lon="5.35129">
        <ele>521</ele>
        <time>2012-04-09T07:07:55Z</time>
      </trkpt>
      <trkpt lat="44.79043" lon="5.35135">
        <ele>523</ele>
        <time>2012-04-09T07:07:59Z</time>
      </trkpt>
      <trkpt lat="44.7905" lon="5.35127">
        <ele>523</ele>
        <time>2012-04-09T07:08:03Z</time>
      </trkpt>
      <trkpt lat="44.7907" lon="5.35103">
        <ele>523</ele>
        <time>2012-04-09T07:08:14Z</time>
      </trkpt>
      <trkpt lat="44.79086" lon="5.3508">
        <ele>526</ele>
        <time>2012-04-09T07:08:24Z</time>
      </trkpt>
      <trkpt lat="44.79095" lon="5.35064">
        <ele>532</ele>
        <time>2012-04-09T07:08:30Z</time>
      </trkpt>
      <trkpt lat="44.7911" lon="5.35039">
        <ele>535</ele>
        <time>2012-04-09T07:08:40Z</time>
      </trkpt>
      <trkpt lat="44.79125" lon="5.35009">
        <ele>536</ele>
        <time>2012-04-09T07:08:51Z</time>
      </trkpt>
      <trkpt lat="44.79137" lon="5.34982">
        <ele>533</ele>
        <time>2012-04-09T07:09:01Z</time>
      </trkpt>
      <trkpt lat="44.79142" lon="5.34951">
        <ele>533</ele>
        <time>2012-04-09T07:09:11Z</time>
      </trkpt>
      <trkpt lat="44.79146" lon="5.34921">
        <ele>534</ele>
        <time>2012-04-09T07:09:21Z</time>
      </trkpt>
      <trkpt lat="44.79155" lon="5.34903">
        <ele>537</ele>
        <time>2012-04-09T07:09:27Z</time>
      </trkpt>
      <trkpt lat="44.79165" lon="5.3488">
        <ele>537</ele>
        <time>2012-04-09T07:09:35Z</time>
      </trkpt>
      <trkpt lat="44.7918" lon="5.34863">
        <ele>539</ele>
        <time>2012-04-09T07:09:43Z</time>
      </trkpt>
      <trkpt lat="44.79198" lon="5.34854">
        <ele>539</ele>
        <time>2012-04-09T07:09:51Z</time>
      </trkpt>
      <trkpt lat="44.7922" lon="5.34847">
        <ele>538</ele>
        <time>2012-04-09T07:09:59Z</time>
      </trkpt>
      <trkpt lat="44.79243" lon="5.34837">
        <ele>537</ele>
        <time>2012-04-09T07:10:08Z</time>
      </trkpt>
      <trkpt lat="44.79274" lon="5.34824">
        <ele>537</ele>
        <time>2012-04-09T07:10:19Z</time>
      </trkpt>
      <trkpt lat="44.79308" lon="5.3481">
        <ele>537</ele>
        <time>2012-04-09T07:10:30Z</time>
      </trkpt>
      <trkpt lat="44.79337" lon="5.34794">
        <ele>538</ele>
        <time>2012-04-09T07:10:40Z</time>
      </trkpt>
      <trkpt lat="44.79353" lon="5.34769">
        <ele>538</ele>
        <time>2012-04-09T07:10:47Z</time>
      </trkpt>
      <trkpt lat="44.79369" lon="5.34737">
        <ele>538</ele>
        <time>2012-04-09T07:10:55Z</time>
      </trkpt>
      <trkpt lat="44.79396" lon="5.34686">
        <ele>538</ele>
        <time>2012-04-09T07:11:07Z</time>
      </trkpt>
      <trkpt lat="44.79417" lon="5.34647">
        <ele>540</ele>
        <time>2012-04-09T07:11:16Z</time>
      </trkpt>
      <trkpt lat="44.79444" lon="5.34593">
        <ele>540</ele>
        <time>2012-04-09T07:11:28Z</time>
      </trkpt>
      <trkpt lat="44.79468" lon="5.34547">
        <ele>541</ele>
        <time>2012-04-09T07:11:39Z</time>
      </trkpt>
      <trkpt lat="44.79489" lon="5.34512">
        <ele>542</ele>
        <time>2012-04-09T07:11:48Z</time>
      </trkpt>
      <trkpt lat="44.79512" lon="5.34481">
        <ele>548</ele>
        <time>2012-04-09T07:11:57Z</time>
      </trkpt>
      <trkpt lat="44.79519" lon="5.34449">
        <ele>551</ele>
        <time>2012-04-09T07:12:04Z</time>
      </trkpt>
      <trkpt lat="44.79528" lon="5.34406">
        <ele>554</ele>
        <time>2012-04-09T07:12:13Z</time>
      </trkpt>
      <trkpt lat="44.79538" lon="5.34354">
        <ele>557</ele>
        <time>2012-04-09T07:12:24Z</time>
      </trkpt>
      <trkpt lat="44.79547" lon="5.34308">
        <ele>559</ele>
        <time>2012-04-09T07:12:34Z</time>
      </trkpt>
      <trkpt lat="44.79553" lon="5.34266">
        <ele>561</ele>
        <time>2012-04-09T07:12:43Z</time>
      </trkpt>
      <trkpt lat="44.79558" lon="5.3422">
        <ele>562</ele>
        <time>2012-04-09T07:12:53Z</time>
      </trkpt>
      <trkpt lat="44.79562" lon="5.34168">
        <ele>564</ele>
        <time>2012-04-09T07:13:04Z</time>
      </trkpt>
      <trkpt lat="44.79567" lon="5.34114">
        <ele>564</ele>
        <time>2012-04-09T07:13:15Z</time>
      </trkpt>
      <trkpt lat="44.79575" lon="5.34058">
        <ele>565</ele>
        <time>2012-04-09T07:13:27Z</time>
      </trkpt>
      <trkpt lat="44.79581" lon="5.3402">
        <ele>566</ele>
        <time>2012-04-09T07:13:35Z</time>
      </trkpt>
      <trkpt lat="44.79588" lon="5.33966">
        <ele>578</ele>
        <time>2012-04-09T07:13:46Z</time>
      </trkpt>
      <trkpt lat="44.79596" lon="5.33916">
        <ele>572</ele>
        <time>2012-04-09T07:13:56Z</time>
      </trkpt>
      <trkpt lat="44.79604" lon="5.33868">
        <ele>576</ele>
        <time>2012-04-09T07:14:06Z</time>
      </trkpt>
      <trkpt lat="44.79616" lon="5.33819">
        <ele>573</ele>
        <time>2012-04-09T07:14:16Z</time>
      </trkpt>
      <trkpt lat="44.79631" lon="5.33778">
        <ele>575</ele>
        <time>2012-04-09T07:14:25Z</time>
      </trkpt>
      <trkpt lat="44.79647" lon="5.3373">
        <ele>573</ele>
        <time>2012-04-09T07:14:35Z</time>
      </trkpt>
      <trkpt lat="44.79665" lon="5.33683">
        <ele>572</ele>
        <time>2012-04-09T07:14:45Z</time>
      </trkpt>
      <trkpt lat="44.79681" lon="5.33641">
        <ele>581</ele>
        <time>2012-04-09T07:14:54Z</time>
      </trkpt>
      <trkpt lat="44.79701" lon="5.33584">
        <ele>582</ele>
        <time>2012-04-09T07:15:06Z</time>
      </trkpt>
      <trkpt lat="44.79715" lon="5.33541">
        <ele>582</ele>
        <time>2012-04-09T07:15:15Z</time>
      </trkpt>
      <trkpt lat="44.79721" lon="5.33494">
        <ele>583</ele>
        <time>2012-04-09T07:15:24Z</time>
      </trkpt>
      <trkpt lat="44.79723" lon="5.33432">
        <ele>582</ele>
        <time>2012-04-09T07:15:35Z</time>
      </trkpt>
      <trkpt lat="44.79725" lon="5.33374">
        <ele>581</ele>
        <time>2012-04-09T07:15:45Z</time>
      </trkpt>
      <trkpt lat="44.79724" lon="5.33302">
        <ele>582</ele>
        <time>2012-04-09T07:15:57Z</time>
      </trkpt>
      <trkpt lat="44.79728" lon="5.33235">
        <ele>581</ele>
        <time>2012-04-09T07:16:08Z</time>
      </trkpt>
      <trkpt lat="44.79736" lon="5.33194">
        <ele>579</ele>
        <time>2012-04-09T07:16:15Z</time>
      </trkpt>
      <trkpt lat="44.79751" lon="5.33162">
        <ele>582</ele>
        <time>2012-04-09T07:16:21Z</time>
      </trkpt>
      <trkpt lat="44.79767" lon="5.33141">
        <ele>584</ele>
        <time>2012-04-09T07:16:26Z</time>
      </trkpt>
      <trkpt lat="44.79795" lon="5.33112">
        <ele>585</ele>
        <time>2012-04-09T07:16:34Z</time>
      </trkpt>
      <trkpt lat="44.79818" lon="5.33085">
        <ele>585</ele>
        <time>2012-04-09T07:16:41Z</time>
      </trkpt>
      <trkpt lat="44.79843" lon="5.33065">
        <ele>582</ele>
        <time>2012-04-09T07:16:48Z</time>
      </trkpt>
      <trkpt lat="44.7988" lon="5.33048">
        <ele>582</ele>
        <time>2012-04-09T07:16:57Z</time>
      </trkpt>
      <trkpt lat="44.79906" lon="5.33024">
        <ele>581</ele>
        <time>2012-04-09T07:17:04Z</time>
      </trkpt>
      <trkpt lat="44.79909" lon="5.33019">
        <ele>581</ele>
        <time>2012-04-09T07:17:05Z</time>
      </trkpt>
      <trkpt lat="44.79916" lon="5.32998">
        <ele>581</ele>
        <time>2012-04-09T07:17:09Z</time>
      </trkpt>
      <trkpt lat="44.7992" lon="5.32969">
        <ele>583</ele>
        <time>2012-04-09T07:17:14Z</time>
      </trkpt>
      <trkpt lat="44.79934" lon="5.32939">
        <ele>582</ele>
        <time>2012-04-09T07:17:20Z</time>
      </trkpt>
      <trkpt lat="44.79938" lon="5.32937">
        <ele>582</ele>
        <time>2012-04-09T07:17:21Z</time>
      </trkpt>
      <trkpt lat="44.79983" lon="5.32919">
        <ele>584</ele>
        <time>2012-04-09T07:17:32Z</time>
      </trkpt>
      <trkpt lat="44.80017" lon="5.32901">
        <ele>586</ele>
        <time>2012-04-09T07:17:41Z</time>
      </trkpt>
      <trkpt lat="44.8005" lon="5.3287">
        <ele>587</ele>
        <time>2012-04-09T07:17:51Z</time>
      </trkpt>
      <trkpt lat="44.80082" lon="5.32827">
        <ele>588</ele>
        <time>2012-04-09T07:18:02Z</time>
      </trkpt>
      <trkpt lat="44.80104" lon="5.32786">
        <ele>595</ele>
        <time>2012-04-09T07:18:11Z</time>
      </trkpt>
      <trkpt lat="44.80124" lon="5.32742">
        <ele>595</ele>
        <time>2012-04-09T07:18:21Z</time>
      </trkpt>
      <trkpt lat="44.8014" lon="5.32701">
        <ele>596</ele>
        <time>2012-04-09T07:18:31Z</time>
      </trkpt>
      <trkpt lat="44.80156" lon="5.32654">
        <ele>595</ele>
        <time>2012-04-09T07:18:41Z</time>
      </trkpt>
      <trkpt lat="44.80176" lon="5.32599">
        <ele>600</ele>
        <time>2012-04-09T07:18:52Z</time>
      </trkpt>
      <trkpt lat="44.80178" lon="5.32593">
        <ele>599</ele>
        <time>2012-04-09T07:18:53Z</time>
      </trkpt>
      <trkpt lat="44.80181" lon="5.32571">
        <ele>599</ele>
        <time>2012-04-09T07:18:57Z</time>
      </trkpt>
      <trkpt lat="44.80181" lon="5.3252">
        <ele>600</ele>
        <time>2012-04-09T07:19:06Z</time>
      </trkpt>
      <trkpt lat="44.80188" lon="5.3248">
        <ele>602</ele>
        <time>2012-04-09T07:19:14Z</time>
      </trkpt>
      <trkpt lat="44.80198" lon="5.32438">
        <ele>604</ele>
        <time>2012-04-09T07:19:23Z</time>
      </trkpt>
      <trkpt lat="44.80207" lon="5.32399">
        <ele>605</ele>
        <time>2012-04-09T07:19:32Z</time>
      </trkpt>
      <trkpt lat="44.80215" lon="5.32351">
        <ele>606</ele>
        <time>2012-04-09T07:19:43Z</time>
      </trkpt>
      <trkpt lat="44.80223" lon="5.32305">
        <ele>607</ele>
        <time>2012-04-09T07:19:54Z</time>
      </trkpt>
      <trkpt lat="44.80235" lon="5.3225">
        <ele>608</ele>
        <time>2012-04-09T07:20:07Z</time>
      </trkpt>
      <trkpt lat="44.80238" lon="5.32222">
        <ele>608</ele>
        <time>2012-04-09T07:20:14Z</time>
      </trkpt>
      <trkpt lat="44.80242" lon="5.32212">
        <ele>607</ele>
        <time>2012-04-09T07:20:17Z</time>
      </trkpt>
      <trkpt lat="44.80254" lon="5.3221">
        <ele>610</ele>
        <time>2012-04-09T07:20:22Z</time>
      </trkpt>
      <trkpt lat="44.80259" lon="5.32213">
        <ele>610</ele>
        <time>2012-04-09T07:20:25Z</time>
      </trkpt>
      <trkpt lat="44.80275" lon="5.32223">
        <ele>610</ele>
        <time>2012-04-09T07:20:34Z</time>
      </trkpt>
      <trkpt lat="44.80286" lon="5.3223">
        <ele>611</ele>
        <time>2012-04-09T07:20:40Z</time>
      </trkpt>
      <trkpt lat="44.80303" lon="5.32237">
        <ele>612</ele>
        <time>2012-04-09T07:20:48Z</time>
      </trkpt>
      <trkpt lat="44.8032" lon="5.32242">
        <ele>613</ele>
        <time>2012-04-09T07:20:56Z</time>
      </trkpt>
      <trkpt lat="44.80339" lon="5.3224">
        <ele>616</ele>
        <time>2012-04-09T07:21:04Z</time>
      </trkpt>
      <trkpt lat="44.80362" lon="5.32229">
        <ele>617</ele>
        <time>2012-04-09T07:21:14Z</time>
      </trkpt>
      <trkpt lat="44.8038" lon="5.32223">
        <ele>618</ele>
        <time>2012-04-09T07:21:22Z</time>
      </trkpt>
      <trkpt lat="44.8039" lon="5.32228">
        <ele>619</ele>
        <time>2012-04-09T07:21:28Z</time>
      </trkpt>
      <trkpt lat="44.80399" lon="5.32241">
        <ele>620</ele>
        <time>2012-04-09T07:21:35Z</time>
      </trkpt>
      <trkpt lat="44.80413" lon="5.32254">
        <ele>623</ele>
        <time>2012-04-09T07:21:43Z</time>
      </trkpt>
      <trkpt lat="44.80429" lon="5.32263">
        <ele>626</ele>
        <time>2012-04-09T07:21:51Z</time>
      </trkpt>
      <trkpt lat="44.80445" lon="5.32264">
        <ele>628</ele>
        <time>2012-04-09T07:21:59Z</time>
      </trkpt>
      <trkpt lat="44.80458" lon="5.32264">
        <ele>629</ele>
        <time>2012-04-09T07:22:06Z</time>
      </trkpt>
      <trkpt lat="44.80475" lon="5.32267">
        <ele>629</ele>
        <time>2012-04-09T07:22:14Z</time>
      </trkpt>
      <trkpt lat="44.80489" lon="5.32268">
        <ele>629</ele>
        <time>2012-04-09T07:22:21Z</time>
      </trkpt>
      <trkpt lat="44.80505" lon="5.32268">
        <ele>632</ele>
        <time>2012-04-09T07:22:29Z</time>
      </trkpt>
      <trkpt lat="44.80516" lon="5.32265">
        <ele>633</ele>
        <time>2012-04-09T07:22:36Z</time>
      </trkpt>
      <trkpt lat="44.80523" lon="5.32264">
        <ele>634</ele>
        <time>2012-04-09T07:22:40Z</time>
      </trkpt>
      <trkpt lat="44.8053" lon="5.32261">
        <ele>634</ele>
        <time>2012-04-09T07:22:45Z</time>
      </trkpt>
      <trkpt lat="44.80543" lon="5.32258">
        <ele>636</ele>
        <time>2012-04-09T07:22:53Z</time>
      </trkpt>
      <trkpt lat="44.80559" lon="5.32251">
        <ele>637</ele>
        <time>2012-04-09T07:23:03Z</time>
      </trkpt>
      <trkpt lat="44.80572" lon="5.32245">
        <ele>640</ele>
        <time>2012-04-09T07:23:11Z</time>
      </trkpt>
      <trkpt lat="44.80582" lon="5.32243">
        <ele>640</ele>
        <time>2012-04-09T07:23:18Z</time>
      </trkpt>
      <trkpt lat="44.80595" lon="5.32244">
        <ele>646</ele>
        <time>2012-04-09T07:23:26Z</time>
      </trkpt>
      <trkpt lat="44.80607" lon="5.32249">
        <ele>649</ele>
        <time>2012-04-09T07:23:34Z</time>
      </trkpt>
      <trkpt lat="44.80621" lon="5.32257">
        <ele>645</ele>
        <time>2012-04-09T07:23:43Z</time>
      </trkpt>
      <trkpt lat="44.80634" lon="5.32264">
        <ele>647</ele>
        <time>2012-04-09T07:23:51Z</time>
      </trkpt>
      <trkpt lat="44.80648" lon="5.32269">
        <ele>648</ele>
        <time>2012-04-09T07:24:00Z</time>
      </trkpt>
      <trkpt lat="44.80653" lon="5.32271">
        <ele>648</ele>
        <time>2012-04-09T07:24:06Z</time>
      </trkpt>
      <trkpt lat="44.80653" lon="5.32277">
        <ele>648</ele>
        <time>2012-04-09T07:24:30Z</time>
      </trkpt>
      <trkpt lat="44.80664" lon="5.32278">
        <ele>648</ele>
        <time>2012-04-09T07:24:36Z</time>
      </trkpt>
      <trkpt lat="44.80669" lon="5.32281">
        <ele>654</ele>
        <time>2012-04-09T07:24:38Z</time>
      </trkpt>
      <trkpt lat="44.80679" lon="5.32286">
        <ele>654</ele>
        <time>2012-04-09T07:24:44Z</time>
      </trkpt>
      <trkpt lat="44.80688" lon="5.32287">
        <ele>654</ele>
        <time>2012-04-09T07:24:49Z</time>
      </trkpt>
      <trkpt lat="44.80704" lon="5.32282">
        <ele>655</ele>
        <time>2012-04-09T07:24:57Z</time>
      </trkpt>
      <trkpt lat="44.80713" lon="5.32283">
        <ele>655</ele>
        <time>2012-04-09T07:25:02Z</time>
      </trkpt>
      <trkpt lat="44.80729" lon="5.32283">
        <ele>656</ele>
        <time>2012-04-09T07:25:11Z</time>
      </trkpt>
      <trkpt lat="44.80741" lon="5.3228">
        <ele>657</ele>
        <time>2012-04-09T07:25:17Z</time>
      </trkpt>
      <trkpt lat="44.80752" lon="5.32286">
        <ele>662</ele>
        <time>2012-04-09T07:25:23Z</time>
      </trkpt>
      <trkpt lat="44.80769" lon="5.32303">
        <ele>662</ele>
        <time>2012-04-09T07:25:33Z</time>
      </trkpt>
      <trkpt lat="44.80783" lon="5.32322">
        <ele>663</ele>
        <time>2012-04-09T07:25:43Z</time>
      </trkpt>
      <trkpt lat="44.80795" lon="5.32342">
        <ele>666</ele>
        <time>2012-04-09T07:25:52Z</time>
      </trkpt>
      <trkpt lat="44.80806" lon="5.32365">
        <ele>667</ele>
        <time>2012-04-09T07:26:02Z</time>
      </trkpt>
      <trkpt lat="44.80819" lon="5.32374">
        <ele>668</ele>
        <time>2012-04-09T07:26:09Z</time>
      </trkpt>
      <trkpt lat="44.80832" lon="5.32374">
        <ele>669</ele>
        <time>2012-04-09T07:26:16Z</time>
      </trkpt>
      <trkpt lat="44.80848" lon="5.3237">
        <ele>678</ele>
        <time>2012-04-09T07:26:25Z</time>
      </trkpt>
      <trkpt lat="44.80865" lon="5.32363">
        <ele>678</ele>
        <time>2012-04-09T07:26:35Z</time>
      </trkpt>
      <trkpt lat="44.80879" lon="5.32356">
        <ele>679</ele>
        <time>2012-04-09T07:26:43Z</time>
      </trkpt>
      <trkpt lat="44.80892" lon="5.32347">
        <ele>680</ele>
        <time>2012-04-09T07:26:51Z</time>
      </trkpt>
      <trkpt lat="44.80904" lon="5.3234">
        <ele>681</ele>
        <time>2012-04-09T07:26:58Z</time>
      </trkpt>
      <trkpt lat="44.80918" lon="5.32335">
        <ele>682</ele>
        <time>2012-04-09T07:27:06Z</time>
      </trkpt>
      <trkpt lat="44.80932" lon="5.32338">
        <ele>687</ele>
        <time>2012-04-09T07:27:15Z</time>
      </trkpt>
      <trkpt lat="44.80943" lon="5.3234">
        <ele>689</ele>
        <time>2012-04-09T07:27:22Z</time>
      </trkpt>
      <trkpt lat="44.80957" lon="5.32342">
        <ele>691</ele>
        <time>2012-04-09T07:27:31Z</time>
      </trkpt>
      <trkpt lat="44.80972" lon="5.32352">
        <ele>693</ele>
        <time>2012-04-09T07:27:41Z</time>
      </trkpt>
      <trkpt lat="44.80977" lon="5.32362">
        <ele>693</ele>
        <time>2012-04-09T07:27:48Z</time>
      </trkpt>
      <trkpt lat="44.80982" lon="5.32377">
        <ele>694</ele>
        <time>2012-04-09T07:27:56Z</time>
      </trkpt>
      <trkpt lat="44.8099" lon="5.32388">
        <ele>696</ele>
        <time>2012-04-09T07:28:04Z</time>
      </trkpt>
      <trkpt lat="44.81" lon="5.32396">
        <ele>697</ele>
        <time>2012-04-09T07:28:12Z</time>
      </trkpt>
      <trkpt lat="44.81008" lon="5.32407">
        <ele>702</ele>
        <time>2012-04-09T07:28:20Z</time>
      </trkpt>
      <trkpt lat="44.81013" lon="5.32418">
        <ele>707</ele>
        <time>2012-04-09T07:28:26Z</time>
      </trkpt>
      <trkpt lat="44.8102" lon="5.32428">
        <ele>709</ele>
        <time>2012-04-09T07:28:33Z</time>
      </trkpt>
      <trkpt lat="44.81025" lon="5.32433">
        <ele>711</ele>
        <time>2012-04-09T07:28:39Z</time>
      </trkpt>
      <trkpt lat="44.81027" lon="5.32434">
        <ele>711</ele>
        <time>2012-04-09T07:28:46Z</time>
      </trkpt>
      <trkpt lat="44.81038" lon="5.32427">
        <ele>711</ele>
        <time>2012-04-09T07:31:21Z</time>
      </trkpt>
      <trkpt lat="44.81027" lon="5.3243">
        <ele>711</ele>
        <time>2012-04-09T07:31:47Z</time>
      </trkpt>
      <trkpt lat="44.81018" lon="5.32429">
        <ele>709</ele>
        <time>2012-04-09T07:31:53Z</time>
      </trkpt>
      <trkpt lat="44.81008" lon="5.32427">
        <ele>707</ele>
        <time>2012-04-09T07:32:00Z</time>
      </trkpt>
      <trkpt lat="44.80999" lon="5.32433">
        <ele>706</ele>
        <time>2012-04-09T07:32:05Z</time>
      </trkpt>
      <trkpt lat="44.80993" lon="5.32452">
        <ele>710</ele>
        <time>2012-04-09T07:32:12Z</time>
      </trkpt>
      <trkpt lat="44.80988" lon="5.32469">
        <ele>714</ele>
        <time>2012-04-09T07:32:18Z</time>
      </trkpt>
      <trkpt lat="44.80983" lon="5.32477">
        <ele>715</ele>
        <time>2012-04-09T07:32:21Z</time>
      </trkpt>
      <trkpt lat="44.80973" lon="5.32471">
        <ele>713</ele>
        <time>2012-04-09T07:32:27Z</time>
      </trkpt>
      <trkpt lat="44.80968" lon="5.32461">
        <ele>712</ele>
        <time>2012-04-09T07:32:31Z</time>
      </trkpt>
      <trkpt lat="44.80962" lon="5.32441">
        <ele>708</ele>
        <time>2012-04-09T07:32:38Z</time>
      </trkpt>
      <trkpt lat="44.8096" lon="5.32438">
        <ele>708</ele>
        <time>2012-04-09T07:32:39Z</time>
      </trkpt>
      <trkpt lat="44.80949" lon="5.32435">
        <ele>707</ele>
        <time>2012-04-09T07:32:44Z</time>
      </trkpt>
      <trkpt lat="44.80946" lon="5.32438">
        <ele>707</ele>
        <time>2012-04-09T07:32:46Z</time>
      </trkpt>
      <trkpt lat="44.80932" lon="5.32448">
        <ele>708</ele>
        <time>2012-04-09T07:32:55Z</time>
      </trkpt>
      <trkpt lat="44.80923" lon="5.32458">
        <ele>710</ele>
        <time>2012-04-09T07:33:02Z</time>
      </trkpt>
      <trkpt lat="44.80915" lon="5.32467">
        <ele>704</ele>
        <time>2012-04-09T07:33:09Z</time>
      </trkpt>
      <trkpt lat="44.8091" lon="5.3247">
        <ele>705</ele>
        <time>2012-04-09T07:33:13Z</time>
      </trkpt>
      <trkpt lat="44.80899" lon="5.32481">
        <ele>706</ele>
        <time>2012-04-09T07:33:21Z</time>
      </trkpt>
      <trkpt lat="44.80889" lon="5.32492">
        <ele>705</ele>
        <time>2012-04-09T07:33:29Z</time>
      </trkpt>
      <trkpt lat="44.80881" lon="5.32504">
        <ele>718</ele>
        <time>2012-04-09T07:33:36Z</time>
      </trkpt>
      <trkpt lat="44.80884" lon="5.32518">
        <ele>719</ele>
        <time>2012-04-09T07:33:43Z</time>
      </trkpt>
      <trkpt lat="44.80878" lon="5.32524">
        <ele>719</ele>
        <time>2012-04-09T07:33:48Z</time>
      </trkpt>
      <trkpt lat="44.80872" lon="5.32531">
        <ele>719</ele>
        <time>2012-04-09T07:33:53Z</time>
      </trkpt>
      <trkpt lat="44.80867" lon="5.32539">
        <ele>720</ele>
        <time>2012-04-09T07:33:58Z</time>
      </trkpt>
      <trkpt lat="44.80866" lon="5.3255">
        <ele>721</ele>
        <time>2012-04-09T07:34:03Z</time>
      </trkpt>
      <trkpt lat="44.80865" lon="5.32554">
        <ele>721</ele>
        <time>2012-04-09T07:34:05Z</time>
      </trkpt>
      <trkpt lat="44.80859" lon="5.32562">
        <ele>721</ele>
        <time>2012-04-09T07:34:09Z</time>
      </trkpt>
      <trkpt lat="44.80857" lon="5.32571">
        <ele>722</ele>
        <time>2012-04-09T07:34:13Z</time>
      </trkpt>
      <trkpt lat="44.80855" lon="5.32592">
        <ele>736</ele>
        <time>2012-04-09T07:34:22Z</time>
      </trkpt>
      <trkpt lat="44.80845" lon="5.32598">
        <ele>735</ele>
        <time>2012-04-09T07:34:28Z</time>
      </trkpt>
      <trkpt lat="44.80831" lon="5.32601">
        <ele>725</ele>
        <time>2012-04-09T07:34:35Z</time>
      </trkpt>
      <trkpt lat="44.80824" lon="5.32599">
        <ele>725</ele>
        <time>2012-04-09T07:34:38Z</time>
      </trkpt>
      <trkpt lat="44.80818" lon="5.32607">
        <ele>727</ele>
        <time>2012-04-09T07:34:43Z</time>
      </trkpt>
      <trkpt lat="44.80812" lon="5.32612">
        <ele>727</ele>
        <time>2012-04-09T07:34:47Z</time>
      </trkpt>
      <trkpt lat="44.80807" lon="5.32616">
        <ele>728</ele>
        <time>2012-04-09T07:34:50Z</time>
      </trkpt>
      <trkpt lat="44.80798" lon="5.32624">
        <ele>728</ele>
        <time>2012-04-09T07:34:56Z</time>
      </trkpt>
      <trkpt lat="44.80792" lon="5.32633">
        <ele>729</ele>
        <time>2012-04-09T07:35:02Z</time>
      </trkpt>
      <trkpt lat="44.80788" lon="5.32642">
        <ele>730</ele>
        <time>2012-04-09T07:35:07Z</time>
      </trkpt>
      <trkpt lat="44.80787" lon="5.32643">
        <ele>730</ele>
        <time>2012-04-09T07:35:13Z</time>
      </trkpt>
      <trkpt lat="44.80786" lon="5.32643">
        <ele>730</ele>
        <time>2012-04-09T07:35:41Z</time>
      </trkpt>
      <trkpt lat="44.80777" lon="5.32641">
        <ele>729</ele>
        <time>2012-04-09T07:35:46Z</time>
      </trkpt>
      <trkpt lat="44.80763" lon="5.32646">
        <ele>728</ele>
        <time>2012-04-09T07:35:52Z</time>
      </trkpt>
      <trkpt lat="44.8076" lon="5.3265">
        <ele>729</ele>
        <time>2012-04-09T07:35:54Z</time>
      </trkpt>
      <trkpt lat="44.80753" lon="5.32668">
        <ele>732</ele>
        <time>2012-04-09T07:36:01Z</time>
      </trkpt>
      <trkpt lat="44.8075" lon="5.32707">
        <ele>729</ele>
        <time>2012-04-09T07:36:11Z</time>
      </trkpt>
      <trkpt lat="44.80748" lon="5.32735">
        <ele>733</ele>
        <time>2012-04-09T07:36:19Z</time>
      </trkpt>
      <trkpt lat="44.80749" lon="5.32758">
        <ele>736</ele>
        <time>2012-04-09T07:36:27Z</time>
      </trkpt>
      <trkpt lat="44.80756" lon="5.32771">
        <ele>749</ele>
        <time>2012-04-09T07:36:33Z</time>
      </trkpt>
      <trkpt lat="44.8076" lon="5.32771">
        <ele>750</ele>
        <time>2012-04-09T07:36:35Z</time>
      </trkpt>
      <trkpt lat="44.80765" lon="5.32756">
        <ele>748</ele>
        <time>2012-04-09T07:36:42Z</time>
      </trkpt>
      <trkpt lat="44.80771" lon="5.32736">
        <ele>746</ele>
        <time>2012-04-09T07:36:51Z</time>
      </trkpt>
      <trkpt lat="44.8078" lon="5.3272">
        <ele>747</ele>
        <time>2012-04-09T07:36:59Z</time>
      </trkpt>
      <trkpt lat="44.80791" lon="5.32705">
        <ele>748</ele>
        <time>2012-04-09T07:37:07Z</time>
      </trkpt>
      <trkpt lat="44.808" lon="5.32694">
        <ele>748</ele>
        <time>2012-04-09T07:37:15Z</time>
      </trkpt>
      <trkpt lat="44.80813" lon="5.32682">
        <ele>749</ele>
        <time>2012-04-09T07:37:25Z</time>
      </trkpt>
      <trkpt lat="44.80824" lon="5.32671">
        <ele>750</ele>
        <time>2012-04-09T07:37:34Z</time>
      </trkpt>
      <trkpt lat="44.80834" lon="5.32663">
        <ele>750</ele>
        <time>2012-04-09T07:37:42Z</time>
      </trkpt>
      <trkpt lat="44.80846" lon="5.32659">
        <ele>749</ele>
        <time>2012-04-09T07:37:49Z</time>
      </trkpt>
      <trkpt lat="44.8086" lon="5.32656">
        <ele>750</ele>
        <time>2012-04-09T07:37:58Z</time>
      </trkpt>
      <trkpt lat="44.80872" lon="5.32653">
        <ele>751</ele>
        <time>2012-04-09T07:38:06Z</time>
      </trkpt>
      <trkpt lat="44.80889" lon="5.32644">
        <ele>752</ele>
        <time>2012-04-09T07:38:15Z</time>
      </trkpt>
      <trkpt lat="44.80907" lon="5.3264">
        <ele>755</ele>
        <time>2012-04-09T07:38:23Z</time>
      </trkpt>
      <trkpt lat="44.80921" lon="5.32641">
        <ele>764</ele>
        <time>2012-04-09T07:38:31Z</time>
      </trkpt>
      <trkpt lat="44.80935" lon="5.32647">
        <ele>765</ele>
        <time>2012-04-09T07:38:40Z</time>
      </trkpt>
      <trkpt lat="44.80947" lon="5.32655">
        <ele>766</ele>
        <time>2012-04-09T07:38:49Z</time>
      </trkpt>
      <trkpt lat="44.80959" lon="5.32665">
        <ele>768</ele>
        <time>2012-04-09T07:38:58Z</time>
      </trkpt>
      <trkpt lat="44.80969" lon="5.32668">
        <ele>787</ele>
        <time>2012-04-09T07:39:05Z</time>
      </trkpt>
      <trkpt lat="44.8098" lon="5.32669">
        <ele>787</ele>
        <time>2012-04-09T07:39:13Z</time>
      </trkpt>
      <trkpt lat="44.80994" lon="5.32668">
        <ele>784</ele>
        <time>2012-04-09T07:39:21Z</time>
      </trkpt>
      <trkpt lat="44.81011" lon="5.32666">
        <ele>778</ele>
        <time>2012-04-09T07:39:31Z</time>
      </trkpt>
      <trkpt lat="44.81027" lon="5.32663">
        <ele>776</ele>
        <time>2012-04-09T07:39:41Z</time>
      </trkpt>
      <trkpt lat="44.81042" lon="5.32661">
        <ele>775</ele>
        <time>2012-04-09T07:39:49Z</time>
      </trkpt>
      <trkpt lat="44.81056" lon="5.3266">
        <ele>777</ele>
        <time>2012-04-09T07:39:57Z</time>
      </trkpt>
      <trkpt lat="44.8107" lon="5.32661">
        <ele>781</ele>
        <time>2012-04-09T07:40:06Z</time>
      </trkpt>
      <trkpt lat="44.81086" lon="5.32663">
        <ele>786</ele>
        <time>2012-04-09T07:40:16Z</time>
      </trkpt>
      <trkpt lat="44.81102" lon="5.32663">
        <ele>781</ele>
        <time>2012-04-09T07:40:24Z</time>
      </trkpt>
      <trkpt lat="44.81118" lon="5.32665">
        <ele>778</ele>
        <time>2012-04-09T07:40:33Z</time>
      </trkpt>
      <trkpt lat="44.81137" lon="5.32665">
        <ele>778</ele>
        <time>2012-04-09T07:40:44Z</time>
      </trkpt>
      <trkpt lat="44.81153" lon="5.32668">
        <ele>793</ele>
        <time>2012-04-09T07:40:53Z</time>
      </trkpt>
      <trkpt lat="44.8117" lon="5.32676">
        <ele>792</ele>
        <time>2012-04-09T07:41:05Z</time>
      </trkpt>
      <trkpt lat="44.81186" lon="5.32681">
        <ele>798</ele>
        <time>2012-04-09T07:41:15Z</time>
      </trkpt>
      <trkpt lat="44.81202" lon="5.32682">
        <ele>801</ele>
        <time>2012-04-09T07:41:25Z</time>
      </trkpt>
      <trkpt lat="44.81216" lon="5.3268">
        <ele>801</ele>
        <time>2012-04-09T07:41:34Z</time>
      </trkpt>
      <trkpt lat="44.81229" lon="5.32676">
        <ele>801</ele>
        <time>2012-04-09T07:41:42Z</time>
      </trkpt>
      <trkpt lat="44.81244" lon="5.32667">
        <ele>799</ele>
        <time>2012-04-09T07:41:52Z</time>
      </trkpt>
      <trkpt lat="44.81256" lon="5.32662">
        <ele>793</ele>
        <time>2012-04-09T07:42:01Z</time>
      </trkpt>
      <trkpt lat="44.81265" lon="5.32665">
        <ele>791</ele>
        <time>2012-04-09T07:42:08Z</time>
      </trkpt>
      <trkpt lat="44.81266" lon="5.32675">
        <ele>803</ele>
        <time>2012-04-09T07:42:13Z</time>
      </trkpt>
      <trkpt lat="44.81251" lon="5.32684">
        <ele>804</ele>
        <time>2012-04-09T07:42:22Z</time>
      </trkpt>
      <trkpt lat="44.81234" lon="5.32694">
        <ele>804</ele>
        <time>2012-04-09T07:42:31Z</time>
      </trkpt>
      <trkpt lat="44.81226" lon="5.32703">
        <ele>805</ele>
        <time>2012-04-09T07:42:37Z</time>
      </trkpt>
      <trkpt lat="44.81214" lon="5.32715">
        <ele>806</ele>
        <time>2012-04-09T07:42:45Z</time>
      </trkpt>
      <trkpt lat="44.81203" lon="5.32727">
        <ele>808</ele>
        <time>2012-04-09T07:42:53Z</time>
      </trkpt>
      <trkpt lat="44.81193" lon="5.32736">
        <ele>809</ele>
        <time>2012-04-09T07:43:01Z</time>
      </trkpt>
      <trkpt lat="44.81185" lon="5.32743">
        <ele>810</ele>
        <time>2012-04-09T07:43:07Z</time>
      </trkpt>
      <trkpt lat="44.81173" lon="5.32752">
        <ele>820</ele>
        <time>2012-04-09T07:43:15Z</time>
      </trkpt>
      <trkpt lat="44.81158" lon="5.32761">
        <ele>822</ele>
        <time>2012-04-09T07:43:25Z</time>
      </trkpt>
      <trkpt lat="44.81142" lon="5.3277">
        <ele>827</ele>
        <time>2012-04-09T07:43:36Z</time>
      </trkpt>
      <trkpt lat="44.81126" lon="5.32777">
        <ele>829</ele>
        <time>2012-04-09T07:43:46Z</time>
      </trkpt>
      <trkpt lat="44.81109" lon="5.32783">
        <ele>830</ele>
        <time>2012-04-09T07:43:57Z</time>
      </trkpt>
      <trkpt lat="44.81097" lon="5.32785">
        <ele>830</ele>
        <time>2012-04-09T07:44:05Z</time>
      </trkpt>
      <trkpt lat="44.81085" lon="5.32785">
        <ele>830</ele>
        <time>2012-04-09T07:44:13Z</time>
      </trkpt>
      <trkpt lat="44.81068" lon="5.32787">
        <ele>832</ele>
        <time>2012-04-09T07:44:24Z</time>
      </trkpt>
      <trkpt lat="44.81055" lon="5.32792">
        <ele>833</ele>
        <time>2012-04-09T07:44:33Z</time>
      </trkpt>
      <trkpt lat="44.81039" lon="5.32798">
        <ele>834</ele>
        <time>2012-04-09T07:44:43Z</time>
      </trkpt>
      <trkpt lat="44.81025" lon="5.32806">
        <ele>835</ele>
        <time>2012-04-09T07:44:53Z</time>
      </trkpt>
      <trkpt lat="44.81013" lon="5.32812">
        <ele>837</ele>
        <time>2012-04-09T07:45:01Z</time>
      </trkpt>
      <trkpt lat="44.80998" lon="5.3282">
        <ele>836</ele>
        <time>2012-04-09T07:45:11Z</time>
      </trkpt>
      <trkpt lat="44.80984" lon="5.32828">
        <ele>834</ele>
        <time>2012-04-09T07:45:20Z</time>
      </trkpt>
      <trkpt lat="44.80978" lon="5.3283">
        <ele>832</ele>
        <time>2012-04-09T07:45:24Z</time>
      </trkpt>
      <trkpt lat="44.80968" lon="5.32832">
        <ele>829</ele>
        <time>2012-04-09T07:45:31Z</time>
      </trkpt>
      <trkpt lat="44.80964" lon="5.32838">
        <ele>838</ele>
        <time>2012-04-09T07:45:35Z</time>
      </trkpt>
      <trkpt lat="44.80961" lon="5.32854">
        <ele>837</ele>
        <time>2012-04-09T07:45:43Z</time>
      </trkpt>
      <trkpt lat="44.80965" lon="5.32874">
        <ele>839</ele>
        <time>2012-04-09T07:45:52Z</time>
      </trkpt>
      <trkpt lat="44.80973" lon="5.32892">
        <ele>841</ele>
        <time>2012-04-09T07:46:01Z</time>
      </trkpt>
      <trkpt lat="44.80981" lon="5.32906">
        <ele>845</ele>
        <time>2012-04-09T07:46:10Z</time>
      </trkpt>
      <trkpt lat="44.80989" lon="5.32917">
        <ele>850</ele>
        <time>2012-04-09T07:46:18Z</time>
      </trkpt>
      <trkpt lat="44.80992" lon="5.32919">
        <ele>850</ele>
        <time>2012-04-09T07:46:20Z</time>
      </trkpt>
      <trkpt lat="44.80994" lon="5.32924">
        <ele>850</ele>
        <time>2012-04-09T07:46:23Z</time>
      </trkpt>
      <trkpt lat="44.81005" lon="5.32929">
        <ele>855</ele>
        <time>2012-04-09T07:46:31Z</time>
      </trkpt>
      <trkpt lat="44.81021" lon="5.3293">
        <ele>855</ele>
        <time>2012-04-09T07:46:41Z</time>
      </trkpt>
      <trkpt lat="44.81036" lon="5.32928">
        <ele>855</ele>
        <time>2012-04-09T07:46:49Z</time>
      </trkpt>
      <trkpt lat="44.81051" lon="5.32927">
        <ele>856</ele>
        <time>2012-04-09T07:46:58Z</time>
      </trkpt>
      <trkpt lat="44.81058" lon="5.32927">
        <ele>856</ele>
        <time>2012-04-09T07:47:04Z</time>
      </trkpt>
      <trkpt lat="44.81067" lon="5.32928">
        <ele>857</ele>
        <time>2012-04-09T07:47:10Z</time>
      </trkpt>
      <trkpt lat="44.81078" lon="5.32931">
        <ele>857</ele>
        <time>2012-04-09T07:47:18Z</time>
      </trkpt>
      <trkpt lat="44.81092" lon="5.32934">
        <ele>861</ele>
        <time>2012-04-09T07:47:26Z</time>
      </trkpt>
      <trkpt lat="44.81108" lon="5.3294">
        <ele>861</ele>
        <time>2012-04-09T07:47:36Z</time>
      </trkpt>
      <trkpt lat="44.81121" lon="5.32944">
        <ele>862</ele>
        <time>2012-04-09T07:47:44Z</time>
      </trkpt>
      <trkpt lat="44.81134" lon="5.3295">
        <ele>863</ele>
        <time>2012-04-09T07:47:53Z</time>
      </trkpt>
      <trkpt lat="44.81139" lon="5.32957">
        <ele>863</ele>
        <time>2012-04-09T07:47:58Z</time>
      </trkpt>
      <trkpt lat="44.81143" lon="5.32971">
        <ele>864</ele>
        <time>2012-04-09T07:48:05Z</time>
      </trkpt>
      <trkpt lat="44.81147" lon="5.32988">
        <ele>867</ele>
        <time>2012-04-09T07:48:14Z</time>
      </trkpt>
      <trkpt lat="44.81151" lon="5.33002">
        <ele>869</ele>
        <time>2012-04-09T07:48:21Z</time>
      </trkpt>
      <trkpt lat="44.81156" lon="5.33016">
        <ele>868</ele>
        <time>2012-04-09T07:48:28Z</time>
      </trkpt>
      <trkpt lat="44.81163" lon="5.33036">
        <ele>867</ele>
        <time>2012-04-09T07:48:37Z</time>
      </trkpt>
      <trkpt lat="44.8117" lon="5.33057">
        <ele>885</ele>
        <time>2012-04-09T07:48:47Z</time>
      </trkpt>
      <trkpt lat="44.81174" lon="5.33071">
        <ele>884</ele>
        <time>2012-04-09T07:48:54Z</time>
      </trkpt>
      <trkpt lat="44.81179" lon="5.33088">
        <ele>885</ele>
        <time>2012-04-09T07:49:02Z</time>
      </trkpt>
      <trkpt lat="44.81182" lon="5.33097">
        <ele>887</ele>
        <time>2012-04-09T07:49:09Z</time>
      </trkpt>
      <trkpt lat="44.81178" lon="5.33105">
        <ele>888</ele>
        <time>2012-04-09T07:50:00Z</time>
      </trkpt>
      <trkpt lat="44.81186" lon="5.33122">
        <ele>890</ele>
        <time>2012-04-09T07:50:07Z</time>
      </trkpt>
      <trkpt lat="44.81196" lon="5.33141">
        <ele>891</ele>
        <time>2012-04-09T07:50:15Z</time>
      </trkpt>
      <trkpt lat="44.81201" lon="5.33159">
        <ele>892</ele>
        <time>2012-04-09T07:50:22Z</time>
      </trkpt>
      <trkpt lat="44.81203" lon="5.33183">
        <ele>893</ele>
        <time>2012-04-09T07:50:31Z</time>
      </trkpt>
      <trkpt lat="44.81201" lon="5.33203">
        <ele>894</ele>
        <time>2012-04-09T07:50:38Z</time>
      </trkpt>
      <trkpt lat="44.81201" lon="5.33215">
        <ele>894</ele>
        <time>2012-04-09T07:50:42Z</time>
      </trkpt>
      <trkpt lat="44.8121" lon="5.33217">
        <ele>897</ele>
        <time>2012-04-09T07:50:47Z</time>
      </trkpt>
      <trkpt lat="44.81215" lon="5.33203">
        <ele>898</ele>
        <time>2012-04-09T07:50:52Z</time>
      </trkpt>
      <trkpt lat="44.81218" lon="5.33172">
        <ele>899</ele>
        <time>2012-04-09T07:51:02Z</time>
      </trkpt>
      <trkpt lat="44.81219" lon="5.33158">
        <ele>899</ele>
        <time>2012-04-09T07:51:09Z</time>
      </trkpt>
      <trkpt lat="44.81218" lon="5.33155">
        <ele>898</ele>
        <time>2012-04-09T07:51:43Z</time>
      </trkpt>
      <trkpt lat="44.81216" lon="5.33129">
        <ele>897</ele>
        <time>2012-04-09T07:51:52Z</time>
      </trkpt>
      <trkpt lat="44.81215" lon="5.33112">
        <ele>897</ele>
        <time>2012-04-09T07:51:59Z</time>
      </trkpt>
      <trkpt lat="44.81214" lon="5.3311">
        <ele>897</ele>
        <time>2012-04-09T07:52:04Z</time>
      </trkpt>
      <trkpt lat="44.8121" lon="5.331">
        <ele>896</ele>
        <time>2012-04-09T07:52:34Z</time>
      </trkpt>
      <trkpt lat="44.81204" lon="5.33067">
        <ele>892</ele>
        <time>2012-04-09T07:52:45Z</time>
      </trkpt>
      <trkpt lat="44.81204" lon="5.3304">
        <ele>891</ele>
        <time>2012-04-09T07:52:54Z</time>
      </trkpt>
      <trkpt lat="44.81204" lon="5.33033">
        <ele>890</ele>
        <time>2012-04-09T07:52:57Z</time>
      </trkpt>
      <trkpt lat="44.81211" lon="5.33017">
        <ele>891</ele>
        <time>2012-04-09T07:53:04Z</time>
      </trkpt>
      <trkpt lat="44.81224" lon="5.3301">
        <ele>893</ele>
        <time>2012-04-09T07:53:11Z</time>
      </trkpt>
      <trkpt lat="44.81235" lon="5.33009">
        <ele>894</ele>
        <time>2012-04-09T07:53:17Z</time>
      </trkpt>
      <trkpt lat="44.81255" lon="5.33008">
        <ele>902</ele>
        <time>2012-04-09T07:53:27Z</time>
      </trkpt>
      <trkpt lat="44.81266" lon="5.33008">
        <ele>905</ele>
        <time>2012-04-09T07:53:33Z</time>
      </trkpt>
      <trkpt lat="44.8128" lon="5.33008">
        <ele>909</ele>
        <time>2012-04-09T07:53:41Z</time>
      </trkpt>
      <trkpt lat="44.81295" lon="5.33008">
        <ele>910</ele>
        <time>2012-04-09T07:53:49Z</time>
      </trkpt>
      <trkpt lat="44.81311" lon="5.33009">
        <ele>911</ele>
        <time>2012-04-09T07:53:58Z</time>
      </trkpt>
      <trkpt lat="44.81325" lon="5.33011">
        <ele>910</ele>
        <time>2012-04-09T07:54:06Z</time>
      </trkpt>
      <trkpt lat="44.81344" lon="5.33013">
        <ele>916</ele>
        <time>2012-04-09T07:54:17Z</time>
      </trkpt>
      <trkpt lat="44.81362" lon="5.33016">
        <ele>921</ele>
        <time>2012-04-09T07:54:27Z</time>
      </trkpt>
      <trkpt lat="44.81375" lon="5.33017">
        <ele>922</ele>
        <time>2012-04-09T07:54:34Z</time>
      </trkpt>
      <trkpt lat="44.81393" lon="5.33019">
        <ele>923</ele>
        <time>2012-04-09T07:54:44Z</time>
      </trkpt>
      <trkpt lat="44.8141" lon="5.33017">
        <ele>922</ele>
        <time>2012-04-09T07:54:53Z</time>
      </trkpt>
      <trkpt lat="44.81426" lon="5.33014">
        <ele>926</ele>
        <time>2012-04-09T07:55:02Z</time>
      </trkpt>
      <trkpt lat="44.81441" lon="5.33011">
        <ele>929</ele>
        <time>2012-04-09T07:55:10Z</time>
      </trkpt>
      <trkpt lat="44.81455" lon="5.33008">
        <ele>931</ele>
        <time>2012-04-09T07:55:18Z</time>
      </trkpt>
      <trkpt lat="44.81471" lon="5.33003">
        <ele>931</ele>
        <time>2012-04-09T07:55:27Z</time>
      </trkpt>
      <trkpt lat="44.81483" lon="5.33">
        <ele>930</ele>
        <time>2012-04-09T07:55:34Z</time>
      </trkpt>
      <trkpt lat="44.81494" lon="5.32998">
        <ele>922</ele>
        <time>2012-04-09T07:55:41Z</time>
      </trkpt>
      <trkpt lat="44.81508" lon="5.32996">
        <ele>923</ele>
        <time>2012-04-09T07:55:50Z</time>
      </trkpt>
      <trkpt lat="44.8152" lon="5.32994">
        <ele>922</ele>
        <time>2012-04-09T07:55:58Z</time>
      </trkpt>
      <trkpt lat="44.81537" lon="5.32992">
        <ele>922</ele>
        <time>2012-04-09T07:56:08Z</time>
      </trkpt>
      <trkpt lat="44.81549" lon="5.3299">
        <ele>924</ele>
        <time>2012-04-09T07:56:16Z</time>
      </trkpt>
      <trkpt lat="44.81566" lon="5.32988">
        <ele>927</ele>
        <time>2012-04-09T07:56:26Z</time>
      </trkpt>
      <trkpt lat="44.81585" lon="5.32987">
        <ele>936</ele>
        <time>2012-04-09T07:56:37Z</time>
      </trkpt>
      <trkpt lat="44.81607" lon="5.32984">
        <ele>934</ele>
        <time>2012-04-09T07:56:49Z</time>
      </trkpt>
      <trkpt lat="44.81627" lon="5.32979">
        <ele>935</ele>
        <time>2012-04-09T07:57:00Z</time>
      </trkpt>
      <trkpt lat="44.81646" lon="5.32972">
        <ele>936</ele>
        <time>2012-04-09T07:57:11Z</time>
      </trkpt>
      <trkpt lat="44.81668" lon="5.32964">
        <ele>943</ele>
        <time>2012-04-09T07:57:23Z</time>
      </trkpt>
      <trkpt lat="44.81688" lon="5.32959">
        <ele>942</ele>
        <time>2012-04-09T07:57:34Z</time>
      </trkpt>
      <trkpt lat="44.81707" lon="5.32954">
        <ele>942</ele>
        <time>2012-04-09T07:57:45Z</time>
      </trkpt>
      <trkpt lat="44.81722" lon="5.32955">
        <ele>942</ele>
        <time>2012-04-09T07:57:53Z</time>
      </trkpt>
      <trkpt lat="44.81741" lon="5.32959">
        <ele>944</ele>
        <time>2012-04-09T07:58:04Z</time>
      </trkpt>
      <trkpt lat="44.8175" lon="5.32963">
        <ele>945</ele>
        <time>2012-04-09T07:58:10Z</time>
      </trkpt>
      <trkpt lat="44.81766" lon="5.32973">
        <ele>948</ele>
        <time>2012-04-09T07:58:19Z</time>
      </trkpt>
      <trkpt lat="44.8178" lon="5.32983">
        <ele>949</ele>
        <time>2012-04-09T07:58:27Z</time>
      </trkpt>
      <trkpt lat="44.81784" lon="5.32986">
        <ele>949</ele>
        <time>2012-04-09T07:58:29Z</time>
      </trkpt>
      <trkpt lat="44.81798" lon="5.32995">
        <ele>949</ele>
        <time>2012-04-09T07:58:38Z</time>
      </trkpt>
      <trkpt lat="44.81812" lon="5.33003">
        <ele>966</ele>
        <time>2012-04-09T07:58:46Z</time>
      </trkpt>
      <trkpt lat="44.8183" lon="5.33013">
        <ele>964</ele>
        <time>2012-04-09T07:58:56Z</time>
      </trkpt>
      <trkpt lat="44.81845" lon="5.33021">
        <ele>965</ele>
        <time>2012-04-09T07:59:05Z</time>
      </trkpt>
      <trkpt lat="44.81859" lon="5.33028">
        <ele>967</ele>
        <time>2012-04-09T07:59:13Z</time>
      </trkpt>
      <trkpt lat="44.81873" lon="5.33036">
        <ele>969</ele>
        <time>2012-04-09T07:59:22Z</time>
      </trkpt>
      <trkpt lat="44.8189" lon="5.33045">
        <ele>970</ele>
        <time>2012-04-09T07:59:33Z</time>
      </trkpt>
      <trkpt lat="44.81909" lon="5.33049">
        <ele>971</ele>
        <time>2012-04-09T07:59:44Z</time>
      </trkpt>
      <trkpt lat="44.81927" lon="5.33047">
        <ele>979</ele>
        <time>2012-04-09T07:59:54Z</time>
      </trkpt>
      <trkpt lat="44.81945" lon="5.33041">
        <ele>980</ele>
        <time>2012-04-09T08:00:04Z</time>
      </trkpt>
      <trkpt lat="44.8196" lon="5.33036">
        <ele>981</ele>
        <time>2012-04-09T08:00:13Z</time>
      </trkpt>
      <trkpt lat="44.81973" lon="5.33036">
        <ele>983</ele>
        <time>2012-04-09T08:00:22Z</time>
      </trkpt>
      <trkpt lat="44.81985" lon="5.33036">
        <ele>985</ele>
        <time>2012-04-09T08:00:30Z</time>
      </trkpt>
      <trkpt lat="44.82002" lon="5.3304">
        <ele>1005</ele>
        <time>2012-04-09T08:00:42Z</time>
      </trkpt>
      <trkpt lat="44.82013" lon="5.33041">
        <ele>1006</ele>
        <time>2012-04-09T08:00:50Z</time>
      </trkpt>
      <trkpt lat="44.82025" lon="5.33038">
        <ele>1008</ele>
        <time>2012-04-09T08:00:58Z</time>
      </trkpt>
      <trkpt lat="44.82029" lon="5.33029">
        <ele>1008</ele>
        <time>2012-04-09T08:01:03Z</time>
      </trkpt>
      <trkpt lat="44.82024" lon="5.33011">
        <ele>1004</ele>
        <time>2012-04-09T08:01:12Z</time>
      </trkpt>
      <trkpt lat="44.82015" lon="5.32997">
        <ele>998</ele>
        <time>2012-04-09T08:01:21Z</time>
      </trkpt>
      <trkpt lat="44.82012" lon="5.32978">
        <ele>1000</ele>
        <time>2012-04-09T08:01:30Z</time>
      </trkpt>
      <trkpt lat="44.82018" lon="5.32961">
        <ele>1002</ele>
        <time>2012-04-09T08:01:39Z</time>
      </trkpt>
      <trkpt lat="44.82025" lon="5.32946">
        <ele>1003</ele>
        <time>2012-04-09T08:01:47Z</time>
      </trkpt>
      <trkpt lat="44.82033" lon="5.32927">
        <ele>1004</ele>
        <time>2012-04-09T08:01:57Z</time>
      </trkpt>
      <trkpt lat="44.8204" lon="5.3291">
        <ele>999</ele>
        <time>2012-04-09T08:02:06Z</time>
      </trkpt>
      <trkpt lat="44.82048" lon="5.32893">
        <ele>1000</ele>
        <time>2012-04-09T08:02:16Z</time>
      </trkpt>
      <trkpt lat="44.82054" lon="5.32882">
        <ele>1000</ele>
        <time>2012-04-09T08:02:23Z</time>
      </trkpt>
      <trkpt lat="44.8206" lon="5.32871">
        <ele>1000</ele>
        <time>2012-04-09T08:02:30Z</time>
      </trkpt>
      <trkpt lat="44.8207" lon="5.32855">
        <ele>1000</ele>
        <time>2012-04-09T08:02:40Z</time>
      </trkpt>
      <trkpt lat="44.82079" lon="5.32843">
        <ele>1000</ele>
        <time>2012-04-09T08:02:48Z</time>
      </trkpt>
      <trkpt lat="44.8209" lon="5.32836">
        <ele>1009</ele>
        <time>2012-04-09T08:02:57Z</time>
      </trkpt>
      <trkpt lat="44.82105" lon="5.32834">
        <ele>1018</ele>
        <time>2012-04-09T08:03:07Z</time>
      </trkpt>
      <trkpt lat="44.82119" lon="5.3283">
        <ele>1009</ele>
        <time>2012-04-09T08:03:17Z</time>
      </trkpt>
      <trkpt lat="44.82131" lon="5.32824">
        <ele>1012</ele>
        <time>2012-04-09T08:03:25Z</time>
      </trkpt>
      <trkpt lat="44.82148" lon="5.32823">
        <ele>1017</ele>
        <time>2012-04-09T08:03:36Z</time>
      </trkpt>
      <trkpt lat="44.82165" lon="5.32825">
        <ele>1023</ele>
        <time>2012-04-09T08:03:47Z</time>
      </trkpt>
      <trkpt lat="44.82178" lon="5.32818">
        <ele>1037</ele>
        <time>2012-04-09T08:03:55Z</time>
      </trkpt>
      <trkpt lat="44.82185" lon="5.32805">
        <ele>1040</ele>
        <time>2012-04-09T08:04:02Z</time>
      </trkpt>
      <trkpt lat="44.82186" lon="5.32787">
        <ele>1040</ele>
        <time>2012-04-09T08:04:09Z</time>
      </trkpt>
      <trkpt lat="44.82184" lon="5.32775">
        <ele>1038</ele>
        <time>2012-04-09T08:04:16Z</time>
      </trkpt>
      <trkpt lat="44.8218" lon="5.32773">
        <ele>1036</ele>
        <time>2012-04-09T08:05:06Z</time>
      </trkpt>
      <trkpt lat="44.82178" lon="5.32776">
        <ele>1036</ele>
        <time>2012-04-09T08:05:13Z</time>
      </trkpt>
      <trkpt lat="44.82182" lon="5.32776">
        <ele>1037</ele>
        <time>2012-04-09T08:07:55Z</time>
      </trkpt>
      <trkpt lat="44.82182" lon="5.32775">
        <ele>1037</ele>
        <time>2012-04-09T08:07:58Z</time>
      </trkpt>
      <trkpt lat="44.82177" lon="5.32757">
        <ele>1030</ele>
        <time>2012-04-09T08:08:05Z</time>
      </trkpt>
      <trkpt lat="44.82171" lon="5.32737">
        <ele>1034</ele>
        <time>2012-04-09T08:08:11Z</time>
      </trkpt>
      <trkpt lat="44.82162" lon="5.32721">
        <ele>1014</ele>
        <time>2012-04-09T08:08:17Z</time>
      </trkpt>
      <trkpt lat="44.82155" lon="5.32698">
        <ele>1016</ele>
        <time>2012-04-09T08:08:23Z</time>
      </trkpt>
      <trkpt lat="44.82151" lon="5.32691">
        <ele>1017</ele>
        <time>2012-04-09T08:08:25Z</time>
      </trkpt>
      <trkpt lat="44.82139" lon="5.32683">
        <ele>1015</ele>
        <time>2012-04-09T08:08:28Z</time>
      </trkpt>
      <trkpt lat="44.82123" lon="5.32662">
        <ele>1020</ele>
        <time>2012-04-09T08:08:32Z</time>
      </trkpt>
      <trkpt lat="44.82117" lon="5.32648">
        <ele>1018</ele>
        <time>2012-04-09T08:08:34Z</time>
      </trkpt>
      <trkpt lat="44.8211" lon="5.32634">
        <ele>1018</ele>
        <time>2012-04-09T08:08:36Z</time>
      </trkpt>
      <trkpt lat="44.82104" lon="5.32602">
        <ele>1019</ele>
        <time>2012-04-09T08:08:40Z</time>
      </trkpt>
      <trkpt lat="44.82104" lon="5.32574">
        <ele>1026</ele>
        <time>2012-04-09T08:08:45Z</time>
      </trkpt>
      <trkpt lat="44.82101" lon="5.32542">
        <ele>1031</ele>
        <time>2012-04-09T08:08:53Z</time>
      </trkpt>
      <trkpt lat="44.82096" lon="5.32515">
        <ele>1029</ele>
        <time>2012-04-09T08:09:01Z</time>
      </trkpt>
      <trkpt lat="44.8209" lon="5.32483">
        <ele>1034</ele>
        <time>2012-04-09T08:09:11Z</time>
      </trkpt>
      <trkpt lat="44.82081" lon="5.32465">
        <ele>1019</ele>
        <time>2012-04-09T08:09:18Z</time>
      </trkpt>
      <trkpt lat="44.82071" lon="5.32437">
        <ele>1023</ele>
        <time>2012-04-09T08:09:27Z</time>
      </trkpt>
      <trkpt lat="44.82065" lon="5.32417">
        <ele>1025</ele>
        <time>2012-04-09T08:09:34Z</time>
      </trkpt>
      <trkpt lat="44.82058" lon="5.32394">
        <ele>1026</ele>
        <time>2012-04-09T08:09:43Z</time>
      </trkpt>
      <trkpt lat="44.82052" lon="5.32379">
        <ele>1025</ele>
        <time>2012-04-09T08:09:50Z</time>
      </trkpt>
      <trkpt lat="44.82049" lon="5.32359">
        <ele>1025</ele>
        <time>2012-04-09T08:09:59Z</time>
      </trkpt>
      <trkpt lat="44.82056" lon="5.32349">
        <ele>1025</ele>
        <time>2012-04-09T08:10:05Z</time>
      </trkpt>
      <trkpt lat="44.82067" lon="5.32344">
        <ele>1025</ele>
        <time>2012-04-09T08:10:12Z</time>
      </trkpt>
      <trkpt lat="44.82083" lon="5.32341">
        <ele>1026</ele>
        <time>2012-04-09T08:10:21Z</time>
      </trkpt>
      <trkpt lat="44.82101" lon="5.32338">
        <ele>1034</ele>
        <time>2012-04-09T08:10:31Z</time>
      </trkpt>
      <trkpt lat="44.82116" lon="5.32335">
        <ele>1038</ele>
        <time>2012-04-09T08:10:39Z</time>
      </trkpt>
      <trkpt lat="44.82132" lon="5.32331">
        <ele>1029</ele>
        <time>2012-04-09T08:10:47Z</time>
      </trkpt>
      <trkpt lat="44.82149" lon="5.32322">
        <ele>1032</ele>
        <time>2012-04-09T08:10:55Z</time>
      </trkpt>
      <trkpt lat="44.8217" lon="5.32309">
        <ele>1044</ele>
        <time>2012-04-09T08:11:05Z</time>
      </trkpt>
      <trkpt lat="44.82185" lon="5.32297">
        <ele>1043</ele>
        <time>2012-04-09T08:11:12Z</time>
      </trkpt>
      <trkpt lat="44.82203" lon="5.3228">
        <ele>1043</ele>
        <time>2012-04-09T08:11:20Z</time>
      </trkpt>
      <trkpt lat="44.82213" lon="5.32263">
        <ele>1043</ele>
        <time>2012-04-09T08:11:27Z</time>
      </trkpt>
      <trkpt lat="44.82223" lon="5.32245">
        <ele>1030</ele>
        <time>2012-04-09T08:11:34Z</time>
      </trkpt>
      <trkpt lat="44.82233" lon="5.32238">
        <ele>1033</ele>
        <time>2012-04-09T08:11:39Z</time>
      </trkpt>
      <trkpt lat="44.82251" lon="5.32228">
        <ele>1050</ele>
        <time>2012-04-09T08:11:47Z</time>
      </trkpt>
      <trkpt lat="44.82266" lon="5.32215">
        <ele>1051</ele>
        <time>2012-04-09T08:11:54Z</time>
      </trkpt>
      <trkpt lat="44.82285" lon="5.32191">
        <ele>1051</ele>
        <time>2012-04-09T08:12:04Z</time>
      </trkpt>
      <trkpt lat="44.82291" lon="5.32173">
        <ele>1050</ele>
        <time>2012-04-09T08:12:10Z</time>
      </trkpt>
      <trkpt lat="44.823" lon="5.32145">
        <ele>1040</ele>
        <time>2012-04-09T08:12:19Z</time>
      </trkpt>
      <trkpt lat="44.82312" lon="5.32121">
        <ele>1039</ele>
        <time>2012-04-09T08:12:27Z</time>
      </trkpt>
      <trkpt lat="44.82315" lon="5.32107">
        <ele>1040</ele>
        <time>2012-04-09T08:12:31Z</time>
      </trkpt>
      <trkpt lat="44.82313" lon="5.32085">
        <ele>1039</ele>
        <time>2012-04-09T08:12:37Z</time>
      </trkpt>
      <trkpt lat="44.8231" lon="5.3206">
        <ele>1030</ele>
        <time>2012-04-09T08:12:44Z</time>
      </trkpt>
      <trkpt lat="44.82313" lon="5.32048">
        <ele>1029</ele>
        <time>2012-04-09T08:12:50Z</time>
      </trkpt>
      <trkpt lat="44.82316" lon="5.32045">
        <ele>1029</ele>
        <time>2012-04-09T08:12:56Z</time>
      </trkpt>
      <trkpt lat="44.82317" lon="5.32045">
        <ele>1029</ele>
        <time>2012-04-09T08:12:57Z</time>
      </trkpt>
      <trkpt lat="44.82324" lon="5.3205">
        <ele>1031</ele>
        <time>2012-04-09T08:13:03Z</time>
      </trkpt>
      <trkpt lat="44.82336" lon="5.32056">
        <ele>1035</ele>
        <time>2012-04-09T08:13:12Z</time>
      </trkpt>
      <trkpt lat="44.82347" lon="5.32064">
        <ele>1036</ele>
        <time>2012-04-09T08:13:20Z</time>
      </trkpt>
      <trkpt lat="44.82357" lon="5.3207">
        <ele>1036</ele>
        <time>2012-04-09T08:13:28Z</time>
      </trkpt>
      <trkpt lat="44.82367" lon="5.32078">
        <ele>1036</ele>
        <time>2012-04-09T08:13:35Z</time>
      </trkpt>
      <trkpt lat="44.82377" lon="5.32088">
        <ele>1051</ele>
        <time>2012-04-09T08:13:43Z</time>
      </trkpt>
      <trkpt lat="44.82385" lon="5.32095">
        <ele>1051</ele>
        <time>2012-04-09T08:13:51Z</time>
      </trkpt>
      <trkpt lat="44.82394" lon="5.32102">
        <ele>1051</ele>
        <time>2012-04-09T08:13:58Z</time>
      </trkpt>
      <trkpt lat="44.82406" lon="5.32111">
        <ele>1053</ele>
        <time>2012-04-09T08:14:07Z</time>
      </trkpt>
      <trkpt lat="44.82415" lon="5.32119">
        <ele>1055</ele>
        <time>2012-04-09T08:14:15Z</time>
      </trkpt>
      <trkpt lat="44.82427" lon="5.32127">
        <ele>1064</ele>
        <time>2012-04-09T08:14:25Z</time>
      </trkpt>
      <trkpt lat="44.82439" lon="5.32134">
        <ele>1067</ele>
        <time>2012-04-09T08:14:34Z</time>
      </trkpt>
      <trkpt lat="44.82451" lon="5.32139">
        <ele>1069</ele>
        <time>2012-04-09T08:14:42Z</time>
      </trkpt>
      <trkpt lat="44.82462" lon="5.3214">
        <ele>1070</ele>
        <time>2012-04-09T08:14:51Z</time>
      </trkpt>
      <trkpt lat="44.82466" lon="5.3214">
        <ele>1070</ele>
        <time>2012-04-09T08:14:54Z</time>
      </trkpt>
      <trkpt lat="44.82476" lon="5.32133">
        <ele>1069</ele>
        <time>2012-04-09T08:15:01Z</time>
      </trkpt>
      <trkpt lat="44.82477" lon="5.32132">
        <ele>1069</ele>
        <time>2012-04-09T08:15:02Z</time>
      </trkpt>
      <trkpt lat="44.82488" lon="5.32122">
        <ele>1067</ele>
        <time>2012-04-09T08:15:11Z</time>
      </trkpt>
      <trkpt lat="44.82497" lon="5.32122">
        <ele>1067</ele>
        <time>2012-04-09T08:15:18Z</time>
      </trkpt>
      <trkpt lat="44.82511" lon="5.32121">
        <ele>1079</ele>
        <time>2012-04-09T08:15:28Z</time>
      </trkpt>
      <trkpt lat="44.8252" lon="5.32122">
        <ele>1080</ele>
        <time>2012-04-09T08:15:35Z</time>
      </trkpt>
      <trkpt lat="44.82531" lon="5.3212">
        <ele>1081</ele>
        <time>2012-04-09T08:15:43Z</time>
      </trkpt>
      <trkpt lat="44.82544" lon="5.32117">
        <ele>1082</ele>
        <time>2012-04-09T08:15:52Z</time>
      </trkpt>
      <trkpt lat="44.82557" lon="5.3211">
        <ele>1083</ele>
        <time>2012-04-09T08:16:02Z</time>
      </trkpt>
      <trkpt lat="44.8257" lon="5.32098">
        <ele>1082</ele>
        <time>2012-04-09T08:16:12Z</time>
      </trkpt>
      <trkpt lat="44.82579" lon="5.32089">
        <ele>1080</ele>
        <time>2012-04-09T08:16:20Z</time>
      </trkpt>
      <trkpt lat="44.82589" lon="5.32076">
        <ele>1073</ele>
        <time>2012-04-09T08:16:29Z</time>
      </trkpt>
      <trkpt lat="44.82599" lon="5.3207">
        <ele>1069</ele>
        <time>2012-04-09T08:16:37Z</time>
      </trkpt>
      <trkpt lat="44.82609" lon="5.32076">
        <ele>1068</ele>
        <time>2012-04-09T08:16:45Z</time>
      </trkpt>
      <trkpt lat="44.82617" lon="5.32082">
        <ele>1067</ele>
        <time>2012-04-09T08:16:53Z</time>
      </trkpt>
      <trkpt lat="44.82624" lon="5.32088">
        <ele>1086</ele>
        <time>2012-04-09T08:17:00Z</time>
      </trkpt>
      <trkpt lat="44.82633" lon="5.32098">
        <ele>1086</ele>
        <time>2012-04-09T08:17:09Z</time>
      </trkpt>
      <trkpt lat="44.82642" lon="5.32109">
        <ele>1087</ele>
        <time>2012-04-09T08:17:18Z</time>
      </trkpt>
      <trkpt lat="44.82645" lon="5.32125">
        <ele>1090</ele>
        <time>2012-04-09T08:17:26Z</time>
      </trkpt>
      <trkpt lat="44.82647" lon="5.32139">
        <ele>1093</ele>
        <time>2012-04-09T08:17:33Z</time>
      </trkpt>
      <trkpt lat="44.82651" lon="5.32153">
        <ele>1096</ele>
        <time>2012-04-09T08:17:41Z</time>
      </trkpt>
      <trkpt lat="44.82658" lon="5.32169">
        <ele>1108</ele>
        <time>2012-04-09T08:17:51Z</time>
      </trkpt>
      <trkpt lat="44.82665" lon="5.32185">
        <ele>1115</ele>
        <time>2012-04-09T08:18:00Z</time>
      </trkpt>
      <trkpt lat="44.82672" lon="5.32192">
        <ele>1111</ele>
        <time>2012-04-09T08:18:07Z</time>
      </trkpt>
      <trkpt lat="44.82682" lon="5.32197">
        <ele>1113</ele>
        <time>2012-04-09T08:18:15Z</time>
      </trkpt>
      <trkpt lat="44.8269" lon="5.32197">
        <ele>1113</ele>
        <time>2012-04-09T08:18:21Z</time>
      </trkpt>
      <trkpt lat="44.827" lon="5.32198">
        <ele>1113</ele>
        <time>2012-04-09T08:18:29Z</time>
      </trkpt>
      <trkpt lat="44.82709" lon="5.32204">
        <ele>1114</ele>
        <time>2012-04-09T08:18:37Z</time>
      </trkpt>
      <trkpt lat="44.82718" lon="5.32209">
        <ele>1115</ele>
        <time>2012-04-09T08:18:44Z</time>
      </trkpt>
      <trkpt lat="44.82728" lon="5.32207">
        <ele>1113</ele>
        <time>2012-04-09T08:18:52Z</time>
      </trkpt>
      <trkpt lat="44.82735" lon="5.32208">
        <ele>1113</ele>
        <time>2012-04-09T08:18:57Z</time>
      </trkpt>
      <trkpt lat="44.82744" lon="5.32213">
        <ele>1115</ele>
        <time>2012-04-09T08:19:05Z</time>
      </trkpt>
      <trkpt lat="44.82747" lon="5.32216">
        <ele>1115</ele>
        <time>2012-04-09T08:19:07Z</time>
      </trkpt>
      <trkpt lat="44.82754" lon="5.32231">
        <ele>1118</ele>
        <time>2012-04-09T08:19:17Z</time>
      </trkpt>
      <trkpt lat="44.82756" lon="5.32234">
        <ele>1119</ele>
        <time>2012-04-09T08:19:19Z</time>
      </trkpt>
      <trkpt lat="44.82762" lon="5.32245">
        <ele>1122</ele>
        <time>2012-04-09T08:19:27Z</time>
      </trkpt>
      <trkpt lat="44.82764" lon="5.32248">
        <ele>1122</ele>
        <time>2012-04-09T08:19:29Z</time>
      </trkpt>
      <trkpt lat="44.8276" lon="5.32255">
        <ele>1138</ele>
        <time>2012-04-09T08:19:36Z</time>
      </trkpt>
      <trkpt lat="44.82762" lon="5.32247">
        <ele>1122</ele>
        <time>2012-04-09T08:20:36Z</time>
      </trkpt>
      <trkpt lat="44.82758" lon="5.32239">
        <ele>1121</ele>
        <time>2012-04-09T08:20:41Z</time>
      </trkpt>
      <trkpt lat="44.82751" lon="5.32233">
        <ele>1119</ele>
        <time>2012-04-09T08:20:48Z</time>
      </trkpt>
      <trkpt lat="44.82743" lon="5.32228">
        <ele>1120</ele>
        <time>2012-04-09T08:20:55Z</time>
      </trkpt>
      <trkpt lat="44.82741" lon="5.32227">
        <ele>1119</ele>
        <time>2012-04-09T08:20:56Z</time>
      </trkpt>
      <trkpt lat="44.82729" lon="5.3223">
        <ele>1120</ele>
        <time>2012-04-09T08:21:04Z</time>
      </trkpt>
      <trkpt lat="44.82722" lon="5.32232">
        <ele>1120</ele>
        <time>2012-04-09T08:21:10Z</time>
      </trkpt>
      <trkpt lat="44.82713" lon="5.32232">
        <ele>1120</ele>
        <time>2012-04-09T08:21:16Z</time>
      </trkpt>
      <trkpt lat="44.82705" lon="5.3223">
        <ele>1120</ele>
        <time>2012-04-09T08:21:21Z</time>
      </trkpt>
      <trkpt lat="44.82699" lon="5.32232">
        <ele>1122</ele>
        <time>2012-04-09T08:21:26Z</time>
      </trkpt>
      <trkpt lat="44.82697" lon="5.32234">
        <ele>1123</ele>
        <time>2012-04-09T08:21:28Z</time>
      </trkpt>
      <trkpt lat="44.82693" lon="5.32238">
        <ele>1124</ele>
        <time>2012-04-09T08:21:31Z</time>
      </trkpt>
      <trkpt lat="44.82687" lon="5.32242">
        <ele>1127</ele>
        <time>2012-04-09T08:21:36Z</time>
      </trkpt>
      <trkpt lat="44.82675" lon="5.32249">
        <ele>1135</ele>
        <time>2012-04-09T08:21:45Z</time>
      </trkpt>
      <trkpt lat="44.82666" lon="5.32252">
        <ele>1144</ele>
        <time>2012-04-09T08:21:52Z</time>
      </trkpt>
      <trkpt lat="44.82661" lon="5.3225">
        <ele>1139</ele>
        <time>2012-04-09T08:22:03Z</time>
      </trkpt>
      <trkpt lat="44.82655" lon="5.32244">
        <ele>1136</ele>
        <time>2012-04-09T08:22:11Z</time>
      </trkpt>
      <trkpt lat="44.82648" lon="5.32245">
        <ele>1135</ele>
        <time>2012-04-09T08:22:19Z</time>
      </trkpt>
      <trkpt lat="44.82642" lon="5.32244">
        <ele>1134</ele>
        <time>2012-04-09T08:22:27Z</time>
      </trkpt>
      <trkpt lat="44.82638" lon="5.32246">
        <ele>1134</ele>
        <time>2012-04-09T08:22:53Z</time>
      </trkpt>
      <trkpt lat="44.82634" lon="5.32242">
        <ele>1134</ele>
        <time>2012-04-09T08:23:02Z</time>
      </trkpt>
      <trkpt lat="44.82634" lon="5.32237">
        <ele>1133</ele>
        <time>2012-04-09T08:23:12Z</time>
      </trkpt>
      <trkpt lat="44.82637" lon="5.32241">
        <ele>1134</ele>
        <time>2012-04-09T08:23:19Z</time>
      </trkpt>
      <trkpt lat="44.82641" lon="5.32242">
        <ele>1134</ele>
        <time>2012-04-09T08:23:45Z</time>
      </trkpt>
      <trkpt lat="44.82636" lon="5.32236">
        <ele>1133</ele>
        <time>2012-04-09T08:23:50Z</time>
      </trkpt>
      <trkpt lat="44.82629" lon="5.3223">
        <ele>1132</ele>
        <time>2012-04-09T08:23:57Z</time>
      </trkpt>
      <trkpt lat="44.82626" lon="5.32225">
        <ele>1131</ele>
        <time>2012-04-09T08:24:06Z</time>
      </trkpt>
      <trkpt lat="44.82618" lon="5.32217">
        <ele>1130</ele>
        <time>2012-04-09T08:24:12Z</time>
      </trkpt>
      <trkpt lat="44.82615" lon="5.32215">
        <ele>1130</ele>
        <time>2012-04-09T08:24:14Z</time>
      </trkpt>
      <trkpt lat="44.82604" lon="5.32218">
        <ele>1132</ele>
        <time>2012-04-09T08:24:22Z</time>
      </trkpt>
      <trkpt lat="44.82595" lon="5.32224">
        <ele>1135</ele>
        <time>2012-04-09T08:24:29Z</time>
      </trkpt>
      <trkpt lat="44.82587" lon="5.32229">
        <ele>1139</ele>
        <time>2012-04-09T08:24:36Z</time>
      </trkpt>
      <trkpt lat="44.82583" lon="5.32231">
        <ele>1137</ele>
        <time>2012-04-09T08:24:41Z</time>
      </trkpt>
      <trkpt lat="44.82571" lon="5.32235">
        <ele>1137</ele>
        <time>2012-04-09T08:24:49Z</time>
      </trkpt>
      <trkpt lat="44.82565" lon="5.3224">
        <ele>1136</ele>
        <time>2012-04-09T08:24:56Z</time>
      </trkpt>
      <trkpt lat="44.82558" lon="5.32249">
        <ele>1135</ele>
        <time>2012-04-09T08:25:04Z</time>
      </trkpt>
      <trkpt lat="44.82556" lon="5.32251">
        <ele>1158</ele>
        <time>2012-04-09T08:25:10Z</time>
      </trkpt>
      <trkpt lat="44.82552" lon="5.32256">
        <ele>1158</ele>
        <time>2012-04-09T08:25:23Z</time>
      </trkpt>
      <trkpt lat="44.82545" lon="5.3226">
        <ele>1158</ele>
        <time>2012-04-09T08:25:33Z</time>
      </trkpt>
      <trkpt lat="44.82541" lon="5.32262">
        <ele>1157</ele>
        <time>2012-04-09T08:25:38Z</time>
      </trkpt>
      <trkpt lat="44.82539" lon="5.32262">
        <ele>1157</ele>
        <time>2012-04-09T08:25:43Z</time>
      </trkpt>
      <trkpt lat="44.82533" lon="5.32268">
        <ele>1157</ele>
        <time>2012-04-09T08:25:51Z</time>
      </trkpt>
      <trkpt lat="44.82528" lon="5.32273">
        <ele>1157</ele>
        <time>2012-04-09T08:25:59Z</time>
      </trkpt>
      <trkpt lat="44.82524" lon="5.32276">
        <ele>1157</ele>
        <time>2012-04-09T08:26:04Z</time>
      </trkpt>
      <trkpt lat="44.82518" lon="5.32286">
        <ele>1159</ele>
        <time>2012-04-09T08:26:10Z</time>
      </trkpt>
      <trkpt lat="44.82513" lon="5.32295">
        <ele>1162</ele>
        <time>2012-04-09T08:26:17Z</time>
      </trkpt>
      <trkpt lat="44.82512" lon="5.32297">
        <ele>1162</ele>
        <time>2012-04-09T08:26:24Z</time>
      </trkpt>
      <trkpt lat="44.8251" lon="5.32304">
        <ele>1164</ele>
        <time>2012-04-09T08:26:32Z</time>
      </trkpt>
      <trkpt lat="44.82507" lon="5.32305">
        <ele>1165</ele>
        <time>2012-04-09T08:26:38Z</time>
      </trkpt>
      <trkpt lat="44.82503" lon="5.32308">
        <ele>1166</ele>
        <time>2012-04-09T08:26:43Z</time>
      </trkpt>
      <trkpt lat="44.82498" lon="5.32307">
        <ele>1153</ele>
        <time>2012-04-09T08:26:50Z</time>
      </trkpt>
      <trkpt lat="44.82496" lon="5.3231">
        <ele>1155</ele>
        <time>2012-04-09T08:26:54Z</time>
      </trkpt>
      <trkpt lat="44.82493" lon="5.32313">
        <ele>1156</ele>
        <time>2012-04-09T08:27:00Z</time>
      </trkpt>
      <trkpt lat="44.82492" lon="5.32314">
        <ele>1156</ele>
        <time>2012-04-09T08:27:02Z</time>
      </trkpt>
      <trkpt lat="44.82486" lon="5.32321">
        <ele>1157</ele>
        <time>2012-04-09T08:27:10Z</time>
      </trkpt>
      <trkpt lat="44.82481" lon="5.32327">
        <ele>1157</ele>
        <time>2012-04-09T08:27:15Z</time>
      </trkpt>
      <trkpt lat="44.8248" lon="5.32327">
        <ele>1157</ele>
        <time>2012-04-09T08:27:16Z</time>
      </trkpt>
      <trkpt lat="44.82479" lon="5.32329">
        <ele>1157</ele>
        <time>2012-04-09T08:27:18Z</time>
      </trkpt>
      <trkpt lat="44.82474" lon="5.32332">
        <ele>1155</ele>
        <time>2012-04-09T08:27:25Z</time>
      </trkpt>
      <trkpt lat="44.8247" lon="5.32336">
        <ele>1176</ele>
        <time>2012-04-09T08:27:30Z</time>
      </trkpt>
      <trkpt lat="44.82465" lon="5.32339">
        <ele>1176</ele>
        <time>2012-04-09T08:27:37Z</time>
      </trkpt>
      <trkpt lat="44.82466" lon="5.32339">
        <ele>1176</ele>
        <time>2012-04-09T08:27:42Z</time>
      </trkpt>
      <trkpt lat="44.82469" lon="5.32336">
        <ele>1176</ele>
        <time>2012-04-09T08:27:51Z</time>
      </trkpt>
      <trkpt lat="44.8247" lon="5.32334">
        <ele>1176</ele>
        <time>2012-04-09T08:27:57Z</time>
      </trkpt>
      <trkpt lat="44.82475" lon="5.32334">
        <ele>1176</ele>
        <time>2012-04-09T08:28:03Z</time>
      </trkpt>
      <trkpt lat="44.82482" lon="5.32332">
        <ele>1158</ele>
        <time>2012-04-09T08:28:09Z</time>
      </trkpt>
      <trkpt lat="44.82487" lon="5.32328">
        <ele>1161</ele>
        <time>2012-04-09T08:28:16Z</time>
      </trkpt>
      <trkpt lat="44.82494" lon="5.32329">
        <ele>1166</ele>
        <time>2012-04-09T08:28:24Z</time>
      </trkpt>
      <trkpt lat="44.82499" lon="5.32331">
        <ele>1171</ele>
        <time>2012-04-09T08:28:31Z</time>
      </trkpt>
      <trkpt lat="44.82502" lon="5.3233">
        <ele>1173</ele>
        <time>2012-04-09T08:28:35Z</time>
      </trkpt>
      <trkpt lat="44.82508" lon="5.32328">
        <ele>1172</ele>
        <time>2012-04-09T08:28:43Z</time>
      </trkpt>
      <trkpt lat="44.82515" lon="5.32325">
        <ele>1170</ele>
        <time>2012-04-09T08:28:51Z</time>
      </trkpt>
      <trkpt lat="44.82523" lon="5.32321">
        <ele>1169</ele>
        <time>2012-04-09T08:28:58Z</time>
      </trkpt>
      <trkpt lat="44.82529" lon="5.32318">
        <ele>1168</ele>
        <time>2012-04-09T08:29:06Z</time>
      </trkpt>
      <trkpt lat="44.82531" lon="5.32317">
        <ele>1168</ele>
        <time>2012-04-09T08:29:12Z</time>
      </trkpt>
      <trkpt lat="44.82541" lon="5.32312">
        <ele>1168</ele>
        <time>2012-04-09T08:29:22Z</time>
      </trkpt>
      <trkpt lat="44.82547" lon="5.32312">
        <ele>1169</ele>
        <time>2012-04-09T08:29:29Z</time>
      </trkpt>
      <trkpt lat="44.82553" lon="5.32309">
        <ele>1169</ele>
        <time>2012-04-09T08:29:37Z</time>
      </trkpt>
      <trkpt lat="44.82559" lon="5.32306">
        <ele>1170</ele>
        <time>2012-04-09T08:29:45Z</time>
      </trkpt>
      <trkpt lat="44.82566" lon="5.32303">
        <ele>1170</ele>
        <time>2012-04-09T08:29:53Z</time>
      </trkpt>
      <trkpt lat="44.82571" lon="5.32303">
        <ele>1171</ele>
        <time>2012-04-09T08:30:01Z</time>
      </trkpt>
      <trkpt lat="44.82576" lon="5.323">
        <ele>1170</ele>
        <time>2012-04-09T08:30:06Z</time>
      </trkpt>
      <trkpt lat="44.82581" lon="5.32302">
        <ele>1171</ele>
        <time>2012-04-09T08:30:14Z</time>
      </trkpt>
      <trkpt lat="44.82586" lon="5.32304">
        <ele>1176</ele>
        <time>2012-04-09T08:30:20Z</time>
      </trkpt>
      <trkpt lat="44.82593" lon="5.32306">
        <ele>1176</ele>
        <time>2012-04-09T08:30:28Z</time>
      </trkpt>
      <trkpt lat="44.826" lon="5.32314">
        <ele>1178</ele>
        <time>2012-04-09T08:30:37Z</time>
      </trkpt>
      <trkpt lat="44.82606" lon="5.32325">
        <ele>1180</ele>
        <time>2012-04-09T08:30:45Z</time>
      </trkpt>
      <trkpt lat="44.82609" lon="5.32334">
        <ele>1205</ele>
        <time>2012-04-09T08:30:52Z</time>
      </trkpt>
      <trkpt lat="44.82613" lon="5.32341">
        <ele>1206</ele>
        <time>2012-04-09T08:30:58Z</time>
      </trkpt>
      <trkpt lat="44.82618" lon="5.32345">
        <ele>1208</ele>
        <time>2012-04-09T08:31:05Z</time>
      </trkpt>
      <trkpt lat="44.82622" lon="5.32349">
        <ele>1208</ele>
        <time>2012-04-09T08:31:12Z</time>
      </trkpt>
      <trkpt lat="44.82626" lon="5.32346">
        <ele>1208</ele>
        <time>2012-04-09T08:31:18Z</time>
      </trkpt>
      <trkpt lat="44.82629" lon="5.32345">
        <ele>1207</ele>
        <time>2012-04-09T08:31:23Z</time>
      </trkpt>
      <trkpt lat="44.82633" lon="5.32345">
        <ele>1207</ele>
        <time>2012-04-09T08:31:29Z</time>
      </trkpt>
      <trkpt lat="44.82636" lon="5.32344">
        <ele>1206</ele>
        <time>2012-04-09T08:31:36Z</time>
      </trkpt>
      <trkpt lat="44.82637" lon="5.32345">
        <ele>1206</ele>
        <time>2012-04-09T08:31:38Z</time>
      </trkpt>
      <trkpt lat="44.8264" lon="5.32349">
        <ele>1207</ele>
        <time>2012-04-09T08:31:41Z</time>
      </trkpt>
      <trkpt lat="44.82646" lon="5.32353">
        <ele>1207</ele>
        <time>2012-04-09T08:31:48Z</time>
      </trkpt>
      <trkpt lat="44.82648" lon="5.32353">
        <ele>1206</ele>
        <time>2012-04-09T08:31:51Z</time>
      </trkpt>
      <trkpt lat="44.82656" lon="5.32353">
        <ele>1205</ele>
        <time>2012-04-09T08:32:00Z</time>
      </trkpt>
      <trkpt lat="44.82664" lon="5.32349">
        <ele>1201</ele>
        <time>2012-04-09T08:32:08Z</time>
      </trkpt>
      <trkpt lat="44.8267" lon="5.3235">
        <ele>1198</ele>
        <time>2012-04-09T08:32:15Z</time>
      </trkpt>
      <trkpt lat="44.82674" lon="5.32352">
        <ele>1199</ele>
        <time>2012-04-09T08:32:20Z</time>
      </trkpt>
      <trkpt lat="44.82678" lon="5.32352">
        <ele>1199</ele>
        <time>2012-04-09T08:32:26Z</time>
      </trkpt>
      <trkpt lat="44.82682" lon="5.3236">
        <ele>1202</ele>
        <time>2012-04-09T08:32:32Z</time>
      </trkpt>
      <trkpt lat="44.8269" lon="5.32362">
        <ele>1202</ele>
        <time>2012-04-09T08:32:42Z</time>
      </trkpt>
      <trkpt lat="44.82698" lon="5.32365">
        <ele>1203</ele>
        <time>2012-04-09T08:32:50Z</time>
      </trkpt>
      <trkpt lat="44.82704" lon="5.32369">
        <ele>1204</ele>
        <time>2012-04-09T08:32:59Z</time>
      </trkpt>
      <trkpt lat="44.82707" lon="5.32375">
        <ele>1205</ele>
        <time>2012-04-09T08:33:05Z</time>
      </trkpt>
      <trkpt lat="44.82709" lon="5.32379">
        <ele>1206</ele>
        <time>2012-04-09T08:33:08Z</time>
      </trkpt>
      <trkpt lat="44.82711" lon="5.32384">
        <ele>1207</ele>
        <time>2012-04-09T08:33:14Z</time>
      </trkpt>
      <trkpt lat="44.82713" lon="5.32388">
        <ele>1208</ele>
        <time>2012-04-09T08:33:19Z</time>
      </trkpt>
      <trkpt lat="44.82716" lon="5.32392">
        <ele>1209</ele>
        <time>2012-04-09T08:33:25Z</time>
      </trkpt>
      <trkpt lat="44.82722" lon="5.32396">
        <ele>1210</ele>
        <time>2012-04-09T08:33:34Z</time>
      </trkpt>
      <trkpt lat="44.82723" lon="5.32396">
        <ele>1210</ele>
        <time>2012-04-09T08:33:36Z</time>
      </trkpt>
      <trkpt lat="44.8273" lon="5.32401">
        <ele>1211</ele>
        <time>2012-04-09T08:33:44Z</time>
      </trkpt>
      <trkpt lat="44.82737" lon="5.32405">
        <ele>1213</ele>
        <time>2012-04-09T08:33:52Z</time>
      </trkpt>
      <trkpt lat="44.82746" lon="5.32411">
        <ele>1217</ele>
        <time>2012-04-09T08:34:01Z</time>
      </trkpt>
      <trkpt lat="44.82753" lon="5.32417">
        <ele>1224</ele>
        <time>2012-04-09T08:34:10Z</time>
      </trkpt>
      <trkpt lat="44.82757" lon="5.3242">
        <ele>1228</ele>
        <time>2012-04-09T08:34:15Z</time>
      </trkpt>
      <trkpt lat="44.82762" lon="5.32425">
        <ele>1233</ele>
        <time>2012-04-09T08:34:23Z</time>
      </trkpt>
      <trkpt lat="44.82761" lon="5.32426">
        <ele>1233</ele>
        <time>2012-04-09T08:34:29Z</time>
      </trkpt>
      <trkpt lat="44.82763" lon="5.32425">
        <ele>1233</ele>
        <time>2012-04-09T08:34:32Z</time>
      </trkpt>
      <trkpt lat="44.82767" lon="5.3243">
        <ele>1236</ele>
        <time>2012-04-09T08:34:39Z</time>
      </trkpt>
      <trkpt lat="44.82772" lon="5.32433">
        <ele>1238</ele>
        <time>2012-04-09T08:34:46Z</time>
      </trkpt>
      <trkpt lat="44.82774" lon="5.32433">
        <ele>1239</ele>
        <time>2012-04-09T08:34:50Z</time>
      </trkpt>
      <trkpt lat="44.8278" lon="5.32429">
        <ele>1239</ele>
        <time>2012-04-09T08:34:59Z</time>
      </trkpt>
      <trkpt lat="44.82786" lon="5.32425">
        <ele>1239</ele>
        <time>2012-04-09T08:35:07Z</time>
      </trkpt>
      <trkpt lat="44.82787" lon="5.32425">
        <ele>1239</ele>
        <time>2012-04-09T08:35:08Z</time>
      </trkpt>
      <trkpt lat="44.82792" lon="5.32427">
        <ele>1240</ele>
        <time>2012-04-09T08:35:15Z</time>
      </trkpt>
      <trkpt lat="44.82797" lon="5.32428">
        <ele>1240</ele>
        <time>2012-04-09T08:35:23Z</time>
      </trkpt>
      <trkpt lat="44.828" lon="5.32428">
        <ele>1240</ele>
        <time>2012-04-09T08:35:29Z</time>
      </trkpt>
      <trkpt lat="44.82804" lon="5.32427">
        <ele>1239</ele>
        <time>2012-04-09T08:35:34Z</time>
      </trkpt>
      <trkpt lat="44.82813" lon="5.32423">
        <ele>1237</ele>
        <time>2012-04-09T08:35:43Z</time>
      </trkpt>
      <trkpt lat="44.82819" lon="5.3242">
        <ele>1235</ele>
        <time>2012-04-09T08:35:51Z</time>
      </trkpt>
      <trkpt lat="44.82828" lon="5.32416">
        <ele>1221</ele>
        <time>2012-04-09T08:36:01Z</time>
      </trkpt>
      <trkpt lat="44.82836" lon="5.32412">
        <ele>1222</ele>
        <time>2012-04-09T08:36:09Z</time>
      </trkpt>
      <trkpt lat="44.82842" lon="5.3241">
        <ele>1219</ele>
        <time>2012-04-09T08:36:17Z</time>
      </trkpt>
      <trkpt lat="44.82848" lon="5.32411">
        <ele>1218</ele>
        <time>2012-04-09T08:36:24Z</time>
      </trkpt>
      <trkpt lat="44.82855" lon="5.32412">
        <ele>1216</ele>
        <time>2012-04-09T08:36:32Z</time>
      </trkpt>
      <trkpt lat="44.82862" lon="5.32415">
        <ele>1216</ele>
        <time>2012-04-09T08:36:40Z</time>
      </trkpt>
      <trkpt lat="44.82867" lon="5.32419">
        <ele>1244</ele>
        <time>2012-04-09T08:36:47Z</time>
      </trkpt>
      <trkpt lat="44.82874" lon="5.32426">
        <ele>1246</ele>
        <time>2012-04-09T08:36:53Z</time>
      </trkpt>
      <trkpt lat="44.8288" lon="5.32431">
        <ele>1247</ele>
        <time>2012-04-09T08:37:02Z</time>
      </trkpt>
      <trkpt lat="44.82884" lon="5.32431">
        <ele>1247</ele>
        <time>2012-04-09T08:37:07Z</time>
      </trkpt>
      <trkpt lat="44.8289" lon="5.32429">
        <ele>1246</ele>
        <time>2012-04-09T08:37:14Z</time>
      </trkpt>
      <trkpt lat="44.82896" lon="5.3243">
        <ele>1246</ele>
        <time>2012-04-09T08:37:21Z</time>
      </trkpt>
      <trkpt lat="44.82898" lon="5.32431">
        <ele>1246</ele>
        <time>2012-04-09T08:37:23Z</time>
      </trkpt>
      <trkpt lat="44.82904" lon="5.32437">
        <ele>1247</ele>
        <time>2012-04-09T08:37:31Z</time>
      </trkpt>
      <trkpt lat="44.82909" lon="5.32441">
        <ele>1248</ele>
        <time>2012-04-09T08:37:38Z</time>
      </trkpt>
      <trkpt lat="44.82914" lon="5.32444">
        <ele>1249</ele>
        <time>2012-04-09T08:37:45Z</time>
      </trkpt>
      <trkpt lat="44.82917" lon="5.32447">
        <ele>1257</ele>
        <time>2012-04-09T08:37:50Z</time>
      </trkpt>
      <trkpt lat="44.82921" lon="5.32452">
        <ele>1259</ele>
        <time>2012-04-09T08:37:56Z</time>
      </trkpt>
      <trkpt lat="44.82925" lon="5.32453">
        <ele>1260</ele>
        <time>2012-04-09T08:38:01Z</time>
      </trkpt>
      <trkpt lat="44.82928" lon="5.32452">
        <ele>1260</ele>
        <time>2012-04-09T08:38:05Z</time>
      </trkpt>
      <trkpt lat="44.82931" lon="5.32452">
        <ele>1260</ele>
        <time>2012-04-09T08:38:09Z</time>
      </trkpt>
      <trkpt lat="44.82933" lon="5.32452">
        <ele>1260</ele>
        <time>2012-04-09T08:38:14Z</time>
      </trkpt>
      <trkpt lat="44.8294" lon="5.3246">
        <ele>1263</ele>
        <time>2012-04-09T08:38:23Z</time>
      </trkpt>
      <trkpt lat="44.82945" lon="5.32468">
        <ele>1266</ele>
        <time>2012-04-09T08:38:39Z</time>
      </trkpt>
      <trkpt lat="44.82949" lon="5.32467">
        <ele>1266</ele>
        <time>2012-04-09T08:38:44Z</time>
      </trkpt>
      <trkpt lat="44.82954" lon="5.32464">
        <ele>1265</ele>
        <time>2012-04-09T08:38:49Z</time>
      </trkpt>
      <trkpt lat="44.82956" lon="5.3246">
        <ele>1265</ele>
        <time>2012-04-09T08:38:54Z</time>
      </trkpt>
      <trkpt lat="44.82956" lon="5.32459">
        <ele>1264</ele>
        <time>2012-04-09T08:38:55Z</time>
      </trkpt>
      <trkpt lat="44.8296" lon="5.32454">
        <ele>1264</ele>
        <time>2012-04-09T08:39:01Z</time>
      </trkpt>
      <trkpt lat="44.82966" lon="5.32449">
        <ele>1263</ele>
        <time>2012-04-09T08:39:09Z</time>
      </trkpt>
      <trkpt lat="44.82972" lon="5.32444">
        <ele>1262</ele>
        <time>2012-04-09T08:39:16Z</time>
      </trkpt>
      <trkpt lat="44.82974" lon="5.32442">
        <ele>1262</ele>
        <time>2012-04-09T08:39:21Z</time>
      </trkpt>
      <trkpt lat="44.82979" lon="5.32438">
        <ele>1261</ele>
        <time>2012-04-09T08:39:26Z</time>
      </trkpt>
      <trkpt lat="44.82984" lon="5.32436">
        <ele>1261</ele>
        <time>2012-04-09T08:39:33Z</time>
      </trkpt>
      <trkpt lat="44.82991" lon="5.32432">
        <ele>1260</ele>
        <time>2012-04-09T08:39:41Z</time>
      </trkpt>
      <trkpt lat="44.82998" lon="5.32431">
        <ele>1259</ele>
        <time>2012-04-09T08:39:48Z</time>
      </trkpt>
      <trkpt lat="44.83007" lon="5.32428">
        <ele>1262</ele>
        <time>2012-04-09T08:39:58Z</time>
      </trkpt>
      <trkpt lat="44.83017" lon="5.32427">
        <ele>1263</ele>
        <time>2012-04-09T08:40:08Z</time>
      </trkpt>
      <trkpt lat="44.83024" lon="5.32426">
        <ele>1265</ele>
        <time>2012-04-09T08:40:17Z</time>
      </trkpt>
      <trkpt lat="44.83029" lon="5.32427">
        <ele>1265</ele>
        <time>2012-04-09T08:40:24Z</time>
      </trkpt>
      <trkpt lat="44.83034" lon="5.32429">
        <ele>1266</ele>
        <time>2012-04-09T08:40:31Z</time>
      </trkpt>
      <trkpt lat="44.8304" lon="5.32431">
        <ele>1266</ele>
        <time>2012-04-09T08:40:39Z</time>
      </trkpt>
      <trkpt lat="44.83044" lon="5.32432">
        <ele>1266</ele>
        <time>2012-04-09T08:40:45Z</time>
      </trkpt>
      <trkpt lat="44.83046" lon="5.32435">
        <ele>1267</ele>
        <time>2012-04-09T08:40:57Z</time>
      </trkpt>
      <trkpt lat="44.83045" lon="5.32435">
        <ele>1267</ele>
        <time>2012-04-09T08:40:59Z</time>
      </trkpt>
      <trkpt lat="44.83042" lon="5.32439">
        <ele>1268</ele>
        <time>2012-04-09T08:41:08Z</time>
      </trkpt>
      <trkpt lat="44.83038" lon="5.32442">
        <ele>1268</ele>
        <time>2012-04-09T08:41:16Z</time>
      </trkpt>
      <trkpt lat="44.83034" lon="5.32445">
        <ele>1269</ele>
        <time>2012-04-09T08:41:24Z</time>
      </trkpt>
      <trkpt lat="44.83029" lon="5.32448">
        <ele>1269</ele>
        <time>2012-04-09T08:41:33Z</time>
      </trkpt>
      <trkpt lat="44.83028" lon="5.32448">
        <ele>1269</ele>
        <time>2012-04-09T08:41:34Z</time>
      </trkpt>
      <trkpt lat="44.83025" lon="5.32451">
        <ele>1270</ele>
        <time>2012-04-09T08:41:38Z</time>
      </trkpt>
      <trkpt lat="44.83018" lon="5.32459">
        <ele>1272</ele>
        <time>2012-04-09T08:41:47Z</time>
      </trkpt>
      <trkpt lat="44.83014" lon="5.32467">
        <ele>1275</ele>
        <time>2012-04-09T08:41:54Z</time>
      </trkpt>
      <trkpt lat="44.83007" lon="5.32474">
        <ele>1277</ele>
        <time>2012-04-09T08:42:03Z</time>
      </trkpt>
      <trkpt lat="44.83002" lon="5.32481">
        <ele>1280</ele>
        <time>2012-04-09T08:42:11Z</time>
      </trkpt>
      <trkpt lat="44.83" lon="5.32484">
        <ele>1282</ele>
        <time>2012-04-09T08:42:15Z</time>
      </trkpt>
      <trkpt lat="44.82996" lon="5.32492">
        <ele>1283</ele>
        <time>2012-04-09T08:42:23Z</time>
      </trkpt>
      <trkpt lat="44.82992" lon="5.32499">
        <ele>1284</ele>
        <time>2012-04-09T08:42:31Z</time>
      </trkpt>
      <trkpt lat="44.82988" lon="5.32508">
        <ele>1296</ele>
        <time>2012-04-09T08:42:40Z</time>
      </trkpt>
      <trkpt lat="44.82985" lon="5.32513">
        <ele>1297</ele>
        <time>2012-04-09T08:42:47Z</time>
      </trkpt>
      <trkpt lat="44.82983" lon="5.32519">
        <ele>1299</ele>
        <time>2012-04-09T08:43:03Z</time>
      </trkpt>
      <trkpt lat="44.82981" lon="5.32527">
        <ele>1301</ele>
        <time>2012-04-09T08:43:10Z</time>
      </trkpt>
      <trkpt lat="44.82979" lon="5.32534">
        <ele>1302</ele>
        <time>2012-04-09T08:43:18Z</time>
      </trkpt>
      <trkpt lat="44.82977" lon="5.32535">
        <ele>1303</ele>
        <time>2012-04-09T08:43:26Z</time>
      </trkpt>
      <trkpt lat="44.8297" lon="5.32545">
        <ele>1305</ele>
        <time>2012-04-09T08:44:01Z</time>
      </trkpt>
      <trkpt lat="44.8297" lon="5.32548">
        <ele>1305</ele>
        <time>2012-04-09T08:44:07Z</time>
      </trkpt>
      <trkpt lat="44.82969" lon="5.32553">
        <ele>1306</ele>
        <time>2012-04-09T08:44:16Z</time>
      </trkpt>
      <trkpt lat="44.82967" lon="5.32554">
        <ele>1307</ele>
        <time>2012-04-09T08:44:24Z</time>
      </trkpt>
      <trkpt lat="44.82964" lon="5.32555">
        <ele>1307</ele>
        <time>2012-04-09T08:44:31Z</time>
      </trkpt>
      <trkpt lat="44.8296" lon="5.32556">
        <ele>1306</ele>
        <time>2012-04-09T08:44:38Z</time>
      </trkpt>
      <trkpt lat="44.82957" lon="5.32557">
        <ele>1306</ele>
        <time>2012-04-09T08:44:42Z</time>
      </trkpt>
      <trkpt lat="44.82951" lon="5.32555">
        <ele>1306</ele>
        <time>2012-04-09T08:44:49Z</time>
      </trkpt>
      <trkpt lat="44.82949" lon="5.32557">
        <ele>1306</ele>
        <time>2012-04-09T08:44:56Z</time>
      </trkpt>
      <trkpt lat="44.82942" lon="5.32557">
        <ele>1306</ele>
        <time>2012-04-09T08:45:04Z</time>
      </trkpt>
      <trkpt lat="44.82929" lon="5.32552">
        <ele>1305</ele>
        <time>2012-04-09T08:45:13Z</time>
      </trkpt>
      <trkpt lat="44.82922" lon="5.3255">
        <ele>1304</ele>
        <time>2012-04-09T08:45:20Z</time>
      </trkpt>
      <trkpt lat="44.82918" lon="5.3255">
        <ele>1304</ele>
        <time>2012-04-09T08:45:25Z</time>
      </trkpt>
      <trkpt lat="44.82908" lon="5.32548">
        <ele>1300</ele>
        <time>2012-04-09T08:45:33Z</time>
      </trkpt>
      <trkpt lat="44.82899" lon="5.32549">
        <ele>1300</ele>
        <time>2012-04-09T08:45:41Z</time>
      </trkpt>
      <trkpt lat="44.82889" lon="5.32552">
        <ele>1301</ele>
        <time>2012-04-09T08:45:51Z</time>
      </trkpt>
      <trkpt lat="44.82883" lon="5.32557">
        <ele>1302</ele>
        <time>2012-04-09T08:46:01Z</time>
      </trkpt>
      <trkpt lat="44.82877" lon="5.32559">
        <ele>1302</ele>
        <time>2012-04-09T08:46:09Z</time>
      </trkpt>
      <trkpt lat="44.82874" lon="5.3256">
        <ele>1302</ele>
        <time>2012-04-09T08:46:12Z</time>
      </trkpt>
      <trkpt lat="44.82871" lon="5.32558">
        <ele>1302</ele>
        <time>2012-04-09T08:46:17Z</time>
      </trkpt>
      <trkpt lat="44.82869" lon="5.32558">
        <ele>1302</ele>
        <time>2012-04-09T08:46:22Z</time>
      </trkpt>
      <trkpt lat="44.82866" lon="5.32558">
        <ele>1302</ele>
        <time>2012-04-09T08:46:28Z</time>
      </trkpt>
      <trkpt lat="44.82867" lon="5.32559">
        <ele>1302</ele>
        <time>2012-04-09T08:46:37Z</time>
      </trkpt>
      <trkpt lat="44.82866" lon="5.32559">
        <ele>1302</ele>
        <time>2012-04-09T08:46:43Z</time>
      </trkpt>
      <trkpt lat="44.82861" lon="5.32556">
        <ele>1302</ele>
        <time>2012-04-09T08:47:04Z</time>
      </trkpt>
      <trkpt lat="44.82865" lon="5.32555">
        <ele>1301</ele>
        <time>2012-04-09T08:47:10Z</time>
      </trkpt>
      <trkpt lat="44.82872" lon="5.32557">
        <ele>1301</ele>
        <time>2012-04-09T08:47:18Z</time>
      </trkpt>
      <trkpt lat="44.82879" lon="5.32557">
        <ele>1302</ele>
        <time>2012-04-09T08:47:25Z</time>
      </trkpt>
      <trkpt lat="44.82884" lon="5.32558">
        <ele>1302</ele>
        <time>2012-04-09T08:47:32Z</time>
      </trkpt>
      <trkpt lat="44.82891" lon="5.32563">
        <ele>1304</ele>
        <time>2012-04-09T08:47:42Z</time>
      </trkpt>
      <trkpt lat="44.82897" lon="5.32568">
        <ele>1306</ele>
        <time>2012-04-09T08:47:51Z</time>
      </trkpt>
      <trkpt lat="44.82902" lon="5.32572">
        <ele>1308</ele>
        <time>2012-04-09T08:48:00Z</time>
      </trkpt>
      <trkpt lat="44.82907" lon="5.32573">
        <ele>1309</ele>
        <time>2012-04-09T08:48:08Z</time>
      </trkpt>
      <trkpt lat="44.82911" lon="5.32575">
        <ele>1311</ele>
        <time>2012-04-09T08:48:14Z</time>
      </trkpt>
      <trkpt lat="44.82915" lon="5.32577">
        <ele>1314</ele>
        <time>2012-04-09T08:48:20Z</time>
      </trkpt>
      <trkpt lat="44.82921" lon="5.32582">
        <ele>1316</ele>
        <time>2012-04-09T08:48:28Z</time>
      </trkpt>
      <trkpt lat="44.82925" lon="5.32585">
        <ele>1325</ele>
        <time>2012-04-09T08:48:35Z</time>
      </trkpt>
      <trkpt lat="44.82929" lon="5.32588">
        <ele>1328</ele>
        <time>2012-04-09T08:48:40Z</time>
      </trkpt>
      <trkpt lat="44.82932" lon="5.3259">
        <ele>1330</ele>
        <time>2012-04-09T08:48:45Z</time>
      </trkpt>
      <trkpt lat="44.82935" lon="5.32592">
        <ele>1331</ele>
        <time>2012-04-09T08:48:49Z</time>
      </trkpt>
      <trkpt lat="44.82939" lon="5.32597">
        <ele>1334</ele>
        <time>2012-04-09T08:48:54Z</time>
      </trkpt>
      <trkpt lat="44.82942" lon="5.32602">
        <ele>1336</ele>
        <time>2012-04-09T08:49:00Z</time>
      </trkpt>
      <trkpt lat="44.82944" lon="5.32607">
        <ele>1337</ele>
        <time>2012-04-09T08:49:05Z</time>
      </trkpt>
      <trkpt lat="44.82947" lon="5.32609">
        <ele>1338</ele>
        <time>2012-04-09T08:49:11Z</time>
      </trkpt>
      <trkpt lat="44.82949" lon="5.3261">
        <ele>1338</ele>
        <time>2012-04-09T08:49:16Z</time>
      </trkpt>
      <trkpt lat="44.82954" lon="5.32614">
        <ele>1340</ele>
        <time>2012-04-09T08:49:23Z</time>
      </trkpt>
      <trkpt lat="44.82958" lon="5.32616">
        <ele>1340</ele>
        <time>2012-04-09T08:49:30Z</time>
      </trkpt>
      <trkpt lat="44.82962" lon="5.32618">
        <ele>1341</ele>
        <time>2012-04-09T08:49:37Z</time>
      </trkpt>
      <trkpt lat="44.82968" lon="5.32622">
        <ele>1342</ele>
        <time>2012-04-09T08:49:49Z</time>
      </trkpt>
      <trkpt lat="44.82975" lon="5.32624">
        <ele>1343</ele>
        <time>2012-04-09T08:49:58Z</time>
      </trkpt>
      <trkpt lat="44.8298" lon="5.32624">
        <ele>1343</ele>
        <time>2012-04-09T08:50:04Z</time>
      </trkpt>
      <trkpt lat="44.82982" lon="5.32625">
        <ele>1343</ele>
        <time>2012-04-09T08:50:09Z</time>
      </trkpt>
      <trkpt lat="44.82986" lon="5.32623">
        <ele>1343</ele>
        <time>2012-04-09T08:50:15Z</time>
      </trkpt>
      <trkpt lat="44.82991" lon="5.32623">
        <ele>1343</ele>
        <time>2012-04-09T08:50:21Z</time>
      </trkpt>
      <trkpt lat="44.82996" lon="5.32621">
        <ele>1342</ele>
        <time>2012-04-09T08:50:30Z</time>
      </trkpt>
      <trkpt lat="44.83001" lon="5.3262">
        <ele>1345</ele>
        <time>2012-04-09T08:50:37Z</time>
      </trkpt>
      <trkpt lat="44.83002" lon="5.32617">
        <ele>1343</ele>
        <time>2012-04-09T08:50:43Z</time>
      </trkpt>
      <trkpt lat="44.83004" lon="5.32616">
        <ele>1343</ele>
        <time>2012-04-09T08:50:45Z</time>
      </trkpt>
      <trkpt lat="44.83012" lon="5.32606">
        <ele>1340</ele>
        <time>2012-04-09T08:50:54Z</time>
      </trkpt>
      <trkpt lat="44.83019" lon="5.32594">
        <ele>1338</ele>
        <time>2012-04-09T08:51:04Z</time>
      </trkpt>
      <trkpt lat="44.83025" lon="5.32593">
        <ele>1339</ele>
        <time>2012-04-09T08:51:11Z</time>
      </trkpt>
      <trkpt lat="44.83028" lon="5.32599">
        <ele>1341</ele>
        <time>2012-04-09T08:51:19Z</time>
      </trkpt>
      <trkpt lat="44.83028" lon="5.32601">
        <ele>1341</ele>
        <time>2012-04-09T08:51:26Z</time>
      </trkpt>
      <trkpt lat="44.83028" lon="5.32601">
        <ele>1341</ele>
        <time>2012-04-09T08:51:29Z</time>
      </trkpt>
      <trkpt lat="44.83028" lon="5.32604">
        <ele>1342</ele>
        <time>2012-04-09T08:51:34Z</time>
      </trkpt>
      <trkpt lat="44.83025" lon="5.3261">
        <ele>1343</ele>
        <time>2012-04-09T08:52:51Z</time>
      </trkpt>
      <trkpt lat="44.83028" lon="5.32608">
        <ele>1343</ele>
        <time>2012-04-09T08:52:54Z</time>
      </trkpt>
      <trkpt lat="44.8303" lon="5.3261">
        <ele>1343</ele>
        <time>2012-04-09T08:53:00Z</time>
      </trkpt>
      <trkpt lat="44.83038" lon="5.32617">
        <ele>1345</ele>
        <time>2012-04-09T08:53:12Z</time>
      </trkpt>
      <trkpt lat="44.83047" lon="5.32625">
        <ele>1348</ele>
        <time>2012-04-09T08:53:19Z</time>
      </trkpt>
      <trkpt lat="44.83054" lon="5.32632">
        <ele>1350</ele>
        <time>2012-04-09T08:53:25Z</time>
      </trkpt>
      <trkpt lat="44.83065" lon="5.32637">
        <ele>1352</ele>
        <time>2012-04-09T08:53:33Z</time>
      </trkpt>
      <trkpt lat="44.83076" lon="5.3264">
        <ele>1354</ele>
        <time>2012-04-09T08:53:40Z</time>
      </trkpt>
      <trkpt lat="44.83084" lon="5.32644">
        <ele>1353</ele>
        <time>2012-04-09T08:53:47Z</time>
      </trkpt>
      <trkpt lat="44.83092" lon="5.32646">
        <ele>1353</ele>
        <time>2012-04-09T08:53:53Z</time>
      </trkpt>
      <trkpt lat="44.83103" lon="5.32647">
        <ele>1351</ele>
        <time>2012-04-09T08:54:02Z</time>
      </trkpt>
      <trkpt lat="44.83105" lon="5.32646">
        <ele>1350</ele>
        <time>2012-04-09T08:54:05Z</time>
      </trkpt>
      <trkpt lat="44.83115" lon="5.32645">
        <ele>1347</ele>
        <time>2012-04-09T08:54:13Z</time>
      </trkpt>
      <trkpt lat="44.8312" lon="5.32646">
        <ele>1347</ele>
        <time>2012-04-09T08:54:16Z</time>
      </trkpt>
      <trkpt lat="44.83128" lon="5.32653">
        <ele>1347</ele>
        <time>2012-04-09T08:54:23Z</time>
      </trkpt>
      <trkpt lat="44.83131" lon="5.32654">
        <ele>1346</ele>
        <time>2012-04-09T08:54:31Z</time>
      </trkpt>
      <trkpt lat="44.83134" lon="5.32651">
        <ele>1345</ele>
        <time>2012-04-09T08:55:05Z</time>
      </trkpt>
      <trkpt lat="44.83141" lon="5.3266">
        <ele>1346</ele>
        <time>2012-04-09T08:55:11Z</time>
      </trkpt>
      <trkpt lat="44.83144" lon="5.32666">
        <ele>1347</ele>
        <time>2012-04-09T08:55:14Z</time>
      </trkpt>
      <trkpt lat="44.83148" lon="5.32675">
        <ele>1365</ele>
        <time>2012-04-09T08:55:18Z</time>
      </trkpt>
      <trkpt lat="44.83154" lon="5.32686">
        <ele>1366</ele>
        <time>2012-04-09T08:55:24Z</time>
      </trkpt>
      <trkpt lat="44.83154" lon="5.3269">
        <ele>1368</ele>
        <time>2012-04-09T08:55:26Z</time>
      </trkpt>
      <trkpt lat="44.83163" lon="5.32703">
        <ele>1371</ele>
        <time>2012-04-09T08:55:33Z</time>
      </trkpt>
      <trkpt lat="44.83164" lon="5.32705">
        <ele>1372</ele>
        <time>2012-04-09T08:55:34Z</time>
      </trkpt>
      <trkpt lat="44.83176" lon="5.32716">
        <ele>1362</ele>
        <time>2012-04-09T08:55:41Z</time>
      </trkpt>
      <trkpt lat="44.83187" lon="5.32727">
        <ele>1364</ele>
        <time>2012-04-09T08:55:48Z</time>
      </trkpt>
      <trkpt lat="44.83198" lon="5.32742">
        <ele>1365</ele>
        <time>2012-04-09T08:55:56Z</time>
      </trkpt>
      <trkpt lat="44.83205" lon="5.32754">
        <ele>1389</ele>
        <time>2012-04-09T08:56:03Z</time>
      </trkpt>
      <trkpt lat="44.83214" lon="5.32761">
        <ele>1388</ele>
        <time>2012-04-09T08:56:09Z</time>
      </trkpt>
      <trkpt lat="44.83226" lon="5.3277">
        <ele>1388</ele>
        <time>2012-04-09T08:56:17Z</time>
      </trkpt>
      <trkpt lat="44.83235" lon="5.32773">
        <ele>1387</ele>
        <time>2012-04-09T08:56:23Z</time>
      </trkpt>
      <trkpt lat="44.83242" lon="5.32775">
        <ele>1387</ele>
        <time>2012-04-09T08:56:28Z</time>
      </trkpt>
      <trkpt lat="44.83253" lon="5.32772">
        <ele>1382</ele>
        <time>2012-04-09T08:56:36Z</time>
      </trkpt>
      <trkpt lat="44.83261" lon="5.32772">
        <ele>1382</ele>
        <time>2012-04-09T08:56:43Z</time>
      </trkpt>
      <trkpt lat="44.83271" lon="5.32771">
        <ele>1383</ele>
        <time>2012-04-09T08:56:51Z</time>
      </trkpt>
      <trkpt lat="44.8328" lon="5.32771">
        <ele>1384</ele>
        <time>2012-04-09T08:56:58Z</time>
      </trkpt>
      <trkpt lat="44.8329" lon="5.32769">
        <ele>1384</ele>
        <time>2012-04-09T08:57:05Z</time>
      </trkpt>
      <trkpt lat="44.83302" lon="5.32769">
        <ele>1384</ele>
        <time>2012-04-09T08:57:12Z</time>
      </trkpt>
      <trkpt lat="44.83314" lon="5.32771">
        <ele>1383</ele>
        <time>2012-04-09T08:57:19Z</time>
      </trkpt>
      <trkpt lat="44.83326" lon="5.32775">
        <ele>1383</ele>
        <time>2012-04-09T08:57:26Z</time>
      </trkpt>
      <trkpt lat="44.83342" lon="5.32782">
        <ele>1374</ele>
        <time>2012-04-09T08:57:35Z</time>
      </trkpt>
      <trkpt lat="44.83355" lon="5.32794">
        <ele>1375</ele>
        <time>2012-04-09T08:57:43Z</time>
      </trkpt>
      <trkpt lat="44.83361" lon="5.32801">
        <ele>1375</ele>
        <time>2012-04-09T08:57:48Z</time>
      </trkpt>
      <trkpt lat="44.83373" lon="5.32815">
        <ele>1374</ele>
        <time>2012-04-09T08:57:56Z</time>
      </trkpt>
      <trkpt lat="44.83382" lon="5.32827">
        <ele>1373</ele>
        <time>2012-04-09T08:58:03Z</time>
      </trkpt>
      <trkpt lat="44.8339" lon="5.3284">
        <ele>1388</ele>
        <time>2012-04-09T08:58:10Z</time>
      </trkpt>
      <trkpt lat="44.83396" lon="5.32851">
        <ele>1388</ele>
        <time>2012-04-09T08:58:16Z</time>
      </trkpt>
      <trkpt lat="44.834" lon="5.32863">
        <ele>1390</ele>
        <time>2012-04-09T08:58:22Z</time>
      </trkpt>
      <trkpt lat="44.83401" lon="5.32876">
        <ele>1393</ele>
        <time>2012-04-09T08:58:28Z</time>
      </trkpt>
      <trkpt lat="44.83405" lon="5.3289">
        <ele>1395</ele>
        <time>2012-04-09T08:58:35Z</time>
      </trkpt>
      <trkpt lat="44.83409" lon="5.329">
        <ele>1394</ele>
        <time>2012-04-09T08:58:41Z</time>
      </trkpt>
      <trkpt lat="44.83412" lon="5.32906">
        <ele>1394</ele>
        <time>2012-04-09T08:58:44Z</time>
      </trkpt>
      <trkpt lat="44.83414" lon="5.32915">
        <ele>1392</ele>
        <time>2012-04-09T08:58:48Z</time>
      </trkpt>
      <trkpt lat="44.83418" lon="5.32925">
        <ele>1390</ele>
        <time>2012-04-09T08:58:53Z</time>
      </trkpt>
      <trkpt lat="44.83429" lon="5.32946">
        <ele>1390</ele>
        <time>2012-04-09T08:59:03Z</time>
      </trkpt>
      <trkpt lat="44.83443" lon="5.32958">
        <ele>1390</ele>
        <time>2012-04-09T08:59:12Z</time>
      </trkpt>
      <trkpt lat="44.83453" lon="5.32969">
        <ele>1390</ele>
        <time>2012-04-09T08:59:19Z</time>
      </trkpt>
      <trkpt lat="44.83456" lon="5.3298">
        <ele>1391</ele>
        <time>2012-04-09T08:59:25Z</time>
      </trkpt>
      <trkpt lat="44.83458" lon="5.32981">
        <ele>1390</ele>
        <time>2012-04-09T08:59:26Z</time>
      </trkpt>
      <trkpt lat="44.83466" lon="5.32993">
        <ele>1390</ele>
        <time>2012-04-09T08:59:34Z</time>
      </trkpt>
      <trkpt lat="44.83471" lon="5.32998">
        <ele>1389</ele>
        <time>2012-04-09T08:59:40Z</time>
      </trkpt>
      <trkpt lat="44.83476" lon="5.33003">
        <ele>1408</ele>
        <time>2012-04-09T08:59:51Z</time>
      </trkpt>
      <trkpt lat="44.83481" lon="5.33009">
        <ele>1406</ele>
        <time>2012-04-09T09:00:00Z</time>
      </trkpt>
      <trkpt lat="44.83482" lon="5.3301">
        <ele>1406</ele>
        <time>2012-04-09T09:00:04Z</time>
      </trkpt>
      <trkpt lat="44.8349" lon="5.33015">
        <ele>1405</ele>
        <time>2012-04-09T09:00:15Z</time>
      </trkpt>
      <trkpt lat="44.83495" lon="5.3302">
        <ele>1406</ele>
        <time>2012-04-09T09:00:24Z</time>
      </trkpt>
      <trkpt lat="44.83503" lon="5.33025">
        <ele>1398</ele>
        <time>2012-04-09T09:00:29Z</time>
      </trkpt>
      <trkpt lat="44.83514" lon="5.33031">
        <ele>1400</ele>
        <time>2012-04-09T09:00:36Z</time>
      </trkpt>
      <trkpt lat="44.83529" lon="5.33042">
        <ele>1404</ele>
        <time>2012-04-09T09:00:45Z</time>
      </trkpt>
      <trkpt lat="44.83538" lon="5.33053">
        <ele>1406</ele>
        <time>2012-04-09T09:00:52Z</time>
      </trkpt>
      <trkpt lat="44.83547" lon="5.33059">
        <ele>1407</ele>
        <time>2012-04-09T09:00:59Z</time>
      </trkpt>
      <trkpt lat="44.83555" lon="5.33063">
        <ele>1408</ele>
        <time>2012-04-09T09:01:05Z</time>
      </trkpt>
      <trkpt lat="44.83563" lon="5.33065">
        <ele>1409</ele>
        <time>2012-04-09T09:01:13Z</time>
      </trkpt>
      <trkpt lat="44.83575" lon="5.33068">
        <ele>1411</ele>
        <time>2012-04-09T09:01:22Z</time>
      </trkpt>
      <trkpt lat="44.83583" lon="5.33066">
        <ele>1410</ele>
        <time>2012-04-09T09:01:30Z</time>
      </trkpt>
      <trkpt lat="44.83586" lon="5.3306">
        <ele>1406</ele>
        <time>2012-04-09T09:01:43Z</time>
      </trkpt>
      <trkpt lat="44.8359" lon="5.3306">
        <ele>1406</ele>
        <time>2012-04-09T09:01:48Z</time>
      </trkpt>
      <trkpt lat="44.83596" lon="5.3306">
        <ele>1405</ele>
        <time>2012-04-09T09:01:54Z</time>
      </trkpt>
      <trkpt lat="44.83606" lon="5.33059">
        <ele>1404</ele>
        <time>2012-04-09T09:02:01Z</time>
      </trkpt>
      <trkpt lat="44.83616" lon="5.33058">
        <ele>1403</ele>
        <time>2012-04-09T09:02:07Z</time>
      </trkpt>
      <trkpt lat="44.83624" lon="5.33057">
        <ele>1403</ele>
        <time>2012-04-09T09:02:12Z</time>
      </trkpt>
      <trkpt lat="44.8363" lon="5.33057">
        <ele>1403</ele>
        <time>2012-04-09T09:02:16Z</time>
      </trkpt>
      <trkpt lat="44.83643" lon="5.33056">
        <ele>1403</ele>
        <time>2012-04-09T09:02:25Z</time>
      </trkpt>
      <trkpt lat="44.83655" lon="5.33058">
        <ele>1405</ele>
        <time>2012-04-09T09:02:32Z</time>
      </trkpt>
      <trkpt lat="44.83667" lon="5.3306">
        <ele>1406</ele>
        <time>2012-04-09T09:02:39Z</time>
      </trkpt>
      <trkpt lat="44.83678" lon="5.33061">
        <ele>1401</ele>
        <time>2012-04-09T09:02:46Z</time>
      </trkpt>
      <trkpt lat="44.83687" lon="5.33064">
        <ele>1401</ele>
        <time>2012-04-09T09:02:53Z</time>
      </trkpt>
      <trkpt lat="44.83691" lon="5.33064">
        <ele>1400</ele>
        <time>2012-04-09T09:03:07Z</time>
      </trkpt>
      <trkpt lat="44.83698" lon="5.33068">
        <ele>1399</ele>
        <time>2012-04-09T09:04:12Z</time>
      </trkpt>
      <trkpt lat="44.83702" lon="5.33071">
        <ele>1399</ele>
        <time>2012-04-09T09:04:22Z</time>
      </trkpt>
      <trkpt lat="44.83706" lon="5.3307">
        <ele>1398</ele>
        <time>2012-04-09T09:06:22Z</time>
      </trkpt>
      <trkpt lat="44.83712" lon="5.33073">
        <ele>1398</ele>
        <time>2012-04-09T09:06:28Z</time>
      </trkpt>
      <trkpt lat="44.83719" lon="5.33078">
        <ele>1398</ele>
        <time>2012-04-09T09:06:35Z</time>
      </trkpt>
      <trkpt lat="44.83726" lon="5.33084">
        <ele>1421</ele>
        <time>2012-04-09T09:06:41Z</time>
      </trkpt>
      <trkpt lat="44.83727" lon="5.33085">
        <ele>1421</ele>
        <time>2012-04-09T09:06:43Z</time>
      </trkpt>
      <trkpt lat="44.83736" lon="5.3309">
        <ele>1418</ele>
        <time>2012-04-09T09:06:49Z</time>
      </trkpt>
      <trkpt lat="44.83741" lon="5.33092">
        <ele>1416</ele>
        <time>2012-04-09T09:06:53Z</time>
      </trkpt>
      <trkpt lat="44.83746" lon="5.331">
        <ele>1419</ele>
        <time>2012-04-09T09:06:59Z</time>
      </trkpt>
      <trkpt lat="44.83755" lon="5.33105">
        <ele>1411</ele>
        <time>2012-04-09T09:07:05Z</time>
      </trkpt>
      <trkpt lat="44.83759" lon="5.33107">
        <ele>1411</ele>
        <time>2012-04-09T09:07:12Z</time>
      </trkpt>
      <trkpt lat="44.83765" lon="5.33112">
        <ele>1412</ele>
        <time>2012-04-09T09:07:28Z</time>
      </trkpt>
      <trkpt lat="44.83765" lon="5.33116">
        <ele>1413</ele>
        <time>2012-04-09T09:07:36Z</time>
      </trkpt>
      <trkpt lat="44.83765" lon="5.33116">
        <ele>1414</ele>
        <time>2012-04-09T09:07:38Z</time>
      </trkpt>
      <trkpt lat="44.83767" lon="5.33118">
        <ele>1414</ele>
        <time>2012-04-09T09:07:46Z</time>
      </trkpt>
      <trkpt lat="44.8377" lon="5.33117">
        <ele>1413</ele>
        <time>2012-04-09T09:09:33Z</time>
      </trkpt>
      <trkpt lat="44.83773" lon="5.33122">
        <ele>1414</ele>
        <time>2012-04-09T09:09:38Z</time>
      </trkpt>
      <trkpt lat="44.83777" lon="5.33128">
        <ele>1416</ele>
        <time>2012-04-09T09:09:45Z</time>
      </trkpt>
      <trkpt lat="44.83781" lon="5.33135">
        <ele>1417</ele>
        <time>2012-04-09T09:09:52Z</time>
      </trkpt>
      <trkpt lat="44.83783" lon="5.33136">
        <ele>1417</ele>
        <time>2012-04-09T09:09:54Z</time>
      </trkpt>
      <trkpt lat="44.8379" lon="5.33144">
        <ele>1417</ele>
        <time>2012-04-09T09:10:01Z</time>
      </trkpt>
      <trkpt lat="44.83791" lon="5.33145">
        <ele>1417</ele>
        <time>2012-04-09T09:10:02Z</time>
      </trkpt>
      <trkpt lat="44.83799" lon="5.33151">
        <ele>1417</ele>
        <time>2012-04-09T09:10:10Z</time>
      </trkpt>
      <trkpt lat="44.83804" lon="5.33154">
        <ele>1417</ele>
        <time>2012-04-09T09:10:18Z</time>
      </trkpt>
      <trkpt lat="44.83809" lon="5.33156">
        <ele>1416</ele>
        <time>2012-04-09T09:10:25Z</time>
      </trkpt>
      <trkpt lat="44.83811" lon="5.33157">
        <ele>1416</ele>
        <time>2012-04-09T09:10:31Z</time>
      </trkpt>
      <trkpt lat="44.83816" lon="5.33159">
        <ele>1416</ele>
        <time>2012-04-09T09:10:36Z</time>
      </trkpt>
      <trkpt lat="44.83826" lon="5.33166">
        <ele>1417</ele>
        <time>2012-04-09T09:10:43Z</time>
      </trkpt>
      <trkpt lat="44.83836" lon="5.33175">
        <ele>1422</ele>
        <time>2012-04-09T09:10:50Z</time>
      </trkpt>
      <trkpt lat="44.83846" lon="5.33182">
        <ele>1426</ele>
        <time>2012-04-09T09:10:58Z</time>
      </trkpt>
      <trkpt lat="44.83849" lon="5.33182">
        <ele>1426</ele>
        <time>2012-04-09T09:11:03Z</time>
      </trkpt>
      <trkpt lat="44.83854" lon="5.33184">
        <ele>1427</ele>
        <time>2012-04-09T09:11:11Z</time>
      </trkpt>
      <trkpt lat="44.83856" lon="5.33186">
        <ele>1427</ele>
        <time>2012-04-09T09:11:14Z</time>
      </trkpt>
      <trkpt lat="44.8386" lon="5.33187">
        <ele>1428</ele>
        <time>2012-04-09T09:11:20Z</time>
      </trkpt>
      <trkpt lat="44.83867" lon="5.3319">
        <ele>1428</ele>
        <time>2012-04-09T09:11:28Z</time>
      </trkpt>
      <trkpt lat="44.8387" lon="5.33195">
        <ele>1429</ele>
        <time>2012-04-09T09:11:34Z</time>
      </trkpt>
      <trkpt lat="44.83871" lon="5.33197">
        <ele>1429</ele>
        <time>2012-04-09T09:11:39Z</time>
      </trkpt>
      <trkpt lat="44.83873" lon="5.33199">
        <ele>1429</ele>
        <time>2012-04-09T09:11:44Z</time>
      </trkpt>
      <trkpt lat="44.83877" lon="5.33201">
        <ele>1430</ele>
        <time>2012-04-09T09:11:48Z</time>
      </trkpt>
      <trkpt lat="44.83888" lon="5.33208">
        <ele>1430</ele>
        <time>2012-04-09T09:11:55Z</time>
      </trkpt>
      <trkpt lat="44.839" lon="5.33215">
        <ele>1431</ele>
        <time>2012-04-09T09:12:02Z</time>
      </trkpt>
      <trkpt lat="44.839" lon="5.33216">
        <ele>1432</ele>
        <time>2012-04-09T09:12:06Z</time>
      </trkpt>
      <trkpt lat="44.83901" lon="5.33216">
        <ele>1432</ele>
        <time>2012-04-09T09:12:11Z</time>
      </trkpt>
      <trkpt lat="44.83909" lon="5.33216">
        <ele>1432</ele>
        <time>2012-04-09T09:12:21Z</time>
      </trkpt>
      <trkpt lat="44.83912" lon="5.33217">
        <ele>1432</ele>
        <time>2012-04-09T09:12:26Z</time>
      </trkpt>
      <trkpt lat="44.83915" lon="5.33217">
        <ele>1432</ele>
        <time>2012-04-09T09:12:31Z</time>
      </trkpt>
      <trkpt lat="44.83916" lon="5.33218">
        <ele>1432</ele>
        <time>2012-04-09T09:12:36Z</time>
      </trkpt>
      <trkpt lat="44.83919" lon="5.33217">
        <ele>1428</ele>
        <time>2012-04-09T09:12:41Z</time>
      </trkpt>
      <trkpt lat="44.83922" lon="5.33215">
        <ele>1427</ele>
        <time>2012-04-09T09:12:48Z</time>
      </trkpt>
      <trkpt lat="44.83928" lon="5.33212">
        <ele>1426</ele>
        <time>2012-04-09T09:12:56Z</time>
      </trkpt>
      <trkpt lat="44.83931" lon="5.33211">
        <ele>1425</ele>
        <time>2012-04-09T09:13:02Z</time>
      </trkpt>
      <trkpt lat="44.83936" lon="5.3321">
        <ele>1425</ele>
        <time>2012-04-09T09:13:09Z</time>
      </trkpt>
      <trkpt lat="44.8394" lon="5.33208">
        <ele>1425</ele>
        <time>2012-04-09T09:13:17Z</time>
      </trkpt>
      <trkpt lat="44.83941" lon="5.33206">
        <ele>1424</ele>
        <time>2012-04-09T09:13:21Z</time>
      </trkpt>
      <trkpt lat="44.83949" lon="5.33202">
        <ele>1423</ele>
        <time>2012-04-09T09:13:30Z</time>
      </trkpt>
      <trkpt lat="44.8395" lon="5.33201">
        <ele>1423</ele>
        <time>2012-04-09T09:13:32Z</time>
      </trkpt>
      <trkpt lat="44.83956" lon="5.33201">
        <ele>1423</ele>
        <time>2012-04-09T09:13:39Z</time>
      </trkpt>
      <trkpt lat="44.8396" lon="5.332">
        <ele>1423</ele>
        <time>2012-04-09T09:13:43Z</time>
      </trkpt>
      <trkpt lat="44.83967" lon="5.33194">
        <ele>1421</ele>
        <time>2012-04-09T09:13:52Z</time>
      </trkpt>
      <trkpt lat="44.8397" lon="5.3319">
        <ele>1420</ele>
        <time>2012-04-09T09:13:58Z</time>
      </trkpt>
      <trkpt lat="44.83975" lon="5.33186">
        <ele>1419</ele>
        <time>2012-04-09T09:14:03Z</time>
      </trkpt>
      <trkpt lat="44.83983" lon="5.33186">
        <ele>1418</ele>
        <time>2012-04-09T09:14:11Z</time>
      </trkpt>
      <trkpt lat="44.8399" lon="5.3319">
        <ele>1418</ele>
        <time>2012-04-09T09:14:18Z</time>
      </trkpt>
      <trkpt lat="44.83992" lon="5.3319">
        <ele>1418</ele>
        <time>2012-04-09T09:14:21Z</time>
      </trkpt>
      <trkpt lat="44.83998" lon="5.33189">
        <ele>1418</ele>
        <time>2012-04-09T09:14:28Z</time>
      </trkpt>
      <trkpt lat="44.84003" lon="5.33191">
        <ele>1416</ele>
        <time>2012-04-09T09:14:34Z</time>
      </trkpt>
      <trkpt lat="44.8401" lon="5.33195">
        <ele>1418</ele>
        <time>2012-04-09T09:14:42Z</time>
      </trkpt>
      <trkpt lat="44.84015" lon="5.33199">
        <ele>1419</ele>
        <time>2012-04-09T09:14:48Z</time>
      </trkpt>
      <trkpt lat="44.84018" lon="5.33205">
        <ele>1421</ele>
        <time>2012-04-09T09:14:52Z</time>
      </trkpt>
      <trkpt lat="44.8402" lon="5.33208">
        <ele>1422</ele>
        <time>2012-04-09T09:14:55Z</time>
      </trkpt>
      <trkpt lat="44.84027" lon="5.33214">
        <ele>1424</ele>
        <time>2012-04-09T09:15:04Z</time>
      </trkpt>
      <trkpt lat="44.84032" lon="5.33217">
        <ele>1424</ele>
        <time>2012-04-09T09:15:12Z</time>
      </trkpt>
      <trkpt lat="44.84035" lon="5.33216">
        <ele>1424</ele>
        <time>2012-04-09T09:15:18Z</time>
      </trkpt>
      <trkpt lat="44.8404" lon="5.33218">
        <ele>1423</ele>
        <time>2012-04-09T09:15:25Z</time>
      </trkpt>
      <trkpt lat="44.84043" lon="5.3322">
        <ele>1424</ele>
        <time>2012-04-09T09:15:30Z</time>
      </trkpt>
      <trkpt lat="44.84048" lon="5.33221">
        <ele>1424</ele>
        <time>2012-04-09T09:15:38Z</time>
      </trkpt>
      <trkpt lat="44.8405" lon="5.33219">
        <ele>1423</ele>
        <time>2012-04-09T09:15:45Z</time>
      </trkpt>
      <trkpt lat="44.84055" lon="5.33218">
        <ele>1422</ele>
        <time>2012-04-09T09:15:50Z</time>
      </trkpt>
      <trkpt lat="44.84058" lon="5.33218">
        <ele>1422</ele>
        <time>2012-04-09T09:15:56Z</time>
      </trkpt>
      <trkpt lat="44.84064" lon="5.33218">
        <ele>1422</ele>
        <time>2012-04-09T09:16:03Z</time>
      </trkpt>
      <trkpt lat="44.84066" lon="5.3322">
        <ele>1423</ele>
        <time>2012-04-09T09:16:11Z</time>
      </trkpt>
      <trkpt lat="44.84072" lon="5.33221">
        <ele>1423</ele>
        <time>2012-04-09T09:16:32Z</time>
      </trkpt>
      <trkpt lat="44.84075" lon="5.33219">
        <ele>1422</ele>
        <time>2012-04-09T09:16:49Z</time>
      </trkpt>
      <trkpt lat="44.8408" lon="5.3322">
        <ele>1423</ele>
        <time>2012-04-09T09:16:58Z</time>
      </trkpt>
      <trkpt lat="44.84085" lon="5.33221">
        <ele>1412</ele>
        <time>2012-04-09T09:17:05Z</time>
      </trkpt>
      <trkpt lat="44.8409" lon="5.33222">
        <ele>1412</ele>
        <time>2012-04-09T09:17:13Z</time>
      </trkpt>
      <trkpt lat="44.84095" lon="5.33222">
        <ele>1411</ele>
        <time>2012-04-09T09:17:20Z</time>
      </trkpt>
      <trkpt lat="44.84098" lon="5.33224">
        <ele>1411</ele>
        <time>2012-04-09T09:17:25Z</time>
      </trkpt>
      <trkpt lat="44.84102" lon="5.33225">
        <ele>1411</ele>
        <time>2012-04-09T09:17:31Z</time>
      </trkpt>
      <trkpt lat="44.84107" lon="5.33232">
        <ele>1412</ele>
        <time>2012-04-09T09:17:39Z</time>
      </trkpt>
      <trkpt lat="44.84111" lon="5.33234">
        <ele>1411</ele>
        <time>2012-04-09T09:17:45Z</time>
      </trkpt>
      <trkpt lat="44.84118" lon="5.33238">
        <ele>1410</ele>
        <time>2012-04-09T09:17:53Z</time>
      </trkpt>
      <trkpt lat="44.84124" lon="5.3324">
        <ele>1409</ele>
        <time>2012-04-09T09:17:59Z</time>
      </trkpt>
      <trkpt lat="44.8413" lon="5.33243">
        <ele>1408</ele>
        <time>2012-04-09T09:18:08Z</time>
      </trkpt>
      <trkpt lat="44.84132" lon="5.33244">
        <ele>1408</ele>
        <time>2012-04-09T09:18:13Z</time>
      </trkpt>
      <trkpt lat="44.84138" lon="5.33249">
        <ele>1408</ele>
        <time>2012-04-09T09:18:21Z</time>
      </trkpt>
      <trkpt lat="44.84143" lon="5.3325">
        <ele>1440</ele>
        <time>2012-04-09T09:18:29Z</time>
      </trkpt>
      <trkpt lat="44.84146" lon="5.33251">
        <ele>1439</ele>
        <time>2012-04-09T09:18:36Z</time>
      </trkpt>
      <trkpt lat="44.84149" lon="5.33251">
        <ele>1436</ele>
        <time>2012-04-09T09:18:41Z</time>
      </trkpt>
      <trkpt lat="44.84157" lon="5.33256">
        <ele>1431</ele>
        <time>2012-04-09T09:18:50Z</time>
      </trkpt>
      <trkpt lat="44.84159" lon="5.33258">
        <ele>1431</ele>
        <time>2012-04-09T09:18:55Z</time>
      </trkpt>
      <trkpt lat="44.84163" lon="5.33263">
        <ele>1433</ele>
        <time>2012-04-09T09:19:01Z</time>
      </trkpt>
      <trkpt lat="44.84169" lon="5.33267">
        <ele>1427</ele>
        <time>2012-04-09T09:19:08Z</time>
      </trkpt>
      <trkpt lat="44.84173" lon="5.33272">
        <ele>1430</ele>
        <time>2012-04-09T09:19:15Z</time>
      </trkpt>
      <trkpt lat="44.84176" lon="5.33275">
        <ele>1432</ele>
        <time>2012-04-09T09:19:21Z</time>
      </trkpt>
      <trkpt lat="44.84183" lon="5.33276">
        <ele>1433</ele>
        <time>2012-04-09T09:19:30Z</time>
      </trkpt>
      <trkpt lat="44.84186" lon="5.33275">
        <ele>1432</ele>
        <time>2012-04-09T09:19:35Z</time>
      </trkpt>
      <trkpt lat="44.84191" lon="5.33274">
        <ele>1432</ele>
        <time>2012-04-09T09:19:41Z</time>
      </trkpt>
      <trkpt lat="44.84194" lon="5.33273">
        <ele>1431</ele>
        <time>2012-04-09T09:19:47Z</time>
      </trkpt>
      <trkpt lat="44.84195" lon="5.33267">
        <ele>1430</ele>
        <time>2012-04-09T09:19:53Z</time>
      </trkpt>
      <trkpt lat="44.84199" lon="5.33268">
        <ele>1430</ele>
        <time>2012-04-09T09:19:59Z</time>
      </trkpt>
      <trkpt lat="44.84207" lon="5.33273">
        <ele>1430</ele>
        <time>2012-04-09T09:20:08Z</time>
      </trkpt>
      <trkpt lat="44.84211" lon="5.33272">
        <ele>1430</ele>
        <time>2012-04-09T09:20:15Z</time>
      </trkpt>
      <trkpt lat="44.84215" lon="5.33271">
        <ele>1429</ele>
        <time>2012-04-09T09:20:20Z</time>
      </trkpt>
      <trkpt lat="44.84219" lon="5.33273">
        <ele>1428</ele>
        <time>2012-04-09T09:20:26Z</time>
      </trkpt>
      <trkpt lat="44.84223" lon="5.33276">
        <ele>1429</ele>
        <time>2012-04-09T09:20:34Z</time>
      </trkpt>
      <trkpt lat="44.84225" lon="5.3328">
        <ele>1430</ele>
        <time>2012-04-09T09:20:40Z</time>
      </trkpt>
      <trkpt lat="44.84232" lon="5.33288">
        <ele>1432</ele>
        <time>2012-04-09T09:20:48Z</time>
      </trkpt>
      <trkpt lat="44.84235" lon="5.3329">
        <ele>1433</ele>
        <time>2012-04-09T09:20:54Z</time>
      </trkpt>
      <trkpt lat="44.8424" lon="5.33289">
        <ele>1432</ele>
        <time>2012-04-09T09:21:02Z</time>
      </trkpt>
      <trkpt lat="44.84245" lon="5.33289">
        <ele>1431</ele>
        <time>2012-04-09T09:21:09Z</time>
      </trkpt>
      <trkpt lat="44.84249" lon="5.33286">
        <ele>1430</ele>
        <time>2012-04-09T09:21:18Z</time>
      </trkpt>
      <trkpt lat="44.84251" lon="5.33285">
        <ele>1414</ele>
        <time>2012-04-09T09:21:22Z</time>
      </trkpt>
      <trkpt lat="44.84256" lon="5.33285">
        <ele>1414</ele>
        <time>2012-04-09T09:21:29Z</time>
      </trkpt>
      <trkpt lat="44.8426" lon="5.33288">
        <ele>1415</ele>
        <time>2012-04-09T09:21:36Z</time>
      </trkpt>
      <trkpt lat="44.84262" lon="5.3329">
        <ele>1416</ele>
        <time>2012-04-09T09:21:42Z</time>
      </trkpt>
      <trkpt lat="44.84266" lon="5.33291">
        <ele>1416</ele>
        <time>2012-04-09T09:21:48Z</time>
      </trkpt>
      <trkpt lat="44.84271" lon="5.33294">
        <ele>1417</ele>
        <time>2012-04-09T09:21:56Z</time>
      </trkpt>
      <trkpt lat="44.84275" lon="5.33296">
        <ele>1417</ele>
        <time>2012-04-09T09:22:03Z</time>
      </trkpt>
      <trkpt lat="44.8428" lon="5.333">
        <ele>1418</ele>
        <time>2012-04-09T09:22:09Z</time>
      </trkpt>
      <trkpt lat="44.84283" lon="5.33304">
        <ele>1419</ele>
        <time>2012-04-09T09:22:17Z</time>
      </trkpt>
      <trkpt lat="44.84288" lon="5.33308">
        <ele>1419</ele>
        <time>2012-04-09T09:22:24Z</time>
      </trkpt>
      <trkpt lat="44.84292" lon="5.33311">
        <ele>1419</ele>
        <time>2012-04-09T09:22:31Z</time>
      </trkpt>
      <trkpt lat="44.84296" lon="5.33314">
        <ele>1419</ele>
        <time>2012-04-09T09:22:38Z</time>
      </trkpt>
      <trkpt lat="44.84301" lon="5.33319">
        <ele>1420</ele>
        <time>2012-04-09T09:22:47Z</time>
      </trkpt>
      <trkpt lat="44.84306" lon="5.33321">
        <ele>1420</ele>
        <time>2012-04-09T09:22:54Z</time>
      </trkpt>
      <trkpt lat="44.84312" lon="5.33322">
        <ele>1421</ele>
        <time>2012-04-09T09:23:02Z</time>
      </trkpt>
      <trkpt lat="44.84317" lon="5.33321">
        <ele>1421</ele>
        <time>2012-04-09T09:23:11Z</time>
      </trkpt>
      <trkpt lat="44.84319" lon="5.3332">
        <ele>1421</ele>
        <time>2012-04-09T09:23:14Z</time>
      </trkpt>
      <trkpt lat="44.84326" lon="5.33319">
        <ele>1421</ele>
        <time>2012-04-09T09:23:22Z</time>
      </trkpt>
      <trkpt lat="44.84329" lon="5.3332">
        <ele>1422</ele>
        <time>2012-04-09T09:23:27Z</time>
      </trkpt>
      <trkpt lat="44.84331" lon="5.3332">
        <ele>1422</ele>
        <time>2012-04-09T09:23:30Z</time>
      </trkpt>
      <trkpt lat="44.84339" lon="5.33321">
        <ele>1414</ele>
        <time>2012-04-09T09:23:39Z</time>
      </trkpt>
      <trkpt lat="44.84343" lon="5.33324">
        <ele>1414</ele>
        <time>2012-04-09T09:23:46Z</time>
      </trkpt>
      <trkpt lat="44.84348" lon="5.33328">
        <ele>1413</ele>
        <time>2012-04-09T09:23:55Z</time>
      </trkpt>
      <trkpt lat="44.84352" lon="5.33329">
        <ele>1411</ele>
        <time>2012-04-09T09:24:01Z</time>
      </trkpt>
      <trkpt lat="44.84359" lon="5.33332">
        <ele>1408</ele>
        <time>2012-04-09T09:24:09Z</time>
      </trkpt>
      <trkpt lat="44.84366" lon="5.33336">
        <ele>1437</ele>
        <time>2012-04-09T09:24:18Z</time>
      </trkpt>
      <trkpt lat="44.8437" lon="5.33337">
        <ele>1437</ele>
        <time>2012-04-09T09:24:25Z</time>
      </trkpt>
      <trkpt lat="44.84372" lon="5.33337">
        <ele>1437</ele>
        <time>2012-04-09T09:24:30Z</time>
      </trkpt>
      <trkpt lat="44.84374" lon="5.33337">
        <ele>1437</ele>
        <time>2012-04-09T09:24:33Z</time>
      </trkpt>
      <trkpt lat="44.84376" lon="5.33337">
        <ele>1437</ele>
        <time>2012-04-09T09:24:35Z</time>
      </trkpt>
      <trkpt lat="44.84383" lon="5.33341">
        <ele>1436</ele>
        <time>2012-04-09T09:24:44Z</time>
      </trkpt>
      <trkpt lat="44.84386" lon="5.33342">
        <ele>1435</ele>
        <time>2012-04-09T09:24:51Z</time>
      </trkpt>
      <trkpt lat="44.84391" lon="5.33343">
        <ele>1434</ele>
        <time>2012-04-09T09:24:58Z</time>
      </trkpt>
      <trkpt lat="44.84399" lon="5.33354">
        <ele>1435</ele>
        <time>2012-04-09T09:25:08Z</time>
      </trkpt>
      <trkpt lat="44.84406" lon="5.33364">
        <ele>1438</ele>
        <time>2012-04-09T09:25:17Z</time>
      </trkpt>
      <trkpt lat="44.8441" lon="5.33368">
        <ele>1439</ele>
        <time>2012-04-09T09:25:24Z</time>
      </trkpt>
      <trkpt lat="44.84417" lon="5.33373">
        <ele>1427</ele>
        <time>2012-04-09T09:25:32Z</time>
      </trkpt>
      <trkpt lat="44.84417" lon="5.33374">
        <ele>1428</ele>
        <time>2012-04-09T09:25:33Z</time>
      </trkpt>
      <trkpt lat="44.84425" lon="5.33379">
        <ele>1429</ele>
        <time>2012-04-09T09:25:42Z</time>
      </trkpt>
      <trkpt lat="44.8443" lon="5.33381">
        <ele>1429</ele>
        <time>2012-04-09T09:25:49Z</time>
      </trkpt>
      <trkpt lat="44.84432" lon="5.33381">
        <ele>1429</ele>
        <time>2012-04-09T09:25:53Z</time>
      </trkpt>
      <trkpt lat="44.84439" lon="5.33381">
        <ele>1428</ele>
        <time>2012-04-09T09:26:01Z</time>
      </trkpt>
      <trkpt lat="44.84443" lon="5.33377">
        <ele>1426</ele>
        <time>2012-04-09T09:26:06Z</time>
      </trkpt>
      <trkpt lat="44.84448" lon="5.33376">
        <ele>1425</ele>
        <time>2012-04-09T09:26:11Z</time>
      </trkpt>
      <trkpt lat="44.84457" lon="5.33383">
        <ele>1426</ele>
        <time>2012-04-09T09:26:21Z</time>
      </trkpt>
      <trkpt lat="44.84461" lon="5.33386">
        <ele>1426</ele>
        <time>2012-04-09T09:26:25Z</time>
      </trkpt>
      <trkpt lat="44.8447" lon="5.33389">
        <ele>1426</ele>
        <time>2012-04-09T09:26:35Z</time>
      </trkpt>
      <trkpt lat="44.84478" lon="5.33395">
        <ele>1427</ele>
        <time>2012-04-09T09:26:44Z</time>
      </trkpt>
      <trkpt lat="44.84482" lon="5.33403">
        <ele>1429</ele>
        <time>2012-04-09T09:26:50Z</time>
      </trkpt>
      <trkpt lat="44.8449" lon="5.33411">
        <ele>1432</ele>
        <time>2012-04-09T09:26:59Z</time>
      </trkpt>
      <trkpt lat="44.84494" lon="5.33413">
        <ele>1434</ele>
        <time>2012-04-09T09:27:05Z</time>
      </trkpt>
      <trkpt lat="44.84496" lon="5.33416">
        <ele>1435</ele>
        <time>2012-04-09T09:27:10Z</time>
      </trkpt>
      <trkpt lat="44.84497" lon="5.33417">
        <ele>1440</ele>
        <time>2012-04-09T09:27:15Z</time>
      </trkpt>
      <trkpt lat="44.845" lon="5.3342">
        <ele>1440</ele>
        <time>2012-04-09T09:27:25Z</time>
      </trkpt>
      <trkpt lat="44.84505" lon="5.33421">
        <ele>1438</ele>
        <time>2012-04-09T09:28:50Z</time>
      </trkpt>
      <trkpt lat="44.84509" lon="5.33422">
        <ele>1439</ele>
        <time>2012-04-09T09:28:54Z</time>
      </trkpt>
      <trkpt lat="44.84517" lon="5.33425">
        <ele>1439</ele>
        <time>2012-04-09T09:29:00Z</time>
      </trkpt>
      <trkpt lat="44.84528" lon="5.33428">
        <ele>1439</ele>
        <time>2012-04-09T09:29:06Z</time>
      </trkpt>
      <trkpt lat="44.84543" lon="5.33435">
        <ele>1438</ele>
        <time>2012-04-09T09:29:13Z</time>
      </trkpt>
      <trkpt lat="44.84555" lon="5.3344">
        <ele>1436</ele>
        <time>2012-04-09T09:29:18Z</time>
      </trkpt>
      <trkpt lat="44.84558" lon="5.33443">
        <ele>1436</ele>
        <time>2012-04-09T09:29:21Z</time>
      </trkpt>
      <trkpt lat="44.8457" lon="5.33449">
        <ele>1436</ele>
        <time>2012-04-09T09:29:27Z</time>
      </trkpt>
      <trkpt lat="44.84576" lon="5.33451">
        <ele>1436</ele>
        <time>2012-04-09T09:29:30Z</time>
      </trkpt>
      <trkpt lat="44.84579" lon="5.33452">
        <ele>1436</ele>
        <time>2012-04-09T09:29:35Z</time>
      </trkpt>
      <trkpt lat="44.84583" lon="5.33453">
        <ele>1436</ele>
        <time>2012-04-09T09:29:43Z</time>
      </trkpt>
      <trkpt lat="44.84592" lon="5.33458">
        <ele>1427</ele>
        <time>2012-04-09T09:29:54Z</time>
      </trkpt>
      <trkpt lat="44.84606" lon="5.33461">
        <ele>1427</ele>
        <time>2012-04-09T09:30:00Z</time>
      </trkpt>
      <trkpt lat="44.84616" lon="5.33462">
        <ele>1427</ele>
        <time>2012-04-09T09:30:04Z</time>
      </trkpt>
      <trkpt lat="44.8462" lon="5.33464">
        <ele>1427</ele>
        <time>2012-04-09T09:30:07Z</time>
      </trkpt>
      <trkpt lat="44.84626" lon="5.33466">
        <ele>1427</ele>
        <time>2012-04-09T09:30:13Z</time>
      </trkpt>
      <trkpt lat="44.84632" lon="5.33466">
        <ele>1426</ele>
        <time>2012-04-09T09:30:19Z</time>
      </trkpt>
      <trkpt lat="44.84642" lon="5.33469">
        <ele>1427</ele>
        <time>2012-04-09T09:30:26Z</time>
      </trkpt>
      <trkpt lat="44.8465" lon="5.33472">
        <ele>1427</ele>
        <time>2012-04-09T09:30:32Z</time>
      </trkpt>
      <trkpt lat="44.84665" lon="5.33475">
        <ele>1429</ele>
        <time>2012-04-09T09:30:41Z</time>
      </trkpt>
      <trkpt lat="44.8468" lon="5.33477">
        <ele>1420</ele>
        <time>2012-04-09T09:30:51Z</time>
      </trkpt>
      <trkpt lat="44.84692" lon="5.33477">
        <ele>1417</ele>
        <time>2012-04-09T09:30:59Z</time>
      </trkpt>
      <trkpt lat="44.84693" lon="5.33479">
        <ele>1418</ele>
        <time>2012-04-09T09:31:04Z</time>
      </trkpt>
      <trkpt lat="44.84691" lon="5.33481">
        <ele>1418</ele>
        <time>2012-04-09T09:31:13Z</time>
      </trkpt>
      <trkpt lat="44.8469" lon="5.33481">
        <ele>1419</ele>
        <time>2012-04-09T09:31:16Z</time>
      </trkpt>
      <trkpt lat="44.84676" lon="5.33483">
        <ele>1424</ele>
        <time>2012-04-09T09:31:26Z</time>
      </trkpt>
      <trkpt lat="44.84665" lon="5.33487">
        <ele>1433</ele>
        <time>2012-04-09T09:31:35Z</time>
      </trkpt>
      <trkpt lat="44.84656" lon="5.33489">
        <ele>1433</ele>
        <time>2012-04-09T09:31:42Z</time>
      </trkpt>
      <trkpt lat="44.84647" lon="5.33492">
        <ele>1432</ele>
        <time>2012-04-09T09:31:50Z</time>
      </trkpt>
      <trkpt lat="44.84646" lon="5.33491">
        <ele>1432</ele>
        <time>2012-04-09T09:31:55Z</time>
      </trkpt>
      <trkpt lat="44.84645" lon="5.3349">
        <ele>1432</ele>
        <time>2012-04-09T09:32:12Z</time>
      </trkpt>
      <trkpt lat="44.84647" lon="5.33491">
        <ele>1432</ele>
        <time>2012-04-09T09:32:17Z</time>
      </trkpt>
      <trkpt lat="44.8465" lon="5.33492">
        <ele>1433</ele>
        <time>2012-04-09T09:32:27Z</time>
      </trkpt>
      <trkpt lat="44.84655" lon="5.33495">
        <ele>1434</ele>
        <time>2012-04-09T09:32:31Z</time>
      </trkpt>
      <trkpt lat="44.84668" lon="5.335">
        <ele>1440</ele>
        <time>2012-04-09T09:32:40Z</time>
      </trkpt>
      <trkpt lat="44.84676" lon="5.33504">
        <ele>1441</ele>
        <time>2012-04-09T09:32:46Z</time>
      </trkpt>
      <trkpt lat="44.84688" lon="5.33505">
        <ele>1441</ele>
        <time>2012-04-09T09:32:54Z</time>
      </trkpt>
      <trkpt lat="44.84691" lon="5.33506">
        <ele>1441</ele>
        <time>2012-04-09T09:32:59Z</time>
      </trkpt>
      <trkpt lat="44.8469" lon="5.33505">
        <ele>1441</ele>
        <time>2012-04-09T09:33:05Z</time>
      </trkpt>
      <trkpt lat="44.84689" lon="5.33506">
        <ele>1441</ele>
        <time>2012-04-09T09:33:07Z</time>
      </trkpt>
      <trkpt lat="44.84686" lon="5.33508">
        <ele>1441</ele>
        <time>2012-04-09T09:33:13Z</time>
      </trkpt>
      <trkpt lat="44.84685" lon="5.33507">
        <ele>1441</ele>
        <time>2012-04-09T09:33:21Z</time>
      </trkpt>
      <trkpt lat="44.84687" lon="5.3351">
        <ele>1441</ele>
        <time>2012-04-09T09:43:20Z</time>
      </trkpt>
      <trkpt lat="44.84684" lon="5.33511">
        <ele>1441</ele>
        <time>2012-04-09T09:43:44Z</time>
      </trkpt>
      <trkpt lat="44.84676" lon="5.33511">
        <ele>1441</ele>
        <time>2012-04-09T09:43:50Z</time>
      </trkpt>
      <trkpt lat="44.84665" lon="5.33508">
        <ele>1442</ele>
        <time>2012-04-09T09:43:56Z</time>
      </trkpt>
      <trkpt lat="44.84656" lon="5.33507">
        <ele>1443</ele>
        <time>2012-04-09T09:44:01Z</time>
      </trkpt>
      <trkpt lat="44.84643" lon="5.33506">
        <ele>1444</ele>
        <time>2012-04-09T09:44:08Z</time>
      </trkpt>
      <trkpt lat="44.84632" lon="5.33506">
        <ele>1446</ele>
        <time>2012-04-09T09:44:15Z</time>
      </trkpt>
      <trkpt lat="44.84622" lon="5.33506">
        <ele>1447</ele>
        <time>2012-04-09T09:44:22Z</time>
      </trkpt>
      <trkpt lat="44.84607" lon="5.33506">
        <ele>1448</ele>
        <time>2012-04-09T09:44:30Z</time>
      </trkpt>
      <trkpt lat="44.84603" lon="5.33507">
        <ele>1448</ele>
        <time>2012-04-09T09:44:34Z</time>
      </trkpt>
      <trkpt lat="44.84594" lon="5.33507">
        <ele>1449</ele>
        <time>2012-04-09T09:44:40Z</time>
      </trkpt>
      <trkpt lat="44.84585" lon="5.3351">
        <ele>1449</ele>
        <time>2012-04-09T09:44:47Z</time>
      </trkpt>
      <trkpt lat="44.84581" lon="5.33512">
        <ele>1454</ele>
        <time>2012-04-09T09:44:50Z</time>
      </trkpt>
      <trkpt lat="44.84574" lon="5.33513">
        <ele>1455</ele>
        <time>2012-04-09T09:44:55Z</time>
      </trkpt>
      <trkpt lat="44.84562" lon="5.33514">
        <ele>1457</ele>
        <time>2012-04-09T09:45:03Z</time>
      </trkpt>
      <trkpt lat="44.84553" lon="5.33518">
        <ele>1459</ele>
        <time>2012-04-09T09:45:09Z</time>
      </trkpt>
      <trkpt lat="44.84539" lon="5.33525">
        <ele>1461</ele>
        <time>2012-04-09T09:45:18Z</time>
      </trkpt>
      <trkpt lat="44.84533" lon="5.33536">
        <ele>1462</ele>
        <time>2012-04-09T09:45:24Z</time>
      </trkpt>
      <trkpt lat="44.84528" lon="5.33553">
        <ele>1463</ele>
        <time>2012-04-09T09:45:31Z</time>
      </trkpt>
      <trkpt lat="44.84522" lon="5.33563">
        <ele>1464</ele>
        <time>2012-04-09T09:45:37Z</time>
      </trkpt>
      <trkpt lat="44.84517" lon="5.33573">
        <ele>1466</ele>
        <time>2012-04-09T09:45:44Z</time>
      </trkpt>
      <trkpt lat="44.84507" lon="5.33579">
        <ele>1469</ele>
        <time>2012-04-09T09:45:51Z</time>
      </trkpt>
      <trkpt lat="44.84494" lon="5.3358">
        <ele>1473</ele>
        <time>2012-04-09T09:45:59Z</time>
      </trkpt>
      <trkpt lat="44.84482" lon="5.33578">
        <ele>1475</ele>
        <time>2012-04-09T09:46:07Z</time>
      </trkpt>
      <trkpt lat="44.84472" lon="5.33576">
        <ele>1476</ele>
        <time>2012-04-09T09:46:15Z</time>
      </trkpt>
      <trkpt lat="44.84463" lon="5.33572">
        <ele>1477</ele>
        <time>2012-04-09T09:46:22Z</time>
      </trkpt>
      <trkpt lat="44.84453" lon="5.33569">
        <ele>1478</ele>
        <time>2012-04-09T09:46:28Z</time>
      </trkpt>
      <trkpt lat="44.84442" lon="5.33564">
        <ele>1479</ele>
        <time>2012-04-09T09:46:36Z</time>
      </trkpt>
      <trkpt lat="44.84438" lon="5.33563">
        <ele>1479</ele>
        <time>2012-04-09T09:46:39Z</time>
      </trkpt>
      <trkpt lat="44.84432" lon="5.33563">
        <ele>1479</ele>
        <time>2012-04-09T09:46:43Z</time>
      </trkpt>
      <trkpt lat="44.84426" lon="5.33563">
        <ele>1480</ele>
        <time>2012-04-09T09:46:48Z</time>
      </trkpt>
      <trkpt lat="44.84413" lon="5.33558">
        <ele>1487</ele>
        <time>2012-04-09T09:46:57Z</time>
      </trkpt>
      <trkpt lat="44.84401" lon="5.33554">
        <ele>1488</ele>
        <time>2012-04-09T09:47:05Z</time>
      </trkpt>
      <trkpt lat="44.84391" lon="5.33551">
        <ele>1489</ele>
        <time>2012-04-09T09:47:12Z</time>
      </trkpt>
      <trkpt lat="44.84385" lon="5.33549">
        <ele>1489</ele>
        <time>2012-04-09T09:47:17Z</time>
      </trkpt>
      <trkpt lat="44.84375" lon="5.33546">
        <ele>1490</ele>
        <time>2012-04-09T09:47:24Z</time>
      </trkpt>
      <trkpt lat="44.84363" lon="5.33543">
        <ele>1491</ele>
        <time>2012-04-09T09:47:32Z</time>
      </trkpt>
      <trkpt lat="44.84355" lon="5.33542">
        <ele>1491</ele>
        <time>2012-04-09T09:47:38Z</time>
      </trkpt>
      <trkpt lat="44.84343" lon="5.33541">
        <ele>1492</ele>
        <time>2012-04-09T09:47:46Z</time>
      </trkpt>
      <trkpt lat="44.84335" lon="5.33541">
        <ele>1492</ele>
        <time>2012-04-09T09:47:52Z</time>
      </trkpt>
      <trkpt lat="44.84327" lon="5.33543">
        <ele>1501</ele>
        <time>2012-04-09T09:47:59Z</time>
      </trkpt>
      <trkpt lat="44.84317" lon="5.33547">
        <ele>1501</ele>
        <time>2012-04-09T09:48:06Z</time>
      </trkpt>
      <trkpt lat="44.84307" lon="5.33551">
        <ele>1502</ele>
        <time>2012-04-09T09:48:14Z</time>
      </trkpt>
      <trkpt lat="44.84298" lon="5.3355">
        <ele>1502</ele>
        <time>2012-04-09T09:48:22Z</time>
      </trkpt>
      <trkpt lat="44.84288" lon="5.33551">
        <ele>1503</ele>
        <time>2012-04-09T09:48:29Z</time>
      </trkpt>
      <trkpt lat="44.8428" lon="5.33551">
        <ele>1504</ele>
        <time>2012-04-09T09:48:35Z</time>
      </trkpt>
      <trkpt lat="44.84269" lon="5.33556">
        <ele>1504</ele>
        <time>2012-04-09T09:48:43Z</time>
      </trkpt>
      <trkpt lat="44.8426" lon="5.33556">
        <ele>1505</ele>
        <time>2012-04-09T09:48:50Z</time>
      </trkpt>
      <trkpt lat="44.84249" lon="5.33554">
        <ele>1514</ele>
        <time>2012-04-09T09:48:58Z</time>
      </trkpt>
      <trkpt lat="44.8424" lon="5.33551">
        <ele>1515</ele>
        <time>2012-04-09T09:49:05Z</time>
      </trkpt>
      <trkpt lat="44.84233" lon="5.33547">
        <ele>1516</ele>
        <time>2012-04-09T09:49:12Z</time>
      </trkpt>
      <trkpt lat="44.84223" lon="5.33545">
        <ele>1517</ele>
        <time>2012-04-09T09:49:20Z</time>
      </trkpt>
      <trkpt lat="44.84214" lon="5.33545">
        <ele>1517</ele>
        <time>2012-04-09T09:49:27Z</time>
      </trkpt>
      <trkpt lat="44.84205" lon="5.33548">
        <ele>1518</ele>
        <time>2012-04-09T09:49:33Z</time>
      </trkpt>
      <trkpt lat="44.842" lon="5.33553">
        <ele>1518</ele>
        <time>2012-04-09T09:49:40Z</time>
      </trkpt>
      <trkpt lat="44.84199" lon="5.33552">
        <ele>1518</ele>
        <time>2012-04-09T09:49:46Z</time>
      </trkpt>
      <trkpt lat="44.84198" lon="5.33551">
        <ele>1518</ele>
        <time>2012-04-09T09:49:48Z</time>
      </trkpt>
      <trkpt lat="44.84188" lon="5.3355">
        <ele>1519</ele>
        <time>2012-04-09T09:49:57Z</time>
      </trkpt>
      <trkpt lat="44.84187" lon="5.33549">
        <ele>1519</ele>
        <time>2012-04-09T09:49:58Z</time>
      </trkpt>
      <trkpt lat="44.84183" lon="5.33545">
        <ele>1520</ele>
        <time>2012-04-09T09:50:02Z</time>
      </trkpt>
      <trkpt lat="44.84176" lon="5.33535">
        <ele>1521</ele>
        <time>2012-04-09T09:50:11Z</time>
      </trkpt>
      <trkpt lat="44.84173" lon="5.33528">
        <ele>1522</ele>
        <time>2012-04-09T09:50:19Z</time>
      </trkpt>
      <trkpt lat="44.84175" lon="5.33526">
        <ele>1522</ele>
        <time>2012-04-09T09:50:35Z</time>
      </trkpt>
      <trkpt lat="44.84176" lon="5.3353">
        <ele>1522</ele>
        <time>2012-04-09T09:50:39Z</time>
      </trkpt>
      <trkpt lat="44.84172" lon="5.33528">
        <ele>1522</ele>
        <time>2012-04-09T09:50:46Z</time>
      </trkpt>
      <trkpt lat="44.84168" lon="5.33526">
        <ele>1523</ele>
        <time>2012-04-09T09:50:53Z</time>
      </trkpt>
      <trkpt lat="44.84165" lon="5.33525">
        <ele>1530</ele>
        <time>2012-04-09T09:50:59Z</time>
      </trkpt>
      <trkpt lat="44.8416" lon="5.33523">
        <ele>1530</ele>
        <time>2012-04-09T09:51:07Z</time>
      </trkpt>
      <trkpt lat="44.84159" lon="5.33521">
        <ele>1530</ele>
        <time>2012-04-09T09:51:12Z</time>
      </trkpt>
      <trkpt lat="44.84158" lon="5.33519">
        <ele>1531</ele>
        <time>2012-04-09T09:51:20Z</time>
      </trkpt>
      <trkpt lat="44.84157" lon="5.33517">
        <ele>1531</ele>
        <time>2012-04-09T09:51:25Z</time>
      </trkpt>
      <trkpt lat="44.84153" lon="5.33517">
        <ele>1531</ele>
        <time>2012-04-09T09:51:31Z</time>
      </trkpt>
      <trkpt lat="44.84148" lon="5.33517">
        <ele>1531</ele>
        <time>2012-04-09T09:51:38Z</time>
      </trkpt>
      <trkpt lat="44.84142" lon="5.33517">
        <ele>1531</ele>
        <time>2012-04-09T09:51:45Z</time>
      </trkpt>
      <trkpt lat="44.84136" lon="5.33513">
        <ele>1532</ele>
        <time>2012-04-09T09:51:53Z</time>
      </trkpt>
      <trkpt lat="44.84132" lon="5.33508">
        <ele>1532</ele>
        <time>2012-04-09T09:52:01Z</time>
      </trkpt>
      <trkpt lat="44.8413" lon="5.33505">
        <ele>1532</ele>
        <time>2012-04-09T09:52:08Z</time>
      </trkpt>
      <trkpt lat="44.84127" lon="5.33503">
        <ele>1533</ele>
        <time>2012-04-09T09:52:13Z</time>
      </trkpt>
      <trkpt lat="44.84126" lon="5.335">
        <ele>1533</ele>
        <time>2012-04-09T09:52:16Z</time>
      </trkpt>
      <trkpt lat="44.84123" lon="5.33495">
        <ele>1537</ele>
        <time>2012-04-09T09:52:24Z</time>
      </trkpt>
      <trkpt lat="44.84119" lon="5.33489">
        <ele>1537</ele>
        <time>2012-04-09T09:52:29Z</time>
      </trkpt>
      <trkpt lat="44.84113" lon="5.33478">
        <ele>1537</ele>
        <time>2012-04-09T09:52:36Z</time>
      </trkpt>
      <trkpt lat="44.84102" lon="5.33466">
        <ele>1538</ele>
        <time>2012-04-09T09:52:45Z</time>
      </trkpt>
      <trkpt lat="44.8409" lon="5.33457">
        <ele>1538</ele>
        <time>2012-04-09T09:52:54Z</time>
      </trkpt>
      <trkpt lat="44.84081" lon="5.33451">
        <ele>1544</ele>
        <time>2012-04-09T09:53:02Z</time>
      </trkpt>
      <trkpt lat="44.8407" lon="5.33446">
        <ele>1545</ele>
        <time>2012-04-09T09:53:11Z</time>
      </trkpt>
      <trkpt lat="44.84068" lon="5.33447">
        <ele>1545</ele>
        <time>2012-04-09T09:53:16Z</time>
      </trkpt>
      <trkpt lat="44.84067" lon="5.33447">
        <ele>1545</ele>
        <time>2012-04-09T09:53:25Z</time>
      </trkpt>
      <trkpt lat="44.84062" lon="5.33444">
        <ele>1545</ele>
        <time>2012-04-09T09:53:55Z</time>
      </trkpt>
      <trkpt lat="44.84057" lon="5.3344">
        <ele>1545</ele>
        <time>2012-04-09T09:54:04Z</time>
      </trkpt>
      <trkpt lat="44.84052" lon="5.33438">
        <ele>1546</ele>
        <time>2012-04-09T09:54:11Z</time>
      </trkpt>
      <trkpt lat="44.84042" lon="5.33435">
        <ele>1546</ele>
        <time>2012-04-09T09:54:19Z</time>
      </trkpt>
      <trkpt lat="44.84032" lon="5.33432">
        <ele>1548</ele>
        <time>2012-04-09T09:54:26Z</time>
      </trkpt>
      <trkpt lat="44.84024" lon="5.3344">
        <ele>1548</ele>
        <time>2012-04-09T09:54:33Z</time>
      </trkpt>
      <trkpt lat="44.84023" lon="5.33441">
        <ele>1548</ele>
        <time>2012-04-09T09:54:34Z</time>
      </trkpt>
      <trkpt lat="44.84015" lon="5.33445">
        <ele>1549</ele>
        <time>2012-04-09T09:54:41Z</time>
      </trkpt>
      <trkpt lat="44.84004" lon="5.33451">
        <ele>1549</ele>
        <time>2012-04-09T09:54:49Z</time>
      </trkpt>
      <trkpt lat="44.83994" lon="5.33454">
        <ele>1551</ele>
        <time>2012-04-09T09:54:56Z</time>
      </trkpt>
      <trkpt lat="44.83982" lon="5.33452">
        <ele>1550</ele>
        <time>2012-04-09T09:55:05Z</time>
      </trkpt>
      <trkpt lat="44.83971" lon="5.3345">
        <ele>1550</ele>
        <time>2012-04-09T09:55:12Z</time>
      </trkpt>
      <trkpt lat="44.8396" lon="5.33448">
        <ele>1550</ele>
        <time>2012-04-09T09:55:20Z</time>
      </trkpt>
      <trkpt lat="44.83944" lon="5.33442">
        <ele>1549</ele>
        <time>2012-04-09T09:55:30Z</time>
      </trkpt>
      <trkpt lat="44.83928" lon="5.33433">
        <ele>1548</ele>
        <time>2012-04-09T09:55:39Z</time>
      </trkpt>
      <trkpt lat="44.83914" lon="5.3343">
        <ele>1544</ele>
        <time>2012-04-09T09:55:43Z</time>
      </trkpt>
      <trkpt lat="44.839" lon="5.3343">
        <ele>1543</ele>
        <time>2012-04-09T09:55:47Z</time>
      </trkpt>
      <trkpt lat="44.83898" lon="5.33431">
        <ele>1543</ele>
        <time>2012-04-09T09:55:48Z</time>
      </trkpt>
      <trkpt lat="44.83889" lon="5.33426">
        <ele>1542</ele>
        <time>2012-04-09T09:55:51Z</time>
      </trkpt>
      <trkpt lat="44.83872" lon="5.33404">
        <ele>1531</ele>
        <time>2012-04-09T09:55:57Z</time>
      </trkpt>
      <trkpt lat="44.83868" lon="5.33398">
        <ele>1530</ele>
        <time>2012-04-09T09:56:00Z</time>
      </trkpt>
      <trkpt lat="44.83868" lon="5.33398">
        <ele>1530</ele>
        <time>2012-04-09T09:56:07Z</time>
      </trkpt>
      <trkpt lat="44.83867" lon="5.33398">
        <ele>1530</ele>
        <time>2012-04-09T09:56:34Z</time>
      </trkpt>
      <trkpt lat="44.8386" lon="5.33398">
        <ele>1530</ele>
        <time>2012-04-09T09:56:39Z</time>
      </trkpt>
      <trkpt lat="44.83859" lon="5.33398">
        <ele>1530</ele>
        <time>2012-04-09T09:56:40Z</time>
      </trkpt>
      <trkpt lat="44.83847" lon="5.33393">
        <ele>1530</ele>
        <time>2012-04-09T09:56:46Z</time>
      </trkpt>
      <trkpt lat="44.83833" lon="5.33378">
        <ele>1530</ele>
        <time>2012-04-09T09:56:50Z</time>
      </trkpt>
      <trkpt lat="44.83813" lon="5.33374">
        <ele>1530</ele>
        <time>2012-04-09T09:56:55Z</time>
      </trkpt>
      <trkpt lat="44.83802" lon="5.33372">
        <ele>1530</ele>
        <time>2012-04-09T09:56:57Z</time>
      </trkpt>
      <trkpt lat="44.83796" lon="5.3337">
        <ele>1530</ele>
        <time>2012-04-09T09:56:59Z</time>
      </trkpt>
      <trkpt lat="44.83787" lon="5.33366">
        <ele>1530</ele>
        <time>2012-04-09T09:57:06Z</time>
      </trkpt>
      <trkpt lat="44.83773" lon="5.33364">
        <ele>1531</ele>
        <time>2012-04-09T09:57:14Z</time>
      </trkpt>
      <trkpt lat="44.83761" lon="5.33358">
        <ele>1531</ele>
        <time>2012-04-09T09:57:23Z</time>
      </trkpt>
      <trkpt lat="44.83751" lon="5.33354">
        <ele>1531</ele>
        <time>2012-04-09T09:57:30Z</time>
      </trkpt>
      <trkpt lat="44.8374" lon="5.33348">
        <ele>1535</ele>
        <time>2012-04-09T09:57:38Z</time>
      </trkpt>
      <trkpt lat="44.8373" lon="5.33343">
        <ele>1536</ele>
        <time>2012-04-09T09:57:46Z</time>
      </trkpt>
      <trkpt lat="44.83721" lon="5.33339">
        <ele>1537</ele>
        <time>2012-04-09T09:57:53Z</time>
      </trkpt>
      <trkpt lat="44.83716" lon="5.33337">
        <ele>1538</ele>
        <time>2012-04-09T09:57:56Z</time>
      </trkpt>
      <trkpt lat="44.83713" lon="5.33336">
        <ele>1538</ele>
        <time>2012-04-09T09:58:02Z</time>
      </trkpt>
      <trkpt lat="44.83714" lon="5.33335">
        <ele>1538</ele>
        <time>2012-04-09T09:58:55Z</time>
      </trkpt>
      <trkpt lat="44.83707" lon="5.33335">
        <ele>1539</ele>
        <time>2012-04-09T09:59:00Z</time>
      </trkpt>
      <trkpt lat="44.83691" lon="5.33332">
        <ele>1530</ele>
        <time>2012-04-09T09:59:10Z</time>
      </trkpt>
      <trkpt lat="44.8368" lon="5.3333">
        <ele>1534</ele>
        <time>2012-04-09T09:59:17Z</time>
      </trkpt>
      <trkpt lat="44.83663" lon="5.3333">
        <ele>1541</ele>
        <time>2012-04-09T09:59:28Z</time>
      </trkpt>
      <trkpt lat="44.8365" lon="5.33328">
        <ele>1538</ele>
        <time>2012-04-09T09:59:37Z</time>
      </trkpt>
      <trkpt lat="44.83639" lon="5.33327">
        <ele>1536</ele>
        <time>2012-04-09T09:59:45Z</time>
      </trkpt>
      <trkpt lat="44.83628" lon="5.33329">
        <ele>1536</ele>
        <time>2012-04-09T09:59:53Z</time>
      </trkpt>
      <trkpt lat="44.83616" lon="5.33332">
        <ele>1537</ele>
        <time>2012-04-09T10:00:02Z</time>
      </trkpt>
      <trkpt lat="44.83603" lon="5.33335">
        <ele>1549</ele>
        <time>2012-04-09T10:00:11Z</time>
      </trkpt>
      <trkpt lat="44.83588" lon="5.33335">
        <ele>1550</ele>
        <time>2012-04-09T10:00:21Z</time>
      </trkpt>
      <trkpt lat="44.83574" lon="5.33338">
        <ele>1552</ele>
        <time>2012-04-09T10:00:30Z</time>
      </trkpt>
      <trkpt lat="44.83562" lon="5.33338">
        <ele>1553</ele>
        <time>2012-04-09T10:00:37Z</time>
      </trkpt>
      <trkpt lat="44.83552" lon="5.33338">
        <ele>1554</ele>
        <time>2012-04-09T10:00:44Z</time>
      </trkpt>
      <trkpt lat="44.8354" lon="5.3334">
        <ele>1554</ele>
        <time>2012-04-09T10:00:52Z</time>
      </trkpt>
      <trkpt lat="44.83538" lon="5.3334">
        <ele>1554</ele>
        <time>2012-04-09T10:00:57Z</time>
      </trkpt>
      <trkpt lat="44.83533" lon="5.3334">
        <ele>1554</ele>
        <time>2012-04-09T10:01:24Z</time>
      </trkpt>
      <trkpt lat="44.83519" lon="5.33339">
        <ele>1554</ele>
        <time>2012-04-09T10:01:33Z</time>
      </trkpt>
      <trkpt lat="44.83505" lon="5.33342">
        <ele>1553</ele>
        <time>2012-04-09T10:01:42Z</time>
      </trkpt>
      <trkpt lat="44.83493" lon="5.33343">
        <ele>1558</ele>
        <time>2012-04-09T10:01:50Z</time>
      </trkpt>
      <trkpt lat="44.83481" lon="5.33345">
        <ele>1562</ele>
        <time>2012-04-09T10:01:58Z</time>
      </trkpt>
      <trkpt lat="44.83468" lon="5.33343">
        <ele>1565</ele>
        <time>2012-04-09T10:02:07Z</time>
      </trkpt>
      <trkpt lat="44.83456" lon="5.33341">
        <ele>1567</ele>
        <time>2012-04-09T10:02:15Z</time>
      </trkpt>
      <trkpt lat="44.83445" lon="5.33339">
        <ele>1569</ele>
        <time>2012-04-09T10:02:24Z</time>
      </trkpt>
      <trkpt lat="44.83437" lon="5.33336">
        <ele>1570</ele>
        <time>2012-04-09T10:02:31Z</time>
      </trkpt>
      <trkpt lat="44.83428" lon="5.33333">
        <ele>1565</ele>
        <time>2012-04-09T10:02:39Z</time>
      </trkpt>
      <trkpt lat="44.83428" lon="5.33333">
        <ele>1565</ele>
        <time>2012-04-09T10:02:48Z</time>
      </trkpt>
      <trkpt lat="44.83429" lon="5.33332">
        <ele>1565</ele>
        <time>2012-04-09T10:02:55Z</time>
      </trkpt>
      <trkpt lat="44.83431" lon="5.33333">
        <ele>1563</ele>
        <time>2012-04-09T10:04:04Z</time>
      </trkpt>
      <trkpt lat="44.8343" lon="5.33332">
        <ele>1564</ele>
        <time>2012-04-09T10:04:11Z</time>
      </trkpt>
      <trkpt lat="44.83429" lon="5.33332">
        <ele>1564</ele>
        <time>2012-04-09T10:04:13Z</time>
      </trkpt>
      <trkpt lat="44.83421" lon="5.33332">
        <ele>1570</ele>
        <time>2012-04-09T10:04:23Z</time>
      </trkpt>
      <trkpt lat="44.83414" lon="5.33333">
        <ele>1575</ele>
        <time>2012-04-09T10:04:32Z</time>
      </trkpt>
      <trkpt lat="44.83408" lon="5.33333">
        <ele>1574</ele>
        <time>2012-04-09T10:04:41Z</time>
      </trkpt>
      <trkpt lat="44.834" lon="5.33331">
        <ele>1574</ele>
        <time>2012-04-09T10:04:51Z</time>
      </trkpt>
      <trkpt lat="44.83392" lon="5.33327">
        <ele>1575</ele>
        <time>2012-04-09T10:05:01Z</time>
      </trkpt>
      <trkpt lat="44.83384" lon="5.33324">
        <ele>1575</ele>
        <time>2012-04-09T10:05:10Z</time>
      </trkpt>
      <trkpt lat="44.83376" lon="5.33322">
        <ele>1576</ele>
        <time>2012-04-09T10:05:19Z</time>
      </trkpt>
      <trkpt lat="44.8337" lon="5.3332">
        <ele>1577</ele>
        <time>2012-04-09T10:05:27Z</time>
      </trkpt>
      <trkpt lat="44.83364" lon="5.33316">
        <ele>1578</ele>
        <time>2012-04-09T10:05:36Z</time>
      </trkpt>
      <trkpt lat="44.83356" lon="5.33312">
        <ele>1579</ele>
        <time>2012-04-09T10:05:45Z</time>
      </trkpt>
      <trkpt lat="44.8335" lon="5.33308">
        <ele>1580</ele>
        <time>2012-04-09T10:05:54Z</time>
      </trkpt>
      <trkpt lat="44.83348" lon="5.33308">
        <ele>1580</ele>
        <time>2012-04-09T10:05:56Z</time>
      </trkpt>
      <trkpt lat="44.83344" lon="5.33304">
        <ele>1579</ele>
        <time>2012-04-09T10:06:03Z</time>
      </trkpt>
      <trkpt lat="44.8334" lon="5.33301">
        <ele>1579</ele>
        <time>2012-04-09T10:06:08Z</time>
      </trkpt>
      <trkpt lat="44.83335" lon="5.33298">
        <ele>1579</ele>
        <time>2012-04-09T10:06:16Z</time>
      </trkpt>
      <trkpt lat="44.83335" lon="5.33298">
        <ele>1579</ele>
        <time>2012-04-09T10:06:18Z</time>
      </trkpt>
      <trkpt lat="44.83329" lon="5.33294">
        <ele>1593</ele>
        <time>2012-04-09T10:06:27Z</time>
      </trkpt>
      <trkpt lat="44.83326" lon="5.3329">
        <ele>1592</ele>
        <time>2012-04-09T10:06:35Z</time>
      </trkpt>
      <trkpt lat="44.83323" lon="5.33287">
        <ele>1592</ele>
        <time>2012-04-09T10:06:43Z</time>
      </trkpt>
      <trkpt lat="44.83319" lon="5.33284">
        <ele>1592</ele>
        <time>2012-04-09T10:06:49Z</time>
      </trkpt>
      <trkpt lat="44.83318" lon="5.33283">
        <ele>1592</ele>
        <time>2012-04-09T10:06:51Z</time>
      </trkpt>
      <trkpt lat="44.83311" lon="5.3328">
        <ele>1592</ele>
        <time>2012-04-09T10:07:00Z</time>
      </trkpt>
      <trkpt lat="44.83302" lon="5.33275">
        <ele>1594</ele>
        <time>2012-04-09T10:07:13Z</time>
      </trkpt>
      <trkpt lat="44.83294" lon="5.3327">
        <ele>1595</ele>
        <time>2012-04-09T10:07:24Z</time>
      </trkpt>
      <trkpt lat="44.83289" lon="5.33268">
        <ele>1596</ele>
        <time>2012-04-09T10:07:32Z</time>
      </trkpt>
      <trkpt lat="44.83281" lon="5.33265">
        <ele>1597</ele>
        <time>2012-04-09T10:07:43Z</time>
      </trkpt>
      <trkpt lat="44.83279" lon="5.33263">
        <ele>1598</ele>
        <time>2012-04-09T10:07:50Z</time>
      </trkpt>
      <trkpt lat="44.83276" lon="5.3326">
        <ele>1599</ele>
        <time>2012-04-09T10:07:57Z</time>
      </trkpt>
      <trkpt lat="44.83269" lon="5.33258">
        <ele>1600</ele>
        <time>2012-04-09T10:08:05Z</time>
      </trkpt>
      <trkpt lat="44.8326" lon="5.33254">
        <ele>1603</ele>
        <time>2012-04-09T10:08:15Z</time>
      </trkpt>
      <trkpt lat="44.83253" lon="5.3325">
        <ele>1606</ele>
        <time>2012-04-09T10:08:23Z</time>
      </trkpt>
      <trkpt lat="44.83246" lon="5.33246">
        <ele>1605</ele>
        <time>2012-04-09T10:08:32Z</time>
      </trkpt>
      <trkpt lat="44.8324" lon="5.33238">
        <ele>1602</ele>
        <time>2012-04-09T10:08:41Z</time>
      </trkpt>
      <trkpt lat="44.8324" lon="5.33238">
        <ele>1602</ele>
        <time>2012-04-09T10:08:44Z</time>
      </trkpt>
      <trkpt lat="44.8324" lon="5.33235">
        <ele>1602</ele>
        <time>2012-04-09T10:08:49Z</time>
      </trkpt>
      <trkpt lat="44.8324" lon="5.33234">
        <ele>1602</ele>
        <time>2012-04-09T10:08:50Z</time>
      </trkpt>
      <trkpt lat="44.83232" lon="5.33228">
        <ele>1600</ele>
        <time>2012-04-09T10:08:55Z</time>
      </trkpt>
      <trkpt lat="44.83219" lon="5.33214">
        <ele>1598</ele>
        <time>2012-04-09T10:09:00Z</time>
      </trkpt>
      <trkpt lat="44.83195" lon="5.33205">
        <ele>1598</ele>
        <time>2012-04-09T10:09:04Z</time>
      </trkpt>
      <trkpt lat="44.83187" lon="5.33203">
        <ele>1598</ele>
        <time>2012-04-09T10:09:05Z</time>
      </trkpt>
      <trkpt lat="44.83162" lon="5.33207">
        <ele>1605</ele>
        <time>2012-04-09T10:09:08Z</time>
      </trkpt>
      <trkpt lat="44.83149" lon="5.33207">
        <ele>1605</ele>
        <time>2012-04-09T10:09:11Z</time>
      </trkpt>
      <trkpt lat="44.83148" lon="5.33206">
        <ele>1605</ele>
        <time>2012-04-09T10:09:12Z</time>
      </trkpt>
      <trkpt lat="44.83147" lon="5.33204">
        <ele>1605</ele>
        <time>2012-04-09T10:09:21Z</time>
      </trkpt>
      <trkpt lat="44.83148" lon="5.33205">
        <ele>1605</ele>
        <time>2012-04-09T10:09:37Z</time>
      </trkpt>
      <trkpt lat="44.83141" lon="5.33205">
        <ele>1605</ele>
        <time>2012-04-09T10:09:45Z</time>
      </trkpt>
      <trkpt lat="44.83135" lon="5.33204">
        <ele>1605</ele>
        <time>2012-04-09T10:09:54Z</time>
      </trkpt>
      <trkpt lat="44.83135" lon="5.33204">
        <ele>1605</ele>
        <time>2012-04-09T10:09:55Z</time>
      </trkpt>
      <trkpt lat="44.83127" lon="5.33201">
        <ele>1605</ele>
        <time>2012-04-09T10:10:06Z</time>
      </trkpt>
      <trkpt lat="44.83121" lon="5.33198">
        <ele>1605</ele>
        <time>2012-04-09T10:10:15Z</time>
      </trkpt>
      <trkpt lat="44.83117" lon="5.33196">
        <ele>1606</ele>
        <time>2012-04-09T10:10:23Z</time>
      </trkpt>
      <trkpt lat="44.83112" lon="5.33196">
        <ele>1606</ele>
        <time>2012-04-09T10:10:30Z</time>
      </trkpt>
      <trkpt lat="44.83112" lon="5.33194">
        <ele>1606</ele>
        <time>2012-04-09T10:10:33Z</time>
      </trkpt>
      <trkpt lat="44.8311" lon="5.33194">
        <ele>1606</ele>
        <time>2012-04-09T10:10:36Z</time>
      </trkpt>
      <trkpt lat="44.83102" lon="5.33193">
        <ele>1606</ele>
        <time>2012-04-09T10:10:46Z</time>
      </trkpt>
      <trkpt lat="44.83094" lon="5.33191">
        <ele>1606</ele>
        <time>2012-04-09T10:10:56Z</time>
      </trkpt>
      <trkpt lat="44.83088" lon="5.33188">
        <ele>1607</ele>
        <time>2012-04-09T10:11:06Z</time>
      </trkpt>
      <trkpt lat="44.83081" lon="5.33184">
        <ele>1608</ele>
        <time>2012-04-09T10:11:15Z</time>
      </trkpt>
      <trkpt lat="44.83073" lon="5.33181">
        <ele>1608</ele>
        <time>2012-04-09T10:11:26Z</time>
      </trkpt>
      <trkpt lat="44.83065" lon="5.33176">
        <ele>1608</ele>
        <time>2012-04-09T10:11:38Z</time>
      </trkpt>
      <trkpt lat="44.83063" lon="5.33176">
        <ele>1608</ele>
        <time>2012-04-09T10:11:43Z</time>
      </trkpt>
      <trkpt lat="44.83056" lon="5.33174">
        <ele>1609</ele>
        <time>2012-04-09T10:11:51Z</time>
      </trkpt>
      <trkpt lat="44.83046" lon="5.33171">
        <ele>1609</ele>
        <time>2012-04-09T10:12:02Z</time>
      </trkpt>
      <trkpt lat="44.83037" lon="5.33168">
        <ele>1609</ele>
        <time>2012-04-09T10:12:11Z</time>
      </trkpt>
      <trkpt lat="44.8303" lon="5.33165">
        <ele>1601</ele>
        <time>2012-04-09T10:12:20Z</time>
      </trkpt>
      <trkpt lat="44.83029" lon="5.33165">
        <ele>1601</ele>
        <time>2012-04-09T10:12:23Z</time>
      </trkpt>
      <trkpt lat="44.83028" lon="5.33162">
        <ele>1601</ele>
        <time>2012-04-09T10:12:27Z</time>
      </trkpt>
      <trkpt lat="44.83023" lon="5.33159">
        <ele>1601</ele>
        <time>2012-04-09T10:16:35Z</time>
      </trkpt>
      <trkpt lat="44.83025" lon="5.33158">
        <ele>1601</ele>
        <time>2012-04-09T10:19:14Z</time>
      </trkpt>
      <trkpt lat="44.83017" lon="5.33168">
        <ele>1609</ele>
        <time>2012-04-09T10:19:19Z</time>
      </trkpt>
      <trkpt lat="44.82998" lon="5.33184">
        <ele>1603</ele>
        <time>2012-04-09T10:19:25Z</time>
      </trkpt>
      <trkpt lat="44.82989" lon="5.3321">
        <ele>1600</ele>
        <time>2012-04-09T10:19:29Z</time>
      </trkpt>
      <trkpt lat="44.82984" lon="5.33224">
        <ele>1600</ele>
        <time>2012-04-09T10:19:31Z</time>
      </trkpt>
      <trkpt lat="44.82978" lon="5.33256">
        <ele>1594</ele>
        <time>2012-04-09T10:19:36Z</time>
      </trkpt>
      <trkpt lat="44.82972" lon="5.33275">
        <ele>1590</ele>
        <time>2012-04-09T10:19:40Z</time>
      </trkpt>
      <trkpt lat="44.82972" lon="5.33307">
        <ele>1587</ele>
        <time>2012-04-09T10:19:47Z</time>
      </trkpt>
      <trkpt lat="44.82964" lon="5.33327">
        <ele>1584</ele>
        <time>2012-04-09T10:19:53Z</time>
      </trkpt>
      <trkpt lat="44.82963" lon="5.33331">
        <ele>1584</ele>
        <time>2012-04-09T10:19:54Z</time>
      </trkpt>
      <trkpt lat="44.82955" lon="5.33355">
        <ele>1571</ele>
        <time>2012-04-09T10:19:59Z</time>
      </trkpt>
      <trkpt lat="44.82948" lon="5.33372">
        <ele>1569</ele>
        <time>2012-04-09T10:20:03Z</time>
      </trkpt>
      <trkpt lat="44.82936" lon="5.33397">
        <ele>1565</ele>
        <time>2012-04-09T10:20:08Z</time>
      </trkpt>
      <trkpt lat="44.82931" lon="5.33416">
        <ele>1561</ele>
        <time>2012-04-09T10:20:12Z</time>
      </trkpt>
      <trkpt lat="44.82941" lon="5.33447">
        <ele>1556</ele>
        <time>2012-04-09T10:20:17Z</time>
      </trkpt>
      <trkpt lat="44.82952" lon="5.33463">
        <ele>1556</ele>
        <time>2012-04-09T10:20:20Z</time>
      </trkpt>
      <trkpt lat="44.82978" lon="5.33497">
        <ele>1557</ele>
        <time>2012-04-09T10:20:26Z</time>
      </trkpt>
      <trkpt lat="44.82989" lon="5.33516">
        <ele>1548</ele>
        <time>2012-04-09T10:20:29Z</time>
      </trkpt>
      <trkpt lat="44.83013" lon="5.33554">
        <ele>1547</ele>
        <time>2012-04-09T10:20:35Z</time>
      </trkpt>
      <trkpt lat="44.83023" lon="5.33573">
        <ele>1545</ele>
        <time>2012-04-09T10:20:38Z</time>
      </trkpt>
      <trkpt lat="44.83029" lon="5.33587">
        <ele>1533</ele>
        <time>2012-04-09T10:20:40Z</time>
      </trkpt>
      <trkpt lat="44.83047" lon="5.3363">
        <ele>1529</ele>
        <time>2012-04-09T10:20:47Z</time>
      </trkpt>
      <trkpt lat="44.83056" lon="5.33653">
        <ele>1527</ele>
        <time>2012-04-09T10:20:52Z</time>
      </trkpt>
      <trkpt lat="44.83062" lon="5.33665">
        <ele>1527</ele>
        <time>2012-04-09T10:20:55Z</time>
      </trkpt>
      <trkpt lat="44.83067" lon="5.33675">
        <ele>1517</ele>
        <time>2012-04-09T10:20:57Z</time>
      </trkpt>
      <trkpt lat="44.8308" lon="5.33706">
        <ele>1511</ele>
        <time>2012-04-09T10:21:03Z</time>
      </trkpt>
      <trkpt lat="44.83086" lon="5.33729">
        <ele>1517</ele>
        <time>2012-04-09T10:21:07Z</time>
      </trkpt>
      <trkpt lat="44.83093" lon="5.33749">
        <ele>1515</ele>
        <time>2012-04-09T10:21:10Z</time>
      </trkpt>
      <trkpt lat="44.83094" lon="5.33755">
        <ele>1510</ele>
        <time>2012-04-09T10:21:11Z</time>
      </trkpt>
      <trkpt lat="44.831" lon="5.33773">
        <ele>1508</ele>
        <time>2012-04-09T10:21:14Z</time>
      </trkpt>
      <trkpt lat="44.83104" lon="5.33797">
        <ele>1504</ele>
        <time>2012-04-09T10:21:20Z</time>
      </trkpt>
      <trkpt lat="44.83103" lon="5.33804">
        <ele>1503</ele>
        <time>2012-04-09T10:23:29Z</time>
      </trkpt>
      <trkpt lat="44.83105" lon="5.33813">
        <ele>1502</ele>
        <time>2012-04-09T10:23:35Z</time>
      </trkpt>
      <trkpt lat="44.83109" lon="5.33841">
        <ele>1491</ele>
        <time>2012-04-09T10:23:40Z</time>
      </trkpt>
      <trkpt lat="44.83113" lon="5.3386">
        <ele>1491</ele>
        <time>2012-04-09T10:23:44Z</time>
      </trkpt>
      <trkpt lat="44.8312" lon="5.33874">
        <ele>1490</ele>
        <time>2012-04-09T10:23:49Z</time>
      </trkpt>
      <trkpt lat="44.83128" lon="5.3389">
        <ele>1490</ele>
        <time>2012-04-09T10:23:54Z</time>
      </trkpt>
      <trkpt lat="44.83132" lon="5.33899">
        <ele>1490</ele>
        <time>2012-04-09T10:23:56Z</time>
      </trkpt>
      <trkpt lat="44.83137" lon="5.33918">
        <ele>1481</ele>
        <time>2012-04-09T10:23:59Z</time>
      </trkpt>
      <trkpt lat="44.83141" lon="5.33936">
        <ele>1480</ele>
        <time>2012-04-09T10:24:02Z</time>
      </trkpt>
      <trkpt lat="44.83147" lon="5.33955">
        <ele>1479</ele>
        <time>2012-04-09T10:24:06Z</time>
      </trkpt>
      <trkpt lat="44.83151" lon="5.33965">
        <ele>1479</ele>
        <time>2012-04-09T10:24:08Z</time>
      </trkpt>
      <trkpt lat="44.83156" lon="5.33989">
        <ele>1481</ele>
        <time>2012-04-09T10:24:13Z</time>
      </trkpt>
      <trkpt lat="44.83162" lon="5.34008">
        <ele>1477</ele>
        <time>2012-04-09T10:24:18Z</time>
      </trkpt>
      <trkpt lat="44.83167" lon="5.34015">
        <ele>1482</ele>
        <time>2012-04-09T10:24:20Z</time>
      </trkpt>
      <trkpt lat="44.83182" lon="5.34039">
        <ele>1478</ele>
        <time>2012-04-09T10:24:25Z</time>
      </trkpt>
      <trkpt lat="44.8319" lon="5.34066">
        <ele>1476</ele>
        <time>2012-04-09T10:24:31Z</time>
      </trkpt>
      <trkpt lat="44.83195" lon="5.34083">
        <ele>1476</ele>
        <time>2012-04-09T10:24:36Z</time>
      </trkpt>
      <trkpt lat="44.83199" lon="5.34098">
        <ele>1470</ele>
        <time>2012-04-09T10:24:41Z</time>
      </trkpt>
      <trkpt lat="44.83201" lon="5.34116">
        <ele>1469</ele>
        <time>2012-04-09T10:24:45Z</time>
      </trkpt>
      <trkpt lat="44.83201" lon="5.34135">
        <ele>1468</ele>
        <time>2012-04-09T10:24:49Z</time>
      </trkpt>
      <trkpt lat="44.83204" lon="5.34151">
        <ele>1467</ele>
        <time>2012-04-09T10:24:52Z</time>
      </trkpt>
      <trkpt lat="44.8321" lon="5.34176">
        <ele>1461</ele>
        <time>2012-04-09T10:24:57Z</time>
      </trkpt>
      <trkpt lat="44.83211" lon="5.34192">
        <ele>1460</ele>
        <time>2012-04-09T10:25:00Z</time>
      </trkpt>
      <trkpt lat="44.83223" lon="5.34238">
        <ele>1459</ele>
        <time>2012-04-09T10:25:06Z</time>
      </trkpt>
      <trkpt lat="44.83227" lon="5.3427">
        <ele>1452</ele>
        <time>2012-04-09T10:25:10Z</time>
      </trkpt>
      <trkpt lat="44.83229" lon="5.34297">
        <ele>1449</ele>
        <time>2012-04-09T10:25:13Z</time>
      </trkpt>
      <trkpt lat="44.8323" lon="5.34356">
        <ele>1438</ele>
        <time>2012-04-09T10:25:20Z</time>
      </trkpt>
      <trkpt lat="44.8323" lon="5.34365">
        <ele>1436</ele>
        <time>2012-04-09T10:25:21Z</time>
      </trkpt>
      <trkpt lat="44.83231" lon="5.34382">
        <ele>1434</ele>
        <time>2012-04-09T10:25:23Z</time>
      </trkpt>
      <trkpt lat="44.83229" lon="5.34434">
        <ele>1426</ele>
        <time>2012-04-09T10:25:28Z</time>
      </trkpt>
      <trkpt lat="44.83228" lon="5.34456">
        <ele>1423</ele>
        <time>2012-04-09T10:25:30Z</time>
      </trkpt>
      <trkpt lat="44.8323" lon="5.34493">
        <ele>1425</ele>
        <time>2012-04-09T10:25:34Z</time>
      </trkpt>
      <trkpt lat="44.83229" lon="5.34515">
        <ele>1422</ele>
        <time>2012-04-09T10:25:38Z</time>
      </trkpt>
      <trkpt lat="44.83228" lon="5.34514">
        <ele>1422</ele>
        <time>2012-04-09T10:25:42Z</time>
      </trkpt>
      <trkpt lat="44.8323" lon="5.3451">
        <ele>1423</ele>
        <time>2012-04-09T10:26:15Z</time>
      </trkpt>
      <trkpt lat="44.83226" lon="5.34515">
        <ele>1421</ele>
        <time>2012-04-09T10:26:22Z</time>
      </trkpt>
      <trkpt lat="44.83225" lon="5.34516">
        <ele>1421</ele>
        <time>2012-04-09T10:26:28Z</time>
      </trkpt>
      <trkpt lat="44.83224" lon="5.34517">
        <ele>1420</ele>
        <time>2012-04-09T10:26:35Z</time>
      </trkpt>
      <trkpt lat="44.83223" lon="5.34518">
        <ele>1420</ele>
        <time>2012-04-09T10:26:36Z</time>
      </trkpt>
      <trkpt lat="44.83218" lon="5.34548">
        <ele>1418</ele>
        <time>2012-04-09T10:26:45Z</time>
      </trkpt>
      <trkpt lat="44.83217" lon="5.34569">
        <ele>1418</ele>
        <time>2012-04-09T10:26:52Z</time>
      </trkpt>
      <trkpt lat="44.83216" lon="5.34586">
        <ele>1418</ele>
        <time>2012-04-09T10:26:59Z</time>
      </trkpt>
      <trkpt lat="44.83221" lon="5.34606">
        <ele>1418</ele>
        <time>2012-04-09T10:27:08Z</time>
      </trkpt>
      <trkpt lat="44.83224" lon="5.34625">
        <ele>1418</ele>
        <time>2012-04-09T10:27:17Z</time>
      </trkpt>
      <trkpt lat="44.83229" lon="5.34647">
        <ele>1421</ele>
        <time>2012-04-09T10:27:28Z</time>
      </trkpt>
      <trkpt lat="44.83232" lon="5.34666">
        <ele>1424</ele>
        <time>2012-04-09T10:27:37Z</time>
      </trkpt>
      <trkpt lat="44.83232" lon="5.34668">
        <ele>1422</ele>
        <time>2012-04-09T10:27:38Z</time>
      </trkpt>
      <trkpt lat="44.83233" lon="5.34684">
        <ele>1421</ele>
        <time>2012-04-09T10:27:46Z</time>
      </trkpt>
      <trkpt lat="44.83234" lon="5.34694">
        <ele>1419</ele>
        <time>2012-04-09T10:27:53Z</time>
      </trkpt>
      <trkpt lat="44.83234" lon="5.34694">
        <ele>1419</ele>
        <time>2012-04-09T10:28:00Z</time>
      </trkpt>
      <trkpt lat="44.83234" lon="5.34693">
        <ele>1419</ele>
        <time>2012-04-09T10:28:03Z</time>
      </trkpt>
      <trkpt lat="44.83235" lon="5.34693">
        <ele>1419</ele>
        <time>2012-04-09T10:28:05Z</time>
      </trkpt>
      <trkpt lat="44.83236" lon="5.34706">
        <ele>1418</ele>
        <time>2012-04-09T10:28:13Z</time>
      </trkpt>
      <trkpt lat="44.83236" lon="5.34728">
        <ele>1419</ele>
        <time>2012-04-09T10:28:20Z</time>
      </trkpt>
      <trkpt lat="44.83235" lon="5.34765">
        <ele>1417</ele>
        <time>2012-04-09T10:28:26Z</time>
      </trkpt>
      <trkpt lat="44.83235" lon="5.34795">
        <ele>1413</ele>
        <time>2012-04-09T10:28:30Z</time>
      </trkpt>
      <trkpt lat="44.83234" lon="5.34812">
        <ele>1414</ele>
        <time>2012-04-09T10:28:33Z</time>
      </trkpt>
      <trkpt lat="44.83231" lon="5.34813">
        <ele>1414</ele>
        <time>2012-04-09T10:28:37Z</time>
      </trkpt>
      <trkpt lat="44.83231" lon="5.34806">
        <ele>1413</ele>
        <time>2012-04-09T10:56:17Z</time>
      </trkpt>
      <trkpt lat="44.83232" lon="5.34807">
        <ele>1413</ele>
        <time>2012-04-09T10:56:26Z</time>
      </trkpt>
      <trkpt lat="44.83231" lon="5.34823">
        <ele>1414</ele>
        <time>2012-04-09T10:56:32Z</time>
      </trkpt>
      <trkpt lat="44.83228" lon="5.34835">
        <ele>1412</ele>
        <time>2012-04-09T10:56:34Z</time>
      </trkpt>
      <trkpt lat="44.83223" lon="5.3485">
        <ele>1410</ele>
        <time>2012-04-09T10:56:36Z</time>
      </trkpt>
      <trkpt lat="44.83209" lon="5.349">
        <ele>1405</ele>
        <time>2012-04-09T10:56:42Z</time>
      </trkpt>
      <trkpt lat="44.83203" lon="5.34918">
        <ele>1403</ele>
        <time>2012-04-09T10:56:44Z</time>
      </trkpt>
      <trkpt lat="44.83189" lon="5.3498">
        <ele>1401</ele>
        <time>2012-04-09T10:56:50Z</time>
      </trkpt>
      <trkpt lat="44.83173" lon="5.35042">
        <ele>1398</ele>
        <time>2012-04-09T10:56:56Z</time>
      </trkpt>
      <trkpt lat="44.83168" lon="5.35062">
        <ele>1396</ele>
        <time>2012-04-09T10:56:58Z</time>
      </trkpt>
      <trkpt lat="44.83157" lon="5.35089">
        <ele>1385</ele>
        <time>2012-04-09T10:57:01Z</time>
      </trkpt>
      <trkpt lat="44.83154" lon="5.35099">
        <ele>1382</ele>
        <time>2012-04-09T10:57:02Z</time>
      </trkpt>
      <trkpt lat="44.83129" lon="5.35138">
        <ele>1375</ele>
        <time>2012-04-09T10:57:07Z</time>
      </trkpt>
      <trkpt lat="44.8312" lon="5.35157">
        <ele>1374</ele>
        <time>2012-04-09T10:57:10Z</time>
      </trkpt>
      <trkpt lat="44.83103" lon="5.35176">
        <ele>1371</ele>
        <time>2012-04-09T10:57:14Z</time>
      </trkpt>
      <trkpt lat="44.83086" lon="5.35191">
        <ele>1370</ele>
        <time>2012-04-09T10:57:18Z</time>
      </trkpt>
      <trkpt lat="44.83073" lon="5.35196">
        <ele>1347</ele>
        <time>2012-04-09T10:57:24Z</time>
      </trkpt>
      <trkpt lat="44.83068" lon="5.35197">
        <ele>1346</ele>
        <time>2012-04-09T10:57:26Z</time>
      </trkpt>
      <trkpt lat="44.83061" lon="5.35213">
        <ele>1344</ele>
        <time>2012-04-09T10:57:30Z</time>
      </trkpt>
      <trkpt lat="44.8305" lon="5.35243">
        <ele>1343</ele>
        <time>2012-04-09T10:57:35Z</time>
      </trkpt>
      <trkpt lat="44.83048" lon="5.35255">
        <ele>1344</ele>
        <time>2012-04-09T10:57:37Z</time>
      </trkpt>
      <trkpt lat="44.83047" lon="5.35268">
        <ele>1343</ele>
        <time>2012-04-09T10:57:39Z</time>
      </trkpt>
      <trkpt lat="44.83041" lon="5.35287">
        <ele>1342</ele>
        <time>2012-04-09T10:57:43Z</time>
      </trkpt>
      <trkpt lat="44.8304" lon="5.35318">
        <ele>1342</ele>
        <time>2012-04-09T10:57:49Z</time>
      </trkpt>
      <trkpt lat="44.83038" lon="5.35336">
        <ele>1343</ele>
        <time>2012-04-09T10:57:54Z</time>
      </trkpt>
      <trkpt lat="44.83035" lon="5.35353">
        <ele>1343</ele>
        <time>2012-04-09T10:58:00Z</time>
      </trkpt>
      <trkpt lat="44.83033" lon="5.35372">
        <ele>1343</ele>
        <time>2012-04-09T10:58:07Z</time>
      </trkpt>
      <trkpt lat="44.83034" lon="5.35394">
        <ele>1344</ele>
        <time>2012-04-09T10:58:15Z</time>
      </trkpt>
      <trkpt lat="44.83034" lon="5.35411">
        <ele>1344</ele>
        <time>2012-04-09T10:58:22Z</time>
      </trkpt>
      <trkpt lat="44.83035" lon="5.35427">
        <ele>1348</ele>
        <time>2012-04-09T10:58:28Z</time>
      </trkpt>
      <trkpt lat="44.83035" lon="5.3545">
        <ele>1350</ele>
        <time>2012-04-09T10:58:36Z</time>
      </trkpt>
      <trkpt lat="44.83034" lon="5.3546">
        <ele>1351</ele>
        <time>2012-04-09T10:58:40Z</time>
      </trkpt>
      <trkpt lat="44.83034" lon="5.35472">
        <ele>1352</ele>
        <time>2012-04-09T10:58:46Z</time>
      </trkpt>
      <trkpt lat="44.83034" lon="5.35488">
        <ele>1352</ele>
        <time>2012-04-09T10:58:54Z</time>
      </trkpt>
      <trkpt lat="44.83031" lon="5.35498">
        <ele>1353</ele>
        <time>2012-04-09T10:59:00Z</time>
      </trkpt>
      <trkpt lat="44.83028" lon="5.35512">
        <ele>1359</ele>
        <time>2012-04-09T10:59:08Z</time>
      </trkpt>
      <trkpt lat="44.83023" lon="5.35525">
        <ele>1359</ele>
        <time>2012-04-09T10:59:15Z</time>
      </trkpt>
      <trkpt lat="44.83021" lon="5.35532">
        <ele>1360</ele>
        <time>2012-04-09T10:59:19Z</time>
      </trkpt>
      <trkpt lat="44.83017" lon="5.35542">
        <ele>1361</ele>
        <time>2012-04-09T10:59:25Z</time>
      </trkpt>
      <trkpt lat="44.83014" lon="5.3555">
        <ele>1362</ele>
        <time>2012-04-09T10:59:30Z</time>
      </trkpt>
      <trkpt lat="44.83007" lon="5.35561">
        <ele>1363</ele>
        <time>2012-04-09T10:59:38Z</time>
      </trkpt>
      <trkpt lat="44.82998" lon="5.35574">
        <ele>1358</ele>
        <time>2012-04-09T10:59:46Z</time>
      </trkpt>
      <trkpt lat="44.82995" lon="5.35579">
        <ele>1361</ele>
        <time>2012-04-09T10:59:49Z</time>
      </trkpt>
      <trkpt lat="44.82991" lon="5.35585">
        <ele>1361</ele>
        <time>2012-04-09T10:59:54Z</time>
      </trkpt>
      <trkpt lat="44.82982" lon="5.356">
        <ele>1355</ele>
        <time>2012-04-09T11:00:00Z</time>
      </trkpt>
      <trkpt lat="44.82976" lon="5.35612">
        <ele>1352</ele>
        <time>2012-04-09T11:00:03Z</time>
      </trkpt>
      <trkpt lat="44.82965" lon="5.35653">
        <ele>1350</ele>
        <time>2012-04-09T11:00:09Z</time>
      </trkpt>
      <trkpt lat="44.82953" lon="5.35679">
        <ele>1346</ele>
        <time>2012-04-09T11:00:14Z</time>
      </trkpt>
      <trkpt lat="44.8294" lon="5.35697">
        <ele>1344</ele>
        <time>2012-04-09T11:00:19Z</time>
      </trkpt>
      <trkpt lat="44.82934" lon="5.35705">
        <ele>1344</ele>
        <time>2012-04-09T11:00:21Z</time>
      </trkpt>
      <trkpt lat="44.82928" lon="5.35714">
        <ele>1343</ele>
        <time>2012-04-09T11:00:23Z</time>
      </trkpt>
      <trkpt lat="44.82921" lon="5.35726">
        <ele>1342</ele>
        <time>2012-04-09T11:00:25Z</time>
      </trkpt>
      <trkpt lat="44.82899" lon="5.35757">
        <ele>1326</ele>
        <time>2012-04-09T11:00:29Z</time>
      </trkpt>
      <trkpt lat="44.82894" lon="5.35769">
        <ele>1323</ele>
        <time>2012-04-09T11:00:30Z</time>
      </trkpt>
      <trkpt lat="44.82875" lon="5.35838">
        <ele>1323</ele>
        <time>2012-04-09T11:00:36Z</time>
      </trkpt>
      <trkpt lat="44.82871" lon="5.35845">
        <ele>1323</ele>
        <time>2012-04-09T11:00:37Z</time>
      </trkpt>
      <trkpt lat="44.82865" lon="5.35854">
        <ele>1323</ele>
        <time>2012-04-09T11:00:39Z</time>
      </trkpt>
      <trkpt lat="44.82861" lon="5.35865">
        <ele>1324</ele>
        <time>2012-04-09T11:00:43Z</time>
      </trkpt>
      <trkpt lat="44.82858" lon="5.35876">
        <ele>1325</ele>
        <time>2012-04-09T11:00:48Z</time>
      </trkpt>
      <trkpt lat="44.82853" lon="5.35889">
        <ele>1326</ele>
        <time>2012-04-09T11:00:56Z</time>
      </trkpt>
      <trkpt lat="44.82847" lon="5.35902">
        <ele>1327</ele>
        <time>2012-04-09T11:01:04Z</time>
      </trkpt>
      <trkpt lat="44.82845" lon="5.35905">
        <ele>1328</ele>
        <time>2012-04-09T11:01:07Z</time>
      </trkpt>
      <trkpt lat="44.82842" lon="5.35915">
        <ele>1329</ele>
        <time>2012-04-09T11:01:12Z</time>
      </trkpt>
      <trkpt lat="44.82836" lon="5.35926">
        <ele>1333</ele>
        <time>2012-04-09T11:01:20Z</time>
      </trkpt>
      <trkpt lat="44.82833" lon="5.35933">
        <ele>1334</ele>
        <time>2012-04-09T11:01:24Z</time>
      </trkpt>
      <trkpt lat="44.82829" lon="5.35939">
        <ele>1327</ele>
        <time>2012-04-09T11:01:30Z</time>
      </trkpt>
      <trkpt lat="44.82822" lon="5.35956">
        <ele>1327</ele>
        <time>2012-04-09T11:01:41Z</time>
      </trkpt>
      <trkpt lat="44.82818" lon="5.35967">
        <ele>1328</ele>
        <time>2012-04-09T11:01:50Z</time>
      </trkpt>
      <trkpt lat="44.82814" lon="5.35977">
        <ele>1329</ele>
        <time>2012-04-09T11:01:57Z</time>
      </trkpt>
      <trkpt lat="44.82809" lon="5.35992">
        <ele>1331</ele>
        <time>2012-04-09T11:02:06Z</time>
      </trkpt>
      <trkpt lat="44.82802" lon="5.36009">
        <ele>1341</ele>
        <time>2012-04-09T11:02:16Z</time>
      </trkpt>
      <trkpt lat="44.82796" lon="5.36022">
        <ele>1341</ele>
        <time>2012-04-09T11:02:25Z</time>
      </trkpt>
      <trkpt lat="44.82792" lon="5.36033">
        <ele>1341</ele>
        <time>2012-04-09T11:02:33Z</time>
      </trkpt>
      <trkpt lat="44.82785" lon="5.36048">
        <ele>1342</ele>
        <time>2012-04-09T11:02:43Z</time>
      </trkpt>
      <trkpt lat="44.82776" lon="5.3606">
        <ele>1343</ele>
        <time>2012-04-09T11:02:53Z</time>
      </trkpt>
      <trkpt lat="44.82768" lon="5.36072">
        <ele>1344</ele>
        <time>2012-04-09T11:03:02Z</time>
      </trkpt>
      <trkpt lat="44.82759" lon="5.36085">
        <ele>1351</ele>
        <time>2012-04-09T11:03:12Z</time>
      </trkpt>
      <trkpt lat="44.82754" lon="5.36095">
        <ele>1352</ele>
        <time>2012-04-09T11:03:19Z</time>
      </trkpt>
      <trkpt lat="44.82747" lon="5.36104">
        <ele>1347</ele>
        <time>2012-04-09T11:03:26Z</time>
      </trkpt>
      <trkpt lat="44.82741" lon="5.36117">
        <ele>1348</ele>
        <time>2012-04-09T11:03:34Z</time>
      </trkpt>
      <trkpt lat="44.82736" lon="5.36127">
        <ele>1349</ele>
        <time>2012-04-09T11:03:41Z</time>
      </trkpt>
      <trkpt lat="44.82729" lon="5.36133">
        <ele>1349</ele>
        <time>2012-04-09T11:03:47Z</time>
      </trkpt>
      <trkpt lat="44.82723" lon="5.3614">
        <ele>1350</ele>
        <time>2012-04-09T11:03:53Z</time>
      </trkpt>
      <trkpt lat="44.82721" lon="5.36142">
        <ele>1350</ele>
        <time>2012-04-09T11:03:58Z</time>
      </trkpt>
      <trkpt lat="44.82716" lon="5.36151">
        <ele>1350</ele>
        <time>2012-04-09T11:04:41Z</time>
      </trkpt>
      <trkpt lat="44.82714" lon="5.36154">
        <ele>1350</ele>
        <time>2012-04-09T11:04:43Z</time>
      </trkpt>
      <trkpt lat="44.82707" lon="5.3616">
        <ele>1349</ele>
        <time>2012-04-09T11:04:49Z</time>
      </trkpt>
      <trkpt lat="44.82699" lon="5.3617">
        <ele>1363</ele>
        <time>2012-04-09T11:04:57Z</time>
      </trkpt>
      <trkpt lat="44.82695" lon="5.36177">
        <ele>1363</ele>
        <time>2012-04-09T11:05:02Z</time>
      </trkpt>
      <trkpt lat="44.82694" lon="5.36179">
        <ele>1363</ele>
        <time>2012-04-09T11:05:03Z</time>
      </trkpt>
      <trkpt lat="44.82692" lon="5.36194">
        <ele>1365</ele>
        <time>2012-04-09T11:05:09Z</time>
      </trkpt>
      <trkpt lat="44.82688" lon="5.36209">
        <ele>1367</ele>
        <time>2012-04-09T11:05:17Z</time>
      </trkpt>
      <trkpt lat="44.82683" lon="5.36224">
        <ele>1369</ele>
        <time>2012-04-09T11:05:24Z</time>
      </trkpt>
      <trkpt lat="44.82679" lon="5.36236">
        <ele>1370</ele>
        <time>2012-04-09T11:05:31Z</time>
      </trkpt>
      <trkpt lat="44.82677" lon="5.36245">
        <ele>1371</ele>
        <time>2012-04-09T11:05:37Z</time>
      </trkpt>
      <trkpt lat="44.82676" lon="5.36255">
        <ele>1377</ele>
        <time>2012-04-09T11:05:44Z</time>
      </trkpt>
      <trkpt lat="44.82677" lon="5.3626">
        <ele>1378</ele>
        <time>2012-04-09T11:06:08Z</time>
      </trkpt>
      <trkpt lat="44.82677" lon="5.36258">
        <ele>1378</ele>
        <time>2012-04-09T11:06:15Z</time>
      </trkpt>
      <trkpt lat="44.82678" lon="5.36257">
        <ele>1378</ele>
        <time>2012-04-09T11:06:29Z</time>
      </trkpt>
      <trkpt lat="44.82677" lon="5.36259">
        <ele>1378</ele>
        <time>2012-04-09T11:06:35Z</time>
      </trkpt>
      <trkpt lat="44.82679" lon="5.36263">
        <ele>1379</ele>
        <time>2012-04-09T11:06:40Z</time>
      </trkpt>
      <trkpt lat="44.82677" lon="5.36272">
        <ele>1381</ele>
        <time>2012-04-09T11:06:49Z</time>
      </trkpt>
      <trkpt lat="44.82677" lon="5.3628">
        <ele>1382</ele>
        <time>2012-04-09T11:07:00Z</time>
      </trkpt>
      <trkpt lat="44.82677" lon="5.36286">
        <ele>1383</ele>
        <time>2012-04-09T11:07:08Z</time>
      </trkpt>
      <trkpt lat="44.82679" lon="5.36292">
        <ele>1384</ele>
        <time>2012-04-09T11:07:15Z</time>
      </trkpt>
      <trkpt lat="44.82682" lon="5.36306">
        <ele>1386</ele>
        <time>2012-04-09T11:07:29Z</time>
      </trkpt>
      <trkpt lat="44.82684" lon="5.36313">
        <ele>1386</ele>
        <time>2012-04-09T11:07:35Z</time>
      </trkpt>
      <trkpt lat="44.82683" lon="5.36318">
        <ele>1386</ele>
        <time>2012-04-09T11:07:41Z</time>
      </trkpt>
      <trkpt lat="44.82685" lon="5.36323">
        <ele>1386</ele>
        <time>2012-04-09T11:07:46Z</time>
      </trkpt>
      <trkpt lat="44.82687" lon="5.36328">
        <ele>1387</ele>
        <time>2012-04-09T11:07:52Z</time>
      </trkpt>
      <trkpt lat="44.82689" lon="5.36332">
        <ele>1387</ele>
        <time>2012-04-09T11:07:57Z</time>
      </trkpt>
      <trkpt lat="44.82691" lon="5.36337">
        <ele>1395</ele>
        <time>2012-04-09T11:08:02Z</time>
      </trkpt>
      <trkpt lat="44.82693" lon="5.36341">
        <ele>1395</ele>
        <time>2012-04-09T11:08:18Z</time>
      </trkpt>
      <trkpt lat="44.82692" lon="5.36343">
        <ele>1395</ele>
        <time>2012-04-09T11:08:25Z</time>
      </trkpt>
      <trkpt lat="44.82694" lon="5.36348">
        <ele>1396</ele>
        <time>2012-04-09T11:08:32Z</time>
      </trkpt>
      <trkpt lat="44.82696" lon="5.3636">
        <ele>1398</ele>
        <time>2012-04-09T11:08:40Z</time>
      </trkpt>
      <trkpt lat="44.82697" lon="5.36368">
        <ele>1398</ele>
        <time>2012-04-09T11:08:45Z</time>
      </trkpt>
      <trkpt lat="44.82698" lon="5.36376">
        <ele>1399</ele>
        <time>2012-04-09T11:08:51Z</time>
      </trkpt>
      <trkpt lat="44.82699" lon="5.36386">
        <ele>1400</ele>
        <time>2012-04-09T11:08:59Z</time>
      </trkpt>
      <trkpt lat="44.827" lon="5.36393">
        <ele>1400</ele>
        <time>2012-04-09T11:09:05Z</time>
      </trkpt>
      <trkpt lat="44.82699" lon="5.36397">
        <ele>1401</ele>
        <time>2012-04-09T11:09:10Z</time>
      </trkpt>
      <trkpt lat="44.82699" lon="5.36398">
        <ele>1401</ele>
        <time>2012-04-09T11:09:19Z</time>
      </trkpt>
      <trkpt lat="44.82697" lon="5.36407">
        <ele>1401</ele>
        <time>2012-04-09T11:09:52Z</time>
      </trkpt>
      <trkpt lat="44.82697" lon="5.36408">
        <ele>1401</ele>
        <time>2012-04-09T11:09:55Z</time>
      </trkpt>
      <trkpt lat="44.82693" lon="5.36419">
        <ele>1407</ele>
        <time>2012-04-09T11:10:01Z</time>
      </trkpt>
      <trkpt lat="44.82684" lon="5.36442">
        <ele>1407</ele>
        <time>2012-04-09T11:10:13Z</time>
      </trkpt>
      <trkpt lat="44.82679" lon="5.36454">
        <ele>1409</ele>
        <time>2012-04-09T11:10:20Z</time>
      </trkpt>
      <trkpt lat="44.82669" lon="5.36475">
        <ele>1411</ele>
        <time>2012-04-09T11:10:31Z</time>
      </trkpt>
      <trkpt lat="44.82658" lon="5.36488">
        <ele>1409</ele>
        <time>2012-04-09T11:10:41Z</time>
      </trkpt>
      <trkpt lat="44.82646" lon="5.36502">
        <ele>1416</ele>
        <time>2012-04-09T11:10:51Z</time>
      </trkpt>
      <trkpt lat="44.82636" lon="5.36516">
        <ele>1416</ele>
        <time>2012-04-09T11:11:00Z</time>
      </trkpt>
      <trkpt lat="44.8263" lon="5.36526">
        <ele>1417</ele>
        <time>2012-04-09T11:11:07Z</time>
      </trkpt>
      <trkpt lat="44.8262" lon="5.36541">
        <ele>1418</ele>
        <time>2012-04-09T11:11:17Z</time>
      </trkpt>
      <trkpt lat="44.82612" lon="5.36551">
        <ele>1419</ele>
        <time>2012-04-09T11:11:25Z</time>
      </trkpt>
      <trkpt lat="44.82603" lon="5.36557">
        <ele>1420</ele>
        <time>2012-04-09T11:11:33Z</time>
      </trkpt>
      <trkpt lat="44.82594" lon="5.36565">
        <ele>1423</ele>
        <time>2012-04-09T11:11:41Z</time>
      </trkpt>
      <trkpt lat="44.82587" lon="5.3657">
        <ele>1424</ele>
        <time>2012-04-09T11:11:47Z</time>
      </trkpt>
      <trkpt lat="44.82584" lon="5.36572">
        <ele>1425</ele>
        <time>2012-04-09T11:11:50Z</time>
      </trkpt>
      <trkpt lat="44.8258" lon="5.36575">
        <ele>1426</ele>
        <time>2012-04-09T11:11:54Z</time>
      </trkpt>
      <trkpt lat="44.82569" lon="5.36581">
        <ele>1425</ele>
        <time>2012-04-09T11:12:04Z</time>
      </trkpt>
      <trkpt lat="44.82557" lon="5.36586">
        <ele>1434</ele>
        <time>2012-04-09T11:12:13Z</time>
      </trkpt>
      <trkpt lat="44.8255" lon="5.36589">
        <ele>1435</ele>
        <time>2012-04-09T11:12:21Z</time>
      </trkpt>
      <trkpt lat="44.82548" lon="5.36591">
        <ele>1435</ele>
        <time>2012-04-09T11:12:39Z</time>
      </trkpt>
      <trkpt lat="44.82547" lon="5.36593">
        <ele>1435</ele>
        <time>2012-04-09T11:12:45Z</time>
      </trkpt>
      <trkpt lat="44.82545" lon="5.36594">
        <ele>1435</ele>
        <time>2012-04-09T11:12:47Z</time>
      </trkpt>
      <trkpt lat="44.82537" lon="5.36598">
        <ele>1436</ele>
        <time>2012-04-09T11:12:57Z</time>
      </trkpt>
      <trkpt lat="44.8253" lon="5.36602">
        <ele>1436</ele>
        <time>2012-04-09T11:13:06Z</time>
      </trkpt>
      <trkpt lat="44.82525" lon="5.36604">
        <ele>1436</ele>
        <time>2012-04-09T11:13:14Z</time>
      </trkpt>
      <trkpt lat="44.82518" lon="5.36609">
        <ele>1437</ele>
        <time>2012-04-09T11:13:24Z</time>
      </trkpt>
      <trkpt lat="44.82512" lon="5.36615">
        <ele>1437</ele>
        <time>2012-04-09T11:13:34Z</time>
      </trkpt>
      <trkpt lat="44.82505" lon="5.36621">
        <ele>1439</ele>
        <time>2012-04-09T11:13:44Z</time>
      </trkpt>
      <trkpt lat="44.82497" lon="5.36627">
        <ele>1438</ele>
        <time>2012-04-09T11:13:54Z</time>
      </trkpt>
      <trkpt lat="44.82489" lon="5.36634">
        <ele>1439</ele>
        <time>2012-04-09T11:14:06Z</time>
      </trkpt>
      <trkpt lat="44.82481" lon="5.36643">
        <ele>1441</ele>
        <time>2012-04-09T11:14:17Z</time>
      </trkpt>
      <trkpt lat="44.82474" lon="5.36651">
        <ele>1441</ele>
        <time>2012-04-09T11:14:28Z</time>
      </trkpt>
      <trkpt lat="44.82468" lon="5.36657">
        <ele>1441</ele>
        <time>2012-04-09T11:14:37Z</time>
      </trkpt>
      <trkpt lat="44.8246" lon="5.36663">
        <ele>1441</ele>
        <time>2012-04-09T11:14:48Z</time>
      </trkpt>
      <trkpt lat="44.82454" lon="5.3667">
        <ele>1455</ele>
        <time>2012-04-09T11:14:59Z</time>
      </trkpt>
      <trkpt lat="44.82446" lon="5.36677">
        <ele>1455</ele>
        <time>2012-04-09T11:15:10Z</time>
      </trkpt>
      <trkpt lat="44.82439" lon="5.36683">
        <ele>1455</ele>
        <time>2012-04-09T11:15:20Z</time>
      </trkpt>
      <trkpt lat="44.82433" lon="5.36688">
        <ele>1455</ele>
        <time>2012-04-09T11:15:30Z</time>
      </trkpt>
      <trkpt lat="44.82427" lon="5.36694">
        <ele>1456</ele>
        <time>2012-04-09T11:15:40Z</time>
      </trkpt>
      <trkpt lat="44.82425" lon="5.36695">
        <ele>1456</ele>
        <time>2012-04-09T11:15:47Z</time>
      </trkpt>
      <trkpt lat="44.82418" lon="5.36703">
        <ele>1458</ele>
        <time>2012-04-09T11:16:42Z</time>
      </trkpt>
      <trkpt lat="44.82413" lon="5.36709">
        <ele>1455</ele>
        <time>2012-04-09T11:16:52Z</time>
      </trkpt>
      <trkpt lat="44.82408" lon="5.36713">
        <ele>1456</ele>
        <time>2012-04-09T11:17:01Z</time>
      </trkpt>
      <trkpt lat="44.82408" lon="5.36713">
        <ele>1456</ele>
        <time>2012-04-09T11:17:02Z</time>
      </trkpt>
      <trkpt lat="44.82402" lon="5.36717">
        <ele>1457</ele>
        <time>2012-04-09T11:17:13Z</time>
      </trkpt>
      <trkpt lat="44.82396" lon="5.36722">
        <ele>1457</ele>
        <time>2012-04-09T11:17:23Z</time>
      </trkpt>
      <trkpt lat="44.82391" lon="5.36725">
        <ele>1457</ele>
        <time>2012-04-09T11:17:31Z</time>
      </trkpt>
      <trkpt lat="44.82386" lon="5.36729">
        <ele>1457</ele>
        <time>2012-04-09T11:17:40Z</time>
      </trkpt>
      <trkpt lat="44.82381" lon="5.36735">
        <ele>1457</ele>
        <time>2012-04-09T11:17:50Z</time>
      </trkpt>
      <trkpt lat="44.82376" lon="5.36739">
        <ele>1457</ele>
        <time>2012-04-09T11:17:58Z</time>
      </trkpt>
      <trkpt lat="44.82369" lon="5.36744">
        <ele>1456</ele>
        <time>2012-04-09T11:18:10Z</time>
      </trkpt>
      <trkpt lat="44.82367" lon="5.3675">
        <ele>1457</ele>
        <time>2012-04-09T11:18:17Z</time>
      </trkpt>
      <trkpt lat="44.82365" lon="5.36758">
        <ele>1473</ele>
        <time>2012-04-09T11:18:27Z</time>
      </trkpt>
      <trkpt lat="44.82363" lon="5.36763">
        <ele>1473</ele>
        <time>2012-04-09T11:18:35Z</time>
      </trkpt>
      <trkpt lat="44.82363" lon="5.36768">
        <ele>1474</ele>
        <time>2012-04-09T11:18:41Z</time>
      </trkpt>
      <trkpt lat="44.8236" lon="5.36773">
        <ele>1475</ele>
        <time>2012-04-09T11:18:49Z</time>
      </trkpt>
      <trkpt lat="44.8236" lon="5.36778">
        <ele>1475</ele>
        <time>2012-04-09T11:18:56Z</time>
      </trkpt>
      <trkpt lat="44.82359" lon="5.36781">
        <ele>1476</ele>
        <time>2012-04-09T11:19:01Z</time>
      </trkpt>
      <trkpt lat="44.82359" lon="5.36786">
        <ele>1477</ele>
        <time>2012-04-09T11:19:08Z</time>
      </trkpt>
      <trkpt lat="44.82359" lon="5.3679">
        <ele>1478</ele>
        <time>2012-04-09T11:19:14Z</time>
      </trkpt>
      <trkpt lat="44.82357" lon="5.36796">
        <ele>1479</ele>
        <time>2012-04-09T11:19:23Z</time>
      </trkpt>
      <trkpt lat="44.82357" lon="5.368">
        <ele>1479</ele>
        <time>2012-04-09T11:19:29Z</time>
      </trkpt>
      <trkpt lat="44.82357" lon="5.36805">
        <ele>1480</ele>
        <time>2012-04-09T11:19:35Z</time>
      </trkpt>
      <trkpt lat="44.82359" lon="5.36814">
        <ele>1482</ele>
        <time>2012-04-09T11:19:45Z</time>
      </trkpt>
      <trkpt lat="44.82363" lon="5.36825">
        <ele>1483</ele>
        <time>2012-04-09T11:19:55Z</time>
      </trkpt>
      <trkpt lat="44.82365" lon="5.36834">
        <ele>1494</ele>
        <time>2012-04-09T11:20:03Z</time>
      </trkpt>
      <trkpt lat="44.82367" lon="5.3684">
        <ele>1494</ele>
        <time>2012-04-09T11:20:09Z</time>
      </trkpt>
      <trkpt lat="44.82369" lon="5.36849">
        <ele>1494</ele>
        <time>2012-04-09T11:20:17Z</time>
      </trkpt>
      <trkpt lat="44.8237" lon="5.36858">
        <ele>1495</ele>
        <time>2012-04-09T11:20:25Z</time>
      </trkpt>
      <trkpt lat="44.82375" lon="5.36867">
        <ele>1495</ele>
        <time>2012-04-09T11:20:33Z</time>
      </trkpt>
      <trkpt lat="44.82378" lon="5.36871">
        <ele>1496</ele>
        <time>2012-04-09T11:20:39Z</time>
      </trkpt>
      <trkpt lat="44.82378" lon="5.36874">
        <ele>1496</ele>
        <time>2012-04-09T11:20:44Z</time>
      </trkpt>
      <trkpt lat="44.8238" lon="5.36877">
        <ele>1496</ele>
        <time>2012-04-09T11:20:49Z</time>
      </trkpt>
      <trkpt lat="44.82384" lon="5.36883">
        <ele>1496</ele>
        <time>2012-04-09T11:20:55Z</time>
      </trkpt>
      <trkpt lat="44.82394" lon="5.36895">
        <ele>1497</ele>
        <time>2012-04-09T11:21:03Z</time>
      </trkpt>
      <trkpt lat="44.82401" lon="5.36906">
        <ele>1498</ele>
        <time>2012-04-09T11:21:10Z</time>
      </trkpt>
      <trkpt lat="44.82405" lon="5.36915">
        <ele>1499</ele>
        <time>2012-04-09T11:21:15Z</time>
      </trkpt>
      <trkpt lat="44.82405" lon="5.3692">
        <ele>1502</ele>
        <time>2012-04-09T11:22:14Z</time>
      </trkpt>
      <trkpt lat="44.82407" lon="5.3692">
        <ele>1501</ele>
        <time>2012-04-09T11:22:19Z</time>
      </trkpt>
      <trkpt lat="44.82409" lon="5.36922">
        <ele>1501</ele>
        <time>2012-04-09T11:22:24Z</time>
      </trkpt>
      <trkpt lat="44.82409" lon="5.36923">
        <ele>1501</ele>
        <time>2012-04-09T11:22:25Z</time>
      </trkpt>
      <trkpt lat="44.82412" lon="5.36927">
        <ele>1502</ele>
        <time>2012-04-09T11:22:31Z</time>
      </trkpt>
      <trkpt lat="44.82412" lon="5.36931">
        <ele>1502</ele>
        <time>2012-04-09T11:22:38Z</time>
      </trkpt>
      <trkpt lat="44.82413" lon="5.36936">
        <ele>1503</ele>
        <time>2012-04-09T11:22:45Z</time>
      </trkpt>
      <trkpt lat="44.82414" lon="5.36938">
        <ele>1503</ele>
        <time>2012-04-09T11:22:50Z</time>
      </trkpt>
      <trkpt lat="44.82415" lon="5.36938">
        <ele>1503</ele>
        <time>2012-04-09T11:22:56Z</time>
      </trkpt>
      <trkpt lat="44.82416" lon="5.36938">
        <ele>1503</ele>
        <time>2012-04-09T11:22:58Z</time>
      </trkpt>
      <trkpt lat="44.82417" lon="5.36943">
        <ele>1503</ele>
        <time>2012-04-09T11:23:04Z</time>
      </trkpt>
      <trkpt lat="44.82419" lon="5.36945">
        <ele>1500</ele>
        <time>2012-04-09T11:23:09Z</time>
      </trkpt>
      <trkpt lat="44.8242" lon="5.36947">
        <ele>1500</ele>
        <time>2012-04-09T11:23:14Z</time>
      </trkpt>
      <trkpt lat="44.82421" lon="5.36953">
        <ele>1501</ele>
        <time>2012-04-09T11:23:22Z</time>
      </trkpt>
      <trkpt lat="44.82423" lon="5.36955">
        <ele>1501</ele>
        <time>2012-04-09T11:23:25Z</time>
      </trkpt>
      <trkpt lat="44.82425" lon="5.36963">
        <ele>1502</ele>
        <time>2012-04-09T11:23:34Z</time>
      </trkpt>
      <trkpt lat="44.82427" lon="5.36967">
        <ele>1502</ele>
        <time>2012-04-09T11:23:40Z</time>
      </trkpt>
      <trkpt lat="44.82429" lon="5.36974">
        <ele>1503</ele>
        <time>2012-04-09T11:23:48Z</time>
      </trkpt>
      <trkpt lat="44.82431" lon="5.36982">
        <ele>1504</ele>
        <time>2012-04-09T11:23:56Z</time>
      </trkpt>
      <trkpt lat="44.82434" lon="5.3699">
        <ele>1505</ele>
        <time>2012-04-09T11:24:05Z</time>
      </trkpt>
      <trkpt lat="44.82436" lon="5.36997">
        <ele>1505</ele>
        <time>2012-04-09T11:24:13Z</time>
      </trkpt>
      <trkpt lat="44.82437" lon="5.36998">
        <ele>1505</ele>
        <time>2012-04-09T11:24:14Z</time>
      </trkpt>
      <trkpt lat="44.8244" lon="5.37005">
        <ele>1507</ele>
        <time>2012-04-09T11:24:22Z</time>
      </trkpt>
      <trkpt lat="44.82444" lon="5.37013">
        <ele>1506</ele>
        <time>2012-04-09T11:24:31Z</time>
      </trkpt>
      <trkpt lat="44.82448" lon="5.37023">
        <ele>1505</ele>
        <time>2012-04-09T11:24:40Z</time>
      </trkpt>
      <trkpt lat="44.82452" lon="5.3703">
        <ele>1504</ele>
        <time>2012-04-09T11:24:48Z</time>
      </trkpt>
      <trkpt lat="44.82455" lon="5.37037">
        <ele>1504</ele>
        <time>2012-04-09T11:24:56Z</time>
      </trkpt>
      <trkpt lat="44.82458" lon="5.37042">
        <ele>1504</ele>
        <time>2012-04-09T11:25:03Z</time>
      </trkpt>
      <trkpt lat="44.82463" lon="5.37045">
        <ele>1504</ele>
        <time>2012-04-09T11:25:11Z</time>
      </trkpt>
      <trkpt lat="44.82467" lon="5.37051">
        <ele>1504</ele>
        <time>2012-04-09T11:25:18Z</time>
      </trkpt>
      <trkpt lat="44.82469" lon="5.37054">
        <ele>1504</ele>
        <time>2012-04-09T11:25:23Z</time>
      </trkpt>
      <trkpt lat="44.82474" lon="5.37062">
        <ele>1505</ele>
        <time>2012-04-09T11:25:31Z</time>
      </trkpt>
      <trkpt lat="44.82477" lon="5.37067">
        <ele>1505</ele>
        <time>2012-04-09T11:25:36Z</time>
      </trkpt>
      <trkpt lat="44.82485" lon="5.37077">
        <ele>1507</ele>
        <time>2012-04-09T11:25:46Z</time>
      </trkpt>
      <trkpt lat="44.82488" lon="5.37084">
        <ele>1502</ele>
        <time>2012-04-09T11:25:52Z</time>
      </trkpt>
      <trkpt lat="44.82499" lon="5.37091">
        <ele>1505</ele>
        <time>2012-04-09T11:26:05Z</time>
      </trkpt>
      <trkpt lat="44.82505" lon="5.37096">
        <ele>1507</ele>
        <time>2012-04-09T11:26:11Z</time>
      </trkpt>
      <trkpt lat="44.82505" lon="5.37105">
        <ele>1505</ele>
        <time>2012-04-09T11:26:18Z</time>
      </trkpt>
      <trkpt lat="44.82507" lon="5.37104">
        <ele>1505</ele>
        <time>2012-04-09T11:26:21Z</time>
      </trkpt>
      <trkpt lat="44.82508" lon="5.37117">
        <ele>1503</ele>
        <time>2012-04-09T11:27:53Z</time>
      </trkpt>
      <trkpt lat="44.82512" lon="5.37117">
        <ele>1503</ele>
        <time>2012-04-09T11:27:57Z</time>
      </trkpt>
      <trkpt lat="44.82518" lon="5.37115">
        <ele>1503</ele>
        <time>2012-04-09T11:28:03Z</time>
      </trkpt>
      <trkpt lat="44.82528" lon="5.37119">
        <ele>1503</ele>
        <time>2012-04-09T11:28:11Z</time>
      </trkpt>
      <trkpt lat="44.82532" lon="5.37122">
        <ele>1503</ele>
        <time>2012-04-09T11:28:15Z</time>
      </trkpt>
      <trkpt lat="44.82539" lon="5.37128">
        <ele>1503</ele>
        <time>2012-04-09T11:28:23Z</time>
      </trkpt>
      <trkpt lat="44.82543" lon="5.37133">
        <ele>1503</ele>
        <time>2012-04-09T11:28:30Z</time>
      </trkpt>
      <trkpt lat="44.82551" lon="5.37139">
        <ele>1504</ele>
        <time>2012-04-09T11:28:39Z</time>
      </trkpt>
      <trkpt lat="44.82558" lon="5.37146">
        <ele>1505</ele>
        <time>2012-04-09T11:28:47Z</time>
      </trkpt>
      <trkpt lat="44.82567" lon="5.37154">
        <ele>1507</ele>
        <time>2012-04-09T11:28:55Z</time>
      </trkpt>
      <trkpt lat="44.8257" lon="5.37157">
        <ele>1508</ele>
        <time>2012-04-09T11:29:00Z</time>
      </trkpt>
      <trkpt lat="44.82577" lon="5.37162">
        <ele>1511</ele>
        <time>2012-04-09T11:29:08Z</time>
      </trkpt>
      <trkpt lat="44.82585" lon="5.3717">
        <ele>1515</ele>
        <time>2012-04-09T11:29:16Z</time>
      </trkpt>
      <trkpt lat="44.82594" lon="5.37181">
        <ele>1515</ele>
        <time>2012-04-09T11:29:26Z</time>
      </trkpt>
      <trkpt lat="44.82598" lon="5.37185">
        <ele>1515</ele>
        <time>2012-04-09T11:29:33Z</time>
      </trkpt>
      <trkpt lat="44.82599" lon="5.37187">
        <ele>1515</ele>
        <time>2012-04-09T11:29:40Z</time>
      </trkpt>
      <trkpt lat="44.82605" lon="5.37193">
        <ele>1515</ele>
        <time>2012-04-09T11:29:47Z</time>
      </trkpt>
      <trkpt lat="44.82611" lon="5.37198">
        <ele>1515</ele>
        <time>2012-04-09T11:29:55Z</time>
      </trkpt>
      <trkpt lat="44.82618" lon="5.37205">
        <ele>1515</ele>
        <time>2012-04-09T11:30:04Z</time>
      </trkpt>
      <trkpt lat="44.82624" lon="5.37212">
        <ele>1516</ele>
        <time>2012-04-09T11:30:13Z</time>
      </trkpt>
      <trkpt lat="44.82628" lon="5.37219">
        <ele>1516</ele>
        <time>2012-04-09T11:30:20Z</time>
      </trkpt>
      <trkpt lat="44.82632" lon="5.37226">
        <ele>1517</ele>
        <time>2012-04-09T11:30:28Z</time>
      </trkpt>
      <trkpt lat="44.82637" lon="5.37233">
        <ele>1518</ele>
        <time>2012-04-09T11:30:36Z</time>
      </trkpt>
      <trkpt lat="44.8264" lon="5.37237">
        <ele>1519</ele>
        <time>2012-04-09T11:30:42Z</time>
      </trkpt>
      <trkpt lat="44.82644" lon="5.37244">
        <ele>1520</ele>
        <time>2012-04-09T11:30:50Z</time>
      </trkpt>
      <trkpt lat="44.82648" lon="5.3725">
        <ele>1521</ele>
        <time>2012-04-09T11:30:57Z</time>
      </trkpt>
      <trkpt lat="44.82653" lon="5.37255">
        <ele>1522</ele>
        <time>2012-04-09T11:31:05Z</time>
      </trkpt>
      <trkpt lat="44.82658" lon="5.37261">
        <ele>1522</ele>
        <time>2012-04-09T11:31:13Z</time>
      </trkpt>
      <trkpt lat="44.82663" lon="5.37269">
        <ele>1521</ele>
        <time>2012-04-09T11:31:22Z</time>
      </trkpt>
      <trkpt lat="44.82667" lon="5.37273">
        <ele>1528</ele>
        <time>2012-04-09T11:31:29Z</time>
      </trkpt>
      <trkpt lat="44.82672" lon="5.37279">
        <ele>1528</ele>
        <time>2012-04-09T11:31:37Z</time>
      </trkpt>
      <trkpt lat="44.82675" lon="5.37285">
        <ele>1528</ele>
        <time>2012-04-09T11:31:45Z</time>
      </trkpt>
      <trkpt lat="44.82677" lon="5.37289">
        <ele>1528</ele>
        <time>2012-04-09T11:31:51Z</time>
      </trkpt>
      <trkpt lat="44.82681" lon="5.37294">
        <ele>1528</ele>
        <time>2012-04-09T11:31:58Z</time>
      </trkpt>
      <trkpt lat="44.82685" lon="5.37299">
        <ele>1528</ele>
        <time>2012-04-09T11:32:05Z</time>
      </trkpt>
      <trkpt lat="44.8269" lon="5.37303">
        <ele>1529</ele>
        <time>2012-04-09T11:32:14Z</time>
      </trkpt>
      <trkpt lat="44.82693" lon="5.37307">
        <ele>1529</ele>
        <time>2012-04-09T11:32:20Z</time>
      </trkpt>
      <trkpt lat="44.82697" lon="5.3731">
        <ele>1529</ele>
        <time>2012-04-09T11:32:27Z</time>
      </trkpt>
      <trkpt lat="44.82701" lon="5.37315">
        <ele>1529</ele>
        <time>2012-04-09T11:32:34Z</time>
      </trkpt>
      <trkpt lat="44.82705" lon="5.37322">
        <ele>1530</ele>
        <time>2012-04-09T11:32:42Z</time>
      </trkpt>
      <trkpt lat="44.82706" lon="5.37327">
        <ele>1530</ele>
        <time>2012-04-09T11:32:49Z</time>
      </trkpt>
      <trkpt lat="44.8271" lon="5.37333">
        <ele>1531</ele>
        <time>2012-04-09T11:32:57Z</time>
      </trkpt>
      <trkpt lat="44.82711" lon="5.37334">
        <ele>1530</ele>
        <time>2012-04-09T11:32:58Z</time>
      </trkpt>
      <trkpt lat="44.82713" lon="5.37336">
        <ele>1530</ele>
        <time>2012-04-09T11:33:02Z</time>
      </trkpt>
      <trkpt lat="44.82719" lon="5.37344">
        <ele>1530</ele>
        <time>2012-04-09T11:33:11Z</time>
      </trkpt>
      <trkpt lat="44.82721" lon="5.37345">
        <ele>1531</ele>
        <time>2012-04-09T11:33:13Z</time>
      </trkpt>
      <trkpt lat="44.82724" lon="5.37353">
        <ele>1530</ele>
        <time>2012-04-09T11:33:22Z</time>
      </trkpt>
      <trkpt lat="44.82724" lon="5.37355">
        <ele>1530</ele>
        <time>2012-04-09T11:33:29Z</time>
      </trkpt>
      <trkpt lat="44.82723" lon="5.37354">
        <ele>1530</ele>
        <time>2012-04-09T11:33:34Z</time>
      </trkpt>
      <trkpt lat="44.82723" lon="5.37355">
        <ele>1530</ele>
        <time>2012-04-09T11:33:39Z</time>
      </trkpt>
      <trkpt lat="44.82724" lon="5.37355">
        <ele>1530</ele>
        <time>2012-04-09T11:34:07Z</time>
      </trkpt>
      <trkpt lat="44.8273" lon="5.37361">
        <ele>1530</ele>
        <time>2012-04-09T11:34:18Z</time>
      </trkpt>
      <trkpt lat="44.82731" lon="5.37362">
        <ele>1530</ele>
        <time>2012-04-09T11:34:51Z</time>
      </trkpt>
      <trkpt lat="44.82734" lon="5.37366">
        <ele>1530</ele>
        <time>2012-04-09T11:35:08Z</time>
      </trkpt>
      <trkpt lat="44.82732" lon="5.37366">
        <ele>1530</ele>
        <time>2012-04-09T11:36:55Z</time>
      </trkpt>
      <trkpt lat="44.82733" lon="5.37365">
        <ele>1530</ele>
        <time>2012-04-09T11:39:40Z</time>
      </trkpt>
      <trkpt lat="44.82734" lon="5.37365">
        <ele>1530</ele>
        <time>2012-04-09T11:39:45Z</time>
      </trkpt>
      <trkpt lat="44.82735" lon="5.37365">
        <ele>1531</ele>
        <time>2012-04-09T11:39:47Z</time>
      </trkpt>
      <trkpt lat="44.82737" lon="5.37365">
        <ele>1531</ele>
        <time>2012-04-09T11:39:49Z</time>
      </trkpt>
      <trkpt lat="44.82747" lon="5.37371">
        <ele>1531</ele>
        <time>2012-04-09T11:39:58Z</time>
      </trkpt>
      <trkpt lat="44.8275" lon="5.37375">
        <ele>1535</ele>
        <time>2012-04-09T11:40:05Z</time>
      </trkpt>
      <trkpt lat="44.82757" lon="5.3738">
        <ele>1535</ele>
        <time>2012-04-09T11:40:13Z</time>
      </trkpt>
      <trkpt lat="44.8276" lon="5.37381">
        <ele>1535</ele>
        <time>2012-04-09T11:40:19Z</time>
      </trkpt>
      <trkpt lat="44.82762" lon="5.3738">
        <ele>1535</ele>
        <time>2012-04-09T11:40:22Z</time>
      </trkpt>
      <trkpt lat="44.82768" lon="5.37378">
        <ele>1535</ele>
        <time>2012-04-09T11:40:32Z</time>
      </trkpt>
      <trkpt lat="44.82775" lon="5.37378">
        <ele>1535</ele>
        <time>2012-04-09T11:40:45Z</time>
      </trkpt>
      <trkpt lat="44.82779" lon="5.37379">
        <ele>1535</ele>
        <time>2012-04-09T11:40:47Z</time>
      </trkpt>
      <trkpt lat="44.82785" lon="5.37377">
        <ele>1535</ele>
        <time>2012-04-09T11:40:51Z</time>
      </trkpt>
      <trkpt lat="44.82796" lon="5.37377">
        <ele>1534</ele>
        <time>2012-04-09T11:40:56Z</time>
      </trkpt>
      <trkpt lat="44.82807" lon="5.37385">
        <ele>1534</ele>
        <time>2012-04-09T11:41:00Z</time>
      </trkpt>
      <trkpt lat="44.8281" lon="5.37387">
        <ele>1535</ele>
        <time>2012-04-09T11:41:02Z</time>
      </trkpt>
      <trkpt lat="44.82821" lon="5.37392">
        <ele>1535</ele>
        <time>2012-04-09T11:41:07Z</time>
      </trkpt>
      <trkpt lat="44.82835" lon="5.37399">
        <ele>1533</ele>
        <time>2012-04-09T11:41:12Z</time>
      </trkpt>
      <trkpt lat="44.82842" lon="5.37404">
        <ele>1533</ele>
        <time>2012-04-09T11:41:17Z</time>
      </trkpt>
      <trkpt lat="44.82843" lon="5.37404">
        <ele>1533</ele>
        <time>2012-04-09T11:41:19Z</time>
      </trkpt>
      <trkpt lat="44.82845" lon="5.37403">
        <ele>1532</ele>
        <time>2012-04-09T11:41:25Z</time>
      </trkpt>
      <trkpt lat="44.8285" lon="5.37403">
        <ele>1532</ele>
        <time>2012-04-09T11:41:31Z</time>
      </trkpt>
      <trkpt lat="44.82852" lon="5.37406">
        <ele>1532</ele>
        <time>2012-04-09T11:41:34Z</time>
      </trkpt>
      <trkpt lat="44.82858" lon="5.37411">
        <ele>1532</ele>
        <time>2012-04-09T11:41:40Z</time>
      </trkpt>
      <trkpt lat="44.82864" lon="5.37421">
        <ele>1534</ele>
        <time>2012-04-09T11:41:47Z</time>
      </trkpt>
      <trkpt lat="44.82864" lon="5.37427">
        <ele>1533</ele>
        <time>2012-04-09T11:41:52Z</time>
      </trkpt>
      <trkpt lat="44.82869" lon="5.37432">
        <ele>1533</ele>
        <time>2012-04-09T11:41:59Z</time>
      </trkpt>
      <trkpt lat="44.82877" lon="5.3744">
        <ele>1533</ele>
        <time>2012-04-09T11:42:06Z</time>
      </trkpt>
      <trkpt lat="44.82878" lon="5.3744">
        <ele>1533</ele>
        <time>2012-04-09T11:42:07Z</time>
      </trkpt>
      <trkpt lat="44.82887" lon="5.37441">
        <ele>1533</ele>
        <time>2012-04-09T11:42:11Z</time>
      </trkpt>
      <trkpt lat="44.82898" lon="5.37446">
        <ele>1534</ele>
        <time>2012-04-09T11:42:16Z</time>
      </trkpt>
      <trkpt lat="44.82903" lon="5.3745">
        <ele>1534</ele>
        <time>2012-04-09T11:42:18Z</time>
      </trkpt>
      <trkpt lat="44.82909" lon="5.37462">
        <ele>1534</ele>
        <time>2012-04-09T11:42:25Z</time>
      </trkpt>
      <trkpt lat="44.82923" lon="5.37476">
        <ele>1536</ele>
        <time>2012-04-09T11:42:34Z</time>
      </trkpt>
      <trkpt lat="44.82934" lon="5.37486">
        <ele>1536</ele>
        <time>2012-04-09T11:42:41Z</time>
      </trkpt>
      <trkpt lat="44.82941" lon="5.37492">
        <ele>1536</ele>
        <time>2012-04-09T11:42:46Z</time>
      </trkpt>
      <trkpt lat="44.82944" lon="5.37497">
        <ele>1536</ele>
        <time>2012-04-09T11:42:53Z</time>
      </trkpt>
      <trkpt lat="44.82946" lon="5.375">
        <ele>1536</ele>
        <time>2012-04-09T11:43:02Z</time>
      </trkpt>
      <trkpt lat="44.82949" lon="5.37503">
        <ele>1535</ele>
        <time>2012-04-09T11:43:06Z</time>
      </trkpt>
      <trkpt lat="44.82951" lon="5.37506">
        <ele>1535</ele>
        <time>2012-04-09T11:43:12Z</time>
      </trkpt>
      <trkpt lat="44.82955" lon="5.3751">
        <ele>1535</ele>
        <time>2012-04-09T11:43:25Z</time>
      </trkpt>
      <trkpt lat="44.82961" lon="5.37517">
        <ele>1534</ele>
        <time>2012-04-09T11:43:34Z</time>
      </trkpt>
      <trkpt lat="44.82965" lon="5.37523">
        <ele>1534</ele>
        <time>2012-04-09T11:43:41Z</time>
      </trkpt>
      <trkpt lat="44.82971" lon="5.37532">
        <ele>1534</ele>
        <time>2012-04-09T11:43:49Z</time>
      </trkpt>
      <trkpt lat="44.82973" lon="5.37535">
        <ele>1534</ele>
        <time>2012-04-09T11:43:54Z</time>
      </trkpt>
      <trkpt lat="44.82973" lon="5.37536">
        <ele>1534</ele>
        <time>2012-04-09T11:43:55Z</time>
      </trkpt>
      <trkpt lat="44.82978" lon="5.37545">
        <ele>1534</ele>
        <time>2012-04-09T11:44:03Z</time>
      </trkpt>
      <trkpt lat="44.82981" lon="5.37554">
        <ele>1534</ele>
        <time>2012-04-09T11:44:11Z</time>
      </trkpt>
      <trkpt lat="44.82983" lon="5.3756">
        <ele>1534</ele>
        <time>2012-04-09T11:44:19Z</time>
      </trkpt>
      <trkpt lat="44.82986" lon="5.37566">
        <ele>1535</ele>
        <time>2012-04-09T11:44:49Z</time>
      </trkpt>
      <trkpt lat="44.82991" lon="5.37574">
        <ele>1536</ele>
        <time>2012-04-09T11:44:57Z</time>
      </trkpt>
      <trkpt lat="44.82994" lon="5.3758">
        <ele>1537</ele>
        <time>2012-04-09T11:45:04Z</time>
      </trkpt>
      <trkpt lat="44.82999" lon="5.37592">
        <ele>1532</ele>
        <time>2012-04-09T11:45:12Z</time>
      </trkpt>
      <trkpt lat="44.82999" lon="5.37593">
        <ele>1531</ele>
        <time>2012-04-09T11:45:17Z</time>
      </trkpt>
      <trkpt lat="44.83002" lon="5.37598">
        <ele>1535</ele>
        <time>2012-04-09T11:45:23Z</time>
      </trkpt>
      <trkpt lat="44.83002" lon="5.37598">
        <ele>1535</ele>
        <time>2012-04-09T11:45:32Z</time>
      </trkpt>
      <trkpt lat="44.83005" lon="5.37604">
        <ele>1534</ele>
        <time>2012-04-09T11:45:37Z</time>
      </trkpt>
      <trkpt lat="44.83009" lon="5.37611">
        <ele>1533</ele>
        <time>2012-04-09T11:45:44Z</time>
      </trkpt>
      <trkpt lat="44.83013" lon="5.37616">
        <ele>1532</ele>
        <time>2012-04-09T11:45:53Z</time>
      </trkpt>
      <trkpt lat="44.83015" lon="5.37617">
        <ele>1532</ele>
        <time>2012-04-09T11:45:59Z</time>
      </trkpt>
      <trkpt lat="44.83023" lon="5.37623">
        <ele>1531</ele>
        <time>2012-04-09T11:46:38Z</time>
      </trkpt>
      <trkpt lat="44.83041" lon="5.37635">
        <ele>1530</ele>
        <time>2012-04-09T11:46:43Z</time>
      </trkpt>
      <trkpt lat="44.8305" lon="5.3764">
        <ele>1530</ele>
        <time>2012-04-09T11:46:45Z</time>
      </trkpt>
      <trkpt lat="44.83069" lon="5.37646">
        <ele>1531</ele>
        <time>2012-04-09T11:46:48Z</time>
      </trkpt>
      <trkpt lat="44.83096" lon="5.37663">
        <ele>1530</ele>
        <time>2012-04-09T11:46:53Z</time>
      </trkpt>
      <trkpt lat="44.83114" lon="5.37678">
        <ele>1524</ele>
        <time>2012-04-09T11:46:57Z</time>
      </trkpt>
      <trkpt lat="44.83118" lon="5.37686">
        <ele>1523</ele>
        <time>2012-04-09T11:46:59Z</time>
      </trkpt>
      <trkpt lat="44.83124" lon="5.37715">
        <ele>1520</ele>
        <time>2012-04-09T11:47:06Z</time>
      </trkpt>
      <trkpt lat="44.83125" lon="5.37721">
        <ele>1520</ele>
        <time>2012-04-09T11:47:07Z</time>
      </trkpt>
      <trkpt lat="44.8313" lon="5.37741">
        <ele>1519</ele>
        <time>2012-04-09T11:47:10Z</time>
      </trkpt>
      <trkpt lat="44.8314" lon="5.3778">
        <ele>1510</ele>
        <time>2012-04-09T11:47:14Z</time>
      </trkpt>
      <trkpt lat="44.83145" lon="5.37826">
        <ele>1509</ele>
        <time>2012-04-09T11:47:17Z</time>
      </trkpt>
      <trkpt lat="44.83144" lon="5.37874">
        <ele>1503</ele>
        <time>2012-04-09T11:47:20Z</time>
      </trkpt>
      <trkpt lat="44.83134" lon="5.37904">
        <ele>1502</ele>
        <time>2012-04-09T11:47:24Z</time>
      </trkpt>
      <trkpt lat="44.83123" lon="5.37903">
        <ele>1501</ele>
        <time>2012-04-09T11:47:27Z</time>
      </trkpt>
      <trkpt lat="44.83117" lon="5.37897">
        <ele>1501</ele>
        <time>2012-04-09T11:47:30Z</time>
      </trkpt>
      <trkpt lat="44.8311" lon="5.37885">
        <ele>1501</ele>
        <time>2012-04-09T11:47:37Z</time>
      </trkpt>
      <trkpt lat="44.83101" lon="5.37879">
        <ele>1500</ele>
        <time>2012-04-09T11:47:43Z</time>
      </trkpt>
      <trkpt lat="44.83088" lon="5.3787">
        <ele>1499</ele>
        <time>2012-04-09T11:47:50Z</time>
      </trkpt>
      <trkpt lat="44.83077" lon="5.37864">
        <ele>1489</ele>
        <time>2012-04-09T11:47:56Z</time>
      </trkpt>
      <trkpt lat="44.83064" lon="5.37856">
        <ele>1489</ele>
        <time>2012-04-09T11:48:02Z</time>
      </trkpt>
      <trkpt lat="44.83046" lon="5.3785">
        <ele>1486</ele>
        <time>2012-04-09T11:48:09Z</time>
      </trkpt>
      <trkpt lat="44.83034" lon="5.37845">
        <ele>1484</ele>
        <time>2012-04-09T11:48:15Z</time>
      </trkpt>
      <trkpt lat="44.83022" lon="5.37837">
        <ele>1481</ele>
        <time>2012-04-09T11:48:22Z</time>
      </trkpt>
      <trkpt lat="44.83009" lon="5.3783">
        <ele>1478</ele>
        <time>2012-04-09T11:48:30Z</time>
      </trkpt>
      <trkpt lat="44.82999" lon="5.37824">
        <ele>1470</ele>
        <time>2012-04-09T11:48:38Z</time>
      </trkpt>
      <trkpt lat="44.82991" lon="5.37815">
        <ele>1468</ele>
        <time>2012-04-09T11:48:44Z</time>
      </trkpt>
      <trkpt lat="44.82981" lon="5.37813">
        <ele>1467</ele>
        <time>2012-04-09T11:48:49Z</time>
      </trkpt>
      <trkpt lat="44.82974" lon="5.3781">
        <ele>1465</ele>
        <time>2012-04-09T11:48:53Z</time>
      </trkpt>
      <trkpt lat="44.82961" lon="5.37805">
        <ele>1463</ele>
        <time>2012-04-09T11:49:00Z</time>
      </trkpt>
      <trkpt lat="44.82959" lon="5.37804">
        <ele>1463</ele>
        <time>2012-04-09T11:49:01Z</time>
      </trkpt>
      <trkpt lat="44.82956" lon="5.37802">
        <ele>1462</ele>
        <time>2012-04-09T11:49:03Z</time>
      </trkpt>
      <trkpt lat="44.82954" lon="5.37793">
        <ele>1463</ele>
        <time>2012-04-09T11:49:09Z</time>
      </trkpt>
      <trkpt lat="44.82948" lon="5.37793">
        <ele>1462</ele>
        <time>2012-04-09T11:49:52Z</time>
      </trkpt>
      <trkpt lat="44.8294" lon="5.37786">
        <ele>1461</ele>
        <time>2012-04-09T11:49:57Z</time>
      </trkpt>
      <trkpt lat="44.8293" lon="5.37785">
        <ele>1460</ele>
        <time>2012-04-09T11:50:02Z</time>
      </trkpt>
      <trkpt lat="44.82926" lon="5.37783">
        <ele>1459</ele>
        <time>2012-04-09T11:50:04Z</time>
      </trkpt>
      <trkpt lat="44.82919" lon="5.37779">
        <ele>1459</ele>
        <time>2012-04-09T11:50:07Z</time>
      </trkpt>
      <trkpt lat="44.82905" lon="5.37768">
        <ele>1438</ele>
        <time>2012-04-09T11:50:12Z</time>
      </trkpt>
      <trkpt lat="44.82901" lon="5.37764">
        <ele>1438</ele>
        <time>2012-04-09T11:50:13Z</time>
      </trkpt>
      <trkpt lat="44.82883" lon="5.37746">
        <ele>1446</ele>
        <time>2012-04-09T11:50:18Z</time>
      </trkpt>
      <trkpt lat="44.8288" lon="5.37745">
        <ele>1446</ele>
        <time>2012-04-09T11:50:19Z</time>
      </trkpt>
      <trkpt lat="44.82869" lon="5.37738">
        <ele>1442</ele>
        <time>2012-04-09T11:50:26Z</time>
      </trkpt>
      <trkpt lat="44.82863" lon="5.37731">
        <ele>1441</ele>
        <time>2012-04-09T11:50:31Z</time>
      </trkpt>
      <trkpt lat="44.8285" lon="5.37715">
        <ele>1441</ele>
        <time>2012-04-09T11:50:35Z</time>
      </trkpt>
      <trkpt lat="44.82846" lon="5.37711">
        <ele>1442</ele>
        <time>2012-04-09T11:50:36Z</time>
      </trkpt>
      <trkpt lat="44.82825" lon="5.37687">
        <ele>1422</ele>
        <time>2012-04-09T11:50:41Z</time>
      </trkpt>
      <trkpt lat="44.82804" lon="5.37672">
        <ele>1417</ele>
        <time>2012-04-09T11:50:45Z</time>
      </trkpt>
      <trkpt lat="44.82788" lon="5.37655">
        <ele>1435</ele>
        <time>2012-04-09T11:50:48Z</time>
      </trkpt>
      <trkpt lat="44.82764" lon="5.37642">
        <ele>1430</ele>
        <time>2012-04-09T11:50:54Z</time>
      </trkpt>
      <trkpt lat="44.82753" lon="5.37639">
        <ele>1429</ele>
        <time>2012-04-09T11:50:58Z</time>
      </trkpt>
      <trkpt lat="44.82748" lon="5.37641">
        <ele>1413</ele>
        <time>2012-04-09T11:51:00Z</time>
      </trkpt>
      <trkpt lat="44.82714" lon="5.37661">
        <ele>1408</ele>
        <time>2012-04-09T11:51:06Z</time>
      </trkpt>
      <trkpt lat="44.82709" lon="5.3766">
        <ele>1407</ele>
        <time>2012-04-09T11:51:07Z</time>
      </trkpt>
      <trkpt lat="44.82698" lon="5.37662">
        <ele>1405</ele>
        <time>2012-04-09T11:51:11Z</time>
      </trkpt>
      <trkpt lat="44.82685" lon="5.3766">
        <ele>1400</ele>
        <time>2012-04-09T11:51:18Z</time>
      </trkpt>
      <trkpt lat="44.8268" lon="5.37657">
        <ele>1399</ele>
        <time>2012-04-09T11:51:55Z</time>
      </trkpt>
      <trkpt lat="44.82664" lon="5.37651">
        <ele>1390</ele>
        <time>2012-04-09T11:52:00Z</time>
      </trkpt>
      <trkpt lat="44.82643" lon="5.37642">
        <ele>1392</ele>
        <time>2012-04-09T11:52:06Z</time>
      </trkpt>
      <trkpt lat="44.82613" lon="5.37636">
        <ele>1390</ele>
        <time>2012-04-09T11:52:12Z</time>
      </trkpt>
      <trkpt lat="44.82602" lon="5.37632">
        <ele>1390</ele>
        <time>2012-04-09T11:52:14Z</time>
      </trkpt>
      <trkpt lat="44.82596" lon="5.37629">
        <ele>1390</ele>
        <time>2012-04-09T11:52:15Z</time>
      </trkpt>
      <trkpt lat="44.82573" lon="5.3762">
        <ele>1372</ele>
        <time>2012-04-09T11:52:20Z</time>
      </trkpt>
      <trkpt lat="44.82568" lon="5.37616">
        <ele>1373</ele>
        <time>2012-04-09T11:52:22Z</time>
      </trkpt>
      <trkpt lat="44.82557" lon="5.37604">
        <ele>1373</ele>
        <time>2012-04-09T11:52:27Z</time>
      </trkpt>
      <trkpt lat="44.82543" lon="5.37592">
        <ele>1370</ele>
        <time>2012-04-09T11:52:33Z</time>
      </trkpt>
      <trkpt lat="44.82536" lon="5.37584">
        <ele>1368</ele>
        <time>2012-04-09T11:52:39Z</time>
      </trkpt>
      <trkpt lat="44.82524" lon="5.37579">
        <ele>1378</ele>
        <time>2012-04-09T11:52:43Z</time>
      </trkpt>
      <trkpt lat="44.82504" lon="5.37564">
        <ele>1374</ele>
        <time>2012-04-09T11:52:47Z</time>
      </trkpt>
      <trkpt lat="44.82472" lon="5.37527">
        <ele>1349</ele>
        <time>2012-04-09T11:52:53Z</time>
      </trkpt>
      <trkpt lat="44.82452" lon="5.37502">
        <ele>1345</ele>
        <time>2012-04-09T11:52:57Z</time>
      </trkpt>
      <trkpt lat="44.82428" lon="5.37491">
        <ele>1348</ele>
        <time>2012-04-09T11:53:01Z</time>
      </trkpt>
      <trkpt lat="44.82421" lon="5.37488">
        <ele>1347</ele>
        <time>2012-04-09T11:53:02Z</time>
      </trkpt>
      <trkpt lat="44.82401" lon="5.3748">
        <ele>1327</ele>
        <time>2012-04-09T11:53:05Z</time>
      </trkpt>
      <trkpt lat="44.82395" lon="5.37478">
        <ele>1325</ele>
        <time>2012-04-09T11:53:06Z</time>
      </trkpt>
      <trkpt lat="44.82373" lon="5.37473">
        <ele>1320</ele>
        <time>2012-04-09T11:53:11Z</time>
      </trkpt>
      <trkpt lat="44.82358" lon="5.37481">
        <ele>1314</ele>
        <time>2012-04-09T11:53:16Z</time>
      </trkpt>
      <trkpt lat="44.82354" lon="5.3748">
        <ele>1312</ele>
        <time>2012-04-09T11:53:17Z</time>
      </trkpt>
      <trkpt lat="44.82349" lon="5.37476">
        <ele>1312</ele>
        <time>2012-04-09T11:53:19Z</time>
      </trkpt>
      <trkpt lat="44.8235" lon="5.37466">
        <ele>1315</ele>
        <time>2012-04-09T11:53:24Z</time>
      </trkpt>
      <trkpt lat="44.82341" lon="5.3746">
        <ele>1314</ele>
        <time>2012-04-09T11:53:27Z</time>
      </trkpt>
      <trkpt lat="44.82331" lon="5.37457">
        <ele>1288</ele>
        <time>2012-04-09T11:53:30Z</time>
      </trkpt>
      <trkpt lat="44.82329" lon="5.37456">
        <ele>1288</ele>
        <time>2012-04-09T11:53:31Z</time>
      </trkpt>
      <trkpt lat="44.82314" lon="5.37452">
        <ele>1287</ele>
        <time>2012-04-09T11:53:37Z</time>
      </trkpt>
      <trkpt lat="44.82294" lon="5.37441">
        <ele>1283</ele>
        <time>2012-04-09T11:53:42Z</time>
      </trkpt>
      <trkpt lat="44.82291" lon="5.37438">
        <ele>1283</ele>
        <time>2012-04-09T11:53:43Z</time>
      </trkpt>
      <trkpt lat="44.82282" lon="5.37427">
        <ele>1282</ele>
        <time>2012-04-09T11:53:48Z</time>
      </trkpt>
      <trkpt lat="44.82281" lon="5.37425">
        <ele>1281</ele>
        <time>2012-04-09T11:53:55Z</time>
      </trkpt>
      <trkpt lat="44.82279" lon="5.37424">
        <ele>1281</ele>
        <time>2012-04-09T11:53:58Z</time>
      </trkpt>
      <trkpt lat="44.82274" lon="5.37421">
        <ele>1280</ele>
        <time>2012-04-09T11:54:03Z</time>
      </trkpt>
      <trkpt lat="44.82271" lon="5.37421">
        <ele>1279</ele>
        <time>2012-04-09T11:54:08Z</time>
      </trkpt>
      <trkpt lat="44.82264" lon="5.37423">
        <ele>1278</ele>
        <time>2012-04-09T11:54:11Z</time>
      </trkpt>
      <trkpt lat="44.82248" lon="5.37418">
        <ele>1272</ele>
        <time>2012-04-09T11:54:15Z</time>
      </trkpt>
      <trkpt lat="44.82234" lon="5.37409">
        <ele>1275</ele>
        <time>2012-04-09T11:54:21Z</time>
      </trkpt>
      <trkpt lat="44.82232" lon="5.37408">
        <ele>1275</ele>
        <time>2012-04-09T11:54:22Z</time>
      </trkpt>
      <trkpt lat="44.82221" lon="5.37411">
        <ele>1273</ele>
        <time>2012-04-09T11:54:28Z</time>
      </trkpt>
      <trkpt lat="44.82213" lon="5.37409">
        <ele>1271</ele>
        <time>2012-04-09T11:54:31Z</time>
      </trkpt>
      <trkpt lat="44.82201" lon="5.37402">
        <ele>1268</ele>
        <time>2012-04-09T11:54:37Z</time>
      </trkpt>
      <trkpt lat="44.82195" lon="5.37398">
        <ele>1267</ele>
        <time>2012-04-09T11:54:42Z</time>
      </trkpt>
      <trkpt lat="44.82189" lon="5.37394">
        <ele>1266</ele>
        <time>2012-04-09T11:54:47Z</time>
      </trkpt>
      <trkpt lat="44.8218" lon="5.37391">
        <ele>1264</ele>
        <time>2012-04-09T11:54:51Z</time>
      </trkpt>
      <trkpt lat="44.82165" lon="5.37382">
        <ele>1242</ele>
        <time>2012-04-09T11:54:56Z</time>
      </trkpt>
      <trkpt lat="44.82161" lon="5.37382">
        <ele>1241</ele>
        <time>2012-04-09T11:54:57Z</time>
      </trkpt>
      <trkpt lat="44.82146" lon="5.3738">
        <ele>1240</ele>
        <time>2012-04-09T11:55:01Z</time>
      </trkpt>
      <trkpt lat="44.82123" lon="5.37371">
        <ele>1236</ele>
        <time>2012-04-09T11:55:07Z</time>
      </trkpt>
      <trkpt lat="44.82117" lon="5.37367">
        <ele>1235</ele>
        <time>2012-04-09T11:55:09Z</time>
      </trkpt>
      <trkpt lat="44.82113" lon="5.37368">
        <ele>1234</ele>
        <time>2012-04-09T11:55:11Z</time>
      </trkpt>
      <trkpt lat="44.82109" lon="5.3737">
        <ele>1233</ele>
        <time>2012-04-09T11:55:13Z</time>
      </trkpt>
      <trkpt lat="44.82088" lon="5.37373">
        <ele>1229</ele>
        <time>2012-04-09T11:55:19Z</time>
      </trkpt>
      <trkpt lat="44.8207" lon="5.37366">
        <ele>1200</ele>
        <time>2012-04-09T11:55:24Z</time>
      </trkpt>
      <trkpt lat="44.8206" lon="5.37358">
        <ele>1200</ele>
        <time>2012-04-09T11:55:27Z</time>
      </trkpt>
      <trkpt lat="44.82035" lon="5.3733">
        <ele>1210</ele>
        <time>2012-04-09T11:55:34Z</time>
      </trkpt>
      <trkpt lat="44.82024" lon="5.37314">
        <ele>1208</ele>
        <time>2012-04-09T11:55:37Z</time>
      </trkpt>
      <trkpt lat="44.82021" lon="5.37308">
        <ele>1209</ele>
        <time>2012-04-09T11:55:38Z</time>
      </trkpt>
      <trkpt lat="44.82006" lon="5.37299">
        <ele>1208</ele>
        <time>2012-04-09T11:55:41Z</time>
      </trkpt>
      <trkpt lat="44.81984" lon="5.37289">
        <ele>1180</ele>
        <time>2012-04-09T11:55:46Z</time>
      </trkpt>
      <trkpt lat="44.8198" lon="5.37286">
        <ele>1180</ele>
        <time>2012-04-09T11:55:47Z</time>
      </trkpt>
      <trkpt lat="44.81961" lon="5.37268">
        <ele>1178</ele>
        <time>2012-04-09T11:55:51Z</time>
      </trkpt>
      <trkpt lat="44.81942" lon="5.37247">
        <ele>1189</ele>
        <time>2012-04-09T11:55:55Z</time>
      </trkpt>
      <trkpt lat="44.81931" lon="5.37238">
        <ele>1185</ele>
        <time>2012-04-09T11:55:57Z</time>
      </trkpt>
      <trkpt lat="44.81905" lon="5.37217">
        <ele>1165</ele>
        <time>2012-04-09T11:56:01Z</time>
      </trkpt>
      <trkpt lat="44.81885" lon="5.37195">
        <ele>1165</ele>
        <time>2012-04-09T11:56:05Z</time>
      </trkpt>
      <trkpt lat="44.81858" lon="5.37175">
        <ele>1161</ele>
        <time>2012-04-09T11:56:10Z</time>
      </trkpt>
      <trkpt lat="44.8185" lon="5.37171">
        <ele>1159</ele>
        <time>2012-04-09T11:56:11Z</time>
      </trkpt>
      <trkpt lat="44.81819" lon="5.37158">
        <ele>1156</ele>
        <time>2012-04-09T11:56:15Z</time>
      </trkpt>
      <trkpt lat="44.81805" lon="5.37153">
        <ele>1154</ele>
        <time>2012-04-09T11:56:17Z</time>
      </trkpt>
      <trkpt lat="44.81787" lon="5.37143">
        <ele>1150</ele>
        <time>2012-04-09T11:56:21Z</time>
      </trkpt>
      <trkpt lat="44.81771" lon="5.37127">
        <ele>1150</ele>
        <time>2012-04-09T11:56:26Z</time>
      </trkpt>
      <trkpt lat="44.81768" lon="5.37126">
        <ele>1150</ele>
        <time>2012-04-09T11:56:27Z</time>
      </trkpt>
      <trkpt lat="44.81752" lon="5.37118">
        <ele>1150</ele>
        <time>2012-04-09T11:56:32Z</time>
      </trkpt>
      <trkpt lat="44.81731" lon="5.37111">
        <ele>1125</ele>
        <time>2012-04-09T11:56:38Z</time>
      </trkpt>
      <trkpt lat="44.81717" lon="5.37109">
        <ele>1121</ele>
        <time>2012-04-09T11:56:42Z</time>
      </trkpt>
      <trkpt lat="44.81702" lon="5.3711">
        <ele>1117</ele>
        <time>2012-04-09T11:56:47Z</time>
      </trkpt>
      <trkpt lat="44.81693" lon="5.37109">
        <ele>1115</ele>
        <time>2012-04-09T11:56:51Z</time>
      </trkpt>
      <trkpt lat="44.81691" lon="5.37109">
        <ele>1114</ele>
        <time>2012-04-09T11:56:52Z</time>
      </trkpt>
      <trkpt lat="44.81675" lon="5.37113">
        <ele>1111</ele>
        <time>2012-04-09T11:56:57Z</time>
      </trkpt>
      <trkpt lat="44.8166" lon="5.37098">
        <ele>1095</ele>
        <time>2012-04-09T11:57:02Z</time>
      </trkpt>
      <trkpt lat="44.81658" lon="5.37094">
        <ele>1097</ele>
        <time>2012-04-09T11:57:03Z</time>
      </trkpt>
      <trkpt lat="44.81653" lon="5.37082">
        <ele>1101</ele>
        <time>2012-04-09T11:57:05Z</time>
      </trkpt>
      <trkpt lat="44.81637" lon="5.37059">
        <ele>1090</ele>
        <time>2012-04-09T11:57:10Z</time>
      </trkpt>
      <trkpt lat="44.81625" lon="5.37057">
        <ele>1086</ele>
        <time>2012-04-09T11:57:15Z</time>
      </trkpt>
      <trkpt lat="44.81616" lon="5.37057">
        <ele>1084</ele>
        <time>2012-04-09T11:57:17Z</time>
      </trkpt>
      <trkpt lat="44.81603" lon="5.37059">
        <ele>1080</ele>
        <time>2012-04-09T11:57:19Z</time>
      </trkpt>
      <trkpt lat="44.81589" lon="5.37059">
        <ele>1078</ele>
        <time>2012-04-09T11:57:21Z</time>
      </trkpt>
      <trkpt lat="44.81568" lon="5.37064">
        <ele>1056</ele>
        <time>2012-04-09T11:57:26Z</time>
      </trkpt>
      <trkpt lat="44.81561" lon="5.37067">
        <ele>1055</ele>
        <time>2012-04-09T11:57:31Z</time>
      </trkpt>
      <trkpt lat="44.81559" lon="5.37069">
        <ele>1055</ele>
        <time>2012-04-09T12:01:17Z</time>
      </trkpt>
      <trkpt lat="44.81559" lon="5.37071">
        <ele>1055</ele>
        <time>2012-04-09T12:02:59Z</time>
      </trkpt>
      <trkpt lat="44.81561" lon="5.3707">
        <ele>1056</ele>
        <time>2012-04-09T12:03:05Z</time>
      </trkpt>
      <trkpt lat="44.81567" lon="5.37068">
        <ele>1057</ele>
        <time>2012-04-09T12:03:08Z</time>
      </trkpt>
      <trkpt lat="44.81585" lon="5.37065">
        <ele>1077</ele>
        <time>2012-04-09T12:03:13Z</time>
      </trkpt>
      <trkpt lat="44.81602" lon="5.37066">
        <ele>1080</ele>
        <time>2012-04-09T12:03:19Z</time>
      </trkpt>
      <trkpt lat="44.81613" lon="5.37064">
        <ele>1083</ele>
        <time>2012-04-09T12:03:26Z</time>
      </trkpt>
      <trkpt lat="44.8162" lon="5.37059">
        <ele>1085</ele>
        <time>2012-04-09T12:03:33Z</time>
      </trkpt>
      <trkpt lat="44.8162" lon="5.37056">
        <ele>1085</ele>
        <time>2012-04-09T12:03:52Z</time>
      </trkpt>
      <trkpt lat="44.81622" lon="5.37047">
        <ele>1085</ele>
        <time>2012-04-09T12:03:56Z</time>
      </trkpt>
      <trkpt lat="44.81628" lon="5.37036">
        <ele>1085</ele>
        <time>2012-04-09T12:03:59Z</time>
      </trkpt>
      <trkpt lat="44.8164" lon="5.37012">
        <ele>1088</ele>
        <time>2012-04-09T12:04:03Z</time>
      </trkpt>
      <trkpt lat="44.81643" lon="5.3697">
        <ele>1073</ele>
        <time>2012-04-09T12:04:08Z</time>
      </trkpt>
      <trkpt lat="44.8165" lon="5.36954">
        <ele>1071</ele>
        <time>2012-04-09T12:04:11Z</time>
      </trkpt>
      <trkpt lat="44.81667" lon="5.36928">
        <ele>1072</ele>
        <time>2012-04-09T12:04:16Z</time>
      </trkpt>
      <trkpt lat="44.81675" lon="5.36906">
        <ele>1081</ele>
        <time>2012-04-09T12:04:20Z</time>
      </trkpt>
      <trkpt lat="44.81676" lon="5.36893">
        <ele>1082</ele>
        <time>2012-04-09T12:04:24Z</time>
      </trkpt>
      <trkpt lat="44.81667" lon="5.36885">
        <ele>1081</ele>
        <time>2012-04-09T12:04:29Z</time>
      </trkpt>
      <trkpt lat="44.81652" lon="5.36899">
        <ele>1055</ele>
        <time>2012-04-09T12:04:33Z</time>
      </trkpt>
      <trkpt lat="44.81636" lon="5.36914">
        <ele>1051</ele>
        <time>2012-04-09T12:04:36Z</time>
      </trkpt>
      <trkpt lat="44.81627" lon="5.36922">
        <ele>1062</ele>
        <time>2012-04-09T12:04:38Z</time>
      </trkpt>
      <trkpt lat="44.81619" lon="5.36929">
        <ele>1059</ele>
        <time>2012-04-09T12:04:40Z</time>
      </trkpt>
      <trkpt lat="44.81595" lon="5.36949">
        <ele>1057</ele>
        <time>2012-04-09T12:04:46Z</time>
      </trkpt>
      <trkpt lat="44.81586" lon="5.36961">
        <ele>1059</ele>
        <time>2012-04-09T12:04:50Z</time>
      </trkpt>
      <trkpt lat="44.81578" lon="5.36965">
        <ele>1034</ele>
        <time>2012-04-09T12:04:52Z</time>
      </trkpt>
      <trkpt lat="44.81569" lon="5.36971">
        <ele>1034</ele>
        <time>2012-04-09T12:04:54Z</time>
      </trkpt>
      <trkpt lat="44.8155" lon="5.36984">
        <ele>1031</ele>
        <time>2012-04-09T12:04:57Z</time>
      </trkpt>
      <trkpt lat="44.81514" lon="5.37001">
        <ele>1033</ele>
        <time>2012-04-09T12:05:02Z</time>
      </trkpt>
      <trkpt lat="44.81488" lon="5.37011">
        <ele>1018</ele>
        <time>2012-04-09T12:05:06Z</time>
      </trkpt>
      <trkpt lat="44.8145" lon="5.37023">
        <ele>1010</ele>
        <time>2012-04-09T12:05:12Z</time>
      </trkpt>
      <trkpt lat="44.81422" lon="5.37031">
        <ele>1006</ele>
        <time>2012-04-09T12:05:18Z</time>
      </trkpt>
      <trkpt lat="44.81419" lon="5.37032">
        <ele>1006</ele>
        <time>2012-04-09T12:05:19Z</time>
      </trkpt>
      <trkpt lat="44.81408" lon="5.37031">
        <ele>986</ele>
        <time>2012-04-09T12:05:23Z</time>
      </trkpt>
      <trkpt lat="44.81393" lon="5.37038">
        <ele>984</ele>
        <time>2012-04-09T12:05:27Z</time>
      </trkpt>
      <trkpt lat="44.81385" lon="5.37032">
        <ele>983</ele>
        <time>2012-04-09T12:05:31Z</time>
      </trkpt>
      <trkpt lat="44.81374" lon="5.37032">
        <ele>981</ele>
        <time>2012-04-09T12:05:33Z</time>
      </trkpt>
      <trkpt lat="44.81361" lon="5.37032">
        <ele>978</ele>
        <time>2012-04-09T12:05:35Z</time>
      </trkpt>
      <trkpt lat="44.81317" lon="5.37037">
        <ele>957</ele>
        <time>2012-04-09T12:05:41Z</time>
      </trkpt>
      <trkpt lat="44.81298" lon="5.3704">
        <ele>955</ele>
        <time>2012-04-09T12:05:44Z</time>
      </trkpt>
      <trkpt lat="44.81285" lon="5.37044">
        <ele>954</ele>
        <time>2012-04-09T12:05:46Z</time>
      </trkpt>
      <trkpt lat="44.81264" lon="5.3705">
        <ele>952</ele>
        <time>2012-04-09T12:05:50Z</time>
      </trkpt>
      <trkpt lat="44.81246" lon="5.37048">
        <ele>939</ele>
        <time>2012-04-09T12:05:54Z</time>
      </trkpt>
      <trkpt lat="44.81231" lon="5.37044">
        <ele>938</ele>
        <time>2012-04-09T12:05:57Z</time>
      </trkpt>
      <trkpt lat="44.81207" lon="5.37037">
        <ele>935</ele>
        <time>2012-04-09T12:06:02Z</time>
      </trkpt>
      <trkpt lat="44.81181" lon="5.3703">
        <ele>932</ele>
        <time>2012-04-09T12:06:07Z</time>
      </trkpt>
      <trkpt lat="44.81169" lon="5.37027">
        <ele>930</ele>
        <time>2012-04-09T12:06:09Z</time>
      </trkpt>
      <trkpt lat="44.81128" lon="5.37026">
        <ele>920</ele>
        <time>2012-04-09T12:06:15Z</time>
      </trkpt>
      <trkpt lat="44.81094" lon="5.37028">
        <ele>916</ele>
        <time>2012-04-09T12:06:20Z</time>
      </trkpt>
      <trkpt lat="44.81061" lon="5.37033">
        <ele>905</ele>
        <time>2012-04-09T12:06:24Z</time>
      </trkpt>
      <trkpt lat="44.81054" lon="5.37033">
        <ele>904</ele>
        <time>2012-04-09T12:06:25Z</time>
      </trkpt>
      <trkpt lat="44.81018" lon="5.37032">
        <ele>901</ele>
        <time>2012-04-09T12:06:31Z</time>
      </trkpt>
      <trkpt lat="44.81001" lon="5.37022">
        <ele>899</ele>
        <time>2012-04-09T12:06:35Z</time>
      </trkpt>
      <trkpt lat="44.80996" lon="5.37018">
        <ele>891</ele>
        <time>2012-04-09T12:06:38Z</time>
      </trkpt>
      <trkpt lat="44.80996" lon="5.37015">
        <ele>892</ele>
        <time>2012-04-09T12:07:04Z</time>
      </trkpt>
      <trkpt lat="44.81005" lon="5.37022">
        <ele>899</ele>
        <time>2012-04-09T12:14:34Z</time>
      </trkpt>
      <trkpt lat="44.81002" lon="5.37018">
        <ele>899</ele>
        <time>2012-04-09T12:14:41Z</time>
      </trkpt>
      <trkpt lat="44.80999" lon="5.37015">
        <ele>892</ele>
        <time>2012-04-09T12:15:04Z</time>
      </trkpt>
      <trkpt lat="44.80988" lon="5.37012">
        <ele>891</ele>
        <time>2012-04-09T12:15:09Z</time>
      </trkpt>
      <trkpt lat="44.80982" lon="5.37014">
        <ele>890</ele>
        <time>2012-04-09T12:15:11Z</time>
      </trkpt>
      <trkpt lat="44.8097" lon="5.37009">
        <ele>889</ele>
        <time>2012-04-09T12:15:14Z</time>
      </trkpt>
      <trkpt lat="44.80949" lon="5.36993">
        <ele>882</ele>
        <time>2012-04-09T12:15:18Z</time>
      </trkpt>
      <trkpt lat="44.80933" lon="5.36993">
        <ele>882</ele>
        <time>2012-04-09T12:15:21Z</time>
      </trkpt>
      <trkpt lat="44.80923" lon="5.3699">
        <ele>883</ele>
        <time>2012-04-09T12:15:23Z</time>
      </trkpt>
      <trkpt lat="44.80914" lon="5.36985">
        <ele>882</ele>
        <time>2012-04-09T12:15:25Z</time>
      </trkpt>
      <trkpt lat="44.8091" lon="5.36982">
        <ele>881</ele>
        <time>2012-04-09T12:15:26Z</time>
      </trkpt>
      <trkpt lat="44.80885" lon="5.36974">
        <ele>880</ele>
        <time>2012-04-09T12:15:31Z</time>
      </trkpt>
      <trkpt lat="44.80873" lon="5.3697">
        <ele>879</ele>
        <time>2012-04-09T12:15:33Z</time>
      </trkpt>
      <trkpt lat="44.80852" lon="5.36958">
        <ele>879</ele>
        <time>2012-04-09T12:15:37Z</time>
      </trkpt>
      <trkpt lat="44.80828" lon="5.36945">
        <ele>883</ele>
        <time>2012-04-09T12:15:42Z</time>
      </trkpt>
      <trkpt lat="44.80813" lon="5.3693">
        <ele>883</ele>
        <time>2012-04-09T12:15:47Z</time>
      </trkpt>
      <trkpt lat="44.80803" lon="5.36925">
        <ele>883</ele>
        <time>2012-04-09T12:15:53Z</time>
      </trkpt>
      <trkpt lat="44.80794" lon="5.36918">
        <ele>884</ele>
        <time>2012-04-09T12:15:59Z</time>
      </trkpt>
      <trkpt lat="44.80783" lon="5.36913">
        <ele>875</ele>
        <time>2012-04-09T12:16:05Z</time>
      </trkpt>
      <trkpt lat="44.80773" lon="5.36907">
        <ele>876</ele>
        <time>2012-04-09T12:16:11Z</time>
      </trkpt>
      <trkpt lat="44.80762" lon="5.36898">
        <ele>876</ele>
        <time>2012-04-09T12:16:14Z</time>
      </trkpt>
      <trkpt lat="44.80742" lon="5.36891">
        <ele>879</ele>
        <time>2012-04-09T12:16:19Z</time>
      </trkpt>
      <trkpt lat="44.8073" lon="5.36889">
        <ele>878</ele>
        <time>2012-04-09T12:16:24Z</time>
      </trkpt>
      <trkpt lat="44.80713" lon="5.36883">
        <ele>877</ele>
        <time>2012-04-09T12:16:30Z</time>
      </trkpt>
      <trkpt lat="44.80685" lon="5.36876">
        <ele>876</ele>
        <time>2012-04-09T12:16:37Z</time>
      </trkpt>
      <trkpt lat="44.80653" lon="5.36863">
        <ele>876</ele>
        <time>2012-04-09T12:16:42Z</time>
      </trkpt>
      <trkpt lat="44.80611" lon="5.36852">
        <ele>875</ele>
        <time>2012-04-09T12:16:47Z</time>
      </trkpt>
      <trkpt lat="44.80567" lon="5.36847">
        <ele>871</ele>
        <time>2012-04-09T12:16:52Z</time>
      </trkpt>
      <trkpt lat="44.80543" lon="5.36843">
        <ele>872</ele>
        <time>2012-04-09T12:16:56Z</time>
      </trkpt>
      <trkpt lat="44.80506" lon="5.36831">
        <ele>849</ele>
        <time>2012-04-09T12:17:01Z</time>
      </trkpt>
      <trkpt lat="44.8049" lon="5.36829">
        <ele>844</ele>
        <time>2012-04-09T12:17:03Z</time>
      </trkpt>
      <trkpt lat="44.80459" lon="5.36831">
        <ele>834</ele>
        <time>2012-04-09T12:17:07Z</time>
      </trkpt>
      <trkpt lat="44.80423" lon="5.36838">
        <ele>847</ele>
        <time>2012-04-09T12:17:11Z</time>
      </trkpt>
      <trkpt lat="44.80395" lon="5.36836">
        <ele>839</ele>
        <time>2012-04-09T12:17:14Z</time>
      </trkpt>
      <trkpt lat="44.80369" lon="5.3684">
        <ele>835</ele>
        <time>2012-04-09T12:17:17Z</time>
      </trkpt>
      <trkpt lat="44.80344" lon="5.36836">
        <ele>827</ele>
        <time>2012-04-09T12:17:21Z</time>
      </trkpt>
      <trkpt lat="44.8032" lon="5.36835">
        <ele>816</ele>
        <time>2012-04-09T12:17:25Z</time>
      </trkpt>
      <trkpt lat="44.80299" lon="5.36839">
        <ele>811</ele>
        <time>2012-04-09T12:17:28Z</time>
      </trkpt>
      <trkpt lat="44.80271" lon="5.36848">
        <ele>805</ele>
        <time>2012-04-09T12:17:32Z</time>
      </trkpt>
      <trkpt lat="44.80253" lon="5.36852">
        <ele>803</ele>
        <time>2012-04-09T12:17:34Z</time>
      </trkpt>
      <trkpt lat="44.80205" lon="5.36849">
        <ele>790</ele>
        <time>2012-04-09T12:17:39Z</time>
      </trkpt>
      <trkpt lat="44.80183" lon="5.36848">
        <ele>788</ele>
        <time>2012-04-09T12:17:42Z</time>
      </trkpt>
      <trkpt lat="44.80177" lon="5.36846">
        <ele>788</ele>
        <time>2012-04-09T12:17:43Z</time>
      </trkpt>
      <trkpt lat="44.80149" lon="5.36837">
        <ele>780</ele>
        <time>2012-04-09T12:17:47Z</time>
      </trkpt>
      <trkpt lat="44.80127" lon="5.36819">
        <ele>769</ele>
        <time>2012-04-09T12:17:51Z</time>
      </trkpt>
      <trkpt lat="44.80125" lon="5.36808">
        <ele>768</ele>
        <time>2012-04-09T12:17:54Z</time>
      </trkpt>
      <trkpt lat="44.8013" lon="5.36807">
        <ele>769</ele>
        <time>2012-04-09T12:17:55Z</time>
      </trkpt>
      <trkpt lat="44.80139" lon="5.36802">
        <ele>769</ele>
        <time>2012-04-09T12:17:57Z</time>
      </trkpt>
      <trkpt lat="44.80148" lon="5.36798">
        <ele>770</ele>
        <time>2012-04-09T12:17:59Z</time>
      </trkpt>
      <trkpt lat="44.80171" lon="5.36778">
        <ele>776</ele>
        <time>2012-04-09T12:18:04Z</time>
      </trkpt>
      <trkpt lat="44.80196" lon="5.36754">
        <ele>776</ele>
        <time>2012-04-09T12:18:08Z</time>
      </trkpt>
      <trkpt lat="44.80214" lon="5.36735">
        <ele>761</ele>
        <time>2012-04-09T12:18:11Z</time>
      </trkpt>
      <trkpt lat="44.80231" lon="5.36719">
        <ele>760</ele>
        <time>2012-04-09T12:18:16Z</time>
      </trkpt>
      <trkpt lat="44.80216" lon="5.36715">
        <ele>758</ele>
        <time>2012-04-09T12:18:20Z</time>
      </trkpt>
      <trkpt lat="44.80203" lon="5.36713">
        <ele>757</ele>
        <time>2012-04-09T12:18:22Z</time>
      </trkpt>
      <trkpt lat="44.80178" lon="5.36706">
        <ele>753</ele>
        <time>2012-04-09T12:18:26Z</time>
      </trkpt>
      <trkpt lat="44.80142" lon="5.36697">
        <ele>740</ele>
        <time>2012-04-09T12:18:32Z</time>
      </trkpt>
      <trkpt lat="44.80115" lon="5.36692">
        <ele>737</ele>
        <time>2012-04-09T12:18:36Z</time>
      </trkpt>
      <trkpt lat="44.80085" lon="5.36692">
        <ele>732</ele>
        <time>2012-04-09T12:18:41Z</time>
      </trkpt>
      <trkpt lat="44.80058" lon="5.36702">
        <ele>719</ele>
        <time>2012-04-09T12:18:45Z</time>
      </trkpt>
      <trkpt lat="44.80039" lon="5.36713">
        <ele>717</ele>
        <time>2012-04-09T12:18:48Z</time>
      </trkpt>
      <trkpt lat="44.80021" lon="5.36728">
        <ele>715</ele>
        <time>2012-04-09T12:18:52Z</time>
      </trkpt>
      <trkpt lat="44.80018" lon="5.36732">
        <ele>714</ele>
        <time>2012-04-09T12:18:54Z</time>
      </trkpt>
      <trkpt lat="44.80018" lon="5.36715">
        <ele>714</ele>
        <time>2012-04-09T12:18:58Z</time>
      </trkpt>
      <trkpt lat="44.80009" lon="5.3671">
        <ele>712</ele>
        <time>2012-04-09T12:19:03Z</time>
      </trkpt>
      <trkpt lat="44.80002" lon="5.36704">
        <ele>711</ele>
        <time>2012-04-09T12:19:06Z</time>
      </trkpt>
      <trkpt lat="44.79992" lon="5.36694">
        <ele>688</ele>
        <time>2012-04-09T12:19:10Z</time>
      </trkpt>
      <trkpt lat="44.79989" lon="5.36675">
        <ele>690</ele>
        <time>2012-04-09T12:19:13Z</time>
      </trkpt>
      <trkpt lat="44.79991" lon="5.36661">
        <ele>687</ele>
        <time>2012-04-09T12:19:15Z</time>
      </trkpt>
      <trkpt lat="44.80005" lon="5.3663">
        <ele>690</ele>
        <time>2012-04-09T12:19:20Z</time>
      </trkpt>
      <trkpt lat="44.80028" lon="5.36601">
        <ele>687</ele>
        <time>2012-04-09T12:19:25Z</time>
      </trkpt>
      <trkpt lat="44.80037" lon="5.36587">
        <ele>686</ele>
        <time>2012-04-09T12:19:29Z</time>
      </trkpt>
      <trkpt lat="44.80035" lon="5.36585">
        <ele>686</ele>
        <time>2012-04-09T12:19:30Z</time>
      </trkpt>
      <trkpt lat="44.80025" lon="5.36577">
        <ele>669</ele>
        <time>2012-04-09T12:19:33Z</time>
      </trkpt>
      <trkpt lat="44.80016" lon="5.36568">
        <ele>668</ele>
        <time>2012-04-09T12:19:37Z</time>
      </trkpt>
      <trkpt lat="44.80018" lon="5.36565">
        <ele>668</ele>
        <time>2012-04-09T12:19:38Z</time>
      </trkpt>
      <trkpt lat="44.8002" lon="5.36561">
        <ele>667</ele>
        <time>2012-04-09T12:19:39Z</time>
      </trkpt>
      <trkpt lat="44.80035" lon="5.36543">
        <ele>665</ele>
        <time>2012-04-09T12:19:44Z</time>
      </trkpt>
      <trkpt lat="44.80029" lon="5.36537">
        <ele>663</ele>
        <time>2012-04-09T12:19:48Z</time>
      </trkpt>
      <trkpt lat="44.80006" lon="5.36529">
        <ele>660</ele>
        <time>2012-04-09T12:19:52Z</time>
      </trkpt>
      <trkpt lat="44.79991" lon="5.36526">
        <ele>652</ele>
        <time>2012-04-09T12:19:56Z</time>
      </trkpt>
      <trkpt lat="44.79977" lon="5.36518">
        <ele>650</ele>
        <time>2012-04-09T12:20:00Z</time>
      </trkpt>
      <trkpt lat="44.79959" lon="5.36515">
        <ele>649</ele>
        <time>2012-04-09T12:20:04Z</time>
      </trkpt>
      <trkpt lat="44.7994" lon="5.36505">
        <ele>644</ele>
        <time>2012-04-09T12:20:08Z</time>
      </trkpt>
      <trkpt lat="44.79919" lon="5.36489">
        <ele>632</ele>
        <time>2012-04-09T12:20:12Z</time>
      </trkpt>
      <trkpt lat="44.79893" lon="5.36471">
        <ele>622</ele>
        <time>2012-04-09T12:20:17Z</time>
      </trkpt>
      <trkpt lat="44.79874" lon="5.36454">
        <ele>618</ele>
        <time>2012-04-09T12:20:21Z</time>
      </trkpt>
      <trkpt lat="44.79863" lon="5.36447">
        <ele>616</ele>
        <time>2012-04-09T12:20:24Z</time>
      </trkpt>
      <trkpt lat="44.79866" lon="5.36436">
        <ele>615</ele>
        <time>2012-04-09T12:20:27Z</time>
      </trkpt>
      <trkpt lat="44.79869" lon="5.36431">
        <ele>615</ele>
        <time>2012-04-09T12:20:28Z</time>
      </trkpt>
      <trkpt lat="44.79875" lon="5.36423">
        <ele>615</ele>
        <time>2012-04-09T12:20:32Z</time>
      </trkpt>
      <trkpt lat="44.79873" lon="5.3642">
        <ele>615</ele>
        <time>2012-04-09T12:20:40Z</time>
      </trkpt>
      <trkpt lat="44.79872" lon="5.36421">
        <ele>615</ele>
        <time>2012-04-09T12:20:52Z</time>
      </trkpt>
      <trkpt lat="44.79871" lon="5.36425">
        <ele>615</ele>
        <time>2012-04-09T12:21:10Z</time>
      </trkpt>
      <trkpt lat="44.79873" lon="5.36426">
        <ele>615</ele>
        <time>2012-04-09T12:21:12Z</time>
      </trkpt>
      <trkpt lat="44.79884" lon="5.3642">
        <ele>616</ele>
        <time>2012-04-09T12:21:19Z</time>
      </trkpt>
      <trkpt lat="44.79905" lon="5.36405">
        <ele>608</ele>
        <time>2012-04-09T12:21:28Z</time>
      </trkpt>
      <trkpt lat="44.79923" lon="5.3639">
        <ele>611</ele>
        <time>2012-04-09T12:21:34Z</time>
      </trkpt>
      <trkpt lat="44.79947" lon="5.3637">
        <ele>610</ele>
        <time>2012-04-09T12:21:40Z</time>
      </trkpt>
      <trkpt lat="44.79976" lon="5.36346">
        <ele>609</ele>
        <time>2012-04-09T12:21:46Z</time>
      </trkpt>
      <trkpt lat="44.8001" lon="5.36321">
        <ele>603</ele>
        <time>2012-04-09T12:21:52Z</time>
      </trkpt>
      <trkpt lat="44.8005" lon="5.363">
        <ele>602</ele>
        <time>2012-04-09T12:21:59Z</time>
      </trkpt>
      <trkpt lat="44.8008" lon="5.36273">
        <ele>599</ele>
        <time>2012-04-09T12:22:05Z</time>
      </trkpt>
      <trkpt lat="44.80108" lon="5.36252">
        <ele>601</ele>
        <time>2012-04-09T12:22:09Z</time>
      </trkpt>
      <trkpt lat="44.80132" lon="5.36235">
        <ele>595</ele>
        <time>2012-04-09T12:22:12Z</time>
      </trkpt>
      <trkpt lat="44.80168" lon="5.36222">
        <ele>599</ele>
        <time>2012-04-09T12:22:16Z</time>
      </trkpt>
      <trkpt lat="44.80177" lon="5.36221">
        <ele>599</ele>
        <time>2012-04-09T12:22:17Z</time>
      </trkpt>
      <trkpt lat="44.80204" lon="5.36224">
        <ele>600</ele>
        <time>2012-04-09T12:22:20Z</time>
      </trkpt>
      <trkpt lat="44.80223" lon="5.36208">
        <ele>601</ele>
        <time>2012-04-09T12:22:24Z</time>
      </trkpt>
      <trkpt lat="44.80215" lon="5.36187">
        <ele>601</ele>
        <time>2012-04-09T12:22:27Z</time>
      </trkpt>
      <trkpt lat="44.80212" lon="5.36181">
        <ele>600</ele>
        <time>2012-04-09T12:22:28Z</time>
      </trkpt>
      <trkpt lat="44.80194" lon="5.3615">
        <ele>603</ele>
        <time>2012-04-09T12:22:36Z</time>
      </trkpt>
      <trkpt lat="44.80177" lon="5.36131">
        <ele>603</ele>
        <time>2012-04-09T12:22:44Z</time>
      </trkpt>
      <trkpt lat="44.80161" lon="5.36123">
        <ele>595</ele>
        <time>2012-04-09T12:22:51Z</time>
      </trkpt>
      <trkpt lat="44.80145" lon="5.3611">
        <ele>596</ele>
        <time>2012-04-09T12:22:59Z</time>
      </trkpt>
      <trkpt lat="44.80131" lon="5.36093">
        <ele>595</ele>
        <time>2012-04-09T12:23:06Z</time>
      </trkpt>
      <trkpt lat="44.80115" lon="5.36062">
        <ele>604</ele>
        <time>2012-04-09T12:23:16Z</time>
      </trkpt>
      <trkpt lat="44.801" lon="5.36043">
        <ele>606</ele>
        <time>2012-04-09T12:23:25Z</time>
      </trkpt>
      <trkpt lat="44.80084" lon="5.36027">
        <ele>608</ele>
        <time>2012-04-09T12:23:34Z</time>
      </trkpt>
      <trkpt lat="44.80066" lon="5.36009">
        <ele>603</ele>
        <time>2012-04-09T12:23:43Z</time>
      </trkpt>
      <trkpt lat="44.80053" lon="5.3599">
        <ele>611</ele>
        <time>2012-04-09T12:23:51Z</time>
      </trkpt>
      <trkpt lat="44.8004" lon="5.35972">
        <ele>612</ele>
        <time>2012-04-09T12:23:59Z</time>
      </trkpt>
      <trkpt lat="44.80024" lon="5.3597">
        <ele>611</ele>
        <time>2012-04-09T12:24:06Z</time>
      </trkpt>
      <trkpt lat="44.80005" lon="5.35968">
        <ele>610</ele>
        <time>2012-04-09T12:24:14Z</time>
      </trkpt>
      <trkpt lat="44.79984" lon="5.35956">
        <ele>608</ele>
        <time>2012-04-09T12:24:24Z</time>
      </trkpt>
      <trkpt lat="44.79966" lon="5.35941">
        <ele>609</ele>
        <time>2012-04-09T12:24:33Z</time>
      </trkpt>
      <trkpt lat="44.79946" lon="5.35929">
        <ele>609</ele>
        <time>2012-04-09T12:24:42Z</time>
      </trkpt>
      <trkpt lat="44.79929" lon="5.35921">
        <ele>610</ele>
        <time>2012-04-09T12:24:50Z</time>
      </trkpt>
      <trkpt lat="44.79913" lon="5.35917">
        <ele>611</ele>
        <time>2012-04-09T12:24:58Z</time>
      </trkpt>
      <trkpt lat="44.79899" lon="5.35917">
        <ele>609</ele>
        <time>2012-04-09T12:25:04Z</time>
      </trkpt>
      <trkpt lat="44.7988" lon="5.35917">
        <ele>611</ele>
        <time>2012-04-09T12:25:09Z</time>
      </trkpt>
      <trkpt lat="44.79871" lon="5.35916">
        <ele>610</ele>
        <time>2012-04-09T12:25:11Z</time>
      </trkpt>
      <trkpt lat="44.79836" lon="5.3591">
        <ele>610</ele>
        <time>2012-04-09T12:25:19Z</time>
      </trkpt>
      <trkpt lat="44.79798" lon="5.35906">
        <ele>608</ele>
        <time>2012-04-09T12:25:26Z</time>
      </trkpt>
      <trkpt lat="44.79745" lon="5.35901">
        <ele>605</ele>
        <time>2012-04-09T12:25:34Z</time>
      </trkpt>
      <trkpt lat="44.797" lon="5.35891">
        <ele>604</ele>
        <time>2012-04-09T12:25:40Z</time>
      </trkpt>
      <trkpt lat="44.79686" lon="5.35885">
        <ele>603</ele>
        <time>2012-04-09T12:25:42Z</time>
      </trkpt>
      <trkpt lat="44.79662" lon="5.35855">
        <ele>600</ele>
        <time>2012-04-09T12:25:47Z</time>
      </trkpt>
      <trkpt lat="44.79646" lon="5.35828">
        <ele>599</ele>
        <time>2012-04-09T12:25:51Z</time>
      </trkpt>
      <trkpt lat="44.79626" lon="5.35806">
        <ele>598</ele>
        <time>2012-04-09T12:25:55Z</time>
      </trkpt>
      <trkpt lat="44.79596" lon="5.35786">
        <ele>597</ele>
        <time>2012-04-09T12:26:00Z</time>
      </trkpt>
      <trkpt lat="44.79541" lon="5.35771">
        <ele>593</ele>
        <time>2012-04-09T12:26:09Z</time>
      </trkpt>
      <trkpt lat="44.79502" lon="5.35764">
        <ele>592</ele>
        <time>2012-04-09T12:26:16Z</time>
      </trkpt>
      <trkpt lat="44.79467" lon="5.3576">
        <ele>594</ele>
        <time>2012-04-09T12:26:23Z</time>
      </trkpt>
      <trkpt lat="44.79459" lon="5.3576">
        <ele>594</ele>
        <time>2012-04-09T12:26:26Z</time>
      </trkpt>
      <trkpt lat="44.79456" lon="5.35778">
        <ele>594</ele>
        <time>2012-04-09T12:26:32Z</time>
      </trkpt>
      <trkpt lat="44.79453" lon="5.35797">
        <ele>594</ele>
        <time>2012-04-09T12:26:35Z</time>
      </trkpt>
      <trkpt lat="44.79449" lon="5.35814">
        <ele>594</ele>
        <time>2012-04-09T12:26:37Z</time>
      </trkpt>
      <trkpt lat="44.79427" lon="5.35855">
        <ele>589</ele>
        <time>2012-04-09T12:26:42Z</time>
      </trkpt>
      <trkpt lat="44.79408" lon="5.35885">
        <ele>594</ele>
        <time>2012-04-09T12:26:46Z</time>
      </trkpt>
      <trkpt lat="44.79398" lon="5.35926">
        <ele>586</ele>
        <time>2012-04-09T12:26:50Z</time>
      </trkpt>
      <trkpt lat="44.79399" lon="5.3596">
        <ele>586</ele>
        <time>2012-04-09T12:26:54Z</time>
      </trkpt>
      <trkpt lat="44.79399" lon="5.35968">
        <ele>585</ele>
        <time>2012-04-09T12:26:55Z</time>
      </trkpt>
      <trkpt lat="44.79398" lon="5.35991">
        <ele>582</ele>
        <time>2012-04-09T12:26:58Z</time>
      </trkpt>
      <trkpt lat="44.79389" lon="5.36037">
        <ele>578</ele>
        <time>2012-04-09T12:27:04Z</time>
      </trkpt>
      <trkpt lat="44.79386" lon="5.36062">
        <ele>576</ele>
        <time>2012-04-09T12:27:07Z</time>
      </trkpt>
      <trkpt lat="44.79377" lon="5.36099">
        <ele>569</ele>
        <time>2012-04-09T12:27:12Z</time>
      </trkpt>
      <trkpt lat="44.79374" lon="5.36115">
        <ele>568</ele>
        <time>2012-04-09T12:27:14Z</time>
      </trkpt>
      <trkpt lat="44.79356" lon="5.3615">
        <ele>569</ele>
        <time>2012-04-09T12:27:19Z</time>
      </trkpt>
      <trkpt lat="44.79352" lon="5.36168">
        <ele>564</ele>
        <time>2012-04-09T12:27:21Z</time>
      </trkpt>
      <trkpt lat="44.79345" lon="5.36202">
        <ele>560</ele>
        <time>2012-04-09T12:27:25Z</time>
      </trkpt>
      <trkpt lat="44.79337" lon="5.36217">
        <ele>559</ele>
        <time>2012-04-09T12:27:28Z</time>
      </trkpt>
      <trkpt lat="44.79329" lon="5.36243">
        <ele>567</ele>
        <time>2012-04-09T12:27:33Z</time>
      </trkpt>
      <trkpt lat="44.79327" lon="5.3627">
        <ele>564</ele>
        <time>2012-04-09T12:27:38Z</time>
      </trkpt>
      <trkpt lat="44.79324" lon="5.36291">
        <ele>563</ele>
        <time>2012-04-09T12:27:42Z</time>
      </trkpt>
      <trkpt lat="44.79324" lon="5.36306">
        <ele>562</ele>
        <time>2012-04-09T12:27:46Z</time>
      </trkpt>
      <trkpt lat="44.79325" lon="5.36318">
        <ele>560</ele>
        <time>2012-04-09T12:27:48Z</time>
      </trkpt>
      <trkpt lat="44.79319" lon="5.36347">
        <ele>555</ele>
        <time>2012-04-09T12:27:53Z</time>
      </trkpt>
      <trkpt lat="44.79306" lon="5.36375">
        <ele>556</ele>
        <time>2012-04-09T12:27:59Z</time>
      </trkpt>
      <trkpt lat="44.79299" lon="5.3639">
        <ele>555</ele>
        <time>2012-04-09T12:28:02Z</time>
      </trkpt>
      <trkpt lat="44.79283" lon="5.36433">
        <ele>549</ele>
        <time>2012-04-09T12:28:09Z</time>
      </trkpt>
      <trkpt lat="44.79278" lon="5.36448">
        <ele>548</ele>
        <time>2012-04-09T12:28:11Z</time>
      </trkpt>
      <trkpt lat="44.79273" lon="5.36463">
        <ele>547</ele>
        <time>2012-04-09T12:28:13Z</time>
      </trkpt>
      <trkpt lat="44.79258" lon="5.36485">
        <ele>546</ele>
        <time>2012-04-09T12:28:17Z</time>
      </trkpt>
      <trkpt lat="44.79237" lon="5.36517">
        <ele>544</ele>
        <time>2012-04-09T12:28:22Z</time>
      </trkpt>
      <trkpt lat="44.79232" lon="5.36546">
        <ele>541</ele>
        <time>2012-04-09T12:28:26Z</time>
      </trkpt>
      <trkpt lat="44.79229" lon="5.36558">
        <ele>540</ele>
        <time>2012-04-09T12:28:28Z</time>
      </trkpt>
      <trkpt lat="44.79224" lon="5.36569">
        <ele>539</ele>
        <time>2012-04-09T12:28:30Z</time>
      </trkpt>
      <trkpt lat="44.79215" lon="5.3659">
        <ele>527</ele>
        <time>2012-04-09T12:28:34Z</time>
      </trkpt>
      <trkpt lat="44.79212" lon="5.36601">
        <ele>526</ele>
        <time>2012-04-09T12:28:36Z</time>
      </trkpt>
      <trkpt lat="44.792" lon="5.36624">
        <ele>524</ele>
        <time>2012-04-09T12:28:40Z</time>
      </trkpt>
      <trkpt lat="44.79184" lon="5.36639">
        <ele>522</ele>
        <time>2012-04-09T12:28:45Z</time>
      </trkpt>
      <trkpt lat="44.79176" lon="5.36637">
        <ele>523</ele>
        <time>2012-04-09T12:28:48Z</time>
      </trkpt>
      <trkpt lat="44.79172" lon="5.3663">
        <ele>524</ele>
        <time>2012-04-09T12:28:53Z</time>
      </trkpt>
      <trkpt lat="44.7917" lon="5.36627">
        <ele>525</ele>
        <time>2012-04-09T12:28:55Z</time>
      </trkpt>
      <trkpt lat="44.79169" lon="5.36619">
        <ele>526</ele>
        <time>2012-04-09T12:29:02Z</time>
      </trkpt>
      <trkpt lat="44.79166" lon="5.36615">
        <ele>523</ele>
        <time>2012-04-09T12:29:12Z</time>
      </trkpt>
      <trkpt lat="44.79163" lon="5.36612">
        <ele>524</ele>
        <time>2012-04-09T12:29:26Z</time>
      </trkpt>
      <trkpt lat="44.79162" lon="5.36603">
        <ele>527</ele>
        <time>2012-04-09T12:29:35Z</time>
      </trkpt>
      <trkpt lat="44.79161" lon="5.36601">
        <ele>527</ele>
        <time>2012-04-09T12:29:40Z</time>
      </trkpt>
      <trkpt lat="44.79156" lon="5.36592">
        <ele>529</ele>
        <time>2012-04-09T12:29:45Z</time>
      </trkpt>
      <trkpt lat="44.79146" lon="5.36566">
        <ele>534</ele>
        <time>2012-04-09T12:29:51Z</time>
      </trkpt>
      <trkpt lat="44.79144" lon="5.36561">
        <ele>534</ele>
        <time>2012-04-09T12:29:52Z</time>
      </trkpt>
      <trkpt lat="44.79136" lon="5.3654">
        <ele>535</ele>
        <time>2012-04-09T12:29:56Z</time>
      </trkpt>
      <trkpt lat="44.79124" lon="5.36512">
        <ele>536</ele>
        <time>2012-04-09T12:30:01Z</time>
      </trkpt>
      <trkpt lat="44.79117" lon="5.36498">
        <ele>544</ele>
        <time>2012-04-09T12:30:04Z</time>
      </trkpt>
      <trkpt lat="44.79109" lon="5.36482">
        <ele>543</ele>
        <time>2012-04-09T12:30:07Z</time>
      </trkpt>
      <trkpt lat="44.79106" lon="5.36475">
        <ele>543</ele>
        <time>2012-04-09T12:30:10Z</time>
      </trkpt>
      <trkpt lat="44.79105" lon="5.36478">
        <ele>542</ele>
        <time>2012-04-09T12:30:13Z</time>
      </trkpt>
      <trkpt lat="44.79103" lon="5.36482">
        <ele>541</ele>
        <time>2012-04-09T12:30:17Z</time>
      </trkpt>
      <trkpt lat="44.79099" lon="5.36471">
        <ele>542</ele>
        <time>2012-04-09T12:30:20Z</time>
      </trkpt>
      <trkpt lat="44.7908" lon="5.3645">
        <ele>532</ele>
        <time>2012-04-09T12:30:26Z</time>
      </trkpt>
      <trkpt lat="44.79071" lon="5.36444">
        <ele>533</ele>
        <time>2012-04-09T12:30:33Z</time>
      </trkpt>
      <trkpt lat="44.7907" lon="5.36445">
        <ele>533</ele>
        <time>2012-04-09T12:30:34Z</time>
      </trkpt>
      <trkpt lat="44.79065" lon="5.36448">
        <ele>532</ele>
        <time>2012-04-09T12:30:37Z</time>
      </trkpt>
      <trkpt lat="44.79063" lon="5.36448">
        <ele>532</ele>
        <time>2012-04-09T12:30:43Z</time>
      </trkpt>
      <trkpt lat="44.79063" lon="5.36448">
        <ele>532</ele>
        <time>2012-04-09T12:30:55Z</time>
      </trkpt>
      <trkpt lat="44.79059" lon="5.3644">
        <ele>532</ele>
        <time>2012-04-09T12:30:59Z</time>
      </trkpt>
      <trkpt lat="44.79054" lon="5.3642">
        <ele>533</ele>
        <time>2012-04-09T12:31:02Z</time>
      </trkpt>
      <trkpt lat="44.7905" lon="5.36388">
        <ele>542</ele>
        <time>2012-04-09T12:31:07Z</time>
      </trkpt>
      <trkpt lat="44.79044" lon="5.36387">
        <ele>542</ele>
        <time>2012-04-09T12:31:10Z</time>
      </trkpt>
      <trkpt lat="44.79042" lon="5.36401">
        <ele>541</ele>
        <time>2012-04-09T12:31:12Z</time>
      </trkpt>
      <trkpt lat="44.79038" lon="5.3643">
        <ele>531</ele>
        <time>2012-04-09T12:31:15Z</time>
      </trkpt>
      <trkpt lat="44.79028" lon="5.36476">
        <ele>527</ele>
        <time>2012-04-09T12:31:19Z</time>
      </trkpt>
      <trkpt lat="44.79026" lon="5.36498">
        <ele>525</ele>
        <time>2012-04-09T12:31:22Z</time>
      </trkpt>
      <trkpt lat="44.79034" lon="5.36504">
        <ele>517</ele>
        <time>2012-04-09T12:31:26Z</time>
      </trkpt>
      <trkpt lat="44.79038" lon="5.36505">
        <ele>517</ele>
        <time>2012-04-09T12:31:27Z</time>
      </trkpt>
      <trkpt lat="44.79064" lon="5.3652">
        <ele>519</ele>
        <time>2012-04-09T12:31:33Z</time>
      </trkpt>
      <trkpt lat="44.79071" lon="5.36534">
        <ele>517</ele>
        <time>2012-04-09T12:31:36Z</time>
      </trkpt>
      <trkpt lat="44.79084" lon="5.36568">
        <ele>520</ele>
        <time>2012-04-09T12:31:41Z</time>
      </trkpt>
      <trkpt lat="44.79105" lon="5.36605">
        <ele>516</ele>
        <time>2012-04-09T12:31:46Z</time>
      </trkpt>
      <trkpt lat="44.79111" lon="5.3664">
        <ele>516</ele>
        <time>2012-04-09T12:31:50Z</time>
      </trkpt>
      <trkpt lat="44.79111" lon="5.3665">
        <ele>515</ele>
        <time>2012-04-09T12:31:51Z</time>
      </trkpt>
      <trkpt lat="44.79119" lon="5.36691">
        <ele>513</ele>
        <time>2012-04-09T12:31:56Z</time>
      </trkpt>
      <trkpt lat="44.79128" lon="5.36702">
        <ele>513</ele>
        <time>2012-04-09T12:31:59Z</time>
      </trkpt>
      <trkpt lat="44.79136" lon="5.36711">
        <ele>512</ele>
        <time>2012-04-09T12:32:04Z</time>
      </trkpt>
      <trkpt lat="44.7914" lon="5.36721">
        <ele>512</ele>
        <time>2012-04-09T12:32:08Z</time>
      </trkpt>
      <trkpt lat="44.79144" lon="5.36739">
        <ele>511</ele>
        <time>2012-04-09T12:32:15Z</time>
      </trkpt>
      <trkpt lat="44.79149" lon="5.36766">
        <ele>514</ele>
        <time>2012-04-09T12:32:23Z</time>
      </trkpt>
      <trkpt lat="44.79159" lon="5.36784">
        <ele>515</ele>
        <time>2012-04-09T12:32:29Z</time>
      </trkpt>
      <trkpt lat="44.79174" lon="5.36788">
        <ele>507</ele>
        <time>2012-04-09T12:32:35Z</time>
      </trkpt>
      <trkpt lat="44.7919" lon="5.36797">
        <ele>508</ele>
        <time>2012-04-09T12:32:41Z</time>
      </trkpt>
      <trkpt lat="44.79211" lon="5.36824">
        <ele>508</ele>
        <time>2012-04-09T12:32:49Z</time>
      </trkpt>
      <trkpt lat="44.79235" lon="5.36846">
        <ele>511</ele>
        <time>2012-04-09T12:32:57Z</time>
      </trkpt>
      <trkpt lat="44.79265" lon="5.36874">
        <ele>510</ele>
        <time>2012-04-09T12:33:07Z</time>
      </trkpt>
      <trkpt lat="44.79293" lon="5.36908">
        <ele>511</ele>
        <time>2012-04-09T12:33:17Z</time>
      </trkpt>
      <trkpt lat="44.79308" lon="5.36938">
        <ele>513</ele>
        <time>2012-04-09T12:33:24Z</time>
      </trkpt>
      <trkpt lat="44.79325" lon="5.36966">
        <ele>513</ele>
        <time>2012-04-09T12:33:31Z</time>
      </trkpt>
      <trkpt lat="44.79345" lon="5.36999">
        <ele>510</ele>
        <time>2012-04-09T12:33:39Z</time>
      </trkpt>
      <trkpt lat="44.79364" lon="5.37041">
        <ele>515</ele>
        <time>2012-04-09T12:33:49Z</time>
      </trkpt>
      <trkpt lat="44.79382" lon="5.37073">
        <ele>515</ele>
        <time>2012-04-09T12:33:58Z</time>
      </trkpt>
      <trkpt lat="44.79383" lon="5.37075">
        <ele>515</ele>
        <time>2012-04-09T12:34:01Z</time>
      </trkpt>
      <trkpt lat="44.79386" lon="5.37068">
        <ele>515</ele>
        <time>2012-04-09T12:35:27Z</time>
      </trkpt>
      <trkpt lat="44.79386" lon="5.37068">
        <ele>515</ele>
        <time>2012-04-09T12:35:28Z</time>
      </trkpt>
      <trkpt lat="44.7939" lon="5.37078">
        <ele>515</ele>
        <time>2012-04-09T12:35:34Z</time>
      </trkpt>
      <trkpt lat="44.79398" lon="5.37101">
        <ele>517</ele>
        <time>2012-04-09T12:35:40Z</time>
      </trkpt>
      <trkpt lat="44.79413" lon="5.3714">
        <ele>516</ele>
        <time>2012-04-09T12:35:49Z</time>
      </trkpt>
      <trkpt lat="44.79428" lon="5.37184">
        <ele>516</ele>
        <time>2012-04-09T12:35:59Z</time>
      </trkpt>
      <trkpt lat="44.7944" lon="5.37221">
        <ele>517</ele>
        <time>2012-04-09T12:36:08Z</time>
      </trkpt>
      <trkpt lat="44.79455" lon="5.37254">
        <ele>518</ele>
        <time>2012-04-09T12:36:17Z</time>
      </trkpt>
      <trkpt lat="44.79469" lon="5.3728">
        <ele>519</ele>
        <time>2012-04-09T12:36:25Z</time>
      </trkpt>
      <trkpt lat="44.7948" lon="5.37309">
        <ele>519</ele>
        <time>2012-04-09T12:36:33Z</time>
      </trkpt>
      <trkpt lat="44.7948" lon="5.37339">
        <ele>519</ele>
        <time>2012-04-09T12:36:40Z</time>
      </trkpt>
      <trkpt lat="44.79475" lon="5.37379">
        <ele>519</ele>
        <time>2012-04-09T12:36:48Z</time>
      </trkpt>
      <trkpt lat="44.79472" lon="5.37427">
        <ele>520</ele>
        <time>2012-04-09T12:36:57Z</time>
      </trkpt>
      <trkpt lat="44.79473" lon="5.37475">
        <ele>520</ele>
        <time>2012-04-09T12:37:06Z</time>
      </trkpt>
      <trkpt lat="44.79475" lon="5.37511">
        <ele>521</ele>
        <time>2012-04-09T12:37:13Z</time>
      </trkpt>
      <trkpt lat="44.79478" lon="5.37558">
        <ele>522</ele>
        <time>2012-04-09T12:37:22Z</time>
      </trkpt>
      <trkpt lat="44.79488" lon="5.3759">
        <ele>522</ele>
        <time>2012-04-09T12:37:29Z</time>
      </trkpt>
      <trkpt lat="44.79504" lon="5.37613">
        <ele>525</ele>
        <time>2012-04-09T12:37:36Z</time>
      </trkpt>
      <trkpt lat="44.79514" lon="5.3764">
        <ele>526</ele>
        <time>2012-04-09T12:37:43Z</time>
      </trkpt>
      <trkpt lat="44.79517" lon="5.37673">
        <ele>525</ele>
        <time>2012-04-09T12:37:51Z</time>
      </trkpt>
      <trkpt lat="44.79527" lon="5.37709">
        <ele>528</ele>
        <time>2012-04-09T12:37:59Z</time>
      </trkpt>
      <trkpt lat="44.79544" lon="5.37746">
        <ele>531</ele>
        <time>2012-04-09T12:38:08Z</time>
      </trkpt>
      <trkpt lat="44.79554" lon="5.37772">
        <ele>533</ele>
        <time>2012-04-09T12:38:14Z</time>
      </trkpt>
      <trkpt lat="44.79561" lon="5.37805">
        <ele>534</ele>
        <time>2012-04-09T12:38:21Z</time>
      </trkpt>
      <trkpt lat="44.79559" lon="5.37837">
        <ele>534</ele>
        <time>2012-04-09T12:38:28Z</time>
      </trkpt>
      <trkpt lat="44.79559" lon="5.37868">
        <ele>533</ele>
        <time>2012-04-09T12:38:35Z</time>
      </trkpt>
      <trkpt lat="44.79567" lon="5.37925">
        <ele>535</ele>
        <time>2012-04-09T12:38:47Z</time>
      </trkpt>
      <trkpt lat="44.79575" lon="5.37975">
        <ele>534</ele>
        <time>2012-04-09T12:38:56Z</time>
      </trkpt>
      <trkpt lat="44.79579" lon="5.38028">
        <ele>532</ele>
        <time>2012-04-09T12:39:05Z</time>
      </trkpt>
      <trkpt lat="44.7958" lon="5.38073">
        <ele>532</ele>
        <time>2012-04-09T12:39:13Z</time>
      </trkpt>
      <trkpt lat="44.7958" lon="5.38079">
        <ele>533</ele>
        <time>2012-04-09T12:39:14Z</time>
      </trkpt>
      <trkpt lat="44.79588" lon="5.38127">
        <ele>536</ele>
        <time>2012-04-09T12:39:22Z</time>
      </trkpt>
      <trkpt lat="44.79605" lon="5.38174">
        <ele>532</ele>
        <time>2012-04-09T12:39:31Z</time>
      </trkpt>
      <trkpt lat="44.79622" lon="5.38207">
        <ele>533</ele>
        <time>2012-04-09T12:39:38Z</time>
      </trkpt>
      <trkpt lat="44.79639" lon="5.38247">
        <ele>534</ele>
        <time>2012-04-09T12:39:46Z</time>
      </trkpt>
      <trkpt lat="44.79653" lon="5.3828">
        <ele>533</ele>
        <time>2012-04-09T12:39:53Z</time>
      </trkpt>
      <trkpt lat="44.79653" lon="5.3829">
        <ele>532</ele>
        <time>2012-04-09T12:39:57Z</time>
      </trkpt>
      <trkpt lat="44.79653" lon="5.38293">
        <ele>532</ele>
        <time>2012-04-09T12:40:03Z</time>
      </trkpt>
      <trkpt lat="44.79652" lon="5.38291">
        <ele>532</ele>
        <time>2012-04-09T12:40:45Z</time>
      </trkpt>
      <trkpt lat="44.7965" lon="5.38293">
        <ele>532</ele>
        <time>2012-04-09T12:41:32Z</time>
      </trkpt>
      <trkpt lat="44.79647" lon="5.38291">
        <ele>532</ele>
        <time>2012-04-09T12:41:38Z</time>
      </trkpt>
      <trkpt lat="44.79646" lon="5.3829">
        <ele>532</ele>
        <time>2012-04-09T12:41:44Z</time>
      </trkpt>
      <trkpt lat="44.79642" lon="5.38288">
        <ele>532</ele>
        <time>2012-04-09T12:42:47Z</time>
      </trkpt>
      <trkpt lat="44.79641" lon="5.38288">
        <ele>532</ele>
        <time>2012-04-09T12:42:57Z</time>
      </trkpt>
      <trkpt lat="44.79632" lon="5.38292">
        <ele>532</ele>
        <time>2012-04-09T12:43:03Z</time>
      </trkpt>
      <trkpt lat="44.79629" lon="5.38291">
        <ele>532</ele>
        <time>2012-04-09T12:43:04Z</time>
      </trkpt>
      <trkpt lat="44.79607" lon="5.3829">
        <ele>531</ele>
        <time>2012-04-09T12:43:11Z</time>
      </trkpt>
      <trkpt lat="44.79575" lon="5.38294">
        <ele>532</ele>
        <time>2012-04-09T12:43:18Z</time>
      </trkpt>
      <trkpt lat="44.79555" lon="5.38296">
        <ele>533</ele>
        <time>2012-04-09T12:43:22Z</time>
      </trkpt>
      <trkpt lat="44.79535" lon="5.38307">
        <ele>534</ele>
        <time>2012-04-09T12:43:27Z</time>
      </trkpt>
      <trkpt lat="44.79535" lon="5.38326">
        <ele>534</ele>
        <time>2012-04-09T12:43:31Z</time>
      </trkpt>
      <trkpt lat="44.79538" lon="5.38336">
        <ele>534</ele>
        <time>2012-04-09T12:43:33Z</time>
      </trkpt>
      <trkpt lat="44.79544" lon="5.38347">
        <ele>534</ele>
        <time>2012-04-09T12:43:35Z</time>
      </trkpt>
      <trkpt lat="44.79561" lon="5.38381">
        <ele>533</ele>
        <time>2012-04-09T12:43:42Z</time>
      </trkpt>
      <trkpt lat="44.79564" lon="5.38402">
        <ele>532</ele>
        <time>2012-04-09T12:43:47Z</time>
      </trkpt>
      <trkpt lat="44.79567" lon="5.3843">
        <ele>534</ele>
        <time>2012-04-09T12:43:55Z</time>
      </trkpt>
      <trkpt lat="44.79571" lon="5.38448">
        <ele>535</ele>
        <time>2012-04-09T12:44:01Z</time>
      </trkpt>
      <trkpt lat="44.79575" lon="5.38461">
        <ele>536</ele>
        <time>2012-04-09T12:44:07Z</time>
      </trkpt>
      <trkpt lat="44.7958" lon="5.38483">
        <ele>537</ele>
        <time>2012-04-09T12:44:18Z</time>
      </trkpt>
      <trkpt lat="44.79586" lon="5.38507">
        <ele>537</ele>
        <time>2012-04-09T12:44:30Z</time>
      </trkpt>
      <trkpt lat="44.79593" lon="5.38525">
        <ele>539</ele>
        <time>2012-04-09T12:44:40Z</time>
      </trkpt>
      <trkpt lat="44.79603" lon="5.3854">
        <ele>540</ele>
        <time>2012-04-09T12:44:50Z</time>
      </trkpt>
      <trkpt lat="44.79612" lon="5.38551">
        <ele>540</ele>
        <time>2012-04-09T12:44:59Z</time>
      </trkpt>
      <trkpt lat="44.79622" lon="5.38564">
        <ele>541</ele>
        <time>2012-04-09T12:45:09Z</time>
      </trkpt>
      <trkpt lat="44.79631" lon="5.38574">
        <ele>541</ele>
        <time>2012-04-09T12:45:18Z</time>
      </trkpt>
      <trkpt lat="44.79643" lon="5.38586">
        <ele>548</ele>
        <time>2012-04-09T12:45:28Z</time>
      </trkpt>
      <trkpt lat="44.79653" lon="5.38597">
        <ele>548</ele>
        <time>2012-04-09T12:45:37Z</time>
      </trkpt>
      <trkpt lat="44.79663" lon="5.38612">
        <ele>550</ele>
        <time>2012-04-09T12:45:47Z</time>
      </trkpt>
      <trkpt lat="44.79671" lon="5.38624">
        <ele>547</ele>
        <time>2012-04-09T12:45:55Z</time>
      </trkpt>
      <trkpt lat="44.79681" lon="5.3864">
        <ele>549</ele>
        <time>2012-04-09T12:46:04Z</time>
      </trkpt>
      <trkpt lat="44.79675" lon="5.38646">
        <ele>551</ele>
        <time>2012-04-09T12:46:10Z</time>
      </trkpt>
      <trkpt lat="44.79674" lon="5.38645">
        <ele>551</ele>
        <time>2012-04-09T12:46:11Z</time>
      </trkpt>
      <trkpt lat="44.79659" lon="5.38634">
        <ele>553</ele>
        <time>2012-04-09T12:46:20Z</time>
      </trkpt>
      <trkpt lat="44.7964" lon="5.38623">
        <ele>552</ele>
        <time>2012-04-09T12:46:30Z</time>
      </trkpt>
      <trkpt lat="44.79623" lon="5.3862">
        <ele>551</ele>
        <time>2012-04-09T12:46:38Z</time>
      </trkpt>
      <trkpt lat="44.7961" lon="5.38626">
        <ele>552</ele>
        <time>2012-04-09T12:46:44Z</time>
      </trkpt>
      <trkpt lat="44.79598" lon="5.38646">
        <ele>554</ele>
        <time>2012-04-09T12:46:51Z</time>
      </trkpt>
      <trkpt lat="44.79586" lon="5.38685">
        <ele>561</ele>
        <time>2012-04-09T12:47:01Z</time>
      </trkpt>
      <trkpt lat="44.79579" lon="5.38721">
        <ele>561</ele>
        <time>2012-04-09T12:47:10Z</time>
      </trkpt>
      <trkpt lat="44.7957" lon="5.38761">
        <ele>566</ele>
        <time>2012-04-09T12:47:20Z</time>
      </trkpt>
      <trkpt lat="44.79567" lon="5.38803">
        <ele>566</ele>
        <time>2012-04-09T12:47:30Z</time>
      </trkpt>
      <trkpt lat="44.79569" lon="5.38847">
        <ele>571</ele>
        <time>2012-04-09T12:47:40Z</time>
      </trkpt>
      <trkpt lat="44.79569" lon="5.38898">
        <ele>572</ele>
        <time>2012-04-09T12:47:51Z</time>
      </trkpt>
      <trkpt lat="44.79562" lon="5.38932">
        <ele>576</ele>
        <time>2012-04-09T12:47:59Z</time>
      </trkpt>
      <trkpt lat="44.79552" lon="5.38958">
        <ele>577</ele>
        <time>2012-04-09T12:48:05Z</time>
      </trkpt>
      <trkpt lat="44.79535" lon="5.38973">
        <ele>577</ele>
        <time>2012-04-09T12:48:10Z</time>
      </trkpt>
      <trkpt lat="44.79523" lon="5.38976">
        <ele>576</ele>
        <time>2012-04-09T12:48:13Z</time>
      </trkpt>
      <trkpt lat="44.79515" lon="5.3898">
        <ele>576</ele>
        <time>2012-04-09T12:48:15Z</time>
      </trkpt>
      <trkpt lat="44.79486" lon="5.39005">
        <ele>578</ele>
        <time>2012-04-09T12:48:22Z</time>
      </trkpt>
      <trkpt lat="44.79467" lon="5.39014">
        <ele>578</ele>
        <time>2012-04-09T12:48:26Z</time>
      </trkpt>
      <trkpt lat="44.7943" lon="5.39031">
        <ele>577</ele>
        <time>2012-04-09T12:48:35Z</time>
      </trkpt>
      <trkpt lat="44.79422" lon="5.39035">
        <ele>577</ele>
        <time>2012-04-09T12:48:37Z</time>
      </trkpt>
      <trkpt lat="44.79392" lon="5.39063">
        <ele>575</ele>
        <time>2012-04-09T12:48:46Z</time>
      </trkpt>
      <trkpt lat="44.79364" lon="5.3909">
        <ele>582</ele>
        <time>2012-04-09T12:48:55Z</time>
      </trkpt>
      <trkpt lat="44.7934" lon="5.39114">
        <ele>582</ele>
        <time>2012-04-09T12:49:03Z</time>
      </trkpt>
      <trkpt lat="44.79325" lon="5.39143">
        <ele>580</ele>
        <time>2012-04-09T12:49:10Z</time>
      </trkpt>
      <trkpt lat="44.79309" lon="5.39169">
        <ele>585</ele>
        <time>2012-04-09T12:49:17Z</time>
      </trkpt>
      <trkpt lat="44.79293" lon="5.39197">
        <ele>585</ele>
        <time>2012-04-09T12:49:25Z</time>
      </trkpt>
      <trkpt lat="44.79281" lon="5.39231">
        <ele>585</ele>
        <time>2012-04-09T12:49:33Z</time>
      </trkpt>
      <trkpt lat="44.79273" lon="5.39256">
        <ele>589</ele>
        <time>2012-04-09T12:49:39Z</time>
      </trkpt>
      <trkpt lat="44.79258" lon="5.3927">
        <ele>589</ele>
        <time>2012-04-09T12:49:46Z</time>
      </trkpt>
      <trkpt lat="44.7924" lon="5.39288">
        <ele>588</ele>
        <time>2012-04-09T12:49:54Z</time>
      </trkpt>
      <trkpt lat="44.79226" lon="5.39314">
        <ele>590</ele>
        <time>2012-04-09T12:50:02Z</time>
      </trkpt>
      <trkpt lat="44.79208" lon="5.39355">
        <ele>594</ele>
        <time>2012-04-09T12:50:13Z</time>
      </trkpt>
      <trkpt lat="44.7919" lon="5.39392">
        <ele>594</ele>
        <time>2012-04-09T12:50:23Z</time>
      </trkpt>
      <trkpt lat="44.79181" lon="5.39422">
        <ele>597</ele>
        <time>2012-04-09T12:50:31Z</time>
      </trkpt>
      <trkpt lat="44.79178" lon="5.39441">
        <ele>599</ele>
        <time>2012-04-09T12:50:36Z</time>
      </trkpt>
      <trkpt lat="44.79164" lon="5.39448">
        <ele>597</ele>
        <time>2012-04-09T12:50:41Z</time>
      </trkpt>
      <trkpt lat="44.79148" lon="5.39455">
        <ele>598</ele>
        <time>2012-04-09T12:50:49Z</time>
      </trkpt>
      <trkpt lat="44.79134" lon="5.3947">
        <ele>599</ele>
        <time>2012-04-09T12:50:57Z</time>
      </trkpt>
      <trkpt lat="44.79121" lon="5.39486">
        <ele>600</ele>
        <time>2012-04-09T12:51:04Z</time>
      </trkpt>
      <trkpt lat="44.7911" lon="5.39484">
        <ele>600</ele>
        <time>2012-04-09T12:51:08Z</time>
      </trkpt>
      <trkpt lat="44.791" lon="5.39469">
        <ele>600</ele>
        <time>2012-04-09T12:51:13Z</time>
      </trkpt>
      <trkpt lat="44.79089" lon="5.39453">
        <ele>600</ele>
        <time>2012-04-09T12:51:20Z</time>
      </trkpt>
      <trkpt lat="44.79076" lon="5.39446">
        <ele>606</ele>
        <time>2012-04-09T12:51:27Z</time>
      </trkpt>
      <trkpt lat="44.79057" lon="5.39439">
        <ele>607</ele>
        <time>2012-04-09T12:51:36Z</time>
      </trkpt>
      <trkpt lat="44.79044" lon="5.39438">
        <ele>608</ele>
        <time>2012-04-09T12:51:42Z</time>
      </trkpt>
      <trkpt lat="44.79041" lon="5.39442">
        <ele>608</ele>
        <time>2012-04-09T12:51:44Z</time>
      </trkpt>
      <trkpt lat="44.79045" lon="5.39453">
        <ele>608</ele>
        <time>2012-04-09T12:51:49Z</time>
      </trkpt>
      <trkpt lat="44.79059" lon="5.39457">
        <ele>607</ele>
        <time>2012-04-09T12:51:56Z</time>
      </trkpt>
      <trkpt lat="44.79073" lon="5.39466">
        <ele>606</ele>
        <time>2012-04-09T12:52:03Z</time>
      </trkpt>
      <trkpt lat="44.7908" lon="5.39485">
        <ele>605</ele>
        <time>2012-04-09T12:52:10Z</time>
      </trkpt>
      <trkpt lat="44.79076" lon="5.395">
        <ele>605</ele>
        <time>2012-04-09T12:52:15Z</time>
      </trkpt>
      <trkpt lat="44.79061" lon="5.39513">
        <ele>611</ele>
        <time>2012-04-09T12:52:23Z</time>
      </trkpt>
      <trkpt lat="44.79046" lon="5.39528">
        <ele>614</ele>
        <time>2012-04-09T12:52:32Z</time>
      </trkpt>
      <trkpt lat="44.79032" lon="5.39546">
        <ele>616</ele>
        <time>2012-04-09T12:52:41Z</time>
      </trkpt>
      <trkpt lat="44.79015" lon="5.39564">
        <ele>619</ele>
        <time>2012-04-09T12:52:51Z</time>
      </trkpt>
      <trkpt lat="44.79" lon="5.39574">
        <ele>625</ele>
        <time>2012-04-09T12:52:59Z</time>
      </trkpt>
      <trkpt lat="44.7899" lon="5.39584">
        <ele>627</ele>
        <time>2012-04-09T12:53:05Z</time>
      </trkpt>
      <trkpt lat="44.78991" lon="5.39602">
        <ele>629</ele>
        <time>2012-04-09T12:53:11Z</time>
      </trkpt>
      <trkpt lat="44.78993" lon="5.39605">
        <ele>629</ele>
        <time>2012-04-09T12:53:12Z</time>
      </trkpt>
      <trkpt lat="44.79011" lon="5.39619">
        <ele>624</ele>
        <time>2012-04-09T12:53:22Z</time>
      </trkpt>
      <trkpt lat="44.79026" lon="5.39628">
        <ele>624</ele>
        <time>2012-04-09T12:53:30Z</time>
      </trkpt>
      <trkpt lat="44.79029" lon="5.39645">
        <ele>625</ele>
        <time>2012-04-09T12:53:36Z</time>
      </trkpt>
      <trkpt lat="44.79025" lon="5.39662">
        <ele>626</ele>
        <time>2012-04-09T12:53:42Z</time>
      </trkpt>
      <trkpt lat="44.79025" lon="5.39686">
        <ele>630</ele>
        <time>2012-04-09T12:53:51Z</time>
      </trkpt>
      <trkpt lat="44.79027" lon="5.39713">
        <ele>631</ele>
        <time>2012-04-09T12:54:01Z</time>
      </trkpt>
      <trkpt lat="44.7902" lon="5.39731">
        <ele>632</ele>
        <time>2012-04-09T12:54:08Z</time>
      </trkpt>
      <trkpt lat="44.79015" lon="5.39754">
        <ele>634</ele>
        <time>2012-04-09T12:54:17Z</time>
      </trkpt>
      <trkpt lat="44.79018" lon="5.39771">
        <ele>633</ele>
        <time>2012-04-09T12:54:24Z</time>
      </trkpt>
      <trkpt lat="44.79022" lon="5.39786">
        <ele>633</ele>
        <time>2012-04-09T12:54:30Z</time>
      </trkpt>
      <trkpt lat="44.79023" lon="5.39795">
        <ele>633</ele>
        <time>2012-04-09T12:54:36Z</time>
      </trkpt>
      <trkpt lat="44.79024" lon="5.39802">
        <ele>633</ele>
        <time>2012-04-09T12:55:10Z</time>
      </trkpt>
      <trkpt lat="44.79027" lon="5.39809">
        <ele>632</ele>
        <time>2012-04-09T12:55:14Z</time>
      </trkpt>
      <trkpt lat="44.79023" lon="5.39813">
        <ele>632</ele>
        <time>2012-04-09T12:55:18Z</time>
      </trkpt>
      <trkpt lat="44.79016" lon="5.39807">
        <ele>632</ele>
        <time>2012-04-09T12:55:22Z</time>
      </trkpt>
      <trkpt lat="44.79003" lon="5.39791">
        <ele>633</ele>
        <time>2012-04-09T12:55:32Z</time>
      </trkpt>
      <trkpt lat="44.78991" lon="5.39775">
        <ele>637</ele>
        <time>2012-04-09T12:55:42Z</time>
      </trkpt>
      <trkpt lat="44.78978" lon="5.39757">
        <ele>638</ele>
        <time>2012-04-09T12:55:52Z</time>
      </trkpt>
      <trkpt lat="44.78968" lon="5.39742">
        <ele>640</ele>
        <time>2012-04-09T12:56:01Z</time>
      </trkpt>
      <trkpt lat="44.7896" lon="5.39725">
        <ele>641</ele>
        <time>2012-04-09T12:56:11Z</time>
      </trkpt>
      <trkpt lat="44.78951" lon="5.39708">
        <ele>641</ele>
        <time>2012-04-09T12:56:22Z</time>
      </trkpt>
      <trkpt lat="44.78942" lon="5.39704">
        <ele>641</ele>
        <time>2012-04-09T12:56:28Z</time>
      </trkpt>
      <trkpt lat="44.7893" lon="5.39709">
        <ele>642</ele>
        <time>2012-04-09T12:56:37Z</time>
      </trkpt>
      <trkpt lat="44.78919" lon="5.39715">
        <ele>643</ele>
        <time>2012-04-09T12:56:45Z</time>
      </trkpt>
      <trkpt lat="44.78915" lon="5.39719">
        <ele>652</ele>
        <time>2012-04-09T12:56:49Z</time>
      </trkpt>
      <trkpt lat="44.78917" lon="5.39733">
        <ele>647</ele>
        <time>2012-04-09T12:56:56Z</time>
      </trkpt>
      <trkpt lat="44.78923" lon="5.39742">
        <ele>649</ele>
        <time>2012-04-09T12:57:02Z</time>
      </trkpt>
      <trkpt lat="44.78929" lon="5.39756">
        <ele>647</ele>
        <time>2012-04-09T12:57:10Z</time>
      </trkpt>
      <trkpt lat="44.78926" lon="5.39766">
        <ele>645</ele>
        <time>2012-04-09T12:57:17Z</time>
      </trkpt>
      <trkpt lat="44.78917" lon="5.39769">
        <ele>646</ele>
        <time>2012-04-09T12:57:24Z</time>
      </trkpt>
      <trkpt lat="44.78905" lon="5.39771">
        <ele>653</ele>
        <time>2012-04-09T12:57:33Z</time>
      </trkpt>
      <trkpt lat="44.78895" lon="5.39769">
        <ele>654</ele>
        <time>2012-04-09T12:57:41Z</time>
      </trkpt>
      <trkpt lat="44.7888" lon="5.3977">
        <ele>655</ele>
        <time>2012-04-09T12:57:52Z</time>
      </trkpt>
      <trkpt lat="44.7887" lon="5.39776">
        <ele>656</ele>
        <time>2012-04-09T12:58:00Z</time>
      </trkpt>
      <trkpt lat="44.78856" lon="5.39784">
        <ele>656</ele>
        <time>2012-04-09T12:58:10Z</time>
      </trkpt>
      <trkpt lat="44.78841" lon="5.39787">
        <ele>657</ele>
        <time>2012-04-09T12:58:20Z</time>
      </trkpt>
      <trkpt lat="44.78825" lon="5.39786">
        <ele>670</ele>
        <time>2012-04-09T12:58:30Z</time>
      </trkpt>
      <trkpt lat="44.78808" lon="5.39781">
        <ele>671</ele>
        <time>2012-04-09T12:58:36Z</time>
      </trkpt>
      <trkpt lat="44.78794" lon="5.3977">
        <ele>673</ele>
        <time>2012-04-09T12:58:41Z</time>
      </trkpt>
      <trkpt lat="44.78779" lon="5.39756">
        <ele>676</ele>
        <time>2012-04-09T12:58:48Z</time>
      </trkpt>
      <trkpt lat="44.78767" lon="5.39737">
        <ele>675</ele>
        <time>2012-04-09T12:58:53Z</time>
      </trkpt>
      <trkpt lat="44.78761" lon="5.39719">
        <ele>673</ele>
        <time>2012-04-09T12:58:58Z</time>
      </trkpt>
      <trkpt lat="44.78761" lon="5.39701">
        <ele>671</ele>
        <time>2012-04-09T12:59:04Z</time>
      </trkpt>
      <trkpt lat="44.78756" lon="5.39678">
        <ele>671</ele>
        <time>2012-04-09T12:59:11Z</time>
      </trkpt>
      <trkpt lat="44.78741" lon="5.39671">
        <ele>676</ele>
        <time>2012-04-09T12:59:16Z</time>
      </trkpt>
      <trkpt lat="44.7872" lon="5.39667">
        <ele>680</ele>
        <time>2012-04-09T12:59:22Z</time>
      </trkpt>
      <trkpt lat="44.78696" lon="5.39656">
        <ele>675</ele>
        <time>2012-04-09T12:59:29Z</time>
      </trkpt>
      <trkpt lat="44.78682" lon="5.39641">
        <ele>675</ele>
        <time>2012-04-09T12:59:34Z</time>
      </trkpt>
      <trkpt lat="44.7867" lon="5.39618">
        <ele>674</ele>
        <time>2012-04-09T12:59:42Z</time>
      </trkpt>
      <trkpt lat="44.78658" lon="5.39598">
        <ele>682</ele>
        <time>2012-04-09T12:59:50Z</time>
      </trkpt>
      <trkpt lat="44.78648" lon="5.39584">
        <ele>682</ele>
        <time>2012-04-09T12:59:57Z</time>
      </trkpt>
      <trkpt lat="44.78646" lon="5.39582">
        <ele>678</ele>
        <time>2012-04-09T12:59:59Z</time>
      </trkpt>
      <trkpt lat="44.7864" lon="5.39584">
        <ele>684</ele>
        <time>2012-04-09T13:00:03Z</time>
      </trkpt>
      <trkpt lat="44.78638" lon="5.39585">
        <ele>685</ele>
        <time>2012-04-09T13:00:08Z</time>
      </trkpt>
      <trkpt lat="44.78633" lon="5.39587">
        <ele>686</ele>
        <time>2012-04-09T13:00:14Z</time>
      </trkpt>
      <trkpt lat="44.78621" lon="5.3959">
        <ele>688</ele>
        <time>2012-04-09T13:00:22Z</time>
      </trkpt>
      <trkpt lat="44.78611" lon="5.39594">
        <ele>689</ele>
        <time>2012-04-09T13:00:29Z</time>
      </trkpt>
      <trkpt lat="44.786" lon="5.39593">
        <ele>691</ele>
        <time>2012-04-09T13:00:37Z</time>
      </trkpt>
      <trkpt lat="44.78594" lon="5.39587">
        <ele>691</ele>
        <time>2012-04-09T13:00:43Z</time>
      </trkpt>
      <trkpt lat="44.78587" lon="5.39576">
        <ele>689</ele>
        <time>2012-04-09T13:00:50Z</time>
      </trkpt>
      <trkpt lat="44.78578" lon="5.39567">
        <ele>696</ele>
        <time>2012-04-09T13:00:57Z</time>
      </trkpt>
      <trkpt lat="44.7857" lon="5.39559">
        <ele>698</ele>
        <time>2012-04-09T13:01:03Z</time>
      </trkpt>
      <trkpt lat="44.78559" lon="5.39548">
        <ele>699</ele>
        <time>2012-04-09T13:01:10Z</time>
      </trkpt>
      <trkpt lat="44.78553" lon="5.3954">
        <ele>700</ele>
        <time>2012-04-09T13:01:16Z</time>
      </trkpt>
      <trkpt lat="44.78545" lon="5.39528">
        <ele>700</ele>
        <time>2012-04-09T13:01:23Z</time>
      </trkpt>
      <trkpt lat="44.78537" lon="5.39509">
        <ele>701</ele>
        <time>2012-04-09T13:01:32Z</time>
      </trkpt>
      <trkpt lat="44.7853" lon="5.39496">
        <ele>698</ele>
        <time>2012-04-09T13:01:37Z</time>
      </trkpt>
      <trkpt lat="44.78525" lon="5.39485">
        <ele>699</ele>
        <time>2012-04-09T13:01:43Z</time>
      </trkpt>
      <trkpt lat="44.78523" lon="5.39469">
        <ele>698</ele>
        <time>2012-04-09T13:01:50Z</time>
      </trkpt>
      <trkpt lat="44.78518" lon="5.39455">
        <ele>698</ele>
        <time>2012-04-09T13:01:57Z</time>
      </trkpt>
      <trkpt lat="44.78513" lon="5.39438">
        <ele>698</ele>
        <time>2012-04-09T13:02:05Z</time>
      </trkpt>
      <trkpt lat="44.78511" lon="5.39426">
        <ele>699</ele>
        <time>2012-04-09T13:02:11Z</time>
      </trkpt>
      <trkpt lat="44.78511" lon="5.39425">
        <ele>700</ele>
        <time>2012-04-09T13:02:12Z</time>
      </trkpt>
      <trkpt lat="44.78501" lon="5.39419">
        <ele>702</ele>
        <time>2012-04-09T13:02:21Z</time>
      </trkpt>
      <trkpt lat="44.78491" lon="5.39417">
        <ele>707</ele>
        <time>2012-04-09T13:02:29Z</time>
      </trkpt>
      <trkpt lat="44.78481" lon="5.39412">
        <ele>710</ele>
        <time>2012-04-09T13:02:37Z</time>
      </trkpt>
      <trkpt lat="44.78473" lon="5.39412">
        <ele>711</ele>
        <time>2012-04-09T13:02:44Z</time>
      </trkpt>
      <trkpt lat="44.78465" lon="5.39413">
        <ele>713</ele>
        <time>2012-04-09T13:02:50Z</time>
      </trkpt>
      <trkpt lat="44.78464" lon="5.39413">
        <ele>713</ele>
        <time>2012-04-09T13:02:51Z</time>
      </trkpt>
      <trkpt lat="44.78457" lon="5.39407">
        <ele>714</ele>
        <time>2012-04-09T13:02:57Z</time>
      </trkpt>
      <trkpt lat="44.78456" lon="5.39403">
        <ele>715</ele>
        <time>2012-04-09T13:03:04Z</time>
      </trkpt>
      <trkpt lat="44.78456" lon="5.39398">
        <ele>714</ele>
        <time>2012-04-09T13:03:32Z</time>
      </trkpt>
      <trkpt lat="44.78456" lon="5.39386">
        <ele>715</ele>
        <time>2012-04-09T13:03:40Z</time>
      </trkpt>
      <trkpt lat="44.78456" lon="5.39385">
        <ele>714</ele>
        <time>2012-04-09T13:03:41Z</time>
      </trkpt>
      <trkpt lat="44.78459" lon="5.39373">
        <ele>714</ele>
        <time>2012-04-09T13:03:51Z</time>
      </trkpt>
      <trkpt lat="44.78459" lon="5.39364">
        <ele>714</ele>
        <time>2012-04-09T13:03:59Z</time>
      </trkpt>
      <trkpt lat="44.78459" lon="5.39362">
        <ele>714</ele>
        <time>2012-04-09T13:04:01Z</time>
      </trkpt>
      <trkpt lat="44.78453" lon="5.39356">
        <ele>715</ele>
        <time>2012-04-09T13:04:10Z</time>
      </trkpt>
      <trkpt lat="44.78448" lon="5.39351">
        <ele>716</ele>
        <time>2012-04-09T13:04:16Z</time>
      </trkpt>
      <trkpt lat="44.78442" lon="5.39349">
        <ele>717</ele>
        <time>2012-04-09T13:04:22Z</time>
      </trkpt>
      <trkpt lat="44.78434" lon="5.3935">
        <ele>718</ele>
        <time>2012-04-09T13:04:29Z</time>
      </trkpt>
      <trkpt lat="44.78429" lon="5.39352">
        <ele>718</ele>
        <time>2012-04-09T13:04:36Z</time>
      </trkpt>
      <trkpt lat="44.78423" lon="5.39354">
        <ele>719</ele>
        <time>2012-04-09T13:04:46Z</time>
      </trkpt>
      <trkpt lat="44.78415" lon="5.39354">
        <ele>731</ele>
        <time>2012-04-09T13:04:51Z</time>
      </trkpt>
      <trkpt lat="44.78406" lon="5.39347">
        <ele>731</ele>
        <time>2012-04-09T13:04:58Z</time>
      </trkpt>
      <trkpt lat="44.78398" lon="5.39341">
        <ele>732</ele>
        <time>2012-04-09T13:05:04Z</time>
      </trkpt>
      <trkpt lat="44.78387" lon="5.39333">
        <ele>733</ele>
        <time>2012-04-09T13:05:11Z</time>
      </trkpt>
      <trkpt lat="44.78379" lon="5.39322">
        <ele>735</ele>
        <time>2012-04-09T13:05:18Z</time>
      </trkpt>
      <trkpt lat="44.78378" lon="5.3932">
        <ele>735</ele>
        <time>2012-04-09T13:05:19Z</time>
      </trkpt>
      <trkpt lat="44.78375" lon="5.39308">
        <ele>736</ele>
        <time>2012-04-09T13:05:26Z</time>
      </trkpt>
      <trkpt lat="44.78375" lon="5.39307">
        <ele>736</ele>
        <time>2012-04-09T13:05:31Z</time>
      </trkpt>
      <trkpt lat="44.78375" lon="5.39307">
        <ele>736</ele>
        <time>2012-04-09T13:05:46Z</time>
      </trkpt>
      <trkpt lat="44.78368" lon="5.39304">
        <ele>737</ele>
        <time>2012-04-09T13:05:55Z</time>
      </trkpt>
      <trkpt lat="44.78365" lon="5.39301">
        <ele>737</ele>
        <time>2012-04-09T13:06:00Z</time>
      </trkpt>
      <trkpt lat="44.7836" lon="5.39296">
        <ele>737</ele>
        <time>2012-04-09T13:06:07Z</time>
      </trkpt>
      <trkpt lat="44.78357" lon="5.3929">
        <ele>738</ele>
        <time>2012-04-09T13:06:13Z</time>
      </trkpt>
      <trkpt lat="44.78355" lon="5.39281">
        <ele>738</ele>
        <time>2012-04-09T13:06:21Z</time>
      </trkpt>
      <trkpt lat="44.7835" lon="5.39276">
        <ele>739</ele>
        <time>2012-04-09T13:06:27Z</time>
      </trkpt>
      <trkpt lat="44.78347" lon="5.39274">
        <ele>739</ele>
        <time>2012-04-09T13:06:31Z</time>
      </trkpt>
      <trkpt lat="44.7834" lon="5.39267">
        <ele>740</ele>
        <time>2012-04-09T13:06:40Z</time>
      </trkpt>
      <trkpt lat="44.78338" lon="5.39263">
        <ele>740</ele>
        <time>2012-04-09T13:06:45Z</time>
      </trkpt>
      <trkpt lat="44.78336" lon="5.39259">
        <ele>741</ele>
        <time>2012-04-09T13:06:50Z</time>
      </trkpt>
      <trkpt lat="44.78336" lon="5.39258">
        <ele>741</ele>
        <time>2012-04-09T13:06:51Z</time>
      </trkpt>
      <trkpt lat="44.78335" lon="5.39255">
        <ele>742</ele>
        <time>2012-04-09T13:06:56Z</time>
      </trkpt>
      <trkpt lat="44.78334" lon="5.39251">
        <ele>743</ele>
        <time>2012-04-09T13:07:02Z</time>
      </trkpt>
      <trkpt lat="44.78333" lon="5.39248">
        <ele>745</ele>
        <time>2012-04-09T13:07:07Z</time>
      </trkpt>
      <trkpt lat="44.78331" lon="5.39244">
        <ele>747</ele>
        <time>2012-04-09T13:07:12Z</time>
      </trkpt>
      <trkpt lat="44.7833" lon="5.39234">
        <ele>751</ele>
        <time>2012-04-09T13:07:22Z</time>
      </trkpt>
      <trkpt lat="44.78328" lon="5.39224">
        <ele>754</ele>
        <time>2012-04-09T13:07:31Z</time>
      </trkpt>
      <trkpt lat="44.78329" lon="5.39222">
        <ele>754</ele>
        <time>2012-04-09T13:07:50Z</time>
      </trkpt>
      <trkpt lat="44.78327" lon="5.39223">
        <ele>754</ele>
        <time>2012-04-09T13:07:56Z</time>
      </trkpt>
      <trkpt lat="44.78326" lon="5.39223">
        <ele>754</ele>
        <time>2012-04-09T13:07:59Z</time>
      </trkpt>
      <trkpt lat="44.78321" lon="5.39214">
        <ele>756</ele>
        <time>2012-04-09T13:08:08Z</time>
      </trkpt>
      <trkpt lat="44.78315" lon="5.39209">
        <ele>757</ele>
        <time>2012-04-09T13:08:17Z</time>
      </trkpt>
      <trkpt lat="44.78311" lon="5.39206">
        <ele>758</ele>
        <time>2012-04-09T13:08:25Z</time>
      </trkpt>
      <trkpt lat="44.78307" lon="5.39203">
        <ele>759</ele>
        <time>2012-04-09T13:08:31Z</time>
      </trkpt>
      <trkpt lat="44.783" lon="5.39199">
        <ele>760</ele>
        <time>2012-04-09T13:08:41Z</time>
      </trkpt>
      <trkpt lat="44.78296" lon="5.39197">
        <ele>760</ele>
        <time>2012-04-09T13:08:48Z</time>
      </trkpt>
      <trkpt lat="44.78291" lon="5.39193">
        <ele>761</ele>
        <time>2012-04-09T13:08:56Z</time>
      </trkpt>
      <trkpt lat="44.78288" lon="5.39187">
        <ele>762</ele>
        <time>2012-04-09T13:09:02Z</time>
      </trkpt>
      <trkpt lat="44.78286" lon="5.39183">
        <ele>762</ele>
        <time>2012-04-09T13:09:07Z</time>
      </trkpt>
      <trkpt lat="44.78284" lon="5.39178">
        <ele>762</ele>
        <time>2012-04-09T13:09:12Z</time>
      </trkpt>
      <trkpt lat="44.78283" lon="5.39173">
        <ele>763</ele>
        <time>2012-04-09T13:09:17Z</time>
      </trkpt>
      <trkpt lat="44.78282" lon="5.39172">
        <ele>763</ele>
        <time>2012-04-09T13:09:18Z</time>
      </trkpt>
      <trkpt lat="44.78281" lon="5.39166">
        <ele>770</ele>
        <time>2012-04-09T13:09:24Z</time>
      </trkpt>
      <trkpt lat="44.78278" lon="5.3916">
        <ele>771</ele>
        <time>2012-04-09T13:09:30Z</time>
      </trkpt>
      <trkpt lat="44.78271" lon="5.39155">
        <ele>771</ele>
        <time>2012-04-09T13:09:41Z</time>
      </trkpt>
      <trkpt lat="44.78266" lon="5.39149">
        <ele>771</ele>
        <time>2012-04-09T13:09:50Z</time>
      </trkpt>
      <trkpt lat="44.78264" lon="5.39147">
        <ele>771</ele>
        <time>2012-04-09T13:09:55Z</time>
      </trkpt>
      <trkpt lat="44.7826" lon="5.39146">
        <ele>772</ele>
        <time>2012-04-09T13:10:05Z</time>
      </trkpt>
      <trkpt lat="44.78257" lon="5.39146">
        <ele>772</ele>
        <time>2012-04-09T13:10:14Z</time>
      </trkpt>
      <trkpt lat="44.78256" lon="5.39146">
        <ele>772</ele>
        <time>2012-04-09T13:10:16Z</time>
      </trkpt>
      <trkpt lat="44.78256" lon="5.39143">
        <ele>772</ele>
        <time>2012-04-09T13:10:23Z</time>
      </trkpt>
      <trkpt lat="44.78257" lon="5.39138">
        <ele>772</ele>
        <time>2012-04-09T13:16:37Z</time>
      </trkpt>
      <trkpt lat="44.78253" lon="5.39133">
        <ele>772</ele>
        <time>2012-04-09T13:17:23Z</time>
      </trkpt>
      <trkpt lat="44.78245" lon="5.39133">
        <ele>767</ele>
        <time>2012-04-09T13:17:27Z</time>
      </trkpt>
      <trkpt lat="44.7823" lon="5.39122">
        <ele>766</ele>
        <time>2012-04-09T13:17:32Z</time>
      </trkpt>
      <trkpt lat="44.7822" lon="5.39106">
        <ele>765</ele>
        <time>2012-04-09T13:17:36Z</time>
      </trkpt>
      <trkpt lat="44.78206" lon="5.391">
        <ele>763</ele>
        <time>2012-04-09T13:17:41Z</time>
      </trkpt>
      <trkpt lat="44.78194" lon="5.39099">
        <ele>760</ele>
        <time>2012-04-09T13:17:44Z</time>
      </trkpt>
      <trkpt lat="44.78185" lon="5.39091">
        <ele>757</ele>
        <time>2012-04-09T13:17:47Z</time>
      </trkpt>
      <trkpt lat="44.78181" lon="5.39086">
        <ele>756</ele>
        <time>2012-04-09T13:17:51Z</time>
      </trkpt>
      <trkpt lat="44.78183" lon="5.39083">
        <ele>756</ele>
        <time>2012-04-09T13:17:57Z</time>
      </trkpt>
      <trkpt lat="44.78186" lon="5.39085">
        <ele>757</ele>
        <time>2012-04-09T13:18:04Z</time>
      </trkpt>
      <trkpt lat="44.78188" lon="5.39089">
        <ele>758</ele>
        <time>2012-04-09T13:18:10Z</time>
      </trkpt>
      <trkpt lat="44.78187" lon="5.39088">
        <ele>758</ele>
        <time>2012-04-09T13:18:13Z</time>
      </trkpt>
      <trkpt lat="44.78181" lon="5.39085">
        <ele>755</ele>
        <time>2012-04-09T13:18:19Z</time>
      </trkpt>
      <trkpt lat="44.78174" lon="5.39085">
        <ele>753</ele>
        <time>2012-04-09T13:18:23Z</time>
      </trkpt>
      <trkpt lat="44.78167" lon="5.39081">
        <ele>751</ele>
        <time>2012-04-09T13:18:26Z</time>
      </trkpt>
      <trkpt lat="44.78155" lon="5.39088">
        <ele>741</ele>
        <time>2012-04-09T13:18:31Z</time>
      </trkpt>
      <trkpt lat="44.78153" lon="5.39089">
        <ele>740</ele>
        <time>2012-04-09T13:18:35Z</time>
      </trkpt>
      <trkpt lat="44.78152" lon="5.39089">
        <ele>740</ele>
        <time>2012-04-09T13:18:36Z</time>
      </trkpt>
      <trkpt lat="44.78143" lon="5.39096">
        <ele>736</ele>
        <time>2012-04-09T13:18:43Z</time>
      </trkpt>
      <trkpt lat="44.78133" lon="5.39109">
        <ele>732</ele>
        <time>2012-04-09T13:18:50Z</time>
      </trkpt>
      <trkpt lat="44.7813" lon="5.39128">
        <ele>732</ele>
        <time>2012-04-09T13:18:58Z</time>
      </trkpt>
      <trkpt lat="44.78136" lon="5.39151">
        <ele>735</ele>
        <time>2012-04-09T13:19:05Z</time>
      </trkpt>
      <trkpt lat="44.78135" lon="5.39172">
        <ele>739</ele>
        <time>2012-04-09T13:19:11Z</time>
      </trkpt>
      <trkpt lat="44.78138" lon="5.3919">
        <ele>740</ele>
        <time>2012-04-09T13:19:16Z</time>
      </trkpt>
      <trkpt lat="44.78136" lon="5.39213">
        <ele>739</ele>
        <time>2012-04-09T13:19:22Z</time>
      </trkpt>
      <trkpt lat="44.78135" lon="5.39231">
        <ele>740</ele>
        <time>2012-04-09T13:19:27Z</time>
      </trkpt>
      <trkpt lat="44.78136" lon="5.39243">
        <ele>741</ele>
        <time>2012-04-09T13:19:31Z</time>
      </trkpt>
      <trkpt lat="44.78136" lon="5.39263">
        <ele>742</ele>
        <time>2012-04-09T13:19:37Z</time>
      </trkpt>
      <trkpt lat="44.78138" lon="5.39279">
        <ele>742</ele>
        <time>2012-04-09T13:19:43Z</time>
      </trkpt>
      <trkpt lat="44.78141" lon="5.39295">
        <ele>742</ele>
        <time>2012-04-09T13:19:49Z</time>
      </trkpt>
      <trkpt lat="44.78145" lon="5.39315">
        <ele>745</ele>
        <time>2012-04-09T13:19:56Z</time>
      </trkpt>
      <trkpt lat="44.78149" lon="5.39331">
        <ele>748</ele>
        <time>2012-04-09T13:20:02Z</time>
      </trkpt>
      <trkpt lat="44.78154" lon="5.39345">
        <ele>748</ele>
        <time>2012-04-09T13:20:07Z</time>
      </trkpt>
      <trkpt lat="44.78154" lon="5.39351">
        <ele>747</ele>
        <time>2012-04-09T13:20:09Z</time>
      </trkpt>
      <trkpt lat="44.78159" lon="5.3937">
        <ele>744</ele>
        <time>2012-04-09T13:20:15Z</time>
      </trkpt>
      <trkpt lat="44.78163" lon="5.39382">
        <ele>744</ele>
        <time>2012-04-09T13:20:19Z</time>
      </trkpt>
      <trkpt lat="44.78164" lon="5.39394">
        <ele>746</ele>
        <time>2012-04-09T13:20:24Z</time>
      </trkpt>
      <trkpt lat="44.78166" lon="5.39411">
        <ele>753</ele>
        <time>2012-04-09T13:20:30Z</time>
      </trkpt>
      <trkpt lat="44.78168" lon="5.3943">
        <ele>764</ele>
        <time>2012-04-09T13:20:36Z</time>
      </trkpt>
      <trkpt lat="44.78171" lon="5.39447">
        <ele>768</ele>
        <time>2012-04-09T13:20:42Z</time>
      </trkpt>
      <trkpt lat="44.78171" lon="5.39458">
        <ele>769</ele>
        <time>2012-04-09T13:20:46Z</time>
      </trkpt>
      <trkpt lat="44.78173" lon="5.39482">
        <ele>766</ele>
        <time>2012-04-09T13:20:54Z</time>
      </trkpt>
      <trkpt lat="44.78174" lon="5.395">
        <ele>761</ele>
        <time>2012-04-09T13:21:01Z</time>
      </trkpt>
      <trkpt lat="44.78178" lon="5.39515">
        <ele>771</ele>
        <time>2012-04-09T13:21:06Z</time>
      </trkpt>
      <trkpt lat="44.78178" lon="5.39535">
        <ele>777</ele>
        <time>2012-04-09T13:21:12Z</time>
      </trkpt>
      <trkpt lat="44.78177" lon="5.39546">
        <ele>779</ele>
        <time>2012-04-09T13:21:16Z</time>
      </trkpt>
      <trkpt lat="44.78168" lon="5.39554">
        <ele>779</ele>
        <time>2012-04-09T13:21:21Z</time>
      </trkpt>
      <trkpt lat="44.7816" lon="5.39562">
        <ele>760</ele>
        <time>2012-04-09T13:21:25Z</time>
      </trkpt>
      <trkpt lat="44.78152" lon="5.39564">
        <ele>759</ele>
        <time>2012-04-09T13:21:30Z</time>
      </trkpt>
      <trkpt lat="44.78138" lon="5.39566">
        <ele>756</ele>
        <time>2012-04-09T13:21:36Z</time>
      </trkpt>
      <trkpt lat="44.78125" lon="5.39578">
        <ele>754</ele>
        <time>2012-04-09T13:21:42Z</time>
      </trkpt>
      <trkpt lat="44.78115" lon="5.39587">
        <ele>769</ele>
        <time>2012-04-09T13:21:48Z</time>
      </trkpt>
      <trkpt lat="44.78104" lon="5.39597">
        <ele>766</ele>
        <time>2012-04-09T13:21:54Z</time>
      </trkpt>
      <trkpt lat="44.7809" lon="5.39607">
        <ele>766</ele>
        <time>2012-04-09T13:22:00Z</time>
      </trkpt>
      <trkpt lat="44.78083" lon="5.39615">
        <ele>769</ele>
        <time>2012-04-09T13:22:04Z</time>
      </trkpt>
      <trkpt lat="44.78074" lon="5.39624">
        <ele>752</ele>
        <time>2012-04-09T13:22:09Z</time>
      </trkpt>
      <trkpt lat="44.78066" lon="5.39628">
        <ele>751</ele>
        <time>2012-04-09T13:22:13Z</time>
      </trkpt>
      <trkpt lat="44.78065" lon="5.3963">
        <ele>752</ele>
        <time>2012-04-09T13:22:14Z</time>
      </trkpt>
      <trkpt lat="44.78051" lon="5.39643">
        <ele>751</ele>
        <time>2012-04-09T13:22:20Z</time>
      </trkpt>
      <trkpt lat="44.78041" lon="5.39649">
        <ele>749</ele>
        <time>2012-04-09T13:22:23Z</time>
      </trkpt>
      <trkpt lat="44.78025" lon="5.3968">
        <ele>758</ele>
        <time>2012-04-09T13:22:28Z</time>
      </trkpt>
      <trkpt lat="44.78028" lon="5.39697">
        <ele>762</ele>
        <time>2012-04-09T13:22:32Z</time>
      </trkpt>
      <trkpt lat="44.78031" lon="5.39702">
        <ele>763</ele>
        <time>2012-04-09T13:22:34Z</time>
      </trkpt>
      <trkpt lat="44.78032" lon="5.3972">
        <ele>766</ele>
        <time>2012-04-09T13:22:38Z</time>
      </trkpt>
      <trkpt lat="44.78028" lon="5.39732">
        <ele>765</ele>
        <time>2012-04-09T13:22:43Z</time>
      </trkpt>
      <trkpt lat="44.78023" lon="5.39742">
        <ele>763</ele>
        <time>2012-04-09T13:22:46Z</time>
      </trkpt>
      <trkpt lat="44.78028" lon="5.39753">
        <ele>775</ele>
        <time>2012-04-09T13:22:50Z</time>
      </trkpt>
      <trkpt lat="44.78021" lon="5.39759">
        <ele>772</ele>
        <time>2012-04-09T13:22:54Z</time>
      </trkpt>
      <trkpt lat="44.78017" lon="5.39767">
        <ele>772</ele>
        <time>2012-04-09T13:22:58Z</time>
      </trkpt>
      <trkpt lat="44.78008" lon="5.39765">
        <ele>767</ele>
        <time>2012-04-09T13:23:01Z</time>
      </trkpt>
      <trkpt lat="44.78004" lon="5.39774">
        <ele>770</ele>
        <time>2012-04-09T13:23:04Z</time>
      </trkpt>
      <trkpt lat="44.77993" lon="5.39786">
        <ele>753</ele>
        <time>2012-04-09T13:23:09Z</time>
      </trkpt>
      <trkpt lat="44.77979" lon="5.39789">
        <ele>753</ele>
        <time>2012-04-09T13:23:13Z</time>
      </trkpt>
      <trkpt lat="44.77961" lon="5.39785">
        <ele>751</ele>
        <time>2012-04-09T13:23:17Z</time>
      </trkpt>
      <trkpt lat="44.77949" lon="5.39783">
        <ele>749</ele>
        <time>2012-04-09T13:23:19Z</time>
      </trkpt>
      <trkpt lat="44.77933" lon="5.39783">
        <ele>748</ele>
        <time>2012-04-09T13:23:23Z</time>
      </trkpt>
      <trkpt lat="44.7792" lon="5.39787">
        <ele>747</ele>
        <time>2012-04-09T13:23:26Z</time>
      </trkpt>
      <trkpt lat="44.77911" lon="5.39798">
        <ele>745</ele>
        <time>2012-04-09T13:23:29Z</time>
      </trkpt>
      <trkpt lat="44.77898" lon="5.39796">
        <ele>745</ele>
        <time>2012-04-09T13:23:34Z</time>
      </trkpt>
      <trkpt lat="44.77887" lon="5.39782">
        <ele>743</ele>
        <time>2012-04-09T13:23:37Z</time>
      </trkpt>
      <trkpt lat="44.77876" lon="5.39767">
        <ele>743</ele>
        <time>2012-04-09T13:23:41Z</time>
      </trkpt>
      <trkpt lat="44.77883" lon="5.39767">
        <ele>742</ele>
        <time>2012-04-09T13:23:45Z</time>
      </trkpt>
      <trkpt lat="44.77892" lon="5.39772">
        <ele>742</ele>
        <time>2012-04-09T13:23:47Z</time>
      </trkpt>
      <trkpt lat="44.779" lon="5.39777">
        <ele>742</ele>
        <time>2012-04-09T13:23:50Z</time>
      </trkpt>
      <trkpt lat="44.77888" lon="5.39763">
        <ele>742</ele>
        <time>2012-04-09T13:23:54Z</time>
      </trkpt>
      <trkpt lat="44.77881" lon="5.39753">
        <ele>742</ele>
        <time>2012-04-09T13:23:58Z</time>
      </trkpt>
      <trkpt lat="44.77875" lon="5.39749">
        <ele>732</ele>
        <time>2012-04-09T13:24:04Z</time>
      </trkpt>
      <trkpt lat="44.77871" lon="5.39746">
        <ele>732</ele>
        <time>2012-04-09T13:24:05Z</time>
      </trkpt>
      <trkpt lat="44.77851" lon="5.39728">
        <ele>732</ele>
        <time>2012-04-09T13:24:09Z</time>
      </trkpt>
      <trkpt lat="44.77841" lon="5.39717">
        <ele>731</ele>
        <time>2012-04-09T13:24:11Z</time>
      </trkpt>
      <trkpt lat="44.77818" lon="5.39691">
        <ele>727</ele>
        <time>2012-04-09T13:24:15Z</time>
      </trkpt>
      <trkpt lat="44.77784" lon="5.39641">
        <ele>722</ele>
        <time>2012-04-09T13:24:21Z</time>
      </trkpt>
      <trkpt lat="44.77773" lon="5.39624">
        <ele>723</ele>
        <time>2012-04-09T13:24:23Z</time>
      </trkpt>
      <trkpt lat="44.77778" lon="5.39596">
        <ele>723</ele>
        <time>2012-04-09T13:24:27Z</time>
      </trkpt>
      <trkpt lat="44.77777" lon="5.39575">
        <ele>722</ele>
        <time>2012-04-09T13:24:29Z</time>
      </trkpt>
      <trkpt lat="44.7779" lon="5.39576">
        <ele>719</ele>
        <time>2012-04-09T13:24:33Z</time>
      </trkpt>
      <trkpt lat="44.77793" lon="5.39584">
        <ele>720</ele>
        <time>2012-04-09T13:24:34Z</time>
      </trkpt>
      <trkpt lat="44.77798" lon="5.39598">
        <ele>720</ele>
        <time>2012-04-09T13:24:36Z</time>
      </trkpt>
      <trkpt lat="44.77805" lon="5.39599">
        <ele>718</ele>
        <time>2012-04-09T13:24:40Z</time>
      </trkpt>
      <trkpt lat="44.77803" lon="5.39578">
        <ele>716</ele>
        <time>2012-04-09T13:24:43Z</time>
      </trkpt>
      <trkpt lat="44.77803" lon="5.39572">
        <ele>716</ele>
        <time>2012-04-09T13:24:44Z</time>
      </trkpt>
      <trkpt lat="44.77806" lon="5.39549">
        <ele>716</ele>
        <time>2012-04-09T13:24:46Z</time>
      </trkpt>
      <trkpt lat="44.7781" lon="5.39496">
        <ele>710</ele>
        <time>2012-04-09T13:24:51Z</time>
      </trkpt>
      <trkpt lat="44.77819" lon="5.39428">
        <ele>705</ele>
        <time>2012-04-09T13:24:55Z</time>
      </trkpt>
      <trkpt lat="44.7782" lon="5.39402">
        <ele>703</ele>
        <time>2012-04-09T13:24:57Z</time>
      </trkpt>
      <trkpt lat="44.7782" lon="5.39359">
        <ele>702</ele>
        <time>2012-04-09T13:25:00Z</time>
      </trkpt>
      <trkpt lat="44.77819" lon="5.39346">
        <ele>699</ele>
        <time>2012-04-09T13:25:01Z</time>
      </trkpt>
      <trkpt lat="44.77821" lon="5.39335">
        <ele>696</ele>
        <time>2012-04-09T13:25:05Z</time>
      </trkpt>
      <trkpt lat="44.77824" lon="5.39342">
        <ele>696</ele>
        <time>2012-04-09T13:25:07Z</time>
      </trkpt>
      <trkpt lat="44.77844" lon="5.39383">
        <ele>682</ele>
        <time>2012-04-09T13:25:12Z</time>
      </trkpt>
      <trkpt lat="44.7785" lon="5.39398">
        <ele>683</ele>
        <time>2012-04-09T13:25:14Z</time>
      </trkpt>
      <trkpt lat="44.77856" lon="5.39397">
        <ele>682</ele>
        <time>2012-04-09T13:25:18Z</time>
      </trkpt>
      <trkpt lat="44.77856" lon="5.39391">
        <ele>681</ele>
        <time>2012-04-09T13:25:19Z</time>
      </trkpt>
      <trkpt lat="44.77857" lon="5.39378">
        <ele>680</ele>
        <time>2012-04-09T13:25:21Z</time>
      </trkpt>
      <trkpt lat="44.77858" lon="5.39345">
        <ele>680</ele>
        <time>2012-04-09T13:25:24Z</time>
      </trkpt>
      <trkpt lat="44.77859" lon="5.39284">
        <ele>669</ele>
        <time>2012-04-09T13:25:28Z</time>
      </trkpt>
      <trkpt lat="44.7786" lon="5.39207">
        <ele>656</ele>
        <time>2012-04-09T13:25:34Z</time>
      </trkpt>
      <trkpt lat="44.77844" lon="5.3916">
        <ele>653</ele>
        <time>2012-04-09T13:25:38Z</time>
      </trkpt>
      <trkpt lat="44.77812" lon="5.39101">
        <ele>658</ele>
        <time>2012-04-09T13:25:44Z</time>
      </trkpt>
      <trkpt lat="44.77803" lon="5.39091">
        <ele>660</ele>
        <time>2012-04-09T13:25:46Z</time>
      </trkpt>
      <trkpt lat="44.77785" lon="5.39054">
        <ele>647</ele>
        <time>2012-04-09T13:25:51Z</time>
      </trkpt>
      <trkpt lat="44.77782" lon="5.39044">
        <ele>646</ele>
        <time>2012-04-09T13:25:52Z</time>
      </trkpt>
      <trkpt lat="44.77776" lon="5.39025">
        <ele>644</ele>
        <time>2012-04-09T13:25:54Z</time>
      </trkpt>
      <trkpt lat="44.77763" lon="5.38994">
        <ele>637</ele>
        <time>2012-04-09T13:25:59Z</time>
      </trkpt>
      <trkpt lat="44.77758" lon="5.38975">
        <ele>631</ele>
        <time>2012-04-09T13:26:01Z</time>
      </trkpt>
      <trkpt lat="44.77736" lon="5.38919">
        <ele>637</ele>
        <time>2012-04-09T13:26:06Z</time>
      </trkpt>
      <trkpt lat="44.77723" lon="5.38902">
        <ele>629</ele>
        <time>2012-04-09T13:26:09Z</time>
      </trkpt>
      <trkpt lat="44.77699" lon="5.38863">
        <ele>629</ele>
        <time>2012-04-09T13:26:15Z</time>
      </trkpt>
      <trkpt lat="44.7769" lon="5.38847">
        <ele>629</ele>
        <time>2012-04-09T13:26:18Z</time>
      </trkpt>
      <trkpt lat="44.77675" lon="5.3883">
        <ele>624</ele>
        <time>2012-04-09T13:26:23Z</time>
      </trkpt>
      <trkpt lat="44.77671" lon="5.38824">
        <ele>623</ele>
        <time>2012-04-09T13:26:24Z</time>
      </trkpt>
      <trkpt lat="44.77658" lon="5.38802">
        <ele>628</ele>
        <time>2012-04-09T13:26:29Z</time>
      </trkpt>
      <trkpt lat="44.77656" lon="5.38798">
        <ele>628</ele>
        <time>2012-04-09T13:26:30Z</time>
      </trkpt>
      <trkpt lat="44.77642" lon="5.38772">
        <ele>625</ele>
        <time>2012-04-09T13:26:34Z</time>
      </trkpt>
      <trkpt lat="44.77617" lon="5.38747">
        <ele>613</ele>
        <time>2012-04-09T13:26:38Z</time>
      </trkpt>
      <trkpt lat="44.77597" lon="5.38721">
        <ele>612</ele>
        <time>2012-04-09T13:26:41Z</time>
      </trkpt>
      <trkpt lat="44.77582" lon="5.38692">
        <ele>613</ele>
        <time>2012-04-09T13:26:44Z</time>
      </trkpt>
      <trkpt lat="44.77575" lon="5.38684">
        <ele>611</ele>
        <time>2012-04-09T13:26:45Z</time>
      </trkpt>
      <trkpt lat="44.77545" lon="5.38639">
        <ele>596</ele>
        <time>2012-04-09T13:26:50Z</time>
      </trkpt>
      <trkpt lat="44.77544" lon="5.38632">
        <ele>595</ele>
        <time>2012-04-09T13:26:53Z</time>
      </trkpt>
      <trkpt lat="44.77552" lon="5.38642">
        <ele>596</ele>
        <time>2012-04-09T13:26:55Z</time>
      </trkpt>
      <trkpt lat="44.77572" lon="5.38655">
        <ele>598</ele>
        <time>2012-04-09T13:26:58Z</time>
      </trkpt>
      <trkpt lat="44.77596" lon="5.38652">
        <ele>593</ele>
        <time>2012-04-09T13:27:01Z</time>
      </trkpt>
      <trkpt lat="44.77627" lon="5.38646">
        <ele>587</ele>
        <time>2012-04-09T13:27:05Z</time>
      </trkpt>
      <trkpt lat="44.77643" lon="5.38638">
        <ele>586</ele>
        <time>2012-04-09T13:27:08Z</time>
      </trkpt>
      <trkpt lat="44.77636" lon="5.38631">
        <ele>585</ele>
        <time>2012-04-09T13:27:12Z</time>
      </trkpt>
      <trkpt lat="44.77628" lon="5.38631">
        <ele>585</ele>
        <time>2012-04-09T13:27:13Z</time>
      </trkpt>
      <trkpt lat="44.77614" lon="5.38628">
        <ele>586</ele>
        <time>2012-04-09T13:27:15Z</time>
      </trkpt>
      <trkpt lat="44.77601" lon="5.38623">
        <ele>586</ele>
        <time>2012-04-09T13:27:17Z</time>
      </trkpt>
      <trkpt lat="44.7757" lon="5.38588">
        <ele>585</ele>
        <time>2012-04-09T13:27:22Z</time>
      </trkpt>
      <trkpt lat="44.77565" lon="5.38579">
        <ele>576</ele>
        <time>2012-04-09T13:27:23Z</time>
      </trkpt>
      <trkpt lat="44.77554" lon="5.38539">
        <ele>573</ele>
        <time>2012-04-09T13:27:27Z</time>
      </trkpt>
      <trkpt lat="44.77554" lon="5.38475">
        <ele>557</ele>
        <time>2012-04-09T13:27:32Z</time>
      </trkpt>
      <trkpt lat="44.77553" lon="5.38446">
        <ele>554</ele>
        <time>2012-04-09T13:27:35Z</time>
      </trkpt>
      <trkpt lat="44.77562" lon="5.38455">
        <ele>555</ele>
        <time>2012-04-09T13:27:39Z</time>
      </trkpt>
      <trkpt lat="44.77569" lon="5.38477">
        <ele>558</ele>
        <time>2012-04-09T13:27:42Z</time>
      </trkpt>
      <trkpt lat="44.77593" lon="5.38519">
        <ele>564</ele>
        <time>2012-04-09T13:27:47Z</time>
      </trkpt>
      <trkpt lat="44.7762" lon="5.38529">
        <ele>564</ele>
        <time>2012-04-09T13:27:51Z</time>
      </trkpt>
      <trkpt lat="44.77629" lon="5.3853">
        <ele>563</ele>
        <time>2012-04-09T13:27:54Z</time>
      </trkpt>
      <trkpt lat="44.7762" lon="5.38516">
        <ele>563</ele>
        <time>2012-04-09T13:27:59Z</time>
      </trkpt>
      <trkpt lat="44.77613" lon="5.38501">
        <ele>563</ele>
        <time>2012-04-09T13:28:02Z</time>
      </trkpt>
      <trkpt lat="44.776" lon="5.38463">
        <ele>554</ele>
        <time>2012-04-09T13:28:08Z</time>
      </trkpt>
      <trkpt lat="44.77598" lon="5.38457">
        <ele>553</ele>
        <time>2012-04-09T13:28:09Z</time>
      </trkpt>
      <trkpt lat="44.77599" lon="5.38423">
        <ele>550</ele>
        <time>2012-04-09T13:28:13Z</time>
      </trkpt>
      <trkpt lat="44.77595" lon="5.38392">
        <ele>548</ele>
        <time>2012-04-09T13:28:16Z</time>
      </trkpt>
      <trkpt lat="44.77575" lon="5.38375">
        <ele>541</ele>
        <time>2012-04-09T13:28:19Z</time>
      </trkpt>
      <trkpt lat="44.77559" lon="5.38345">
        <ele>538</ele>
        <time>2012-04-09T13:28:22Z</time>
      </trkpt>
      <trkpt lat="44.77536" lon="5.38325">
        <ele>531</ele>
        <time>2012-04-09T13:28:25Z</time>
      </trkpt>
      <trkpt lat="44.77527" lon="5.38322">
        <ele>530</ele>
        <time>2012-04-09T13:28:26Z</time>
      </trkpt>
      <trkpt lat="44.77493" lon="5.38314">
        <ele>521</ele>
        <time>2012-04-09T13:28:30Z</time>
      </trkpt>
      <trkpt lat="44.77457" lon="5.38307">
        <ele>517</ele>
        <time>2012-04-09T13:28:34Z</time>
      </trkpt>
      <trkpt lat="44.77421" lon="5.38311">
        <ele>516</ele>
        <time>2012-04-09T13:28:38Z</time>
      </trkpt>
      <trkpt lat="44.77395" lon="5.3833">
        <ele>512</ele>
        <time>2012-04-09T13:28:42Z</time>
      </trkpt>
      <trkpt lat="44.77381" lon="5.38351">
        <ele>519</ele>
        <time>2012-04-09T13:28:45Z</time>
      </trkpt>
      <trkpt lat="44.77365" lon="5.38345">
        <ele>517</ele>
        <time>2012-04-09T13:28:48Z</time>
      </trkpt>
      <trkpt lat="44.7733" lon="5.38339">
        <ele>511</ele>
        <time>2012-04-09T13:28:53Z</time>
      </trkpt>
      <trkpt lat="44.77322" lon="5.38338">
        <ele>511</ele>
        <time>2012-04-09T13:28:54Z</time>
      </trkpt>
      <trkpt lat="44.77294" lon="5.38334">
        <ele>512</ele>
        <time>2012-04-09T13:28:58Z</time>
      </trkpt>
      <trkpt lat="44.77274" lon="5.38322">
        <ele>504</ele>
        <time>2012-04-09T13:29:01Z</time>
      </trkpt>
      <trkpt lat="44.77247" lon="5.38321">
        <ele>503</ele>
        <time>2012-04-09T13:29:05Z</time>
      </trkpt>
      <trkpt lat="44.77217" lon="5.38331">
        <ele>501</ele>
        <time>2012-04-09T13:29:10Z</time>
      </trkpt>
      <trkpt lat="44.77174" lon="5.38342">
        <ele>507</ele>
        <time>2012-04-09T13:29:18Z</time>
      </trkpt>
      <trkpt lat="44.77145" lon="5.3835">
        <ele>507</ele>
        <time>2012-04-09T13:29:24Z</time>
      </trkpt>
      <trkpt lat="44.77118" lon="5.38354">
        <ele>507</ele>
        <time>2012-04-09T13:29:29Z</time>
      </trkpt>
      <trkpt lat="44.77089" lon="5.38354">
        <ele>505</ele>
        <time>2012-04-09T13:29:34Z</time>
      </trkpt>
      <trkpt lat="44.77079" lon="5.38344">
        <ele>504</ele>
        <time>2012-04-09T13:29:36Z</time>
      </trkpt>
      <trkpt lat="44.77066" lon="5.38322">
        <ele>497</ele>
        <time>2012-04-09T13:29:39Z</time>
      </trkpt>
      <trkpt lat="44.77057" lon="5.38305">
        <ele>496</ele>
        <time>2012-04-09T13:29:41Z</time>
      </trkpt>
      <trkpt lat="44.77035" lon="5.38276">
        <ele>494</ele>
        <time>2012-04-09T13:29:45Z</time>
      </trkpt>
      <trkpt lat="44.77026" lon="5.38264">
        <ele>493</ele>
        <time>2012-04-09T13:29:48Z</time>
      </trkpt>
      <trkpt lat="44.77014" lon="5.38258">
        <ele>492</ele>
        <time>2012-04-09T13:29:52Z</time>
      </trkpt>
      <trkpt lat="44.77006" lon="5.38259">
        <ele>491</ele>
        <time>2012-04-09T13:29:54Z</time>
      </trkpt>
      <trkpt lat="44.76972" lon="5.3825">
        <ele>492</ele>
        <time>2012-04-09T13:30:02Z</time>
      </trkpt>
      <trkpt lat="44.7695" lon="5.38235">
        <ele>487</ele>
        <time>2012-04-09T13:30:08Z</time>
      </trkpt>
      <trkpt lat="44.76923" lon="5.38217">
        <ele>486</ele>
        <time>2012-04-09T13:30:16Z</time>
      </trkpt>
      <trkpt lat="44.76895" lon="5.38205">
        <ele>484</ele>
        <time>2012-04-09T13:30:24Z</time>
      </trkpt>
      <trkpt lat="44.76862" lon="5.38185">
        <ele>484</ele>
        <time>2012-04-09T13:30:33Z</time>
      </trkpt>
      <trkpt lat="44.76838" lon="5.38168">
        <ele>484</ele>
        <time>2012-04-09T13:30:40Z</time>
      </trkpt>
      <trkpt lat="44.76811" lon="5.38145">
        <ele>481</ele>
        <time>2012-04-09T13:30:46Z</time>
      </trkpt>
      <trkpt lat="44.76781" lon="5.38125">
        <ele>480</ele>
        <time>2012-04-09T13:30:53Z</time>
      </trkpt>
      <trkpt lat="44.7676" lon="5.38115">
        <ele>480</ele>
        <time>2012-04-09T13:30:57Z</time>
      </trkpt>
      <trkpt lat="44.76743" lon="5.38096">
        <ele>479</ele>
        <time>2012-04-09T13:31:02Z</time>
      </trkpt>
      <trkpt lat="44.76744" lon="5.38096">
        <ele>479</ele>
        <time>2012-04-09T13:31:06Z</time>
      </trkpt>
      <trkpt lat="44.76744" lon="5.38097">
        <ele>479</ele>
        <time>2012-04-09T13:31:09Z</time>
      </trkpt>
      <trkpt lat="44.76738" lon="5.38094">
        <ele>479</ele>
        <time>2012-04-09T13:31:13Z</time>
      </trkpt>
      <trkpt lat="44.76718" lon="5.3807">
        <ele>480</ele>
        <time>2012-04-09T13:31:20Z</time>
      </trkpt>
      <trkpt lat="44.76699" lon="5.38046">
        <ele>480</ele>
        <time>2012-04-09T13:31:26Z</time>
      </trkpt>
      <trkpt lat="44.76692" lon="5.38026">
        <ele>481</ele>
        <time>2012-04-09T13:31:30Z</time>
      </trkpt>
      <trkpt lat="44.76683" lon="5.38003">
        <ele>483</ele>
        <time>2012-04-09T13:31:35Z</time>
      </trkpt>
      <trkpt lat="44.76678" lon="5.37994">
        <ele>483</ele>
        <time>2012-04-09T13:31:37Z</time>
      </trkpt>
      <trkpt lat="44.76663" lon="5.37976">
        <ele>484</ele>
        <time>2012-04-09T13:31:42Z</time>
      </trkpt>
      <trkpt lat="44.76651" lon="5.37959">
        <ele>483</ele>
        <time>2012-04-09T13:31:46Z</time>
      </trkpt>
      <trkpt lat="44.7664" lon="5.37945">
        <ele>483</ele>
        <time>2012-04-09T13:31:49Z</time>
      </trkpt>
      <trkpt lat="44.76621" lon="5.37926">
        <ele>483</ele>
        <time>2012-04-09T13:31:54Z</time>
      </trkpt>
      <trkpt lat="44.76611" lon="5.37911">
        <ele>482</ele>
        <time>2012-04-09T13:31:58Z</time>
      </trkpt>
      <trkpt lat="44.76604" lon="5.37905">
        <ele>482</ele>
        <time>2012-04-09T13:32:01Z</time>
      </trkpt>
      <trkpt lat="44.76596" lon="5.37894">
        <ele>482</ele>
        <time>2012-04-09T13:32:06Z</time>
      </trkpt>
      <trkpt lat="44.7658" lon="5.37881">
        <ele>486</ele>
        <time>2012-04-09T13:32:12Z</time>
      </trkpt>
      <trkpt lat="44.76566" lon="5.37873">
        <ele>487</ele>
        <time>2012-04-09T13:32:19Z</time>
      </trkpt>
      <trkpt lat="44.76559" lon="5.37871">
        <ele>487</ele>
        <time>2012-04-09T13:32:24Z</time>
      </trkpt>
      <trkpt lat="44.76549" lon="5.37863">
        <ele>487</ele>
        <time>2012-04-09T13:32:30Z</time>
      </trkpt>
      <trkpt lat="44.76538" lon="5.37851">
        <ele>488</ele>
        <time>2012-04-09T13:32:37Z</time>
      </trkpt>
      <trkpt lat="44.76525" lon="5.37839">
        <ele>489</ele>
        <time>2012-04-09T13:32:44Z</time>
      </trkpt>
      <trkpt lat="44.76516" lon="5.37832">
        <ele>491</ele>
        <time>2012-04-09T13:32:51Z</time>
      </trkpt>
      <trkpt lat="44.76512" lon="5.37827">
        <ele>492</ele>
        <time>2012-04-09T13:32:54Z</time>
      </trkpt>
      <trkpt lat="44.76518" lon="5.37809">
        <ele>490</ele>
        <time>2012-04-09T13:32:59Z</time>
      </trkpt>
      <trkpt lat="44.76522" lon="5.37801">
        <ele>490</ele>
        <time>2012-04-09T13:33:01Z</time>
      </trkpt>
      <trkpt lat="44.7652" lon="5.3779">
        <ele>490</ele>
        <time>2012-04-09T13:33:04Z</time>
      </trkpt>
      <trkpt lat="44.76518" lon="5.37787">
        <ele>490</ele>
        <time>2012-04-09T13:33:05Z</time>
      </trkpt>
      <trkpt lat="44.76512" lon="5.37766">
        <ele>491</ele>
        <time>2012-04-09T13:33:09Z</time>
      </trkpt>
      <trkpt lat="44.76504" lon="5.37734">
        <ele>489</ele>
        <time>2012-04-09T13:33:14Z</time>
      </trkpt>
      <trkpt lat="44.7649" lon="5.37709">
        <ele>498</ele>
        <time>2012-04-09T13:33:19Z</time>
      </trkpt>
      <trkpt lat="44.76474" lon="5.37672">
        <ele>496</ele>
        <time>2012-04-09T13:33:24Z</time>
      </trkpt>
      <trkpt lat="44.76465" lon="5.37635">
        <ele>492</ele>
        <time>2012-04-09T13:33:29Z</time>
      </trkpt>
      <trkpt lat="44.76461" lon="5.3762">
        <ele>492</ele>
        <time>2012-04-09T13:33:31Z</time>
      </trkpt>
      <trkpt lat="44.76448" lon="5.37584">
        <ele>492</ele>
        <time>2012-04-09T13:33:36Z</time>
      </trkpt>
      <trkpt lat="44.76435" lon="5.37553">
        <ele>488</ele>
        <time>2012-04-09T13:33:41Z</time>
      </trkpt>
      <trkpt lat="44.76423" lon="5.37525">
        <ele>487</ele>
        <time>2012-04-09T13:33:47Z</time>
      </trkpt>
      <trkpt lat="44.76412" lon="5.37519">
        <ele>491</ele>
        <time>2012-04-09T13:33:53Z</time>
      </trkpt>
      <trkpt lat="44.76397" lon="5.37525">
        <ele>491</ele>
        <time>2012-04-09T13:34:02Z</time>
      </trkpt>
      <trkpt lat="44.76386" lon="5.3753">
        <ele>492</ele>
        <time>2012-04-09T13:34:09Z</time>
      </trkpt>
      <trkpt lat="44.76376" lon="5.37537">
        <ele>492</ele>
        <time>2012-04-09T13:34:17Z</time>
      </trkpt>
      <trkpt lat="44.76365" lon="5.37541">
        <ele>492</ele>
        <time>2012-04-09T13:34:24Z</time>
      </trkpt>
      <trkpt lat="44.7635" lon="5.37542">
        <ele>492</ele>
        <time>2012-04-09T13:34:31Z</time>
      </trkpt>
      <trkpt lat="44.76335" lon="5.37543">
        <ele>492</ele>
        <time>2012-04-09T13:34:38Z</time>
      </trkpt>
      <trkpt lat="44.76323" lon="5.37541">
        <ele>488</ele>
        <time>2012-04-09T13:34:42Z</time>
      </trkpt>
      <trkpt lat="44.76312" lon="5.37541">
        <ele>488</ele>
        <time>2012-04-09T13:34:45Z</time>
      </trkpt>
      <trkpt lat="44.76302" lon="5.37541">
        <ele>487</ele>
        <time>2012-04-09T13:34:47Z</time>
      </trkpt>
      <trkpt lat="44.76291" lon="5.3754">
        <ele>486</ele>
        <time>2012-04-09T13:34:49Z</time>
      </trkpt>
      <trkpt lat="44.76258" lon="5.37545">
        <ele>485</ele>
        <time>2012-04-09T13:34:54Z</time>
      </trkpt>
      <trkpt lat="44.7624" lon="5.37558">
        <ele>479</ele>
        <time>2012-04-09T13:34:58Z</time>
      </trkpt>
      <trkpt lat="44.7623" lon="5.37571">
        <ele>479</ele>
        <time>2012-04-09T13:35:00Z</time>
      </trkpt>
      <trkpt lat="44.76197" lon="5.37604">
        <ele>483</ele>
        <time>2012-04-09T13:35:05Z</time>
      </trkpt>
      <trkpt lat="44.76176" lon="5.37614">
        <ele>483</ele>
        <time>2012-04-09T13:35:09Z</time>
      </trkpt>
      <trkpt lat="44.76168" lon="5.37615">
        <ele>483</ele>
        <time>2012-04-09T13:35:12Z</time>
      </trkpt>
      <trkpt lat="44.76151" lon="5.37613">
        <ele>480</ele>
        <time>2012-04-09T13:35:18Z</time>
      </trkpt>
      <trkpt lat="44.76146" lon="5.37611">
        <ele>480</ele>
        <time>2012-04-09T13:35:19Z</time>
      </trkpt>
      <trkpt lat="44.76123" lon="5.3761">
        <ele>479</ele>
        <time>2012-04-09T13:35:24Z</time>
      </trkpt>
      <trkpt lat="44.76106" lon="5.37615">
        <ele>479</ele>
        <time>2012-04-09T13:35:28Z</time>
      </trkpt>
      <trkpt lat="44.76075" lon="5.3763">
        <ele>480</ele>
        <time>2012-04-09T13:35:37Z</time>
      </trkpt>
      <trkpt lat="44.7606" lon="5.3764">
        <ele>481</ele>
        <time>2012-04-09T13:35:42Z</time>
      </trkpt>
      <trkpt lat="44.76043" lon="5.37647">
        <ele>481</ele>
        <time>2012-04-09T13:35:48Z</time>
      </trkpt>
      <trkpt lat="44.76025" lon="5.37648">
        <ele>481</ele>
        <time>2012-04-09T13:35:54Z</time>
      </trkpt>
      <trkpt lat="44.76006" lon="5.37656">
        <ele>482</ele>
        <time>2012-04-09T13:36:01Z</time>
      </trkpt>
      <trkpt lat="44.75988" lon="5.37667">
        <ele>481</ele>
        <time>2012-04-09T13:36:09Z</time>
      </trkpt>
      <trkpt lat="44.75975" lon="5.37675">
        <ele>481</ele>
        <time>2012-04-09T13:36:14Z</time>
      </trkpt>
      <trkpt lat="44.75958" lon="5.3768">
        <ele>480</ele>
        <time>2012-04-09T13:36:19Z</time>
      </trkpt>
      <trkpt lat="44.75939" lon="5.37679">
        <ele>478</ele>
        <time>2012-04-09T13:36:23Z</time>
      </trkpt>
      <trkpt lat="44.75922" lon="5.37677">
        <ele>477</ele>
        <time>2012-04-09T13:36:26Z</time>
      </trkpt>
      <trkpt lat="44.75901" lon="5.37656">
        <ele>474</ele>
        <time>2012-04-09T13:36:30Z</time>
      </trkpt>
      <trkpt lat="44.75869" lon="5.37596">
        <ele>472</ele>
        <time>2012-04-09T13:36:37Z</time>
      </trkpt>
      <trkpt lat="44.7583" lon="5.37541">
        <ele>470</ele>
        <time>2012-04-09T13:36:44Z</time>
      </trkpt>
      <trkpt lat="44.75795" lon="5.37499">
        <ele>469</ele>
        <time>2012-04-09T13:36:51Z</time>
      </trkpt>
      <trkpt lat="44.75765" lon="5.37474">
        <ele>469</ele>
        <time>2012-04-09T13:36:57Z</time>
      </trkpt>
      <trkpt lat="44.75743" lon="5.37457">
        <ele>468</ele>
        <time>2012-04-09T13:37:02Z</time>
      </trkpt>
      <trkpt lat="44.75714" lon="5.37438">
        <ele>468</ele>
        <time>2012-04-09T13:37:09Z</time>
      </trkpt>
      <trkpt lat="44.757" lon="5.37443">
        <ele>468</ele>
        <time>2012-04-09T13:37:13Z</time>
      </trkpt>
      <trkpt lat="44.75678" lon="5.37465">
        <ele>467</ele>
        <time>2012-04-09T13:37:21Z</time>
      </trkpt>
      <trkpt lat="44.75655" lon="5.37482">
        <ele>463</ele>
        <time>2012-04-09T13:37:27Z</time>
      </trkpt>
      <trkpt lat="44.75627" lon="5.37506">
        <ele>457</ele>
        <time>2012-04-09T13:37:33Z</time>
      </trkpt>
      <trkpt lat="44.756" lon="5.37513">
        <ele>455</ele>
        <time>2012-04-09T13:37:37Z</time>
      </trkpt>
      <trkpt lat="44.75592" lon="5.37512">
        <ele>455</ele>
        <time>2012-04-09T13:37:38Z</time>
      </trkpt>
      <trkpt lat="44.75558" lon="5.37502">
        <ele>443</ele>
        <time>2012-04-09T13:37:42Z</time>
      </trkpt>
      <trkpt lat="44.75515" lon="5.37481">
        <ele>439</ele>
        <time>2012-04-09T13:37:46Z</time>
      </trkpt>
      <trkpt lat="44.75482" lon="5.37464">
        <ele>428</ele>
        <time>2012-04-09T13:37:50Z</time>
      </trkpt>
      <trkpt lat="44.75471" lon="5.37458">
        <ele>428</ele>
        <time>2012-04-09T13:37:52Z</time>
      </trkpt>
      <trkpt lat="44.75456" lon="5.37446">
        <ele>427</ele>
        <time>2012-04-09T13:37:56Z</time>
      </trkpt>
      <trkpt lat="44.75414" lon="5.37419">
        <ele>423</ele>
        <time>2012-04-09T13:38:04Z</time>
      </trkpt>
      <trkpt lat="44.75409" lon="5.37416">
        <ele>424</ele>
        <time>2012-04-09T13:38:05Z</time>
      </trkpt>
      <trkpt lat="44.75405" lon="5.37414">
        <ele>423</ele>
        <time>2012-04-09T13:38:06Z</time>
      </trkpt>
      <trkpt lat="44.75382" lon="5.37404">
        <ele>422</ele>
        <time>2012-04-09T13:38:10Z</time>
      </trkpt>
      <trkpt lat="44.75365" lon="5.37393">
        <ele>421</ele>
        <time>2012-04-09T13:38:14Z</time>
      </trkpt>
      <trkpt lat="44.75344" lon="5.3738">
        <ele>420</ele>
        <time>2012-04-09T13:38:20Z</time>
      </trkpt>
      <trkpt lat="44.75331" lon="5.37369">
        <ele>416</ele>
        <time>2012-04-09T13:38:24Z</time>
      </trkpt>
      <trkpt lat="44.75319" lon="5.37378">
        <ele>415</ele>
        <time>2012-04-09T13:38:28Z</time>
      </trkpt>
      <trkpt lat="44.75308" lon="5.37376">
        <ele>415</ele>
        <time>2012-04-09T13:38:31Z</time>
      </trkpt>
      <trkpt lat="44.7529" lon="5.3736">
        <ele>415</ele>
        <time>2012-04-09T13:38:36Z</time>
      </trkpt>
      <trkpt lat="44.75269" lon="5.37346">
        <ele>414</ele>
        <time>2012-04-09T13:38:39Z</time>
      </trkpt>
      <trkpt lat="44.75252" lon="5.37332">
        <ele>413</ele>
        <time>2012-04-09T13:38:42Z</time>
      </trkpt>
      <trkpt lat="44.75229" lon="5.37315">
        <ele>412</ele>
        <time>2012-04-09T13:38:46Z</time>
      </trkpt>
      <trkpt lat="44.75212" lon="5.37306">
        <ele>412</ele>
        <time>2012-04-09T13:38:50Z</time>
      </trkpt>
      <trkpt lat="44.75203" lon="5.37307">
        <ele>411</ele>
        <time>2012-04-09T13:38:54Z</time>
      </trkpt>
      <trkpt lat="44.7519" lon="5.37309">
        <ele>410</ele>
        <time>2012-04-09T13:39:00Z</time>
      </trkpt>
      <trkpt lat="44.75185" lon="5.37314">
        <ele>410</ele>
        <time>2012-04-09T13:39:02Z</time>
      </trkpt>
      <trkpt lat="44.75177" lon="5.3732">
        <ele>409</ele>
        <time>2012-04-09T13:39:08Z</time>
      </trkpt>
      <trkpt lat="44.75172" lon="5.37324">
        <ele>408</ele>
        <time>2012-04-09T13:39:17Z</time>
      </trkpt>
      <trkpt lat="44.75158" lon="5.37328">
        <ele>406</ele>
        <time>2012-04-09T13:39:23Z</time>
      </trkpt>
      <trkpt lat="44.75145" lon="5.37334">
        <ele>406</ele>
        <time>2012-04-09T13:39:26Z</time>
      </trkpt>
      <trkpt lat="44.75122" lon="5.37342">
        <ele>406</ele>
        <time>2012-04-09T13:39:32Z</time>
      </trkpt>
      <trkpt lat="44.75117" lon="5.37334">
        <ele>406</ele>
        <time>2012-04-09T13:39:37Z</time>
      </trkpt>
      <trkpt lat="44.75117" lon="5.37334">
        <ele>406</ele>
        <time>2012-04-09T13:39:41Z</time>
      </trkpt>
    </trkseg>
  </trk>
</gpx>